<?xml version='1.0' encoding='UTF-8'?><gpx version="1.1" creator="JPX - https://github.com/jenetics/jpx" xmlns="http://www.topografix.com/GPX/1/1"><trk><trkseg><trkpt lat="43.0379183" lon="11.9295667"><ele>268.0</ele><time>2026-04-19T08:11:36.963Z</time></trkpt><trkpt lat="43.0378417" lon="11.929515"><ele>268.0</ele><time>2026-04-19T08:11:38.963Z</time></trkpt><trkpt lat="43.0377267" lon="11.9294717"><ele>268.0</ele><time>2026-04-19T08:11:39.963Z</time></trkpt><trkpt lat="43.0375783" lon="11.9294"><ele>268.0</ele><time>2026-04-19T08:11:40.962Z</time></trkpt><trkpt lat="43.0374083" lon="11.9293283"><ele>266.0</ele><time>2026-04-19T08:11:41.962Z</time></trkpt><trkpt lat="43.03724" lon="11.9292333"><ele>264.0</ele><time>2026-04-19T08:11:42.963Z</time></trkpt><trkpt lat="43.0370667" lon="11.9291333"><ele>262.0</ele><time>2026-04-19T08:11:43.963Z</time></trkpt><trkpt lat="43.0368867" lon="11.9290383"><ele>261.3333333333333</ele><time>2026-04-19T08:11:44.962Z</time></trkpt><trkpt lat="43.036695" lon="11.9289333"><ele>260.6666666666667</ele><time>2026-04-19T08:11:45.962Z</time></trkpt><trkpt lat="43.0365117" lon="11.9288333"><ele>260.0</ele><time>2026-04-19T08:11:46.963Z</time></trkpt><trkpt lat="43.03632" lon="11.92874"><ele>259.6666666666667</ele><time>2026-04-19T08:11:47.962Z</time></trkpt><trkpt lat="43.0361233" lon="11.9286417"><ele>259.3333333333333</ele><time>2026-04-19T08:11:48.963Z</time></trkpt><trkpt lat="43.0359317" lon="11.9285467"><ele>259.0</ele><time>2026-04-19T08:11:49.963Z</time></trkpt><trkpt lat="43.0357483" lon="11.9284567"><ele>259.3333333333333</ele><time>2026-04-19T08:11:50.963Z</time></trkpt><trkpt lat="43.0355717" lon="11.9283583"><ele>259.6666666666667</ele><time>2026-04-19T08:11:51.963Z</time></trkpt><trkpt lat="43.0353867" lon="11.9282617"><ele>260.0</ele><time>2026-04-19T08:11:52.963Z</time></trkpt><trkpt lat="43.0352017" lon="11.928165"><ele>260.0</ele><time>2026-04-19T08:11:53.962Z</time></trkpt><trkpt lat="43.0350233" lon="11.9280733"><ele>260.0</ele><time>2026-04-19T08:11:54.963Z</time></trkpt><trkpt lat="43.0348367" lon="11.9279817"><ele>260.0</ele><time>2026-04-19T08:11:55.962Z</time></trkpt><trkpt lat="43.0346533" lon="11.9278967"><ele>260.6666666666667</ele><time>2026-04-19T08:11:56.963Z</time></trkpt><trkpt lat="43.0344617" lon="11.9278017"><ele>261.3333333333333</ele><time>2026-04-19T08:11:57.963Z</time></trkpt><trkpt lat="43.0342683" lon="11.927725"><ele>262.0</ele><time>2026-04-19T08:11:58.963Z</time></trkpt><trkpt lat="43.0340967" lon="11.9276417"><ele>262.3333333333333</ele><time>2026-04-19T08:11:59.962Z</time></trkpt><trkpt lat="43.0339183" lon="11.9275667"><ele>262.6666666666667</ele><time>2026-04-19T08:12:00.963Z</time></trkpt><trkpt lat="43.03373" lon="11.9274917"><ele>263.0</ele><time>2026-04-19T08:12:01.963Z</time></trkpt><trkpt lat="43.033545" lon="11.9274233"><ele>263.0</ele><time>2026-04-19T08:12:02.962Z</time></trkpt><trkpt lat="43.0333767" lon="11.927365"><ele>263.0</ele><time>2026-04-19T08:12:03.963Z</time></trkpt><trkpt lat="43.0332167" lon="11.92733"><ele>263.0</ele><time>2026-04-19T08:12:04.963Z</time></trkpt><trkpt lat="43.0330533" lon="11.9272883"><ele>263.6666666666667</ele><time>2026-04-19T08:12:05.963Z</time></trkpt><trkpt lat="43.0328967" lon="11.92727"><ele>264.3333333333333</ele><time>2026-04-19T08:12:06.962Z</time></trkpt><trkpt lat="43.0327367" lon="11.9272617"><ele>265.0</ele><time>2026-04-19T08:12:07.963Z</time></trkpt><trkpt lat="43.0325833" lon="11.9272833"><ele>264.3333333333333</ele><time>2026-04-19T08:12:08.963Z</time></trkpt><trkpt lat="43.03244" lon="11.927325"><ele>263.6666666666667</ele><time>2026-04-19T08:12:09.963Z</time></trkpt><trkpt lat="43.032285" lon="11.9273933"><ele>263.0</ele><time>2026-04-19T08:12:10.962Z</time></trkpt><trkpt lat="43.0321333" lon="11.92749"><ele>265.0</ele><time>2026-04-19T08:12:11.963Z</time></trkpt><trkpt lat="43.031975" lon="11.9276"><ele>267.0</ele><time>2026-04-19T08:12:12.963Z</time></trkpt><trkpt lat="43.0318183" lon="11.9277083"><ele>269.0</ele><time>2026-04-19T08:12:13.962Z</time></trkpt><trkpt lat="43.031675" lon="11.9278067"><ele>268.25</ele><time>2026-04-19T08:12:14.963Z</time></trkpt><trkpt lat="43.031545" lon="11.9279017"><ele>267.5</ele><time>2026-04-19T08:12:15.963Z</time></trkpt><trkpt lat="43.0314233" lon="11.9280017"><ele>266.75</ele><time>2026-04-19T08:12:16.963Z</time></trkpt><trkpt lat="43.0312983" lon="11.9280933"><ele>266.0</ele><time>2026-04-19T08:12:17.963Z</time></trkpt><trkpt lat="43.0311867" lon="11.928175"><ele>266.0</ele><time>2026-04-19T08:12:18.963Z</time></trkpt><trkpt lat="43.0310867" lon="11.92826"><ele>266.0</ele><time>2026-04-19T08:12:19.962Z</time></trkpt><trkpt lat="43.0309933" lon="11.9283233"><ele>266.0</ele><time>2026-04-19T08:12:20.963Z</time></trkpt><trkpt lat="43.0309133" lon="11.9283717"><ele>266.0</ele><time>2026-04-19T08:12:21.962Z</time></trkpt><trkpt lat="43.03082" lon="11.9284317"><ele>266.0</ele><time>2026-04-19T08:12:22.962Z</time></trkpt><trkpt lat="43.0307183" lon="11.9285"><ele>266.75</ele><time>2026-04-19T08:12:23.963Z</time></trkpt><trkpt lat="43.0306017" lon="11.9285683"><ele>267.5</ele><time>2026-04-19T08:12:24.962Z</time></trkpt><trkpt lat="43.0304633" lon="11.92864"><ele>268.25</ele><time>2026-04-19T08:12:25.962Z</time></trkpt><trkpt lat="43.0303167" lon="11.928725"><ele>269.0</ele><time>2026-04-19T08:12:26.963Z</time></trkpt><trkpt lat="43.0301567" lon="11.928805"><ele>269.0</ele><time>2026-04-19T08:12:27.962Z</time></trkpt><trkpt lat="43.0299967" lon="11.9288883"><ele>269.0</ele><time>2026-04-19T08:12:28.963Z</time></trkpt><trkpt lat="43.0298417" lon="11.928975"><ele>269.0</ele><time>2026-04-19T08:12:29.962Z</time></trkpt><trkpt lat="43.0296917" lon="11.9290533"><ele>269.25</ele><time>2026-04-19T08:12:30.963Z</time></trkpt><trkpt lat="43.0295483" lon="11.9291267"><ele>269.5</ele><time>2026-04-19T08:12:31.963Z</time></trkpt><trkpt lat="43.02942" lon="11.929195"><ele>269.75</ele><time>2026-04-19T08:12:32.963Z</time></trkpt><trkpt lat="43.029305" lon="11.9292483"><ele>270.0</ele><time>2026-04-19T08:12:33.962Z</time></trkpt><trkpt lat="43.0292" lon="11.9293117"><ele>271.0</ele><time>2026-04-19T08:12:34.963Z</time></trkpt><trkpt lat="43.02911" lon="11.9293617"><ele>272.0</ele><time>2026-04-19T08:12:35.963Z</time></trkpt><trkpt lat="43.0290217" lon="11.9294067"><ele>273.0</ele><time>2026-04-19T08:12:36.962Z</time></trkpt><trkpt lat="43.0289433" lon="11.9294433"><ele>274.0</ele><time>2026-04-19T08:12:37.962Z</time></trkpt><trkpt lat="43.0288683" lon="11.9294783"><ele>275.0</ele><time>2026-04-19T08:12:38.962Z</time></trkpt><trkpt lat="43.0288" lon="11.929515"><ele>276.0</ele><time>2026-04-19T08:12:39.963Z</time></trkpt><trkpt lat="43.02874" lon="11.9295617"><ele>276.0</ele><time>2026-04-19T08:12:40.962Z</time></trkpt><trkpt lat="43.0286567" lon="11.9296"><ele>276.0</ele><time>2026-04-19T08:12:42.963Z</time></trkpt><trkpt lat="43.0285983" lon="11.9294583"><ele>276.0</ele><time>2026-04-19T08:12:45.962Z</time></trkpt><trkpt lat="43.02859" lon="11.9293467"><ele>276.0</ele><time>2026-04-19T08:12:46.962Z</time></trkpt><trkpt lat="43.02858" lon="11.9292317"><ele>276.0</ele><time>2026-04-19T08:12:47.963Z</time></trkpt><trkpt lat="43.0285617" lon="11.92913"><ele>275.8333333333333</ele><time>2026-04-19T08:12:48.962Z</time></trkpt><trkpt lat="43.028545" lon="11.929025"><ele>275.6666666666667</ele><time>2026-04-19T08:12:49.963Z</time></trkpt><trkpt lat="43.0285233" lon="11.9289217"><ele>275.5</ele><time>2026-04-19T08:12:50.962Z</time></trkpt><trkpt lat="43.0284967" lon="11.9288317"><ele>275.33333333333337</ele><time>2026-04-19T08:12:51.963Z</time></trkpt><trkpt lat="43.028465" lon="11.9287567"><ele>275.1666666666667</ele><time>2026-04-19T08:12:52.963Z</time></trkpt><trkpt lat="43.0284183" lon="11.9286767"><ele>275.0</ele><time>2026-04-19T08:12:54.963Z</time></trkpt><trkpt lat="43.0283183" lon="11.9286617"><ele>275.0</ele><time>2026-04-19T08:12:56.963Z</time></trkpt><trkpt lat="43.02823" lon="11.9286717"><ele>275.0</ele><time>2026-04-19T08:12:57.962Z</time></trkpt><trkpt lat="43.028115" lon="11.9287083"><ele>275.0</ele><time>2026-04-19T08:12:58.963Z</time></trkpt><trkpt lat="43.0279717" lon="11.92876"><ele>275.0</ele><time>2026-04-19T08:12:59.962Z</time></trkpt><trkpt lat="43.0278317" lon="11.9288083"><ele>275.0</ele><time>2026-04-19T08:13:00.963Z</time></trkpt><trkpt lat="43.0277083" lon="11.9288333"><ele>275.0</ele><time>2026-04-19T08:13:01.962Z</time></trkpt><trkpt lat="43.0276" lon="11.9288183"><ele>275.0</ele><time>2026-04-19T08:13:02.963Z</time></trkpt><trkpt lat="43.027495" lon="11.92877"><ele>275.0</ele><time>2026-04-19T08:13:03.963Z</time></trkpt><trkpt lat="43.0274067" lon="11.9286967"><ele>275.0</ele><time>2026-04-19T08:13:04.963Z</time></trkpt><trkpt lat="43.0273317" lon="11.9285967"><ele>275.25</ele><time>2026-04-19T08:13:05.963Z</time></trkpt><trkpt lat="43.0272667" lon="11.928465"><ele>275.5</ele><time>2026-04-19T08:13:06.963Z</time></trkpt><trkpt lat="43.0272133" lon="11.9283067"><ele>275.75</ele><time>2026-04-19T08:13:07.963Z</time></trkpt><trkpt lat="43.0271817" lon="11.928125"><ele>276.0</ele><time>2026-04-19T08:13:08.962Z</time></trkpt><trkpt lat="43.0271533" lon="11.9279417"><ele>275.25</ele><time>2026-04-19T08:13:09.962Z</time></trkpt><trkpt lat="43.0271267" lon="11.927735"><ele>274.5</ele><time>2026-04-19T08:13:10.961Z</time></trkpt><trkpt lat="43.0271" lon="11.92755"><ele>273.75</ele><time>2026-04-19T08:13:11.961Z</time></trkpt><trkpt lat="43.0270717" lon="11.927385"><ele>273.0</ele><time>2026-04-19T08:13:12.961Z</time></trkpt><trkpt lat="43.027045" lon="11.927245"><ele>273.0</ele><time>2026-04-19T08:13:13.961Z</time></trkpt><trkpt lat="43.0270033" lon="11.927115"><ele>273.0</ele><time>2026-04-19T08:13:14.962Z</time></trkpt><trkpt lat="43.026945" lon="11.9270017"><ele>273.0</ele><time>2026-04-19T08:13:15.962Z</time></trkpt><trkpt lat="43.0268783" lon="11.9268983"><ele>273.0</ele><time>2026-04-19T08:13:16.961Z</time></trkpt><trkpt lat="43.0267917" lon="11.9268017"><ele>273.0</ele><time>2026-04-19T08:13:17.961Z</time></trkpt><trkpt lat="43.026695" lon="11.9267067"><ele>277.4</ele><time>2026-04-19T08:13:18.961Z</time></trkpt><trkpt lat="43.0265933" lon="11.92662"><ele>281.8</ele><time>2026-04-19T08:13:19.961Z</time></trkpt><trkpt lat="43.0265017" lon="11.92654"><ele>286.2</ele><time>2026-04-19T08:13:20.962Z</time></trkpt><trkpt lat="43.0264217" lon="11.9264633"><ele>290.6</ele><time>2026-04-19T08:13:21.961Z</time></trkpt><trkpt lat="43.02636" lon="11.9263817"><ele>295.0</ele><time>2026-04-19T08:13:22.961Z</time></trkpt><trkpt lat="43.026295" lon="11.9263"><ele>295.0</ele><time>2026-04-19T08:13:23.961Z</time></trkpt><trkpt lat="43.0262367" lon="11.9262183"><ele>295.0</ele><time>2026-04-19T08:13:24.961Z</time></trkpt><trkpt lat="43.0261667" lon="11.9261233"><ele>295.0</ele><time>2026-04-19T08:13:26.962Z</time></trkpt><trkpt lat="43.0262083" lon="11.9260183"><ele>295.0</ele><time>2026-04-19T08:13:44.961Z</time></trkpt><trkpt lat="43.0262667" lon="11.9259067"><ele>295.0</ele><time>2026-04-19T08:13:46.962Z</time></trkpt><trkpt lat="43.0262983" lon="11.9257733"><ele>293.2</ele><time>2026-04-19T08:13:48.962Z</time></trkpt><trkpt lat="43.0262833" lon="11.9256417"><ele>291.4</ele><time>2026-04-19T08:13:50.962Z</time></trkpt><trkpt lat="43.0262333" lon="11.9255267"><ele>289.6</ele><time>2026-04-19T08:13:52.962Z</time></trkpt><trkpt lat="43.0261533" lon="11.9254383"><ele>287.8</ele><time>2026-04-19T08:13:54.962Z</time></trkpt><trkpt lat="43.0260683" lon="11.9253717"><ele>286.0</ele><time>2026-04-19T08:13:56.961Z</time></trkpt><trkpt lat="43.0259833" lon="11.92528"><ele>286.0</ele><time>2026-04-19T08:13:58.962Z</time></trkpt><trkpt lat="43.0259" lon="11.9251583"><ele>286.0</ele><time>2026-04-19T08:14:00.962Z</time></trkpt><trkpt lat="43.0258567" lon="11.925095"><ele>286.0</ele><time>2026-04-19T08:14:01.962Z</time></trkpt><trkpt lat="43.0258017" lon="11.9250167"><ele>286.0</ele><time>2026-04-19T08:14:02.962Z</time></trkpt><trkpt lat="43.0257367" lon="11.9249283"><ele>286.0</ele><time>2026-04-19T08:14:03.962Z</time></trkpt><trkpt lat="43.025675" lon="11.9248383"><ele>286.0</ele><time>2026-04-19T08:14:04.961Z</time></trkpt><trkpt lat="43.0256217" lon="11.92476"><ele>284.0</ele><time>2026-04-19T08:14:05.961Z</time></trkpt><trkpt lat="43.0255983" lon="11.9246333"><ele>282.0</ele><time>2026-04-19T08:14:07.961Z</time></trkpt><trkpt lat="43.0255983" lon="11.9245067"><ele>280.0</ele><time>2026-04-19T08:14:09.961Z</time></trkpt><trkpt lat="43.0256033" lon="11.9244117"><ele>278.0</ele><time>2026-04-19T08:14:10.961Z</time></trkpt><trkpt lat="43.0256167" lon="11.9242983"><ele>276.0</ele><time>2026-04-19T08:14:11.962Z</time></trkpt><trkpt lat="43.0256367" lon="11.92419"><ele>274.0</ele><time>2026-04-19T08:14:12.961Z</time></trkpt><trkpt lat="43.0256533" lon="11.9240933"><ele>273.3333333333333</ele><time>2026-04-19T08:14:13.961Z</time></trkpt><trkpt lat="43.025655" lon="11.9239383"><ele>272.66666666666663</ele><time>2026-04-19T08:14:15.962Z</time></trkpt><trkpt lat="43.0256083" lon="11.9238017"><ele>272.0</ele><time>2026-04-19T08:14:17.961Z</time></trkpt><trkpt lat="43.0255633" lon="11.9237383"><ele>271.3333333333333</ele><time>2026-04-19T08:14:18.962Z</time></trkpt><trkpt lat="43.0255033" lon="11.9236783"><ele>270.6666666666667</ele><time>2026-04-19T08:14:19.961Z</time></trkpt><trkpt lat="43.0254283" lon="11.92363"><ele>270.0</ele><time>2026-04-19T08:14:20.962Z</time></trkpt><trkpt lat="43.0253367" lon="11.9236117"><ele>270.0</ele><time>2026-04-19T08:14:21.961Z</time></trkpt><trkpt lat="43.02524" lon="11.9236"><ele>270.0</ele><time>2026-04-19T08:14:22.962Z</time></trkpt><trkpt lat="43.0251383" lon="11.9235833"><ele>270.0</ele><time>2026-04-19T08:14:23.961Z</time></trkpt><trkpt lat="43.02502" lon="11.9235633"><ele>270.0</ele><time>2026-04-19T08:14:24.961Z</time></trkpt><trkpt lat="43.0249183" lon="11.9235333"><ele>270.0</ele><time>2026-04-19T08:14:25.962Z</time></trkpt><trkpt lat="43.0248467" lon="11.9235167"><ele>270.4</ele><time>2026-04-19T08:14:26.961Z</time></trkpt><trkpt lat="43.0247417" lon="11.9234733"><ele>270.8</ele><time>2026-04-19T08:14:28.962Z</time></trkpt><trkpt lat="43.0246817" lon="11.9234433"><ele>271.2</ele><time>2026-04-19T08:14:29.961Z</time></trkpt><trkpt lat="43.0246" lon="11.9234"><ele>271.6</ele><time>2026-04-19T08:14:30.962Z</time></trkpt><trkpt lat="43.0245117" lon="11.9233383"><ele>272.0</ele><time>2026-04-19T08:14:31.961Z</time></trkpt><trkpt lat="43.02441" lon="11.9232717"><ele>272.2</ele><time>2026-04-19T08:14:32.961Z</time></trkpt><trkpt lat="43.0243017" lon="11.9232017"><ele>272.4</ele><time>2026-04-19T08:14:33.962Z</time></trkpt><trkpt lat="43.024195" lon="11.9231383"><ele>272.6</ele><time>2026-04-19T08:14:34.961Z</time></trkpt><trkpt lat="43.0241017" lon="11.9230833"><ele>272.8</ele><time>2026-04-19T08:14:35.962Z</time></trkpt><trkpt lat="43.02402" lon="11.9230567"><ele>273.0</ele><time>2026-04-19T08:14:36.962Z</time></trkpt><trkpt lat="43.02392" lon="11.9230033"><ele>273.0</ele><time>2026-04-19T08:14:38.962Z</time></trkpt><trkpt lat="43.02383" lon="11.9230233"><ele>273.0</ele><time>2026-04-19T08:14:40.961Z</time></trkpt><trkpt lat="43.02377" lon="11.9230683"><ele>273.0</ele><time>2026-04-19T08:14:41.962Z</time></trkpt><trkpt lat="43.023685" lon="11.92313"><ele>273.0</ele><time>2026-04-19T08:14:42.961Z</time></trkpt><trkpt lat="43.0235717" lon="11.9232167"><ele>273.0</ele><time>2026-04-19T08:14:43.961Z</time></trkpt><trkpt lat="43.02342" lon="11.9233117"><ele>275.0</ele><time>2026-04-19T08:14:44.962Z</time></trkpt><trkpt lat="43.0232467" lon="11.9234267"><ele>277.0</ele><time>2026-04-19T08:14:45.961Z</time></trkpt><trkpt lat="43.0230583" lon="11.9235533"><ele>279.0</ele><time>2026-04-19T08:14:46.961Z</time></trkpt><trkpt lat="43.02286" lon="11.92368"><ele>279.0</ele><time>2026-04-19T08:14:47.962Z</time></trkpt><trkpt lat="43.0226717" lon="11.92381"><ele>279.0</ele><time>2026-04-19T08:14:48.961Z</time></trkpt><trkpt lat="43.0224917" lon="11.9239333"><ele>279.0</ele><time>2026-04-19T08:14:49.962Z</time></trkpt><trkpt lat="43.0222983" lon="11.9240567"><ele>279.0</ele><time>2026-04-19T08:14:50.962Z</time></trkpt><trkpt lat="43.0221217" lon="11.924165"><ele>279.0</ele><time>2026-04-19T08:14:51.962Z</time></trkpt><trkpt lat="43.02195" lon="11.92427"><ele>279.0</ele><time>2026-04-19T08:14:52.961Z</time></trkpt><trkpt lat="43.0218033" lon="11.9243783"><ele>279.6666666666667</ele><time>2026-04-19T08:14:53.962Z</time></trkpt><trkpt lat="43.0216533" lon="11.9244833"><ele>280.33333333333337</ele><time>2026-04-19T08:14:54.962Z</time></trkpt><trkpt lat="43.0215167" lon="11.9245817"><ele>281.0</ele><time>2026-04-19T08:14:55.962Z</time></trkpt><trkpt lat="43.0213883" lon="11.9246783"><ele>281.0</ele><time>2026-04-19T08:14:56.962Z</time></trkpt><trkpt lat="43.0212767" lon="11.9247717"><ele>281.0</ele><time>2026-04-19T08:14:57.962Z</time></trkpt><trkpt lat="43.0211933" lon="11.9248817"><ele>281.0</ele><time>2026-04-19T08:14:58.961Z</time></trkpt><trkpt lat="43.0211233" lon="11.9249817"><ele>281.0</ele><time>2026-04-19T08:14:59.961Z</time></trkpt><trkpt lat="43.021065" lon="11.9251067"><ele>283.25</ele><time>2026-04-19T08:15:00.962Z</time></trkpt><trkpt lat="43.0210233" lon="11.9252633"><ele>285.5</ele><time>2026-04-19T08:15:01.962Z</time></trkpt><trkpt lat="43.0209867" lon="11.9254517"><ele>287.75</ele><time>2026-04-19T08:15:02.961Z</time></trkpt><trkpt lat="43.0209467" lon="11.925665"><ele>290.0</ele><time>2026-04-19T08:15:03.961Z</time></trkpt><trkpt lat="43.020905" lon="11.925895"><ele>290.0</ele><time>2026-04-19T08:15:04.961Z</time></trkpt><trkpt lat="43.020855" lon="11.9261183"><ele>290.0</ele><time>2026-04-19T08:15:05.961Z</time></trkpt><trkpt lat="43.0207933" lon="11.9263517"><ele>290.0</ele><time>2026-04-19T08:15:06.962Z</time></trkpt><trkpt lat="43.0207317" lon="11.926605"><ele>292.33333333333337</ele><time>2026-04-19T08:15:07.962Z</time></trkpt><trkpt lat="43.0206833" lon="11.926845"><ele>294.6666666666667</ele><time>2026-04-19T08:15:08.962Z</time></trkpt><trkpt lat="43.020655" lon="11.9270767"><ele>297.0</ele><time>2026-04-19T08:15:09.962Z</time></trkpt><trkpt lat="43.0206467" lon="11.9272733"><ele>297.0</ele><time>2026-04-19T08:15:10.962Z</time></trkpt><trkpt lat="43.0206533" lon="11.9274883"><ele>297.0</ele><time>2026-04-19T08:15:11.961Z</time></trkpt><trkpt lat="43.020655" lon="11.9277317"><ele>297.0</ele><time>2026-04-19T08:15:12.962Z</time></trkpt><trkpt lat="43.0206683" lon="11.92799"><ele>297.0</ele><time>2026-04-19T08:15:13.961Z</time></trkpt><trkpt lat="43.0206783" lon="11.9282583"><ele>297.0</ele><time>2026-04-19T08:15:14.962Z</time></trkpt><trkpt lat="43.0207033" lon="11.9285183"><ele>297.0</ele><time>2026-04-19T08:15:15.961Z</time></trkpt><trkpt lat="43.0207217" lon="11.9287583"><ele>297.0</ele><time>2026-04-19T08:15:16.962Z</time></trkpt><trkpt lat="43.0207333" lon="11.9289867"><ele>297.0</ele><time>2026-04-19T08:15:17.961Z</time></trkpt><trkpt lat="43.020755" lon="11.9291867"><ele>297.0</ele><time>2026-04-19T08:15:18.961Z</time></trkpt><trkpt lat="43.02077" lon="11.92939"><ele>298.25</ele><time>2026-04-19T08:15:19.962Z</time></trkpt><trkpt lat="43.02078" lon="11.9295683"><ele>299.5</ele><time>2026-04-19T08:15:20.961Z</time></trkpt><trkpt lat="43.0207883" lon="11.9297333"><ele>300.75</ele><time>2026-04-19T08:15:21.962Z</time></trkpt><trkpt lat="43.0207917" lon="11.9298833"><ele>302.0</ele><time>2026-04-19T08:15:22.961Z</time></trkpt><trkpt lat="43.0208" lon="11.9300433"><ele>304.33333333333337</ele><time>2026-04-19T08:15:23.961Z</time></trkpt><trkpt lat="43.0207983" lon="11.9302383"><ele>306.6666666666667</ele><time>2026-04-19T08:15:24.962Z</time></trkpt><trkpt lat="43.0208033" lon="11.9304533"><ele>309.0</ele><time>2026-04-19T08:15:25.961Z</time></trkpt><trkpt lat="43.0208067" lon="11.9306917"><ele>312.0</ele><time>2026-04-19T08:15:26.962Z</time></trkpt><trkpt lat="43.020805" lon="11.93095"><ele>315.0</ele><time>2026-04-19T08:15:27.961Z</time></trkpt><trkpt lat="43.0208033" lon="11.9312017"><ele>318.0</ele><time>2026-04-19T08:15:28.961Z</time></trkpt><trkpt lat="43.0207917" lon="11.93143"><ele>318.0</ele><time>2026-04-19T08:15:29.962Z</time></trkpt><trkpt lat="43.020785" lon="11.9316383"><ele>318.0</ele><time>2026-04-19T08:15:30.962Z</time></trkpt><trkpt lat="43.0207817" lon="11.9318133"><ele>318.0</ele><time>2026-04-19T08:15:31.962Z</time></trkpt><trkpt lat="43.020775" lon="11.93197"><ele>318.0</ele><time>2026-04-19T08:15:32.962Z</time></trkpt><trkpt lat="43.02076" lon="11.93211"><ele>319.6</ele><time>2026-04-19T08:15:33.961Z</time></trkpt><trkpt lat="43.0207367" lon="11.9322333"><ele>321.20000000000005</ele><time>2026-04-19T08:15:34.961Z</time></trkpt><trkpt lat="43.0206983" lon="11.9323533"><ele>322.8</ele><time>2026-04-19T08:15:35.962Z</time></trkpt><trkpt lat="43.0206467" lon="11.93246"><ele>324.40000000000003</ele><time>2026-04-19T08:15:36.961Z</time></trkpt><trkpt lat="43.0205783" lon="11.9325617"><ele>326.0</ele><time>2026-04-19T08:15:37.962Z</time></trkpt><trkpt lat="43.0205083" lon="11.93265"><ele>326.0</ele><time>2026-04-19T08:15:38.961Z</time></trkpt><trkpt lat="43.020435" lon="11.9327267"><ele>326.0</ele><time>2026-04-19T08:15:39.962Z</time></trkpt><trkpt lat="43.0203667" lon="11.9327967"><ele>326.0</ele><time>2026-04-19T08:15:40.961Z</time></trkpt><trkpt lat="43.0203133" lon="11.9328617"><ele>326.0</ele><time>2026-04-19T08:15:41.962Z</time></trkpt><trkpt lat="43.0202267" lon="11.932955"><ele>326.0</ele><time>2026-04-19T08:15:43.961Z</time></trkpt><trkpt lat="43.0201333" lon="11.93303"><ele>326.0</ele><time>2026-04-19T08:15:45.961Z</time></trkpt><trkpt lat="43.0200683" lon="11.9330833"><ele>326.0</ele><time>2026-04-19T08:15:46.961Z</time></trkpt><trkpt lat="43.0199817" lon="11.9331217"><ele>326.0</ele><time>2026-04-19T08:15:47.962Z</time></trkpt><trkpt lat="43.0198733" lon="11.9331517"><ele>326.0</ele><time>2026-04-19T08:15:48.962Z</time></trkpt><trkpt lat="43.0197467" lon="11.9331717"><ele>326.0</ele><time>2026-04-19T08:15:49.962Z</time></trkpt><trkpt lat="43.0196367" lon="11.933205"><ele>327.83333333333337</ele><time>2026-04-19T08:15:50.962Z</time></trkpt><trkpt lat="43.01955" lon="11.9332333"><ele>329.6666666666667</ele><time>2026-04-19T08:15:51.962Z</time></trkpt><trkpt lat="43.0194833" lon="11.9332883"><ele>331.5</ele><time>2026-04-19T08:15:52.962Z</time></trkpt><trkpt lat="43.0194217" lon="11.9333683"><ele>333.3333333333333</ele><time>2026-04-19T08:15:53.962Z</time></trkpt><trkpt lat="43.0193783" lon="11.9334767"><ele>335.16666666666663</ele><time>2026-04-19T08:15:54.962Z</time></trkpt><trkpt lat="43.0193533" lon="11.933615"><ele>337.0</ele><time>2026-04-19T08:15:55.962Z</time></trkpt><trkpt lat="43.0193417" lon="11.9337817"><ele>336.5</ele><time>2026-04-19T08:15:56.961Z</time></trkpt><trkpt lat="43.019365" lon="11.933965"><ele>336.0</ele><time>2026-04-19T08:15:57.962Z</time></trkpt><trkpt lat="43.01939" lon="11.9341333"><ele>335.5</ele><time>2026-04-19T08:15:58.962Z</time></trkpt><trkpt lat="43.0194117" lon="11.934305"><ele>335.0</ele><time>2026-04-19T08:15:59.962Z</time></trkpt><trkpt lat="43.0194283" lon="11.9344633"><ele>335.0</ele><time>2026-04-19T08:16:00.962Z</time></trkpt><trkpt lat="43.0194267" lon="11.9346083"><ele>335.0</ele><time>2026-04-19T08:16:01.962Z</time></trkpt><trkpt lat="43.0194333" lon="11.9347517"><ele>335.0</ele><time>2026-04-19T08:16:02.961Z</time></trkpt><trkpt lat="43.0194467" lon="11.934895"><ele>335.0</ele><time>2026-04-19T08:16:03.962Z</time></trkpt><trkpt lat="43.019445" lon="11.9350467"><ele>335.0</ele><time>2026-04-19T08:16:04.961Z</time></trkpt><trkpt lat="43.0194383" lon="11.935225"><ele>334.4</ele><time>2026-04-19T08:16:05.962Z</time></trkpt><trkpt lat="43.01944" lon="11.9353983"><ele>333.8</ele><time>2026-04-19T08:16:06.962Z</time></trkpt><trkpt lat="43.0194367" lon="11.9355633"><ele>333.20000000000005</ele><time>2026-04-19T08:16:07.961Z</time></trkpt><trkpt lat="43.0194483" lon="11.93571"><ele>332.6</ele><time>2026-04-19T08:16:08.962Z</time></trkpt><trkpt lat="43.0194533" lon="11.9358233"><ele>332.0</ele><time>2026-04-19T08:16:09.962Z</time></trkpt><trkpt lat="43.0194583" lon="11.93596"><ele>331.5</ele><time>2026-04-19T08:16:11.962Z</time></trkpt><trkpt lat="43.01937" lon="11.93606"><ele>331.0</ele><time>2026-04-19T08:16:14.962Z</time></trkpt><trkpt lat="43.0192767" lon="11.93612"><ele>330.5</ele><time>2026-04-19T08:16:15.962Z</time></trkpt><trkpt lat="43.0191517" lon="11.9361917"><ele>330.0</ele><time>2026-04-19T08:16:16.961Z</time></trkpt><trkpt lat="43.0189833" lon="11.9362833"><ele>332.3333333333333</ele><time>2026-04-19T08:16:17.962Z</time></trkpt><trkpt lat="43.0188117" lon="11.93638"><ele>334.66666666666663</ele><time>2026-04-19T08:16:18.962Z</time></trkpt><trkpt lat="43.01865" lon="11.93647"><ele>337.0</ele><time>2026-04-19T08:16:19.962Z</time></trkpt><trkpt lat="43.0185217" lon="11.9365433"><ele>337.0</ele><time>2026-04-19T08:16:20.962Z</time></trkpt><trkpt lat="43.0184183" lon="11.9366233"><ele>337.0</ele><time>2026-04-19T08:16:21.961Z</time></trkpt><trkpt lat="43.0183433" lon="11.9367317"><ele>337.0</ele><time>2026-04-19T08:16:22.961Z</time></trkpt><trkpt lat="43.0182867" lon="11.9368633"><ele>337.0</ele><time>2026-04-19T08:16:23.961Z</time></trkpt><trkpt lat="43.018265" lon="11.9370417"><ele>335.0</ele><time>2026-04-19T08:16:24.962Z</time></trkpt><trkpt lat="43.0182617" lon="11.9372767"><ele>333.0</ele><time>2026-04-19T08:16:25.961Z</time></trkpt><trkpt lat="43.01825" lon="11.9375133"><ele>331.0</ele><time>2026-04-19T08:16:26.962Z</time></trkpt><trkpt lat="43.0182367" lon="11.9377383"><ele>329.0</ele><time>2026-04-19T08:16:27.962Z</time></trkpt><trkpt lat="43.01821" lon="11.9379383"><ele>327.0</ele><time>2026-04-19T08:16:28.961Z</time></trkpt><trkpt lat="43.0181867" lon="11.9381217"><ele>325.0</ele><time>2026-04-19T08:16:29.961Z</time></trkpt><trkpt lat="43.0181583" lon="11.9382817"><ele>323.0</ele><time>2026-04-19T08:16:30.961Z</time></trkpt><trkpt lat="43.0181283" lon="11.9383983"><ele>323.0</ele><time>2026-04-19T08:16:31.961Z</time></trkpt><trkpt lat="43.0180683" lon="11.9385167"><ele>323.0</ele><time>2026-04-19T08:16:33.962Z</time></trkpt><trkpt lat="43.018035" lon="11.9387283"><ele>323.0</ele><time>2026-04-19T08:16:35.962Z</time></trkpt><trkpt lat="43.018" lon="11.9389017"><ele>323.0</ele><time>2026-04-19T08:16:36.961Z</time></trkpt><trkpt lat="43.0179517" lon="11.9390817"><ele>324.75</ele><time>2026-04-19T08:16:37.962Z</time></trkpt><trkpt lat="43.0178933" lon="11.9392383"><ele>326.5</ele><time>2026-04-19T08:16:38.961Z</time></trkpt><trkpt lat="43.0178083" lon="11.93938"><ele>328.25</ele><time>2026-04-19T08:16:39.962Z</time></trkpt><trkpt lat="43.0177033" lon="11.9395133"><ele>330.0</ele><time>2026-04-19T08:16:40.962Z</time></trkpt><trkpt lat="43.0175733" lon="11.93965"><ele>327.0</ele><time>2026-04-19T08:16:41.962Z</time></trkpt><trkpt lat="43.0173983" lon="11.9398067"><ele>324.0</ele><time>2026-04-19T08:16:42.961Z</time></trkpt><trkpt lat="43.01722" lon="11.9399933"><ele>321.0</ele><time>2026-04-19T08:16:43.962Z</time></trkpt><trkpt lat="43.0170283" lon="11.9401933"><ele>331.0</ele><time>2026-04-19T08:16:44.961Z</time></trkpt><trkpt lat="43.016835" lon="11.94038"><ele>341.0</ele><time>2026-04-19T08:16:45.962Z</time></trkpt><trkpt lat="43.0166533" lon="11.9405583"><ele>342.33333333333337</ele><time>2026-04-19T08:16:46.961Z</time></trkpt><trkpt lat="43.016495" lon="11.9407083"><ele>343.6666666666667</ele><time>2026-04-19T08:16:47.961Z</time></trkpt><trkpt lat="43.0163533" lon="11.9408383"><ele>345.0</ele><time>2026-04-19T08:16:48.961Z</time></trkpt><trkpt lat="43.0162383" lon="11.940965"><ele>345.0</ele><time>2026-04-19T08:16:49.962Z</time></trkpt><trkpt lat="43.01614" lon="11.941095"><ele>345.0</ele><time>2026-04-19T08:16:50.961Z</time></trkpt><trkpt lat="43.0160583" lon="11.9412367"><ele>345.0</ele><time>2026-04-19T08:16:51.962Z</time></trkpt><trkpt lat="43.0159917" lon="11.941385"><ele>345.0</ele><time>2026-04-19T08:16:52.961Z</time></trkpt><trkpt lat="43.0159433" lon="11.9415567"><ele>348.0</ele><time>2026-04-19T08:16:53.962Z</time></trkpt><trkpt lat="43.0158867" lon="11.9417583"><ele>351.0</ele><time>2026-04-19T08:16:54.962Z</time></trkpt><trkpt lat="43.0158183" lon="11.9419817"><ele>354.0</ele><time>2026-04-19T08:16:55.961Z</time></trkpt><trkpt lat="43.0157667" lon="11.9421983"><ele>347.3333333333333</ele><time>2026-04-19T08:16:56.961Z</time></trkpt><trkpt lat="43.0157233" lon="11.9423933"><ele>340.66666666666663</ele><time>2026-04-19T08:16:57.961Z</time></trkpt><trkpt lat="43.0156917" lon="11.9425967"><ele>334.0</ele><time>2026-04-19T08:16:58.961Z</time></trkpt><trkpt lat="43.0156517" lon="11.9427967"><ele>333.75</ele><time>2026-04-19T08:16:59.961Z</time></trkpt><trkpt lat="43.01562" lon="11.9429817"><ele>333.5</ele><time>2026-04-19T08:17:00.962Z</time></trkpt><trkpt lat="43.0155983" lon="11.94314"><ele>333.25</ele><time>2026-04-19T08:17:01.961Z</time></trkpt><trkpt lat="43.015585" lon="11.94328"><ele>333.0</ele><time>2026-04-19T08:17:02.961Z</time></trkpt><trkpt lat="43.0155717" lon="11.94341"><ele>333.0</ele><time>2026-04-19T08:17:03.961Z</time></trkpt><trkpt lat="43.01557" lon="11.943535"><ele>333.0</ele><time>2026-04-19T08:17:04.961Z</time></trkpt><trkpt lat="43.015565" lon="11.94367"><ele>333.0</ele><time>2026-04-19T08:17:05.962Z</time></trkpt><trkpt lat="43.015555" lon="11.9438183"><ele>333.0</ele><time>2026-04-19T08:17:06.962Z</time></trkpt><trkpt lat="43.0155533" lon="11.9439417"><ele>333.0</ele><time>2026-04-19T08:17:07.961Z</time></trkpt><trkpt lat="43.0155433" lon="11.94405"><ele>333.0</ele><time>2026-04-19T08:17:08.962Z</time></trkpt><trkpt lat="43.0155383" lon="11.94415"><ele>333.0</ele><time>2026-04-19T08:17:09.961Z</time></trkpt><trkpt lat="43.0155417" lon="11.9442433"><ele>333.0</ele><time>2026-04-19T08:17:10.962Z</time></trkpt><trkpt lat="43.0155533" lon="11.9443283"><ele>333.0</ele><time>2026-04-19T08:17:11.962Z</time></trkpt><trkpt lat="43.01556" lon="11.9444683"><ele>333.0</ele><time>2026-04-19T08:17:13.962Z</time></trkpt><trkpt lat="43.0155717" lon="11.9445533"><ele>333.0</ele><time>2026-04-19T08:17:15.962Z</time></trkpt><trkpt lat="43.0155583" lon="11.9446383"><ele>333.0</ele><time>2026-04-19T08:17:47.961Z</time></trkpt><trkpt lat="43.0155767" lon="11.9447933"><ele>334.75</ele><time>2026-04-19T08:17:49.962Z</time></trkpt><trkpt lat="43.0155867" lon="11.9449033"><ele>336.5</ele><time>2026-04-19T08:17:50.962Z</time></trkpt><trkpt lat="43.0155867" lon="11.945035"><ele>338.25</ele><time>2026-04-19T08:17:51.962Z</time></trkpt><trkpt lat="43.0155717" lon="11.945205"><ele>340.0</ele><time>2026-04-19T08:17:52.961Z</time></trkpt><trkpt lat="43.0155633" lon="11.9454383"><ele>342.66666666666663</ele><time>2026-04-19T08:17:53.961Z</time></trkpt><trkpt lat="43.01556" lon="11.9457083"><ele>345.3333333333333</ele><time>2026-04-19T08:17:54.962Z</time></trkpt><trkpt lat="43.015555" lon="11.9459417"><ele>348.0</ele><time>2026-04-19T08:17:55.961Z</time></trkpt><trkpt lat="43.01555" lon="11.9461283"><ele>350.59999999999997</ele><time>2026-04-19T08:17:56.962Z</time></trkpt><trkpt lat="43.0155317" lon="11.9462717"><ele>353.2</ele><time>2026-04-19T08:17:57.961Z</time></trkpt><trkpt lat="43.015495" lon="11.9463817"><ele>355.8</ele><time>2026-04-19T08:17:58.962Z</time></trkpt><trkpt lat="43.01543" lon="11.946485"><ele>358.4</ele><time>2026-04-19T08:17:59.962Z</time></trkpt><trkpt lat="43.0153433" lon="11.9465783"><ele>361.0</ele><time>2026-04-19T08:18:00.961Z</time></trkpt><trkpt lat="43.015255" lon="11.9466717"><ele>363.0</ele><time>2026-04-19T08:18:01.962Z</time></trkpt><trkpt lat="43.015175" lon="11.94676"><ele>365.0</ele><time>2026-04-19T08:18:02.962Z</time></trkpt><trkpt lat="43.0150867" lon="11.9468383"><ele>367.0</ele><time>2026-04-19T08:18:03.962Z</time></trkpt><trkpt lat="43.015" lon="11.9469233"><ele>369.0</ele><time>2026-04-19T08:18:04.962Z</time></trkpt><trkpt lat="43.0149217" lon="11.947005"><ele>371.0</ele><time>2026-04-19T08:18:05.962Z</time></trkpt><trkpt lat="43.0148633" lon="11.947105"><ele>366.5</ele><time>2026-04-19T08:18:06.962Z</time></trkpt><trkpt lat="43.0148133" lon="11.9472117"><ele>362.0</ele><time>2026-04-19T08:18:07.962Z</time></trkpt><trkpt lat="43.01481" lon="11.9473217"><ele>357.5</ele><time>2026-04-19T08:18:08.961Z</time></trkpt><trkpt lat="43.0148067" lon="11.9474333"><ele>353.0</ele><time>2026-04-19T08:18:09.962Z</time></trkpt><trkpt lat="43.01483" lon="11.9475383"><ele>348.5</ele><time>2026-04-19T08:18:10.962Z</time></trkpt><trkpt lat="43.0148583" lon="11.947635"><ele>344.0</ele><time>2026-04-19T08:18:11.961Z</time></trkpt><trkpt lat="43.01489" lon="11.9477217"><ele>343.6</ele><time>2026-04-19T08:18:12.962Z</time></trkpt><trkpt lat="43.0149267" lon="11.9478183"><ele>343.2</ele><time>2026-04-19T08:18:13.961Z</time></trkpt><trkpt lat="43.014965" lon="11.9479433"><ele>342.8</ele><time>2026-04-19T08:18:14.961Z</time></trkpt><trkpt lat="43.0149917" lon="11.9480967"><ele>342.40000000000003</ele><time>2026-04-19T08:18:15.961Z</time></trkpt><trkpt lat="43.0149983" lon="11.9482783"><ele>342.0</ele><time>2026-04-19T08:18:16.962Z</time></trkpt><trkpt lat="43.0149967" lon="11.9484983"><ele>341.0</ele><time>2026-04-19T08:18:17.961Z</time></trkpt><trkpt lat="43.014985" lon="11.9487383"><ele>340.0</ele><time>2026-04-19T08:18:18.962Z</time></trkpt><trkpt lat="43.01497" lon="11.9489583"><ele>339.0</ele><time>2026-04-19T08:18:19.962Z</time></trkpt><trkpt lat="43.0149617" lon="11.9491683"><ele>340.5</ele><time>2026-04-19T08:18:20.962Z</time></trkpt><trkpt lat="43.0149283" lon="11.9493533"><ele>342.0</ele><time>2026-04-19T08:18:21.961Z</time></trkpt><trkpt lat="43.0148783" lon="11.94954"><ele>343.5</ele><time>2026-04-19T08:18:22.962Z</time></trkpt><trkpt lat="43.01481" lon="11.9497167"><ele>345.0</ele><time>2026-04-19T08:18:23.961Z</time></trkpt><trkpt lat="43.0147167" lon="11.9498967"><ele>347.3333333333333</ele><time>2026-04-19T08:18:24.961Z</time></trkpt><trkpt lat="43.0146067" lon="11.9500767"><ele>349.66666666666663</ele><time>2026-04-19T08:18:25.961Z</time></trkpt><trkpt lat="43.0145067" lon="11.950255"><ele>352.0</ele><time>2026-04-19T08:18:26.962Z</time></trkpt><trkpt lat="43.0144217" lon="11.95039"><ele>352.0</ele><time>2026-04-19T08:18:27.961Z</time></trkpt><trkpt lat="43.0143583" lon="11.9505167"><ele>352.0</ele><time>2026-04-19T08:18:28.962Z</time></trkpt><trkpt lat="43.0142967" lon="11.9506533"><ele>352.0</ele><time>2026-04-19T08:18:29.962Z</time></trkpt><trkpt lat="43.0142517" lon="11.9507767"><ele>352.0</ele><time>2026-04-19T08:18:30.961Z</time></trkpt><trkpt lat="43.0142183" lon="11.9509083"><ele>352.0</ele><time>2026-04-19T08:18:31.962Z</time></trkpt><trkpt lat="43.014205" lon="11.9510617"><ele>351.20000000000005</ele><time>2026-04-19T08:18:32.962Z</time></trkpt><trkpt lat="43.014205" lon="11.95122"><ele>350.4</ele><time>2026-04-19T08:18:33.962Z</time></trkpt><trkpt lat="43.014205" lon="11.9513617"><ele>349.6</ele><time>2026-04-19T08:18:34.961Z</time></trkpt><trkpt lat="43.0142217" lon="11.951505"><ele>348.79999999999995</ele><time>2026-04-19T08:18:35.962Z</time></trkpt><trkpt lat="43.014265" lon="11.9516367"><ele>348.0</ele><time>2026-04-19T08:18:36.962Z</time></trkpt><trkpt lat="43.0143233" lon="11.951745"><ele>343.4</ele><time>2026-04-19T08:18:37.961Z</time></trkpt><trkpt lat="43.0144033" lon="11.9518317"><ele>338.79999999999995</ele><time>2026-04-19T08:18:38.962Z</time></trkpt><trkpt lat="43.0144983" lon="11.9519117"><ele>334.2</ele><time>2026-04-19T08:18:39.962Z</time></trkpt><trkpt lat="43.0146017" lon="11.9519733"><ele>329.6</ele><time>2026-04-19T08:18:40.961Z</time></trkpt><trkpt lat="43.0147167" lon="11.9520217"><ele>325.0</ele><time>2026-04-19T08:18:41.961Z</time></trkpt><trkpt lat="43.0148433" lon="11.9520783"><ele>325.0</ele><time>2026-04-19T08:18:42.962Z</time></trkpt><trkpt lat="43.0149667" lon="11.9521317"><ele>325.0</ele><time>2026-04-19T08:18:43.962Z</time></trkpt><trkpt lat="43.0150917" lon="11.9522233"><ele>325.0</ele><time>2026-04-19T08:18:44.962Z</time></trkpt><trkpt lat="43.01522" lon="11.9523267"><ele>325.0</ele><time>2026-04-19T08:18:45.962Z</time></trkpt><trkpt lat="43.015345" lon="11.952435"><ele>322.25</ele><time>2026-04-19T08:18:46.962Z</time></trkpt><trkpt lat="43.0154617" lon="11.952535"><ele>319.5</ele><time>2026-04-19T08:18:47.961Z</time></trkpt><trkpt lat="43.0155767" lon="11.9526233"><ele>316.75</ele><time>2026-04-19T08:18:48.961Z</time></trkpt><trkpt lat="43.0157033" lon="11.95271"><ele>314.0</ele><time>2026-04-19T08:18:49.962Z</time></trkpt><trkpt lat="43.01582" lon="11.9528117"><ele>318.75</ele><time>2026-04-19T08:18:50.961Z</time></trkpt><trkpt lat="43.015945" lon="11.95292"><ele>323.5</ele><time>2026-04-19T08:18:51.961Z</time></trkpt><trkpt lat="43.0160667" lon="11.95303"><ele>328.25</ele><time>2026-04-19T08:18:52.961Z</time></trkpt><trkpt lat="43.0161817" lon="11.9531333"><ele>333.0</ele><time>2026-04-19T08:18:53.962Z</time></trkpt><trkpt lat="43.016295" lon="11.953225"><ele>333.0</ele><time>2026-04-19T08:18:54.961Z</time></trkpt><trkpt lat="43.016415" lon="11.95327"><ele>333.0</ele><time>2026-04-19T08:18:55.961Z</time></trkpt><trkpt lat="43.016545" lon="11.9533133"><ele>333.0</ele><time>2026-04-19T08:18:56.962Z</time></trkpt><trkpt lat="43.016695" lon="11.9533533"><ele>333.0</ele><time>2026-04-19T08:18:57.962Z</time></trkpt><trkpt lat="43.0168467" lon="11.953385"><ele>333.2</ele><time>2026-04-19T08:18:58.961Z</time></trkpt><trkpt lat="43.0169867" lon="11.9534183"><ele>333.4</ele><time>2026-04-19T08:18:59.962Z</time></trkpt><trkpt lat="43.017105" lon="11.95346"><ele>333.59999999999997</ele><time>2026-04-19T08:19:00.961Z</time></trkpt><trkpt lat="43.0172" lon="11.9535033"><ele>333.79999999999995</ele><time>2026-04-19T08:19:01.961Z</time></trkpt><trkpt lat="43.0172633" lon="11.953525"><ele>334.0</ele><time>2026-04-19T08:19:02.961Z</time></trkpt><trkpt lat="43.0173133" lon="11.9535783"><ele>334.0</ele><time>2026-04-19T08:19:04.962Z</time></trkpt><trkpt lat="43.0172683" lon="11.9536567"><ele>334.0</ele><time>2026-04-19T08:19:07.962Z</time></trkpt><trkpt lat="43.0172067" lon="11.953685"><ele>334.0</ele><time>2026-04-19T08:19:08.962Z</time></trkpt><trkpt lat="43.017125" lon="11.9537217"><ele>334.0</ele><time>2026-04-19T08:19:09.961Z</time></trkpt><trkpt lat="43.0170167" lon="11.953775"><ele>334.0</ele><time>2026-04-19T08:19:10.962Z</time></trkpt><trkpt lat="43.0168833" lon="11.9538467"><ele>334.0</ele><time>2026-04-19T08:19:11.962Z</time></trkpt><trkpt lat="43.0167533" lon="11.9539233"><ele>334.0</ele><time>2026-04-19T08:19:12.962Z</time></trkpt><trkpt lat="43.0166383" lon="11.95398"><ele>334.0</ele><time>2026-04-19T08:19:13.962Z</time></trkpt><trkpt lat="43.0165367" lon="11.9540233"><ele>334.0</ele><time>2026-04-19T08:19:14.962Z</time></trkpt><trkpt lat="43.01645" lon="11.9540617"><ele>333.4</ele><time>2026-04-19T08:19:15.962Z</time></trkpt><trkpt lat="43.0163717" lon="11.9540917"><ele>332.79999999999995</ele><time>2026-04-19T08:19:16.961Z</time></trkpt><trkpt lat="43.0162983" lon="11.9541217"><ele>332.20000000000005</ele><time>2026-04-19T08:19:17.962Z</time></trkpt><trkpt lat="43.0162167" lon="11.9541883"><ele>331.6</ele><time>2026-04-19T08:19:18.961Z</time></trkpt><trkpt lat="43.0161217" lon="11.9542667"><ele>331.0</ele><time>2026-04-19T08:19:19.962Z</time></trkpt><trkpt lat="43.0160367" lon="11.9543433"><ele>331.0</ele><time>2026-04-19T08:19:20.961Z</time></trkpt><trkpt lat="43.0159667" lon="11.9544217"><ele>331.0</ele><time>2026-04-19T08:19:21.961Z</time></trkpt><trkpt lat="43.0159117" lon="11.954505"><ele>331.0</ele><time>2026-04-19T08:19:22.961Z</time></trkpt><trkpt lat="43.0158567" lon="11.95459"><ele>331.0</ele><time>2026-04-19T08:19:23.962Z</time></trkpt><trkpt lat="43.015795" lon="11.9546883"><ele>331.0</ele><time>2026-04-19T08:19:24.962Z</time></trkpt><trkpt lat="43.01573" lon="11.9548317"><ele>326.0</ele><time>2026-04-19T08:19:25.961Z</time></trkpt><trkpt lat="43.01568" lon="11.955"><ele>321.0</ele><time>2026-04-19T08:19:26.961Z</time></trkpt><trkpt lat="43.0156367" lon="11.955165"><ele>316.0</ele><time>2026-04-19T08:19:27.962Z</time></trkpt><trkpt lat="43.01561" lon="11.9552983"><ele>311.0</ele><time>2026-04-19T08:19:28.961Z</time></trkpt><trkpt lat="43.0156" lon="11.9554033"><ele>306.0</ele><time>2026-04-19T08:19:29.962Z</time></trkpt><trkpt lat="43.0156233" lon="11.955575"><ele>306.0</ele><time>2026-04-19T08:19:31.962Z</time></trkpt><trkpt lat="43.015655" lon="11.955675"><ele>306.0</ele><time>2026-04-19T08:19:32.961Z</time></trkpt><trkpt lat="43.0157083" lon="11.955795"><ele>306.0</ele><time>2026-04-19T08:19:33.961Z</time></trkpt><trkpt lat="43.0157767" lon="11.9559417"><ele>306.0</ele><time>2026-04-19T08:19:34.962Z</time></trkpt><trkpt lat="43.015835" lon="11.9561033"><ele>306.0</ele><time>2026-04-19T08:19:35.961Z</time></trkpt><trkpt lat="43.0158833" lon="11.956285"><ele>307.75</ele><time>2026-04-19T08:19:36.961Z</time></trkpt><trkpt lat="43.0159267" lon="11.9564733"><ele>309.5</ele><time>2026-04-19T08:19:37.961Z</time></trkpt><trkpt lat="43.0159617" lon="11.956655"><ele>311.25</ele><time>2026-04-19T08:19:38.961Z</time></trkpt><trkpt lat="43.0159933" lon="11.9567867"><ele>313.0</ele><time>2026-04-19T08:19:39.961Z</time></trkpt><trkpt lat="43.0160317" lon="11.9568833"><ele>313.0</ele><time>2026-04-19T08:19:40.962Z</time></trkpt><trkpt lat="43.0160833" lon="11.956985"><ele>313.0</ele><time>2026-04-19T08:19:41.962Z</time></trkpt><trkpt lat="43.016145" lon="11.9571033"><ele>313.0</ele><time>2026-04-19T08:19:42.961Z</time></trkpt><trkpt lat="43.0162283" lon="11.95725"><ele>313.0</ele><time>2026-04-19T08:19:43.962Z</time></trkpt><trkpt lat="43.0163267" lon="11.9574117"><ele>315.25</ele><time>2026-04-19T08:19:44.962Z</time></trkpt><trkpt lat="43.0164217" lon="11.9575717"><ele>317.5</ele><time>2026-04-19T08:19:45.962Z</time></trkpt><trkpt lat="43.0165117" lon="11.9577133"><ele>319.75</ele><time>2026-04-19T08:19:46.961Z</time></trkpt><trkpt lat="43.0165917" lon="11.95784"><ele>322.0</ele><time>2026-04-19T08:19:47.961Z</time></trkpt><trkpt lat="43.0166617" lon="11.957945"><ele>322.0</ele><time>2026-04-19T08:19:48.961Z</time></trkpt><trkpt lat="43.0167283" lon="11.9580417"><ele>322.0</ele><time>2026-04-19T08:19:49.96Z</time></trkpt><trkpt lat="43.0167967" lon="11.95814"><ele>322.0</ele><time>2026-04-19T08:19:50.961Z</time></trkpt><trkpt lat="43.0168617" lon="11.95823"><ele>322.0</ele><time>2026-04-19T08:19:51.961Z</time></trkpt><trkpt lat="43.0169167" lon="11.9582967"><ele>322.0</ele><time>2026-04-19T08:19:52.96Z</time></trkpt><trkpt lat="43.0169717" lon="11.9583483"><ele>322.0</ele><time>2026-04-19T08:19:53.96Z</time></trkpt><trkpt lat="43.01703" lon="11.9583867"><ele>322.6</ele><time>2026-04-19T08:19:54.961Z</time></trkpt><trkpt lat="43.0171117" lon="11.958415"><ele>323.20000000000005</ele><time>2026-04-19T08:19:55.96Z</time></trkpt><trkpt lat="43.0172067" lon="11.9584367"><ele>323.8</ele><time>2026-04-19T08:19:56.961Z</time></trkpt><trkpt lat="43.0172983" lon="11.9584617"><ele>324.4</ele><time>2026-04-19T08:19:57.961Z</time></trkpt><trkpt lat="43.0173967" lon="11.9585017"><ele>325.0</ele><time>2026-04-19T08:19:58.96Z</time></trkpt><trkpt lat="43.01751" lon="11.95856"><ele>325.0</ele><time>2026-04-19T08:19:59.96Z</time></trkpt><trkpt lat="43.0176267" lon="11.9586133"><ele>325.0</ele><time>2026-04-19T08:20:00.961Z</time></trkpt><trkpt lat="43.0177517" lon="11.9586433"><ele>325.0</ele><time>2026-04-19T08:20:01.961Z</time></trkpt><trkpt lat="43.017865" lon="11.9586467"><ele>325.0</ele><time>2026-04-19T08:20:02.96Z</time></trkpt><trkpt lat="43.01795" lon="11.9586683"><ele>325.0</ele><time>2026-04-19T08:20:03.961Z</time></trkpt><trkpt lat="43.0180133" lon="11.958705"><ele>325.0</ele><time>2026-04-19T08:20:04.96Z</time></trkpt><trkpt lat="43.0181017" lon="11.9588333"><ele>325.0</ele><time>2026-04-19T08:20:06.961Z</time></trkpt><trkpt lat="43.0181483" lon="11.9589367"><ele>325.0</ele><time>2026-04-19T08:20:07.961Z</time></trkpt><trkpt lat="43.018225" lon="11.9590667"><ele>325.0</ele><time>2026-04-19T08:20:08.96Z</time></trkpt><trkpt lat="43.018315" lon="11.9591867"><ele>323.5</ele><time>2026-04-19T08:20:09.961Z</time></trkpt><trkpt lat="43.0184" lon="11.9593017"><ele>322.0</ele><time>2026-04-19T08:20:10.96Z</time></trkpt><trkpt lat="43.0184817" lon="11.9594167"><ele>320.5</ele><time>2026-04-19T08:20:11.96Z</time></trkpt><trkpt lat="43.018545" lon="11.9595283"><ele>319.0</ele><time>2026-04-19T08:20:12.961Z</time></trkpt><trkpt lat="43.0186" lon="11.9596633"><ele>319.0</ele><time>2026-04-19T08:20:13.96Z</time></trkpt><trkpt lat="43.01866" lon="11.9598283"><ele>319.0</ele><time>2026-04-19T08:20:14.961Z</time></trkpt><trkpt lat="43.018725" lon="11.960015"><ele>319.0</ele><time>2026-04-19T08:20:15.96Z</time></trkpt><trkpt lat="43.0187783" lon="11.9601883"><ele>319.0</ele><time>2026-04-19T08:20:16.96Z</time></trkpt><trkpt lat="43.018825" lon="11.96033"><ele>318.2</ele><time>2026-04-19T08:20:17.96Z</time></trkpt><trkpt lat="43.018865" lon="11.9604433"><ele>317.4</ele><time>2026-04-19T08:20:18.961Z</time></trkpt><trkpt lat="43.0188883" lon="11.960525"><ele>316.6</ele><time>2026-04-19T08:20:19.961Z</time></trkpt><trkpt lat="43.0188817" lon="11.9606433"><ele>315.8</ele><time>2026-04-19T08:20:21.961Z</time></trkpt><trkpt lat="43.0187883" lon="11.9607533"><ele>315.0</ele><time>2026-04-19T08:20:23.961Z</time></trkpt><trkpt lat="43.0187" lon="11.9608233"><ele>313.25</ele><time>2026-04-19T08:20:24.961Z</time></trkpt><trkpt lat="43.0185883" lon="11.9609267"><ele>311.5</ele><time>2026-04-19T08:20:25.961Z</time></trkpt><trkpt lat="43.0184733" lon="11.9610317"><ele>309.75</ele><time>2026-04-19T08:20:26.961Z</time></trkpt><trkpt lat="43.0183667" lon="11.9611333"><ele>308.0</ele><time>2026-04-19T08:20:27.96Z</time></trkpt><trkpt lat="43.0182733" lon="11.9612217"><ele>305.8</ele><time>2026-04-19T08:20:28.961Z</time></trkpt><trkpt lat="43.0181983" lon="11.9613117"><ele>303.6</ele><time>2026-04-19T08:20:29.96Z</time></trkpt><trkpt lat="43.0181517" lon="11.9614083"><ele>301.4</ele><time>2026-04-19T08:20:30.961Z</time></trkpt><trkpt lat="43.0181133" lon="11.9615217"><ele>299.2</ele><time>2026-04-19T08:20:31.96Z</time></trkpt><trkpt lat="43.0180883" lon="11.9616417"><ele>297.0</ele><time>2026-04-19T08:20:32.961Z</time></trkpt><trkpt lat="43.01807" lon="11.9617833"><ele>296.4</ele><time>2026-04-19T08:20:33.96Z</time></trkpt><trkpt lat="43.0180567" lon="11.9619333"><ele>295.79999999999995</ele><time>2026-04-19T08:20:34.961Z</time></trkpt><trkpt lat="43.0180567" lon="11.9620667"><ele>295.2</ele><time>2026-04-19T08:20:35.96Z</time></trkpt><trkpt lat="43.0180717" lon="11.962205"><ele>294.59999999999997</ele><time>2026-04-19T08:20:36.96Z</time></trkpt><trkpt lat="43.0180983" lon="11.96235"><ele>294.0</ele><time>2026-04-19T08:20:37.96Z</time></trkpt><trkpt lat="43.0181233" lon="11.9624667"><ele>292.6666666666667</ele><time>2026-04-19T08:20:38.961Z</time></trkpt><trkpt lat="43.0181433" lon="11.96257"><ele>291.3333333333333</ele><time>2026-04-19T08:20:39.96Z</time></trkpt><trkpt lat="43.01815" lon="11.9626583"><ele>290.0</ele><time>2026-04-19T08:20:40.961Z</time></trkpt><trkpt lat="43.0181133" lon="11.9628017"><ele>288.66666666666663</ele><time>2026-04-19T08:20:42.96Z</time></trkpt><trkpt lat="43.0180633" lon="11.96286"><ele>287.3333333333333</ele><time>2026-04-19T08:20:43.96Z</time></trkpt><trkpt lat="43.0179967" lon="11.9629083"><ele>286.0</ele><time>2026-04-19T08:20:44.961Z</time></trkpt><trkpt lat="43.0179" lon="11.96294"><ele>286.0</ele><time>2026-04-19T08:20:45.961Z</time></trkpt><trkpt lat="43.0177967" lon="11.96296"><ele>286.0</ele><time>2026-04-19T08:20:46.96Z</time></trkpt><trkpt lat="43.0176983" lon="11.9629783"><ele>286.0</ele><time>2026-04-19T08:20:47.961Z</time></trkpt><trkpt lat="43.0176217" lon="11.96297"><ele>286.0</ele><time>2026-04-19T08:20:48.96Z</time></trkpt><trkpt lat="43.0175483" lon="11.9629533"><ele>286.0</ele><time>2026-04-19T08:20:49.96Z</time></trkpt><trkpt lat="43.017465" lon="11.9629217"><ele>286.0</ele><time>2026-04-19T08:20:50.961Z</time></trkpt><trkpt lat="43.0173833" lon="11.9628917"><ele>284.5</ele><time>2026-04-19T08:20:51.961Z</time></trkpt><trkpt lat="43.017305" lon="11.9628683"><ele>283.0</ele><time>2026-04-19T08:20:52.961Z</time></trkpt><trkpt lat="43.0172433" lon="11.962845"><ele>281.5</ele><time>2026-04-19T08:20:53.961Z</time></trkpt><trkpt lat="43.017155" lon="11.9628617"><ele>280.0</ele><time>2026-04-19T08:20:55.96Z</time></trkpt><trkpt lat="43.0171033" lon="11.9629783"><ele>278.5</ele><time>2026-04-19T08:20:57.96Z</time></trkpt><trkpt lat="43.0170833" lon="11.963075"><ele>277.0</ele><time>2026-04-19T08:20:58.961Z</time></trkpt><trkpt lat="43.01706" lon="11.9631783"><ele>277.0</ele><time>2026-04-19T08:20:59.961Z</time></trkpt><trkpt lat="43.0170433" lon="11.963265"><ele>277.0</ele><time>2026-04-19T08:21:00.961Z</time></trkpt><trkpt lat="43.0170517" lon="11.9633783"><ele>277.0</ele><time>2026-04-19T08:21:02.96Z</time></trkpt><trkpt lat="43.0171067" lon="11.9634617"><ele>277.0</ele><time>2026-04-19T08:21:04.961Z</time></trkpt><trkpt lat="43.017165" lon="11.9635133"><ele>277.0</ele><time>2026-04-19T08:21:05.96Z</time></trkpt><trkpt lat="43.01724" lon="11.9635633"><ele>277.0</ele><time>2026-04-19T08:21:06.96Z</time></trkpt><trkpt lat="43.017325" lon="11.96362"><ele>275.16666666666663</ele><time>2026-04-19T08:21:07.961Z</time></trkpt><trkpt lat="43.0174033" lon="11.9636717"><ele>273.3333333333333</ele><time>2026-04-19T08:21:08.961Z</time></trkpt><trkpt lat="43.0174967" lon="11.9637317"><ele>271.5</ele><time>2026-04-19T08:21:09.961Z</time></trkpt><trkpt lat="43.0175933" lon="11.9637933"><ele>269.6666666666667</ele><time>2026-04-19T08:21:10.961Z</time></trkpt><trkpt lat="43.0176733" lon="11.9638333"><ele>267.83333333333337</ele><time>2026-04-19T08:21:11.961Z</time></trkpt><trkpt lat="43.017735" lon="11.9638683"><ele>266.0</ele><time>2026-04-19T08:21:12.961Z</time></trkpt><trkpt lat="43.0177967" lon="11.9638967"><ele>266.0</ele><time>2026-04-19T08:21:13.96Z</time></trkpt><trkpt lat="43.01787" lon="11.9639433"><ele>266.0</ele><time>2026-04-19T08:21:14.961Z</time></trkpt><trkpt lat="43.0179633" lon="11.9640067"><ele>266.0</ele><time>2026-04-19T08:21:15.961Z</time></trkpt><trkpt lat="43.0180733" lon="11.9640917"><ele>266.0</ele><time>2026-04-19T08:21:16.96Z</time></trkpt><trkpt lat="43.018185" lon="11.964185"><ele>266.0</ele><time>2026-04-19T08:21:17.961Z</time></trkpt><trkpt lat="43.0182833" lon="11.9642617"><ele>264.33333333333337</ele><time>2026-04-19T08:21:18.96Z</time></trkpt><trkpt lat="43.018375" lon="11.9643217"><ele>262.6666666666667</ele><time>2026-04-19T08:21:19.961Z</time></trkpt><trkpt lat="43.0184533" lon="11.9643767"><ele>261.0</ele><time>2026-04-19T08:21:20.96Z</time></trkpt><trkpt lat="43.018525" lon="11.9644217"><ele>259.3333333333333</ele><time>2026-04-19T08:21:21.96Z</time></trkpt><trkpt lat="43.0186017" lon="11.964465"><ele>257.66666666666663</ele><time>2026-04-19T08:21:22.961Z</time></trkpt><trkpt lat="43.0186783" lon="11.96452"><ele>256.0</ele><time>2026-04-19T08:21:23.961Z</time></trkpt><trkpt lat="43.0187417" lon="11.9645633"><ele>256.0</ele><time>2026-04-19T08:21:24.961Z</time></trkpt><trkpt lat="43.018825" lon="11.96465"><ele>256.0</ele><time>2026-04-19T08:21:26.961Z</time></trkpt><trkpt lat="43.01885" lon="11.964795"><ele>256.0</ele><time>2026-04-19T08:21:28.96Z</time></trkpt><trkpt lat="43.0188483" lon="11.9649133"><ele>256.0</ele><time>2026-04-19T08:21:29.96Z</time></trkpt><trkpt lat="43.0188183" lon="11.96511"><ele>256.0</ele><time>2026-04-19T08:21:30.96Z</time></trkpt><trkpt lat="43.018795" lon="11.9653233"><ele>255.0</ele><time>2026-04-19T08:21:31.96Z</time></trkpt><trkpt lat="43.0187717" lon="11.9655233"><ele>254.00000000000003</ele><time>2026-04-19T08:21:32.96Z</time></trkpt><trkpt lat="43.01876" lon="11.9656783"><ele>253.00000000000003</ele><time>2026-04-19T08:21:33.96Z</time></trkpt><trkpt lat="43.018755" lon="11.965805"><ele>252.0</ele><time>2026-04-19T08:21:34.961Z</time></trkpt><trkpt lat="43.018755" lon="11.965925"><ele>251.0</ele><time>2026-04-19T08:21:35.96Z</time></trkpt><trkpt lat="43.01876" lon="11.9660483"><ele>250.4</ele><time>2026-04-19T08:21:36.961Z</time></trkpt><trkpt lat="43.01877" lon="11.9661567"><ele>249.8</ele><time>2026-04-19T08:21:37.961Z</time></trkpt><trkpt lat="43.01879" lon="11.9662567"><ele>249.20000000000002</ele><time>2026-04-19T08:21:38.961Z</time></trkpt><trkpt lat="43.0188367" lon="11.96636"><ele>248.60000000000002</ele><time>2026-04-19T08:21:39.961Z</time></trkpt><trkpt lat="43.0188983" lon="11.9664683"><ele>248.0</ele><time>2026-04-19T08:21:40.96Z</time></trkpt><trkpt lat="43.0189833" lon="11.9665817"><ele>247.75</ele><time>2026-04-19T08:21:41.961Z</time></trkpt><trkpt lat="43.019095" lon="11.9667083"><ele>247.5</ele><time>2026-04-19T08:21:42.961Z</time></trkpt><trkpt lat="43.0191967" lon="11.9668233"><ele>247.25</ele><time>2026-04-19T08:21:43.96Z</time></trkpt><trkpt lat="43.0192833" lon="11.96692"><ele>247.0</ele><time>2026-04-19T08:21:44.961Z</time></trkpt><trkpt lat="43.0193483" lon="11.9669933"><ele>247.0</ele><time>2026-04-19T08:21:45.961Z</time></trkpt><trkpt lat="43.01944" lon="11.9670717"><ele>247.0</ele><time>2026-04-19T08:21:47.96Z</time></trkpt><trkpt lat="43.0195083" lon="11.967015"><ele>247.0</ele><time>2026-04-19T08:21:49.96Z</time></trkpt><trkpt lat="43.019545" lon="11.9668533"><ele>247.0</ele><time>2026-04-19T08:21:51.96Z</time></trkpt><trkpt lat="43.019555" lon="11.9667067"><ele>247.0</ele><time>2026-04-19T08:21:52.96Z</time></trkpt><trkpt lat="43.0195517" lon="11.966505"><ele>247.25</ele><time>2026-04-19T08:21:53.961Z</time></trkpt><trkpt lat="43.0195533" lon="11.9662967"><ele>247.5</ele><time>2026-04-19T08:21:54.961Z</time></trkpt><trkpt lat="43.0195583" lon="11.96611"><ele>247.75</ele><time>2026-04-19T08:21:55.961Z</time></trkpt><trkpt lat="43.0195617" lon="11.9659567"><ele>248.0</ele><time>2026-04-19T08:21:56.961Z</time></trkpt><trkpt lat="43.0195617" lon="11.9658267"><ele>248.2</ele><time>2026-04-19T08:21:57.961Z</time></trkpt><trkpt lat="43.01957" lon="11.96573"><ele>248.4</ele><time>2026-04-19T08:21:58.96Z</time></trkpt><trkpt lat="43.01962" lon="11.96563"><ele>248.59999999999997</ele><time>2026-04-19T08:22:00.96Z</time></trkpt><trkpt lat="43.0197217" lon="11.96562"><ele>248.79999999999998</ele><time>2026-04-19T08:22:02.96Z</time></trkpt><trkpt lat="43.0198167" lon="11.9656317"><ele>249.0</ele><time>2026-04-19T08:22:03.961Z</time></trkpt><trkpt lat="43.0199333" lon="11.9656517"><ele>248.75</ele><time>2026-04-19T08:22:04.961Z</time></trkpt><trkpt lat="43.02007" lon="11.965675"><ele>248.5</ele><time>2026-04-19T08:22:05.96Z</time></trkpt><trkpt lat="43.020205" lon="11.9656917"><ele>248.25</ele><time>2026-04-19T08:22:06.96Z</time></trkpt><trkpt lat="43.020335" lon="11.96571"><ele>248.0</ele><time>2026-04-19T08:22:07.96Z</time></trkpt><trkpt lat="43.0204733" lon="11.965725"><ele>248.0</ele><time>2026-04-19T08:22:08.96Z</time></trkpt><trkpt lat="43.0206067" lon="11.9657383"><ele>248.0</ele><time>2026-04-19T08:22:09.96Z</time></trkpt><trkpt lat="43.0207317" lon="11.965755"><ele>248.0</ele><time>2026-04-19T08:22:10.961Z</time></trkpt><trkpt lat="43.02086" lon="11.965765"><ele>248.0</ele><time>2026-04-19T08:22:11.961Z</time></trkpt><trkpt lat="43.0209883" lon="11.9657783"><ele>248.5</ele><time>2026-04-19T08:22:12.961Z</time></trkpt><trkpt lat="43.02112" lon="11.9657917"><ele>249.0</ele><time>2026-04-19T08:22:13.96Z</time></trkpt><trkpt lat="43.02125" lon="11.9658"><ele>249.5</ele><time>2026-04-19T08:22:14.961Z</time></trkpt><trkpt lat="43.02137" lon="11.9658117"><ele>250.0</ele><time>2026-04-19T08:22:15.96Z</time></trkpt><trkpt lat="43.0214883" lon="11.9658233"><ele>250.0</ele><time>2026-04-19T08:22:16.96Z</time></trkpt><trkpt lat="43.0216" lon="11.9658367"><ele>250.0</ele><time>2026-04-19T08:22:17.96Z</time></trkpt><trkpt lat="43.0217033" lon="11.965845"><ele>250.0</ele><time>2026-04-19T08:22:18.961Z</time></trkpt><trkpt lat="43.0218033" lon="11.9658583"><ele>250.0</ele><time>2026-04-19T08:22:19.961Z</time></trkpt><trkpt lat="43.0218917" lon="11.965885"><ele>250.0</ele><time>2026-04-19T08:22:20.961Z</time></trkpt><trkpt lat="43.0219867" lon="11.9659117"><ele>249.83333333333331</ele><time>2026-04-19T08:22:21.96Z</time></trkpt><trkpt lat="43.0220783" lon="11.965935"><ele>249.66666666666666</ele><time>2026-04-19T08:22:22.96Z</time></trkpt><trkpt lat="43.0221667" lon="11.9659533"><ele>249.5</ele><time>2026-04-19T08:22:23.96Z</time></trkpt><trkpt lat="43.0222467" lon="11.9659783"><ele>249.33333333333331</ele><time>2026-04-19T08:22:24.961Z</time></trkpt><trkpt lat="43.0223333" lon="11.9660033"><ele>249.16666666666666</ele><time>2026-04-19T08:22:25.96Z</time></trkpt><trkpt lat="43.0224217" lon="11.9660233"><ele>249.0</ele><time>2026-04-19T08:22:26.96Z</time></trkpt><trkpt lat="43.0225117" lon="11.9660533"><ele>248.5</ele><time>2026-04-19T08:22:27.961Z</time></trkpt><trkpt lat="43.0226083" lon="11.9660867"><ele>248.0</ele><time>2026-04-19T08:22:28.96Z</time></trkpt><trkpt lat="43.0227083" lon="11.9661183"><ele>247.5</ele><time>2026-04-19T08:22:29.961Z</time></trkpt><trkpt lat="43.0228233" lon="11.9661533"><ele>247.0</ele><time>2026-04-19T08:22:30.96Z</time></trkpt><trkpt lat="43.02295" lon="11.9661917"><ele>247.0</ele><time>2026-04-19T08:22:31.961Z</time></trkpt><trkpt lat="43.0230867" lon="11.96623"><ele>247.0</ele><time>2026-04-19T08:22:32.96Z</time></trkpt><trkpt lat="43.0232367" lon="11.96628"><ele>247.0</ele><time>2026-04-19T08:22:33.96Z</time></trkpt><trkpt lat="43.023385" lon="11.9663217"><ele>247.0</ele><time>2026-04-19T08:22:34.961Z</time></trkpt><trkpt lat="43.0235283" lon="11.966365"><ele>247.5</ele><time>2026-04-19T08:22:35.96Z</time></trkpt><trkpt lat="43.023675" lon="11.9664083"><ele>248.0</ele><time>2026-04-19T08:22:36.961Z</time></trkpt><trkpt lat="43.0238217" lon="11.966445"><ele>248.5</ele><time>2026-04-19T08:22:37.96Z</time></trkpt><trkpt lat="43.0239617" lon="11.9664867"><ele>249.0</ele><time>2026-04-19T08:22:38.96Z</time></trkpt><trkpt lat="43.024105" lon="11.9665333"><ele>248.66666666666669</ele><time>2026-04-19T08:22:39.961Z</time></trkpt><trkpt lat="43.0242517" lon="11.96657"><ele>248.33333333333334</ele><time>2026-04-19T08:22:40.96Z</time></trkpt><trkpt lat="43.0244017" lon="11.96662"><ele>248.0</ele><time>2026-04-19T08:22:41.96Z</time></trkpt><trkpt lat="43.0245567" lon="11.9666733"><ele>248.66666666666669</ele><time>2026-04-19T08:22:42.961Z</time></trkpt><trkpt lat="43.0247217" lon="11.9667217"><ele>249.33333333333331</ele><time>2026-04-19T08:22:43.96Z</time></trkpt><trkpt lat="43.0249083" lon="11.9667783"><ele>250.0</ele><time>2026-04-19T08:22:44.96Z</time></trkpt><trkpt lat="43.0250867" lon="11.9668233"><ele>250.0</ele><time>2026-04-19T08:22:45.96Z</time></trkpt><trkpt lat="43.0252717" lon="11.9668733"><ele>250.0</ele><time>2026-04-19T08:22:46.96Z</time></trkpt><trkpt lat="43.0254583" lon="11.9669267"><ele>250.0</ele><time>2026-04-19T08:22:47.96Z</time></trkpt><trkpt lat="43.0256417" lon="11.96697"><ele>250.0</ele><time>2026-04-19T08:22:48.96Z</time></trkpt><trkpt lat="43.02583" lon="11.96703"><ele>250.0</ele><time>2026-04-19T08:22:49.96Z</time></trkpt><trkpt lat="43.02601" lon="11.967095"><ele>250.0</ele><time>2026-04-19T08:22:50.961Z</time></trkpt><trkpt lat="43.026195" lon="11.9671467"><ele>250.0</ele><time>2026-04-19T08:22:51.96Z</time></trkpt><trkpt lat="43.0263833" lon="11.9672117"><ele>250.0</ele><time>2026-04-19T08:22:52.961Z</time></trkpt><trkpt lat="43.0265633" lon="11.9672633"><ele>250.0</ele><time>2026-04-19T08:22:53.961Z</time></trkpt><trkpt lat="43.026725" lon="11.9673183"><ele>250.0</ele><time>2026-04-19T08:22:54.96Z</time></trkpt><trkpt lat="43.0268767" lon="11.96737"><ele>250.0</ele><time>2026-04-19T08:22:55.96Z</time></trkpt><trkpt lat="43.0270233" lon="11.9674183"><ele>250.0</ele><time>2026-04-19T08:22:56.961Z</time></trkpt><trkpt lat="43.0271583" lon="11.9674567"><ele>250.0</ele><time>2026-04-19T08:22:57.961Z</time></trkpt><trkpt lat="43.0272833" lon="11.9674967"><ele>250.0</ele><time>2026-04-19T08:22:58.96Z</time></trkpt><trkpt lat="43.0274033" lon="11.9675317"><ele>250.0</ele><time>2026-04-19T08:22:59.96Z</time></trkpt><trkpt lat="43.02752" lon="11.967565"><ele>250.0</ele><time>2026-04-19T08:23:00.96Z</time></trkpt><trkpt lat="43.0276283" lon="11.9675983"><ele>250.0</ele><time>2026-04-19T08:23:01.961Z</time></trkpt><trkpt lat="43.0277317" lon="11.9676333"><ele>250.0</ele><time>2026-04-19T08:23:02.96Z</time></trkpt><trkpt lat="43.02783" lon="11.96765"><ele>250.0</ele><time>2026-04-19T08:23:03.961Z</time></trkpt><trkpt lat="43.027915" lon="11.9676667"><ele>250.0</ele><time>2026-04-19T08:23:04.96Z</time></trkpt><trkpt lat="43.0279833" lon="11.9676867"><ele>250.0</ele><time>2026-04-19T08:23:05.961Z</time></trkpt><trkpt lat="43.02808" lon="11.9677083"><ele>250.0</ele><time>2026-04-19T08:23:07.96Z</time></trkpt><trkpt lat="43.0281433" lon="11.9678167"><ele>250.0</ele><time>2026-04-19T08:23:09.961Z</time></trkpt><trkpt lat="43.0281817" lon="11.9679183"><ele>250.0</ele><time>2026-04-19T08:23:10.961Z</time></trkpt><trkpt lat="43.02822" lon="11.9680683"><ele>250.0</ele><time>2026-04-19T08:23:11.961Z</time></trkpt><trkpt lat="43.0282617" lon="11.9682667"><ele>250.0</ele><time>2026-04-19T08:23:12.961Z</time></trkpt><trkpt lat="43.02829" lon="11.9684933"><ele>250.0</ele><time>2026-04-19T08:23:13.961Z</time></trkpt><trkpt lat="43.0282917" lon="11.9687367"><ele>250.0</ele><time>2026-04-19T08:23:14.961Z</time></trkpt><trkpt lat="43.028285" lon="11.9689817"><ele>250.0</ele><time>2026-04-19T08:23:15.96Z</time></trkpt><trkpt lat="43.0282667" lon="11.96925"><ele>250.0</ele><time>2026-04-19T08:23:16.961Z</time></trkpt><trkpt lat="43.02824" lon="11.969525"><ele>250.0</ele><time>2026-04-19T08:23:17.961Z</time></trkpt><trkpt lat="43.028215" lon="11.9698183"><ele>250.0</ele><time>2026-04-19T08:23:18.961Z</time></trkpt><trkpt lat="43.02819" lon="11.9700867"><ele>250.0</ele><time>2026-04-19T08:23:19.96Z</time></trkpt><trkpt lat="43.02816" lon="11.9703367"><ele>250.0</ele><time>2026-04-19T08:23:20.961Z</time></trkpt><trkpt lat="43.0281433" lon="11.97057"><ele>250.0</ele><time>2026-04-19T08:23:21.96Z</time></trkpt><trkpt lat="43.0281217" lon="11.9707933"><ele>249.66666666666666</ele><time>2026-04-19T08:23:22.961Z</time></trkpt><trkpt lat="43.028105" lon="11.97103"><ele>249.33333333333331</ele><time>2026-04-19T08:23:23.96Z</time></trkpt><trkpt lat="43.0280817" lon="11.97128"><ele>249.0</ele><time>2026-04-19T08:23:24.961Z</time></trkpt><trkpt lat="43.028065" lon="11.9715433"><ele>249.0</ele><time>2026-04-19T08:23:25.96Z</time></trkpt><trkpt lat="43.02804" lon="11.9717917"><ele>249.0</ele><time>2026-04-19T08:23:26.96Z</time></trkpt><trkpt lat="43.02801" lon="11.9720383"><ele>249.0</ele><time>2026-04-19T08:23:27.961Z</time></trkpt><trkpt lat="43.0279867" lon="11.9722683"><ele>249.0</ele><time>2026-04-19T08:23:28.961Z</time></trkpt><trkpt lat="43.0279667" lon="11.9724767"><ele>249.0</ele><time>2026-04-19T08:23:29.96Z</time></trkpt><trkpt lat="43.0279433" lon="11.9726817"><ele>249.0</ele><time>2026-04-19T08:23:30.961Z</time></trkpt><trkpt lat="43.0279233" lon="11.9728567"><ele>249.0</ele><time>2026-04-19T08:23:31.961Z</time></trkpt><trkpt lat="43.0279317" lon="11.97302"><ele>249.6</ele><time>2026-04-19T08:23:32.96Z</time></trkpt><trkpt lat="43.027965" lon="11.973165"><ele>250.2</ele><time>2026-04-19T08:23:33.96Z</time></trkpt><trkpt lat="43.0280067" lon="11.9732883"><ele>250.79999999999998</ele><time>2026-04-19T08:23:34.961Z</time></trkpt><trkpt lat="43.02804" lon="11.9733783"><ele>251.39999999999998</ele><time>2026-04-19T08:23:35.96Z</time></trkpt><trkpt lat="43.0280583" lon="11.9735133"><ele>252.0</ele><time>2026-04-19T08:23:37.96Z</time></trkpt><trkpt lat="43.0279833" lon="11.97363"><ele>252.0</ele><time>2026-04-19T08:23:39.961Z</time></trkpt><trkpt lat="43.02791" lon="11.97369"><ele>252.0</ele><time>2026-04-19T08:23:40.961Z</time></trkpt><trkpt lat="43.02781" lon="11.97375"><ele>252.0</ele><time>2026-04-19T08:23:41.961Z</time></trkpt><trkpt lat="43.02768" lon="11.9738117"><ele>252.0</ele><time>2026-04-19T08:23:42.961Z</time></trkpt><trkpt lat="43.02752" lon="11.9738883"><ele>251.33333333333331</ele><time>2026-04-19T08:23:43.961Z</time></trkpt><trkpt lat="43.0273317" lon="11.973975"><ele>250.66666666666666</ele><time>2026-04-19T08:23:44.961Z</time></trkpt><trkpt lat="43.0271233" lon="11.974065"><ele>250.0</ele><time>2026-04-19T08:23:45.961Z</time></trkpt><trkpt lat="43.026925" lon="11.97415"><ele>250.66666666666666</ele><time>2026-04-19T08:23:46.961Z</time></trkpt><trkpt lat="43.026735" lon="11.974235"><ele>251.33333333333331</ele><time>2026-04-19T08:23:47.96Z</time></trkpt><trkpt lat="43.026555" lon="11.9743233"><ele>252.0</ele><time>2026-04-19T08:23:48.961Z</time></trkpt><trkpt lat="43.0263883" lon="11.9744117"><ele>252.5</ele><time>2026-04-19T08:23:49.96Z</time></trkpt><trkpt lat="43.02624" lon="11.9744917"><ele>253.0</ele><time>2026-04-19T08:23:50.961Z</time></trkpt><trkpt lat="43.0261033" lon="11.97457"><ele>253.5</ele><time>2026-04-19T08:23:51.961Z</time></trkpt><trkpt lat="43.0259867" lon="11.974645"><ele>254.0</ele><time>2026-04-19T08:23:52.96Z</time></trkpt><trkpt lat="43.025875" lon="11.97475"><ele>253.33333333333334</ele><time>2026-04-19T08:23:53.961Z</time></trkpt><trkpt lat="43.0257683" lon="11.974905"><ele>252.66666666666669</ele><time>2026-04-19T08:23:54.961Z</time></trkpt><trkpt lat="43.0256483" lon="11.9750617"><ele>252.0</ele><time>2026-04-19T08:23:55.961Z</time></trkpt><trkpt lat="43.025535" lon="11.9752083"><ele>253.5</ele><time>2026-04-19T08:23:56.961Z</time></trkpt><trkpt lat="43.0254467" lon="11.975355"><ele>255.0</ele><time>2026-04-19T08:23:57.96Z</time></trkpt><trkpt lat="43.0253683" lon="11.975505"><ele>256.5</ele><time>2026-04-19T08:23:58.96Z</time></trkpt><trkpt lat="43.0253117" lon="11.97568"><ele>258.0</ele><time>2026-04-19T08:23:59.961Z</time></trkpt><trkpt lat="43.02526" lon="11.9758667"><ele>258.5</ele><time>2026-04-19T08:24:00.961Z</time></trkpt><trkpt lat="43.0252133" lon="11.9760333"><ele>259.0</ele><time>2026-04-19T08:24:01.96Z</time></trkpt><trkpt lat="43.0251783" lon="11.9761967"><ele>259.5</ele><time>2026-04-19T08:24:02.961Z</time></trkpt><trkpt lat="43.0251483" lon="11.976365"><ele>260.0</ele><time>2026-04-19T08:24:03.96Z</time></trkpt><trkpt lat="43.0251233" lon="11.9765267"><ele>260.25</ele><time>2026-04-19T08:24:04.96Z</time></trkpt><trkpt lat="43.0250833" lon="11.9767017"><ele>260.5</ele><time>2026-04-19T08:24:05.961Z</time></trkpt><trkpt lat="43.02503" lon="11.9769017"><ele>260.75</ele><time>2026-04-19T08:24:06.961Z</time></trkpt><trkpt lat="43.0249833" lon="11.977065"><ele>261.0</ele><time>2026-04-19T08:24:07.96Z</time></trkpt><trkpt lat="43.0249267" lon="11.9772083"><ele>261.0</ele><time>2026-04-19T08:24:08.961Z</time></trkpt><trkpt lat="43.0248617" lon="11.9773317"><ele>261.0</ele><time>2026-04-19T08:24:09.96Z</time></trkpt><trkpt lat="43.0247767" lon="11.9774383"><ele>261.0</ele><time>2026-04-19T08:24:10.96Z</time></trkpt><trkpt lat="43.02466" lon="11.977545"><ele>261.0</ele><time>2026-04-19T08:24:11.96Z</time></trkpt><trkpt lat="43.0245133" lon="11.9776517"><ele>261.25</ele><time>2026-04-19T08:24:12.96Z</time></trkpt><trkpt lat="43.0243583" lon="11.9777633"><ele>261.5</ele><time>2026-04-19T08:24:13.961Z</time></trkpt><trkpt lat="43.0242333" lon="11.9778567"><ele>261.75</ele><time>2026-04-19T08:24:14.961Z</time></trkpt><trkpt lat="43.0241367" lon="11.9779383"><ele>262.0</ele><time>2026-04-19T08:24:15.961Z</time></trkpt><trkpt lat="43.024065" lon="11.9780183"><ele>261.0</ele><time>2026-04-19T08:24:16.961Z</time></trkpt><trkpt lat="43.0240167" lon="11.9781033"><ele>260.0</ele><time>2026-04-19T08:24:17.96Z</time></trkpt><trkpt lat="43.0239983" lon="11.9782017"><ele>259.0</ele><time>2026-04-19T08:24:18.96Z</time></trkpt><trkpt lat="43.024" lon="11.9783083"><ele>258.0</ele><time>2026-04-19T08:24:19.96Z</time></trkpt><trkpt lat="43.024015" lon="11.9784617"><ele>257.0</ele><time>2026-04-19T08:24:20.96Z</time></trkpt><trkpt lat="43.0240333" lon="11.9786283"><ele>257.0</ele><time>2026-04-19T08:24:21.96Z</time></trkpt><trkpt lat="43.0240383" lon="11.978775"><ele>257.0</ele><time>2026-04-19T08:24:22.96Z</time></trkpt><trkpt lat="43.0240317" lon="11.9789"><ele>257.0</ele><time>2026-04-19T08:24:23.961Z</time></trkpt><trkpt lat="43.0239983" lon="11.979025"><ele>257.0</ele><time>2026-04-19T08:24:24.961Z</time></trkpt><trkpt lat="43.0239417" lon="11.9791667"><ele>257.0</ele><time>2026-04-19T08:24:25.961Z</time></trkpt><trkpt lat="43.0238683" lon="11.9793333"><ele>257.33333333333337</ele><time>2026-04-19T08:24:26.96Z</time></trkpt><trkpt lat="43.023775" lon="11.97952"><ele>257.6666666666667</ele><time>2026-04-19T08:24:27.96Z</time></trkpt><trkpt lat="43.023675" lon="11.9797083"><ele>258.0</ele><time>2026-04-19T08:24:28.96Z</time></trkpt><trkpt lat="43.0235767" lon="11.9798883"><ele>258.75</ele><time>2026-04-19T08:24:29.96Z</time></trkpt><trkpt lat="43.02348" lon="11.98004"><ele>259.5</ele><time>2026-04-19T08:24:30.961Z</time></trkpt><trkpt lat="43.0233917" lon="11.98015"><ele>260.25</ele><time>2026-04-19T08:24:31.961Z</time></trkpt><trkpt lat="43.0233117" lon="11.9802383"><ele>261.0</ele><time>2026-04-19T08:24:32.96Z</time></trkpt><trkpt lat="43.0232117" lon="11.9803083"><ele>262.0</ele><time>2026-04-19T08:24:33.961Z</time></trkpt><trkpt lat="43.023095" lon="11.98037"><ele>263.0</ele><time>2026-04-19T08:24:34.96Z</time></trkpt><trkpt lat="43.0229733" lon="11.9804067"><ele>264.0</ele><time>2026-04-19T08:24:35.961Z</time></trkpt><trkpt lat="43.02286" lon="11.9804233"><ele>265.0</ele><time>2026-04-19T08:24:36.96Z</time></trkpt><trkpt lat="43.0227267" lon="11.980425"><ele>265.0</ele><time>2026-04-19T08:24:37.96Z</time></trkpt><trkpt lat="43.02258" lon="11.9804233"><ele>265.0</ele><time>2026-04-19T08:24:38.96Z</time></trkpt><trkpt lat="43.02241" lon="11.980425"><ele>265.0</ele><time>2026-04-19T08:24:39.961Z</time></trkpt><trkpt lat="43.022235" lon="11.9804217"><ele>265.75</ele><time>2026-04-19T08:24:40.961Z</time></trkpt><trkpt lat="43.022075" lon="11.9804233"><ele>266.5</ele><time>2026-04-19T08:24:41.96Z</time></trkpt><trkpt lat="43.0219433" lon="11.9804117"><ele>267.25</ele><time>2026-04-19T08:24:42.961Z</time></trkpt><trkpt lat="43.0218383" lon="11.980405"><ele>268.0</ele><time>2026-04-19T08:24:43.961Z</time></trkpt><trkpt lat="43.02177" lon="11.9803983"><ele>268.0</ele><time>2026-04-19T08:24:44.96Z</time></trkpt><trkpt lat="43.0216783" lon="11.98044"><ele>268.0</ele><time>2026-04-19T08:24:46.96Z</time></trkpt><trkpt lat="43.0217" lon="11.9805383"><ele>268.0</ele><time>2026-04-19T08:24:48.961Z</time></trkpt><trkpt lat="43.021745" lon="11.9806117"><ele>268.0</ele><time>2026-04-19T08:24:49.961Z</time></trkpt><trkpt lat="43.0218183" lon="11.980715"><ele>268.0</ele><time>2026-04-19T08:24:50.961Z</time></trkpt><trkpt lat="43.02193" lon="11.9808633"><ele>267.3333333333333</ele><time>2026-04-19T08:24:51.961Z</time></trkpt><trkpt lat="43.0220667" lon="11.9810383"><ele>266.6666666666667</ele><time>2026-04-19T08:24:52.96Z</time></trkpt><trkpt lat="43.02219" lon="11.9812017"><ele>266.0</ele><time>2026-04-19T08:24:53.96Z</time></trkpt><trkpt lat="43.0222733" lon="11.98132"><ele>266.0</ele><time>2026-04-19T08:24:54.96Z</time></trkpt><trkpt lat="43.0223317" lon="11.9814333"><ele>266.0</ele><time>2026-04-19T08:24:55.96Z</time></trkpt><trkpt lat="43.022365" lon="11.9815667"><ele>266.0</ele><time>2026-04-19T08:24:56.96Z</time></trkpt><trkpt lat="43.0223883" lon="11.9817183"><ele>266.0</ele><time>2026-04-19T08:24:57.96Z</time></trkpt><trkpt lat="43.0224067" lon="11.9819133"><ele>267.33333333333337</ele><time>2026-04-19T08:24:58.961Z</time></trkpt><trkpt lat="43.0224183" lon="11.9821417"><ele>268.6666666666667</ele><time>2026-04-19T08:24:59.96Z</time></trkpt><trkpt lat="43.0224117" lon="11.9823967"><ele>270.0</ele><time>2026-04-19T08:25:00.961Z</time></trkpt><trkpt lat="43.0224233" lon="11.9826433"><ele>271.25</ele><time>2026-04-19T08:25:01.961Z</time></trkpt><trkpt lat="43.0224417" lon="11.9828383"><ele>272.5</ele><time>2026-04-19T08:25:02.96Z</time></trkpt><trkpt lat="43.0224433" lon="11.9830067"><ele>273.75</ele><time>2026-04-19T08:25:03.96Z</time></trkpt><trkpt lat="43.02244" lon="11.9831417"><ele>275.0</ele><time>2026-04-19T08:25:04.96Z</time></trkpt><trkpt lat="43.0224283" lon="11.9832667"><ele>276.0</ele><time>2026-04-19T08:25:05.96Z</time></trkpt><trkpt lat="43.0223967" lon="11.9833717"><ele>277.0</ele><time>2026-04-19T08:25:06.961Z</time></trkpt><trkpt lat="43.0223483" lon="11.9834833"><ele>278.0</ele><time>2026-04-19T08:25:07.96Z</time></trkpt><trkpt lat="43.022285" lon="11.9836033"><ele>279.0</ele><time>2026-04-19T08:25:08.96Z</time></trkpt><trkpt lat="43.0222117" lon="11.9837483"><ele>280.0</ele><time>2026-04-19T08:25:09.961Z</time></trkpt><trkpt lat="43.0221567" lon="11.98389"><ele>280.0</ele><time>2026-04-19T08:25:10.96Z</time></trkpt><trkpt lat="43.0221167" lon="11.9840317"><ele>280.0</ele><time>2026-04-19T08:25:11.96Z</time></trkpt><trkpt lat="43.0221083" lon="11.9841983"><ele>280.0</ele><time>2026-04-19T08:25:12.961Z</time></trkpt><trkpt lat="43.0220883" lon="11.9843933"><ele>280.0</ele><time>2026-04-19T08:25:13.961Z</time></trkpt><trkpt lat="43.0220933" lon="11.9846117"><ele>280.66666666666663</ele><time>2026-04-19T08:25:14.96Z</time></trkpt><trkpt lat="43.0221" lon="11.984855"><ele>281.3333333333333</ele><time>2026-04-19T08:25:15.961Z</time></trkpt><trkpt lat="43.0221067" lon="11.9850733"><ele>282.0</ele><time>2026-04-19T08:25:16.961Z</time></trkpt><trkpt lat="43.0221217" lon="11.9852633"><ele>282.5</ele><time>2026-04-19T08:25:17.961Z</time></trkpt><trkpt lat="43.0221433" lon="11.985435"><ele>283.0</ele><time>2026-04-19T08:25:18.96Z</time></trkpt><trkpt lat="43.02217" lon="11.9856217"><ele>283.5</ele><time>2026-04-19T08:25:19.961Z</time></trkpt><trkpt lat="43.02221" lon="11.9858217"><ele>284.0</ele><time>2026-04-19T08:25:20.96Z</time></trkpt><trkpt lat="43.02224" lon="11.9859883"><ele>285.2</ele><time>2026-04-19T08:25:21.961Z</time></trkpt><trkpt lat="43.02227" lon="11.9861283"><ele>286.4</ele><time>2026-04-19T08:25:22.961Z</time></trkpt><trkpt lat="43.0222983" lon="11.986255"><ele>287.6</ele><time>2026-04-19T08:25:23.961Z</time></trkpt><trkpt lat="43.0222933" lon="11.986385"><ele>288.8</ele><time>2026-04-19T08:25:24.96Z</time></trkpt><trkpt lat="43.0222633" lon="11.986535"><ele>290.0</ele><time>2026-04-19T08:25:25.96Z</time></trkpt><trkpt lat="43.02223" lon="11.9866767"><ele>291.25</ele><time>2026-04-19T08:25:26.96Z</time></trkpt><trkpt lat="43.0221833" lon="11.9868067"><ele>292.5</ele><time>2026-04-19T08:25:27.961Z</time></trkpt><trkpt lat="43.0221133" lon="11.9869517"><ele>293.75</ele><time>2026-04-19T08:25:28.961Z</time></trkpt><trkpt lat="43.0220483" lon="11.987085"><ele>295.0</ele><time>2026-04-19T08:25:29.961Z</time></trkpt><trkpt lat="43.0219733" lon="11.98719"><ele>295.0</ele><time>2026-04-19T08:25:30.96Z</time></trkpt><trkpt lat="43.021895" lon="11.9872817"><ele>295.0</ele><time>2026-04-19T08:25:31.96Z</time></trkpt><trkpt lat="43.0218083" lon="11.9873633"><ele>295.0</ele><time>2026-04-19T08:25:32.961Z</time></trkpt><trkpt lat="43.0216917" lon="11.98744"><ele>295.0</ele><time>2026-04-19T08:25:33.96Z</time></trkpt><trkpt lat="43.0215567" lon="11.98752"><ele>298.66666666666663</ele><time>2026-04-19T08:25:34.961Z</time></trkpt><trkpt lat="43.0213967" lon="11.98761"><ele>302.3333333333333</ele><time>2026-04-19T08:25:35.96Z</time></trkpt><trkpt lat="43.0212233" lon="11.9876883"><ele>306.0</ele><time>2026-04-19T08:25:36.96Z</time></trkpt><trkpt lat="43.021045" lon="11.987785"><ele>306.0</ele><time>2026-04-19T08:25:37.961Z</time></trkpt><trkpt lat="43.02086" lon="11.9878917"><ele>306.0</ele><time>2026-04-19T08:25:38.96Z</time></trkpt><trkpt lat="43.0206883" lon="11.98798"><ele>306.0</ele><time>2026-04-19T08:25:39.961Z</time></trkpt><trkpt lat="43.020545" lon="11.9880617"><ele>308.5</ele><time>2026-04-19T08:25:40.961Z</time></trkpt><trkpt lat="43.0204133" lon="11.9881267"><ele>311.0</ele><time>2026-04-19T08:25:41.961Z</time></trkpt><trkpt lat="43.0203033" lon="11.9881683"><ele>313.5</ele><time>2026-04-19T08:25:42.961Z</time></trkpt><trkpt lat="43.0201967" lon="11.98817"><ele>316.0</ele><time>2026-04-19T08:25:43.96Z</time></trkpt><trkpt lat="43.0200883" lon="11.9881483"><ele>316.2</ele><time>2026-04-19T08:25:44.96Z</time></trkpt><trkpt lat="43.0199683" lon="11.9881333"><ele>316.40000000000003</ele><time>2026-04-19T08:25:45.961Z</time></trkpt><trkpt lat="43.0198633" lon="11.98812"><ele>316.6</ele><time>2026-04-19T08:25:46.96Z</time></trkpt><trkpt lat="43.0197467" lon="11.98812"><ele>316.8</ele><time>2026-04-19T08:25:47.961Z</time></trkpt><trkpt lat="43.0196467" lon="11.9881233"><ele>317.0</ele><time>2026-04-19T08:25:48.96Z</time></trkpt><trkpt lat="43.01956" lon="11.9881483"><ele>317.0</ele><time>2026-04-19T08:25:49.961Z</time></trkpt><trkpt lat="43.019495" lon="11.9881917"><ele>317.0</ele><time>2026-04-19T08:25:50.961Z</time></trkpt><trkpt lat="43.01944" lon="11.9882683"><ele>317.0</ele><time>2026-04-19T08:25:51.96Z</time></trkpt><trkpt lat="43.0193883" lon="11.988385"><ele>317.0</ele><time>2026-04-19T08:25:52.96Z</time></trkpt><trkpt lat="43.0193483" lon="11.988505"><ele>317.0</ele><time>2026-04-19T08:25:53.96Z</time></trkpt><trkpt lat="43.019335" lon="11.9886133"><ele>317.0</ele><time>2026-04-19T08:25:54.96Z</time></trkpt><trkpt lat="43.0193483" lon="11.9887233"><ele>317.5</ele><time>2026-04-19T08:25:55.96Z</time></trkpt><trkpt lat="43.0193833" lon="11.9888283"><ele>318.0</ele><time>2026-04-19T08:25:56.961Z</time></trkpt><trkpt lat="43.01941" lon="11.9889283"><ele>318.5</ele><time>2026-04-19T08:25:57.96Z</time></trkpt><trkpt lat="43.0194" lon="11.9890767"><ele>319.0</ele><time>2026-04-19T08:25:59.961Z</time></trkpt><trkpt lat="43.01936" lon="11.989155"><ele>319.5</ele><time>2026-04-19T08:26:00.96Z</time></trkpt><trkpt lat="43.019295" lon="11.9892217"><ele>320.0</ele><time>2026-04-19T08:26:01.96Z</time></trkpt><trkpt lat="43.019205" lon="11.9893217"><ele>319.33333333333337</ele><time>2026-04-19T08:26:02.961Z</time></trkpt><trkpt lat="43.0191" lon="11.98946"><ele>318.6666666666667</ele><time>2026-04-19T08:26:03.961Z</time></trkpt><trkpt lat="43.019" lon="11.989645"><ele>318.0</ele><time>2026-04-19T08:26:04.961Z</time></trkpt><trkpt lat="43.01889" lon="11.9898583"><ele>317.3333333333333</ele><time>2026-04-19T08:26:05.961Z</time></trkpt><trkpt lat="43.0187767" lon="11.9900583"><ele>316.66666666666663</ele><time>2026-04-19T08:26:06.961Z</time></trkpt><trkpt lat="43.0186683" lon="11.9902383"><ele>316.0</ele><time>2026-04-19T08:26:07.96Z</time></trkpt><trkpt lat="43.0185667" lon="11.9904083"><ele>316.0</ele><time>2026-04-19T08:26:08.96Z</time></trkpt><trkpt lat="43.0184867" lon="11.9905583"><ele>316.0</ele><time>2026-04-19T08:26:09.961Z</time></trkpt><trkpt lat="43.01842" lon="11.990685"><ele>316.0</ele><time>2026-04-19T08:26:10.96Z</time></trkpt><trkpt lat="43.0183683" lon="11.990785"><ele>316.0</ele><time>2026-04-19T08:26:11.96Z</time></trkpt><trkpt lat="43.018345" lon="11.99087"><ele>316.0</ele><time>2026-04-19T08:26:12.96Z</time></trkpt><trkpt lat="43.01833" lon="11.990975"><ele>316.0</ele><time>2026-04-19T08:26:13.961Z</time></trkpt><trkpt lat="43.0183267" lon="11.9911167"><ele>316.0</ele><time>2026-04-19T08:26:14.96Z</time></trkpt><trkpt lat="43.0183333" lon="11.99129"><ele>316.0</ele><time>2026-04-19T08:26:15.961Z</time></trkpt><trkpt lat="43.0183317" lon="11.9914733"><ele>316.0</ele><time>2026-04-19T08:26:16.96Z</time></trkpt><trkpt lat="43.0183183" lon="11.9916367"><ele>317.25</ele><time>2026-04-19T08:26:17.96Z</time></trkpt><trkpt lat="43.01829" lon="11.9917767"><ele>318.5</ele><time>2026-04-19T08:26:18.96Z</time></trkpt><trkpt lat="43.0182383" lon="11.99191"><ele>319.75</ele><time>2026-04-19T08:26:19.96Z</time></trkpt><trkpt lat="43.0181683" lon="11.9920533"><ele>321.0</ele><time>2026-04-19T08:26:20.961Z</time></trkpt><trkpt lat="43.018095" lon="11.99219"><ele>321.0</ele><time>2026-04-19T08:26:21.96Z</time></trkpt><trkpt lat="43.01804" lon="11.992295"><ele>321.0</ele><time>2026-04-19T08:26:22.96Z</time></trkpt><trkpt lat="43.0180017" lon="11.99237"><ele>321.0</ele><time>2026-04-19T08:26:23.96Z</time></trkpt><trkpt lat="43.01799" lon="11.99252"><ele>321.0</ele><time>2026-04-19T08:26:25.961Z</time></trkpt><trkpt lat="43.0180167" lon="11.992625"><ele>321.0</ele><time>2026-04-19T08:26:26.961Z</time></trkpt><trkpt lat="43.01807" lon="11.9927267"><ele>321.0</ele><time>2026-04-19T08:26:27.96Z</time></trkpt><trkpt lat="43.0181317" lon="11.9928233"><ele>320.6</ele><time>2026-04-19T08:26:28.961Z</time></trkpt><trkpt lat="43.0181767" lon="11.9929183"><ele>320.20000000000005</ele><time>2026-04-19T08:26:29.961Z</time></trkpt><trkpt lat="43.018195" lon="11.9930117"><ele>319.79999999999995</ele><time>2026-04-19T08:26:30.961Z</time></trkpt><trkpt lat="43.0181983" lon="11.9931133"><ele>319.4</ele><time>2026-04-19T08:26:31.961Z</time></trkpt><trkpt lat="43.0181917" lon="11.99326"><ele>319.0</ele><time>2026-04-19T08:26:32.96Z</time></trkpt><trkpt lat="43.0181617" lon="11.9934183"><ele>316.25</ele><time>2026-04-19T08:26:33.96Z</time></trkpt><trkpt lat="43.018155" lon="11.9935567"><ele>313.5</ele><time>2026-04-19T08:26:34.961Z</time></trkpt><trkpt lat="43.0181533" lon="11.9937017"><ele>310.75</ele><time>2026-04-19T08:26:35.96Z</time></trkpt><trkpt lat="43.0181933" lon="11.9938533"><ele>308.0</ele><time>2026-04-19T08:26:36.96Z</time></trkpt><trkpt lat="43.018255" lon="11.994005"><ele>315.33333333333337</ele><time>2026-04-19T08:26:37.961Z</time></trkpt><trkpt lat="43.0183333" lon="11.99418"><ele>322.6666666666667</ele><time>2026-04-19T08:26:38.96Z</time></trkpt><trkpt lat="43.0184233" lon="11.994375"><ele>330.0</ele><time>2026-04-19T08:26:39.96Z</time></trkpt><trkpt lat="43.0185117" lon="11.9945483"><ele>330.0</ele><time>2026-04-19T08:26:40.961Z</time></trkpt><trkpt lat="43.018595" lon="11.9946967"><ele>330.0</ele><time>2026-04-19T08:26:41.96Z</time></trkpt><trkpt lat="43.0186683" lon="11.99481"><ele>330.0</ele><time>2026-04-19T08:26:42.96Z</time></trkpt><trkpt lat="43.018715" lon="11.9949"><ele>330.0</ele><time>2026-04-19T08:26:43.96Z</time></trkpt><trkpt lat="43.01874" lon="11.995035"><ele>330.0</ele><time>2026-04-19T08:26:45.961Z</time></trkpt><trkpt lat="43.0187183" lon="11.9951233"><ele>331.6</ele><time>2026-04-19T08:26:46.96Z</time></trkpt><trkpt lat="43.0186767" lon="11.9952467"><ele>333.2</ele><time>2026-04-19T08:26:47.961Z</time></trkpt><trkpt lat="43.018635" lon="11.995395"><ele>334.79999999999995</ele><time>2026-04-19T08:26:48.96Z</time></trkpt><trkpt lat="43.0185833" lon="11.9955533"><ele>336.4</ele><time>2026-04-19T08:26:49.96Z</time></trkpt><trkpt lat="43.0185417" lon="11.9956883"><ele>338.0</ele><time>2026-04-19T08:26:50.961Z</time></trkpt><trkpt lat="43.0185167" lon="11.9957867"><ele>337.6666666666667</ele><time>2026-04-19T08:26:51.961Z</time></trkpt><trkpt lat="43.0185583" lon="11.9959167"><ele>337.33333333333337</ele><time>2026-04-19T08:26:53.96Z</time></trkpt><trkpt lat="43.0186383" lon="11.9959667"><ele>337.0</ele><time>2026-04-19T08:26:54.96Z</time></trkpt><trkpt lat="43.0187133" lon="11.996015"><ele>336.6666666666667</ele><time>2026-04-19T08:26:55.961Z</time></trkpt><trkpt lat="43.01877" lon="11.9960733"><ele>336.3333333333333</ele><time>2026-04-19T08:26:56.961Z</time></trkpt><trkpt lat="43.0188067" lon="11.996145"><ele>336.0</ele><time>2026-04-19T08:26:57.96Z</time></trkpt><trkpt lat="43.018825" lon="11.99624"><ele>336.0</ele><time>2026-04-19T08:26:58.961Z</time></trkpt><trkpt lat="43.01882" lon="11.99634"><ele>336.0</ele><time>2026-04-19T08:26:59.961Z</time></trkpt><trkpt lat="43.018825" lon="11.9964317"><ele>336.0</ele><time>2026-04-19T08:27:00.96Z</time></trkpt><trkpt lat="43.0188717" lon="11.9965517"><ele>336.0</ele><time>2026-04-19T08:27:02.96Z</time></trkpt><trkpt lat="43.0190067" lon="11.9965583"><ele>336.0</ele><time>2026-04-19T08:27:04.961Z</time></trkpt><trkpt lat="43.0191183" lon="11.9965483"><ele>337.6666666666667</ele><time>2026-04-19T08:27:05.961Z</time></trkpt><trkpt lat="43.0192217" lon="11.9965467"><ele>339.3333333333333</ele><time>2026-04-19T08:27:06.961Z</time></trkpt><trkpt lat="43.0192967" lon="11.9965783"><ele>341.0</ele><time>2026-04-19T08:27:07.96Z</time></trkpt><trkpt lat="43.0193633" lon="11.996645"><ele>342.66666666666663</ele><time>2026-04-19T08:27:08.961Z</time></trkpt><trkpt lat="43.019405" lon="11.996735"><ele>344.3333333333333</ele><time>2026-04-19T08:27:09.96Z</time></trkpt><trkpt lat="43.01942" lon="11.99685"><ele>346.0</ele><time>2026-04-19T08:27:10.96Z</time></trkpt><trkpt lat="43.019415" lon="11.997"><ele>346.0</ele><time>2026-04-19T08:27:11.96Z</time></trkpt><trkpt lat="43.0194" lon="11.9971783"><ele>346.0</ele><time>2026-04-19T08:27:12.959Z</time></trkpt><trkpt lat="43.0193867" lon="11.9973167"><ele>346.0</ele><time>2026-04-19T08:27:13.96Z</time></trkpt><trkpt lat="43.0193783" lon="11.9974117"><ele>346.0</ele><time>2026-04-19T08:27:14.959Z</time></trkpt><trkpt lat="43.019345" lon="11.9975383"><ele>346.0</ele><time>2026-04-19T08:27:16.959Z</time></trkpt><trkpt lat="43.0192367" lon="11.997675"><ele>341.0</ele><time>2026-04-19T08:27:18.959Z</time></trkpt><trkpt lat="43.0191483" lon="11.99778"><ele>336.0</ele><time>2026-04-19T08:27:19.959Z</time></trkpt><trkpt lat="43.0190467" lon="11.9978967"><ele>331.0</ele><time>2026-04-19T08:27:20.959Z</time></trkpt><trkpt lat="43.0189683" lon="11.99803"><ele>326.0</ele><time>2026-04-19T08:27:21.959Z</time></trkpt><trkpt lat="43.0189217" lon="11.9981633"><ele>326.0</ele><time>2026-04-19T08:27:22.96Z</time></trkpt><trkpt lat="43.0188817" lon="11.9982767"><ele>326.0</ele><time>2026-04-19T08:27:23.96Z</time></trkpt><trkpt lat="43.0188433" lon="11.9983783"><ele>326.0</ele><time>2026-04-19T08:27:24.959Z</time></trkpt><trkpt lat="43.01879" lon="11.9984467"><ele>326.0</ele><time>2026-04-19T08:27:25.96Z</time></trkpt><trkpt lat="43.0187183" lon="11.9985033"><ele>326.0</ele><time>2026-04-19T08:27:26.959Z</time></trkpt><trkpt lat="43.0186333" lon="11.9985567"><ele>326.0</ele><time>2026-04-19T08:27:27.959Z</time></trkpt><trkpt lat="43.018555" lon="11.998635"><ele>323.75</ele><time>2026-04-19T08:27:28.959Z</time></trkpt><trkpt lat="43.0184717" lon="11.9987467"><ele>321.5</ele><time>2026-04-19T08:27:29.96Z</time></trkpt><trkpt lat="43.0183967" lon="11.998885"><ele>319.25</ele><time>2026-04-19T08:27:30.959Z</time></trkpt><trkpt lat="43.01833" lon="11.999025"><ele>317.0</ele><time>2026-04-19T08:27:31.96Z</time></trkpt><trkpt lat="43.0182683" lon="11.99916"><ele>318.0</ele><time>2026-04-19T08:27:32.959Z</time></trkpt><trkpt lat="43.0182183" lon="11.999265"><ele>319.0</ele><time>2026-04-19T08:27:33.96Z</time></trkpt><trkpt lat="43.0181917" lon="11.9993617"><ele>320.0</ele><time>2026-04-19T08:27:34.959Z</time></trkpt><trkpt lat="43.0181883" lon="11.9994583"><ele>321.0</ele><time>2026-04-19T08:27:35.959Z</time></trkpt><trkpt lat="43.0182017" lon="11.9995517"><ele>322.0</ele><time>2026-04-19T08:27:36.959Z</time></trkpt><trkpt lat="43.01823" lon="11.999645"><ele>323.0</ele><time>2026-04-19T08:27:37.959Z</time></trkpt><trkpt lat="43.0182783" lon="11.9997467"><ele>328.75</ele><time>2026-04-19T08:27:38.959Z</time></trkpt><trkpt lat="43.01835" lon="11.9998583"><ele>334.5</ele><time>2026-04-19T08:27:39.959Z</time></trkpt><trkpt lat="43.018445" lon="11.9999733"><ele>340.25</ele><time>2026-04-19T08:27:40.96Z</time></trkpt><trkpt lat="43.0185383" lon="12.000095"><ele>346.0</ele><time>2026-04-19T08:27:41.959Z</time></trkpt><trkpt lat="43.018635" lon="12.0002017"><ele>346.0</ele><time>2026-04-19T08:27:42.959Z</time></trkpt><trkpt lat="43.0187417" lon="12.0003067"><ele>346.0</ele><time>2026-04-19T08:27:43.96Z</time></trkpt><trkpt lat="43.0188133" lon="12.0004117"><ele>346.0</ele><time>2026-04-19T08:27:44.959Z</time></trkpt><trkpt lat="43.01887" lon="12.0005367"><ele>346.0</ele><time>2026-04-19T08:27:45.959Z</time></trkpt><trkpt lat="43.0189183" lon="12.0006717"><ele>346.0</ele><time>2026-04-19T08:27:46.959Z</time></trkpt><trkpt lat="43.0189483" lon="12.000805"><ele>346.0</ele><time>2026-04-19T08:27:47.96Z</time></trkpt><trkpt lat="43.0189683" lon="12.0009183"><ele>346.0</ele><time>2026-04-19T08:27:48.959Z</time></trkpt><trkpt lat="43.0189817" lon="12.0010217"><ele>346.0</ele><time>2026-04-19T08:27:49.959Z</time></trkpt><trkpt lat="43.0189433" lon="12.001185"><ele>346.0</ele><time>2026-04-19T08:27:51.96Z</time></trkpt><trkpt lat="43.0189283" lon="12.00127"><ele>342.20000000000005</ele><time>2026-04-19T08:27:52.959Z</time></trkpt><trkpt lat="43.0189333" lon="12.001375"><ele>338.40000000000003</ele><time>2026-04-19T08:27:53.959Z</time></trkpt><trkpt lat="43.018955" lon="12.0014767"><ele>334.6</ele><time>2026-04-19T08:27:54.959Z</time></trkpt><trkpt lat="43.0189917" lon="12.001595"><ele>330.8</ele><time>2026-04-19T08:27:55.959Z</time></trkpt><trkpt lat="43.0190533" lon="12.001735"><ele>327.0</ele><time>2026-04-19T08:27:56.959Z</time></trkpt><trkpt lat="43.0191367" lon="12.0018983"><ele>329.0</ele><time>2026-04-19T08:27:57.96Z</time></trkpt><trkpt lat="43.0192183" lon="12.00208"><ele>331.0</ele><time>2026-04-19T08:27:58.96Z</time></trkpt><trkpt lat="43.0192867" lon="12.00226"><ele>333.0</ele><time>2026-04-19T08:27:59.959Z</time></trkpt><trkpt lat="43.0193517" lon="12.0024317"><ele>335.0</ele><time>2026-04-19T08:28:00.959Z</time></trkpt><trkpt lat="43.0194133" lon="12.002605"><ele>329.6666666666667</ele><time>2026-04-19T08:28:01.96Z</time></trkpt><trkpt lat="43.0194833" lon="12.0027833"><ele>324.3333333333333</ele><time>2026-04-19T08:28:02.959Z</time></trkpt><trkpt lat="43.01956" lon="12.0029617"><ele>319.0</ele><time>2026-04-19T08:28:03.96Z</time></trkpt><trkpt lat="43.0196617" lon="12.00315"><ele>314.66666666666663</ele><time>2026-04-19T08:28:04.96Z</time></trkpt><trkpt lat="43.0197733" lon="12.00334"><ele>310.3333333333333</ele><time>2026-04-19T08:28:05.96Z</time></trkpt><trkpt lat="43.0198783" lon="12.003525"><ele>306.0</ele><time>2026-04-19T08:28:06.959Z</time></trkpt><trkpt lat="43.0199817" lon="12.0037083"><ele>309.3333333333333</ele><time>2026-04-19T08:28:07.96Z</time></trkpt><trkpt lat="43.0200733" lon="12.003895"><ele>312.66666666666663</ele><time>2026-04-19T08:28:08.96Z</time></trkpt><trkpt lat="43.0201583" lon="12.0040717"><ele>316.0</ele><time>2026-04-19T08:28:09.96Z</time></trkpt><trkpt lat="43.0202233" lon="12.004255"><ele>316.0</ele><time>2026-04-19T08:28:10.96Z</time></trkpt><trkpt lat="43.0202833" lon="12.00443"><ele>316.0</ele><time>2026-04-19T08:28:11.96Z</time></trkpt><trkpt lat="43.0203433" lon="12.0045917"><ele>316.0</ele><time>2026-04-19T08:28:12.96Z</time></trkpt><trkpt lat="43.02039" lon="12.0047433"><ele>316.0</ele><time>2026-04-19T08:28:13.96Z</time></trkpt><trkpt lat="43.02044" lon="12.0048767"><ele>313.66666666666663</ele><time>2026-04-19T08:28:14.96Z</time></trkpt><trkpt lat="43.0204817" lon="12.005005"><ele>311.3333333333333</ele><time>2026-04-19T08:28:15.959Z</time></trkpt><trkpt lat="43.0205183" lon="12.0051117"><ele>309.0</ele><time>2026-04-19T08:28:16.96Z</time></trkpt><trkpt lat="43.02055" lon="12.005205"><ele>306.6666666666667</ele><time>2026-04-19T08:28:17.959Z</time></trkpt><trkpt lat="43.0205867" lon="12.0053167"><ele>304.33333333333337</ele><time>2026-04-19T08:28:19.96Z</time></trkpt><trkpt lat="43.0205017" lon="12.0053533"><ele>302.0</ele><time>2026-04-19T08:28:22.96Z</time></trkpt><trkpt lat="43.020415" lon="12.005255"><ele>302.0</ele><time>2026-04-19T08:28:24.96Z</time></trkpt><trkpt lat="43.02036" lon="12.0051783"><ele>302.0</ele><time>2026-04-19T08:28:25.96Z</time></trkpt><trkpt lat="43.0202867" lon="12.0050717"><ele>302.0</ele><time>2026-04-19T08:28:26.959Z</time></trkpt><trkpt lat="43.0201983" lon="12.0049517"><ele>302.0</ele><time>2026-04-19T08:28:27.959Z</time></trkpt><trkpt lat="43.0201067" lon="12.0048383"><ele>302.0</ele><time>2026-04-19T08:28:28.959Z</time></trkpt><trkpt lat="43.0199983" lon="12.00474"><ele>300.5</ele><time>2026-04-19T08:28:29.96Z</time></trkpt><trkpt lat="43.0198783" lon="12.0046517"><ele>299.0</ele><time>2026-04-19T08:28:30.959Z</time></trkpt><trkpt lat="43.0197433" lon="12.0045733"><ele>297.5</ele><time>2026-04-19T08:28:31.96Z</time></trkpt><trkpt lat="43.0196233" lon="12.0045067"><ele>296.0</ele><time>2026-04-19T08:28:32.96Z</time></trkpt><trkpt lat="43.01951" lon="12.0044583"><ele>296.0</ele><time>2026-04-19T08:28:33.959Z</time></trkpt><trkpt lat="43.01941" lon="12.0044083"><ele>296.0</ele><time>2026-04-19T08:28:34.96Z</time></trkpt><trkpt lat="43.0193267" lon="12.0043467"><ele>296.0</ele><time>2026-04-19T08:28:35.959Z</time></trkpt><trkpt lat="43.0192517" lon="12.0042833"><ele>296.0</ele><time>2026-04-19T08:28:36.96Z</time></trkpt><trkpt lat="43.01918" lon="12.0042083"><ele>296.0</ele><time>2026-04-19T08:28:37.96Z</time></trkpt><trkpt lat="43.0191017" lon="12.0040817"><ele>292.75</ele><time>2026-04-19T08:28:38.959Z</time></trkpt><trkpt lat="43.01902" lon="12.0039283"><ele>289.5</ele><time>2026-04-19T08:28:39.96Z</time></trkpt><trkpt lat="43.01893" lon="12.0038"><ele>286.25</ele><time>2026-04-19T08:28:40.96Z</time></trkpt><trkpt lat="43.01884" lon="12.0036933"><ele>283.0</ele><time>2026-04-19T08:28:41.96Z</time></trkpt><trkpt lat="43.0187517" lon="12.0036067"><ele>283.0</ele><time>2026-04-19T08:28:42.96Z</time></trkpt><trkpt lat="43.0186617" lon="12.0035283"><ele>283.0</ele><time>2026-04-19T08:28:43.96Z</time></trkpt><trkpt lat="43.0185567" lon="12.0034567"><ele>283.0</ele><time>2026-04-19T08:28:44.96Z</time></trkpt><trkpt lat="43.01846" lon="12.0033967"><ele>283.0</ele><time>2026-04-19T08:28:45.959Z</time></trkpt><trkpt lat="43.01837" lon="12.0033567"><ele>283.0</ele><time>2026-04-19T08:28:46.959Z</time></trkpt><trkpt lat="43.0182983" lon="12.0033217"><ele>282.16666666666663</ele><time>2026-04-19T08:28:47.96Z</time></trkpt><trkpt lat="43.0182317" lon="12.0032633"><ele>281.3333333333333</ele><time>2026-04-19T08:28:48.96Z</time></trkpt><trkpt lat="43.0181633" lon="12.0031867"><ele>280.5</ele><time>2026-04-19T08:28:49.96Z</time></trkpt><trkpt lat="43.0180983" lon="12.0031167"><ele>279.6666666666667</ele><time>2026-04-19T08:28:50.959Z</time></trkpt><trkpt lat="43.0180467" lon="12.00305"><ele>278.83333333333337</ele><time>2026-04-19T08:28:51.96Z</time></trkpt><trkpt lat="43.017965" lon="12.0029933"><ele>278.0</ele><time>2026-04-19T08:28:53.959Z</time></trkpt><trkpt lat="43.0179" lon="12.003065"><ele>278.0</ele><time>2026-04-19T08:28:55.96Z</time></trkpt><trkpt lat="43.017915" lon="12.0032"><ele>278.0</ele><time>2026-04-19T08:28:57.959Z</time></trkpt><trkpt lat="43.0179617" lon="12.0032817"><ele>278.0</ele><time>2026-04-19T08:28:58.959Z</time></trkpt><trkpt lat="43.018025" lon="12.0033583"><ele>278.0</ele><time>2026-04-19T08:28:59.959Z</time></trkpt><trkpt lat="43.0180733" lon="12.0034267"><ele>278.0</ele><time>2026-04-19T08:29:00.96Z</time></trkpt><trkpt lat="43.0181067" lon="12.0035283"><ele>278.0</ele><time>2026-04-19T08:29:02.96Z</time></trkpt><trkpt lat="43.0180367" lon="12.0035817"><ele>278.0</ele><time>2026-04-19T08:29:04.959Z</time></trkpt><trkpt lat="43.0179433" lon="12.0035383"><ele>278.0</ele><time>2026-04-19T08:29:06.96Z</time></trkpt><trkpt lat="43.017875" lon="12.0034817"><ele>278.0</ele><time>2026-04-19T08:29:07.96Z</time></trkpt><trkpt lat="43.0177783" lon="12.0034017"><ele>278.0</ele><time>2026-04-19T08:29:08.96Z</time></trkpt><trkpt lat="43.0176717" lon="12.0033333"><ele>278.0</ele><time>2026-04-19T08:29:09.959Z</time></trkpt><trkpt lat="43.0175433" lon="12.0032767"><ele>276.25</ele><time>2026-04-19T08:29:10.96Z</time></trkpt><trkpt lat="43.017405" lon="12.0032217"><ele>274.5</ele><time>2026-04-19T08:29:11.959Z</time></trkpt><trkpt lat="43.0172667" lon="12.0031833"><ele>272.75</ele><time>2026-04-19T08:29:12.959Z</time></trkpt><trkpt lat="43.0171167" lon="12.0031317"><ele>271.0</ele><time>2026-04-19T08:29:13.96Z</time></trkpt><trkpt lat="43.0169467" lon="12.0030667"><ele>271.0</ele><time>2026-04-19T08:29:14.959Z</time></trkpt><trkpt lat="43.0167683" lon="12.0030067"><ele>271.0</ele><time>2026-04-19T08:29:15.959Z</time></trkpt><trkpt lat="43.0165917" lon="12.0029467"><ele>271.0</ele><time>2026-04-19T08:29:16.96Z</time></trkpt><trkpt lat="43.016435" lon="12.002895"><ele>269.25</ele><time>2026-04-19T08:29:17.959Z</time></trkpt><trkpt lat="43.0162883" lon="12.0028217"><ele>267.5</ele><time>2026-04-19T08:29:18.96Z</time></trkpt><trkpt lat="43.016165" lon="12.0027383"><ele>265.75</ele><time>2026-04-19T08:29:19.959Z</time></trkpt><trkpt lat="43.0160417" lon="12.0026617"><ele>264.0</ele><time>2026-04-19T08:29:20.959Z</time></trkpt><trkpt lat="43.01593" lon="12.00259"><ele>264.0</ele><time>2026-04-19T08:29:21.959Z</time></trkpt><trkpt lat="43.0158267" lon="12.0025033"><ele>264.0</ele><time>2026-04-19T08:29:22.959Z</time></trkpt><trkpt lat="43.0157267" lon="12.0024"><ele>264.0</ele><time>2026-04-19T08:29:23.96Z</time></trkpt><trkpt lat="43.0156217" lon="12.0022683"><ele>264.0</ele><time>2026-04-19T08:29:24.96Z</time></trkpt><trkpt lat="43.0155117" lon="12.0021133"><ele>263.3333333333333</ele><time>2026-04-19T08:29:25.96Z</time></trkpt><trkpt lat="43.0153933" lon="12.0019367"><ele>262.66666666666663</ele><time>2026-04-19T08:29:26.959Z</time></trkpt><trkpt lat="43.0152783" lon="12.0017667"><ele>262.0</ele><time>2026-04-19T08:29:27.959Z</time></trkpt><trkpt lat="43.0151783" lon="12.0016017"><ele>260.5</ele><time>2026-04-19T08:29:28.959Z</time></trkpt><trkpt lat="43.0150833" lon="12.00144"><ele>259.0</ele><time>2026-04-19T08:29:29.959Z</time></trkpt><trkpt lat="43.0150017" lon="12.0013017"><ele>257.5</ele><time>2026-04-19T08:29:30.959Z</time></trkpt><trkpt lat="43.0149383" lon="12.001185"><ele>256.0</ele><time>2026-04-19T08:29:31.959Z</time></trkpt><trkpt lat="43.0148883" lon="12.0010567"><ele>256.0</ele><time>2026-04-19T08:29:32.959Z</time></trkpt><trkpt lat="43.0148333" lon="12.0009"><ele>256.0</ele><time>2026-04-19T08:29:33.96Z</time></trkpt><trkpt lat="43.01479" lon="12.0007133"><ele>256.0</ele><time>2026-04-19T08:29:34.96Z</time></trkpt><trkpt lat="43.01475" lon="12.0004817"><ele>256.0</ele><time>2026-04-19T08:29:35.96Z</time></trkpt><trkpt lat="43.0147217" lon="12.0002617"><ele>256.25</ele><time>2026-04-19T08:29:36.96Z</time></trkpt><trkpt lat="43.0147" lon="12.00006"><ele>256.5</ele><time>2026-04-19T08:29:37.96Z</time></trkpt><trkpt lat="43.014685" lon="11.99989"><ele>256.75</ele><time>2026-04-19T08:29:38.96Z</time></trkpt><trkpt lat="43.0146633" lon="11.9997567"><ele>257.0</ele><time>2026-04-19T08:29:39.959Z</time></trkpt><trkpt lat="43.0146417" lon="11.99964"><ele>257.0</ele><time>2026-04-19T08:29:40.959Z</time></trkpt><trkpt lat="43.0146217" lon="11.9995333"><ele>257.0</ele><time>2026-04-19T08:29:41.96Z</time></trkpt><trkpt lat="43.0145883" lon="11.9994567"><ele>257.0</ele><time>2026-04-19T08:29:42.959Z</time></trkpt><trkpt lat="43.0145433" lon="11.99939"><ele>257.0</ele><time>2026-04-19T08:29:43.96Z</time></trkpt><trkpt lat="43.0144717" lon="11.9993483"><ele>257.0</ele><time>2026-04-19T08:29:44.959Z</time></trkpt><trkpt lat="43.0143983" lon="11.9993383"><ele>257.0</ele><time>2026-04-19T08:29:45.96Z</time></trkpt><trkpt lat="43.01432" lon="11.99934"><ele>257.0</ele><time>2026-04-19T08:29:46.959Z</time></trkpt><trkpt lat="43.014245" lon="11.9993483"><ele>257.0</ele><time>2026-04-19T08:29:47.959Z</time></trkpt><trkpt lat="43.0141733" lon="11.9993567"><ele>257.0</ele><time>2026-04-19T08:29:48.959Z</time></trkpt><trkpt lat="43.0141033" lon="11.9993533"><ele>257.0</ele><time>2026-04-19T08:29:49.96Z</time></trkpt><trkpt lat="43.014035" lon="11.9993467"><ele>257.0</ele><time>2026-04-19T08:29:50.96Z</time></trkpt><trkpt lat="43.0138783" lon="11.9993617"><ele>257.0</ele><time>2026-04-19T08:29:52.959Z</time></trkpt><trkpt lat="43.0137583" lon="11.999355"><ele>256.5</ele><time>2026-04-19T08:29:53.96Z</time></trkpt><trkpt lat="43.0136367" lon="11.9993233"><ele>256.0</ele><time>2026-04-19T08:29:54.96Z</time></trkpt><trkpt lat="43.0135133" lon="11.99927"><ele>255.5</ele><time>2026-04-19T08:29:55.96Z</time></trkpt><trkpt lat="43.0134" lon="11.9992217"><ele>255.0</ele><time>2026-04-19T08:29:56.96Z</time></trkpt><trkpt lat="43.0132983" lon="11.9991683"><ele>254.8</ele><time>2026-04-19T08:29:57.96Z</time></trkpt><trkpt lat="43.0131983" lon="11.9991333"><ele>254.6</ele><time>2026-04-19T08:29:58.96Z</time></trkpt><trkpt lat="43.0131083" lon="11.9991133"><ele>254.39999999999998</ele><time>2026-04-19T08:29:59.959Z</time></trkpt><trkpt lat="43.0130267" lon="11.9991117"><ele>254.2</ele><time>2026-04-19T08:30:00.959Z</time></trkpt><trkpt lat="43.0129517" lon="11.9991217"><ele>254.0</ele><time>2026-04-19T08:30:01.96Z</time></trkpt><trkpt lat="43.012845" lon="11.99917"><ele>254.0</ele><time>2026-04-19T08:30:03.96Z</time></trkpt><trkpt lat="43.0127817" lon="11.9993017"><ele>253.99999999999997</ele><time>2026-04-19T08:30:05.959Z</time></trkpt><trkpt lat="43.0127667" lon="11.9994067"><ele>253.99999999999997</ele><time>2026-04-19T08:30:06.959Z</time></trkpt><trkpt lat="43.0127467" lon="11.99955"><ele>254.0</ele><time>2026-04-19T08:30:07.96Z</time></trkpt><trkpt lat="43.012745" lon="11.9997517"><ele>254.0</ele><time>2026-04-19T08:30:08.959Z</time></trkpt><trkpt lat="43.01275" lon="12.0000033"><ele>254.0</ele><time>2026-04-19T08:30:09.959Z</time></trkpt><trkpt lat="43.012745" lon="12.0002467"><ele>254.0</ele><time>2026-04-19T08:30:10.959Z</time></trkpt><trkpt lat="43.0127433" lon="12.0004433"><ele>254.0</ele><time>2026-04-19T08:30:11.96Z</time></trkpt><trkpt lat="43.012735" lon="12.000605"><ele>254.0</ele><time>2026-04-19T08:30:12.96Z</time></trkpt><trkpt lat="43.01272" lon="12.00074"><ele>254.00000000000003</ele><time>2026-04-19T08:30:13.96Z</time></trkpt><trkpt lat="43.0127117" lon="12.0008383"><ele>254.0</ele><time>2026-04-19T08:30:14.959Z</time></trkpt><trkpt lat="43.01268" lon="12.0009267"><ele>254.0</ele><time>2026-04-19T08:30:15.96Z</time></trkpt><trkpt lat="43.0126333" lon="12.0010083"><ele>254.0</ele><time>2026-04-19T08:30:16.96Z</time></trkpt><trkpt lat="43.012555" lon="12.001095"><ele>254.00000000000003</ele><time>2026-04-19T08:30:17.959Z</time></trkpt><trkpt lat="43.012445" lon="12.0011817"><ele>254.0</ele><time>2026-04-19T08:30:18.959Z</time></trkpt><trkpt lat="43.0123183" lon="12.0012683"><ele>253.75</ele><time>2026-04-19T08:30:19.96Z</time></trkpt><trkpt lat="43.0121833" lon="12.0013367"><ele>253.5</ele><time>2026-04-19T08:30:20.959Z</time></trkpt><trkpt lat="43.012055" lon="12.0014083"><ele>253.25</ele><time>2026-04-19T08:30:21.959Z</time></trkpt><trkpt lat="43.0119317" lon="12.0014767"><ele>253.0</ele><time>2026-04-19T08:30:22.96Z</time></trkpt><trkpt lat="43.01182" lon="12.0015417"><ele>253.0</ele><time>2026-04-19T08:30:23.959Z</time></trkpt><trkpt lat="43.0117183" lon="12.0015983"><ele>253.0</ele><time>2026-04-19T08:30:24.959Z</time></trkpt><trkpt lat="43.0116117" lon="12.0016667"><ele>253.0</ele><time>2026-04-19T08:30:25.959Z</time></trkpt><trkpt lat="43.01152" lon="12.0017217"><ele>253.0</ele><time>2026-04-19T08:30:26.959Z</time></trkpt><trkpt lat="43.0114283" lon="12.001775"><ele>253.0</ele><time>2026-04-19T08:30:27.96Z</time></trkpt><trkpt lat="43.0113317" lon="12.0018267"><ele>253.4</ele><time>2026-04-19T08:30:28.959Z</time></trkpt><trkpt lat="43.0112267" lon="12.0018883"><ele>253.8</ele><time>2026-04-19T08:30:29.96Z</time></trkpt><trkpt lat="43.0111267" lon="12.00194"><ele>254.2</ele><time>2026-04-19T08:30:30.96Z</time></trkpt><trkpt lat="43.0110233" lon="12.0019967"><ele>254.6</ele><time>2026-04-19T08:30:31.96Z</time></trkpt><trkpt lat="43.0109133" lon="12.00204"><ele>255.0</ele><time>2026-04-19T08:30:32.959Z</time></trkpt><trkpt lat="43.010805" lon="12.002065"><ele>255.0</ele><time>2026-04-19T08:30:33.96Z</time></trkpt><trkpt lat="43.0106983" lon="12.0020817"><ele>255.0</ele><time>2026-04-19T08:30:34.959Z</time></trkpt><trkpt lat="43.0105717" lon="12.0021033"><ele>255.0</ele><time>2026-04-19T08:30:35.959Z</time></trkpt><trkpt lat="43.0104267" lon="12.0021417"><ele>255.0</ele><time>2026-04-19T08:30:36.96Z</time></trkpt><trkpt lat="43.01027" lon="12.0021983"><ele>255.0</ele><time>2026-04-19T08:30:37.959Z</time></trkpt><trkpt lat="43.0101033" lon="12.0022967"><ele>255.0</ele><time>2026-04-19T08:30:38.96Z</time></trkpt><trkpt lat="43.009935" lon="12.0023933"><ele>255.0</ele><time>2026-04-19T08:30:39.959Z</time></trkpt><trkpt lat="43.00975" lon="12.002485"><ele>255.0</ele><time>2026-04-19T08:30:40.959Z</time></trkpt><trkpt lat="43.00956" lon="12.00257"><ele>255.0</ele><time>2026-04-19T08:30:41.959Z</time></trkpt><trkpt lat="43.009355" lon="12.00267"><ele>255.0</ele><time>2026-04-19T08:30:42.96Z</time></trkpt><trkpt lat="43.0091383" lon="12.002795"><ele>255.0</ele><time>2026-04-19T08:30:43.959Z</time></trkpt><trkpt lat="43.0089367" lon="12.0029233"><ele>255.0</ele><time>2026-04-19T08:30:44.96Z</time></trkpt><trkpt lat="43.0087467" lon="12.0030417"><ele>255.0</ele><time>2026-04-19T08:30:45.959Z</time></trkpt><trkpt lat="43.008585" lon="12.0031517"><ele>255.0</ele><time>2026-04-19T08:30:46.96Z</time></trkpt><trkpt lat="43.008435" lon="12.003245"><ele>255.0</ele><time>2026-04-19T08:30:47.96Z</time></trkpt><trkpt lat="43.0082917" lon="12.0033283"><ele>255.0</ele><time>2026-04-19T08:30:48.96Z</time></trkpt><trkpt lat="43.0081383" lon="12.0033867"><ele>255.33333333333331</ele><time>2026-04-19T08:30:49.959Z</time></trkpt><trkpt lat="43.0079717" lon="12.003425"><ele>255.66666666666666</ele><time>2026-04-19T08:30:50.96Z</time></trkpt><trkpt lat="43.00778" lon="12.0034567"><ele>256.0</ele><time>2026-04-19T08:30:51.959Z</time></trkpt><trkpt lat="43.0076067" lon="12.0034717"><ele>256.66666666666663</ele><time>2026-04-19T08:30:52.96Z</time></trkpt><trkpt lat="43.0074467" lon="12.0034917"><ele>257.3333333333333</ele><time>2026-04-19T08:30:53.959Z</time></trkpt><trkpt lat="43.007295" lon="12.0035083"><ele>258.0</ele><time>2026-04-19T08:30:54.959Z</time></trkpt><trkpt lat="43.007145" lon="12.0035367"><ele>258.0</ele><time>2026-04-19T08:30:55.959Z</time></trkpt><trkpt lat="43.0070183" lon="12.0035667"><ele>258.0</ele><time>2026-04-19T08:30:56.959Z</time></trkpt><trkpt lat="43.0069083" lon="12.0036017"><ele>258.0</ele><time>2026-04-19T08:30:57.959Z</time></trkpt><trkpt lat="43.0068167" lon="12.003625"><ele>258.0</ele><time>2026-04-19T08:30:58.96Z</time></trkpt><trkpt lat="43.0067383" lon="12.00365"><ele>258.0</ele><time>2026-04-19T08:30:59.96Z</time></trkpt><trkpt lat="43.006645" lon="12.00368"><ele>258.2</ele><time>2026-04-19T08:31:01.959Z</time></trkpt><trkpt lat="43.0065583" lon="12.0036133"><ele>258.4</ele><time>2026-04-19T08:31:10.959Z</time></trkpt><trkpt lat="43.0065033" lon="12.0035583"><ele>258.59999999999997</ele><time>2026-04-19T08:31:11.96Z</time></trkpt><trkpt lat="43.0064283" lon="12.0034917"><ele>258.8</ele><time>2026-04-19T08:31:12.959Z</time></trkpt><trkpt lat="43.00632" lon="12.0033883"><ele>259.0</ele><time>2026-04-19T08:31:13.959Z</time></trkpt><trkpt lat="43.0061733" lon="12.0032733"><ele>258.66666666666663</ele><time>2026-04-19T08:31:14.959Z</time></trkpt><trkpt lat="43.005995" lon="12.0031417"><ele>258.3333333333333</ele><time>2026-04-19T08:31:15.959Z</time></trkpt><trkpt lat="43.0058083" lon="12.0030017"><ele>258.0</ele><time>2026-04-19T08:31:16.96Z</time></trkpt><trkpt lat="43.0056367" lon="12.002875"><ele>258.0</ele><time>2026-04-19T08:31:17.96Z</time></trkpt><trkpt lat="43.0054817" lon="12.0027667"><ele>258.0</ele><time>2026-04-19T08:31:18.96Z</time></trkpt><trkpt lat="43.00534" lon="12.0026633"><ele>258.0</ele><time>2026-04-19T08:31:19.959Z</time></trkpt><trkpt lat="43.005215" lon="12.0025683"><ele>258.0</ele><time>2026-04-19T08:31:20.959Z</time></trkpt><trkpt lat="43.0051017" lon="12.0024917"><ele>258.0</ele><time>2026-04-19T08:31:21.96Z</time></trkpt><trkpt lat="43.005015" lon="12.002395"><ele>258.0</ele><time>2026-04-19T08:31:22.96Z</time></trkpt><trkpt lat="43.0049433" lon="12.002295"><ele>258.0</ele><time>2026-04-19T08:31:23.96Z</time></trkpt><trkpt lat="43.0048867" lon="12.002185"><ele>258.0</ele><time>2026-04-19T08:31:24.96Z</time></trkpt><trkpt lat="43.00485" lon="12.0020733"><ele>259.0</ele><time>2026-04-19T08:31:25.96Z</time></trkpt><trkpt lat="43.0048217" lon="12.0019617"><ele>260.0</ele><time>2026-04-19T08:31:26.959Z</time></trkpt><trkpt lat="43.0048083" lon="12.001845"><ele>261.0</ele><time>2026-04-19T08:31:27.959Z</time></trkpt><trkpt lat="43.004805" lon="12.0017317"><ele>262.0</ele><time>2026-04-19T08:31:28.959Z</time></trkpt><trkpt lat="43.0048033" lon="12.001645"><ele>263.0</ele><time>2026-04-19T08:31:29.959Z</time></trkpt><trkpt lat="43.00481" lon="12.0014617"><ele>263.5</ele><time>2026-04-19T08:31:31.96Z</time></trkpt><trkpt lat="43.0048183" lon="12.0013183"><ele>264.0</ele><time>2026-04-19T08:31:32.96Z</time></trkpt><trkpt lat="43.0048317" lon="12.001145"><ele>264.5</ele><time>2026-04-19T08:31:33.959Z</time></trkpt><trkpt lat="43.00484" lon="12.0009717"><ele>265.0</ele><time>2026-04-19T08:31:34.959Z</time></trkpt><trkpt lat="43.0048483" lon="12.0008183"><ele>264.0</ele><time>2026-04-19T08:31:35.96Z</time></trkpt><trkpt lat="43.004855" lon="12.0006983"><ele>263.0</ele><time>2026-04-19T08:31:36.96Z</time></trkpt><trkpt lat="43.00486" lon="12.00061"><ele>262.0</ele><time>2026-04-19T08:31:37.959Z</time></trkpt><trkpt lat="43.0048133" lon="12.00054"><ele>261.0</ele><time>2026-04-19T08:31:39.96Z</time></trkpt><trkpt lat="43.0047133" lon="12.000535"><ele>260.0</ele><time>2026-04-19T08:31:41.96Z</time></trkpt><trkpt lat="43.0046383" lon="12.0005533"><ele>259.0</ele><time>2026-04-19T08:31:42.959Z</time></trkpt><trkpt lat="43.0045383" lon="12.0005933"><ele>259.0</ele><time>2026-04-19T08:31:43.96Z</time></trkpt><trkpt lat="43.0044133" lon="12.0006367"><ele>259.0</ele><time>2026-04-19T08:31:44.959Z</time></trkpt><trkpt lat="43.004275" lon="12.0006967"><ele>259.0</ele><time>2026-04-19T08:31:45.96Z</time></trkpt><trkpt lat="43.0041433" lon="12.00076"><ele>259.0</ele><time>2026-04-19T08:31:46.96Z</time></trkpt><trkpt lat="43.0040383" lon="12.000805"><ele>261.59999999999997</ele><time>2026-04-19T08:31:47.96Z</time></trkpt><trkpt lat="43.0039517" lon="12.0008467"><ele>264.2</ele><time>2026-04-19T08:31:48.959Z</time></trkpt><trkpt lat="43.003865" lon="12.0008867"><ele>266.79999999999995</ele><time>2026-04-19T08:31:49.959Z</time></trkpt><trkpt lat="43.0037767" lon="12.00092"><ele>269.4</ele><time>2026-04-19T08:31:50.96Z</time></trkpt><trkpt lat="43.0036917" lon="12.0009433"><ele>272.0</ele><time>2026-04-19T08:31:51.959Z</time></trkpt><trkpt lat="43.0035983" lon="12.00096"><ele>272.0</ele><time>2026-04-19T08:31:52.96Z</time></trkpt><trkpt lat="43.0035033" lon="12.00096"><ele>272.0</ele><time>2026-04-19T08:31:53.96Z</time></trkpt><trkpt lat="43.0034183" lon="12.00095"><ele>272.0</ele><time>2026-04-19T08:31:54.959Z</time></trkpt><trkpt lat="43.0033417" lon="12.000935"><ele>272.0</ele><time>2026-04-19T08:31:55.959Z</time></trkpt><trkpt lat="43.0032633" lon="12.0009133"><ele>272.0</ele><time>2026-04-19T08:31:56.959Z</time></trkpt><trkpt lat="43.003185" lon="12.0008983"><ele>272.0</ele><time>2026-04-19T08:31:57.959Z</time></trkpt><trkpt lat="43.00311" lon="12.0009017"><ele>272.33333333333337</ele><time>2026-04-19T08:31:58.96Z</time></trkpt><trkpt lat="43.0030383" lon="12.000925"><ele>272.6666666666667</ele><time>2026-04-19T08:31:59.959Z</time></trkpt><trkpt lat="43.0029483" lon="12.0010183"><ele>273.0</ele><time>2026-04-19T08:32:01.959Z</time></trkpt><trkpt lat="43.00291" lon="12.0010867"><ele>273.3333333333333</ele><time>2026-04-19T08:32:02.96Z</time></trkpt><trkpt lat="43.002885" lon="12.0011817"><ele>273.66666666666663</ele><time>2026-04-19T08:32:03.959Z</time></trkpt><trkpt lat="43.002865" lon="12.0012933"><ele>274.0</ele><time>2026-04-19T08:32:04.96Z</time></trkpt><trkpt lat="43.0028317" lon="12.0014017"><ele>274.0</ele><time>2026-04-19T08:32:05.959Z</time></trkpt><trkpt lat="43.0027917" lon="12.0014833"><ele>274.0</ele><time>2026-04-19T08:32:06.96Z</time></trkpt><trkpt lat="43.0027333" lon="12.001555"><ele>274.0</ele><time>2026-04-19T08:32:07.959Z</time></trkpt><trkpt lat="43.00266" lon="12.001625"><ele>274.0</ele><time>2026-04-19T08:32:08.959Z</time></trkpt><trkpt lat="43.0025483" lon="12.001705"><ele>274.0</ele><time>2026-04-19T08:32:09.959Z</time></trkpt><trkpt lat="43.0024417" lon="12.0017733"><ele>275.5</ele><time>2026-04-19T08:32:10.96Z</time></trkpt><trkpt lat="43.002335" lon="12.0018517"><ele>277.0</ele><time>2026-04-19T08:32:11.959Z</time></trkpt><trkpt lat="43.002235" lon="12.0019467"><ele>278.5</ele><time>2026-04-19T08:32:12.96Z</time></trkpt><trkpt lat="43.0021333" lon="12.0020317"><ele>280.0</ele><time>2026-04-19T08:32:13.959Z</time></trkpt><trkpt lat="43.002025" lon="12.0020833"><ele>280.0</ele><time>2026-04-19T08:32:14.96Z</time></trkpt><trkpt lat="43.0019117" lon="12.0021283"><ele>280.0</ele><time>2026-04-19T08:32:15.959Z</time></trkpt><trkpt lat="43.0017933" lon="12.0021617"><ele>280.0</ele><time>2026-04-19T08:32:16.96Z</time></trkpt><trkpt lat="43.0016517" lon="12.0022067"><ele>280.0</ele><time>2026-04-19T08:32:17.96Z</time></trkpt><trkpt lat="43.0015133" lon="12.00225"><ele>279.75</ele><time>2026-04-19T08:32:18.96Z</time></trkpt><trkpt lat="43.0013733" lon="12.0023083"><ele>279.5</ele><time>2026-04-19T08:32:19.959Z</time></trkpt><trkpt lat="43.00123" lon="12.0023717"><ele>279.25</ele><time>2026-04-19T08:32:20.959Z</time></trkpt><trkpt lat="43.0010983" lon="12.00243"><ele>279.0</ele><time>2026-04-19T08:32:21.96Z</time></trkpt><trkpt lat="43.0009733" lon="12.0024767"><ele>279.0</ele><time>2026-04-19T08:32:22.96Z</time></trkpt><trkpt lat="43.0008583" lon="12.0024917"><ele>279.0</ele><time>2026-04-19T08:32:23.959Z</time></trkpt><trkpt lat="43.0007483" lon="12.0025083"><ele>279.0</ele><time>2026-04-19T08:32:24.96Z</time></trkpt><trkpt lat="43.0006367" lon="12.0025233"><ele>279.0</ele><time>2026-04-19T08:32:25.959Z</time></trkpt><trkpt lat="43.0005133" lon="12.0025467"><ele>282.75</ele><time>2026-04-19T08:32:26.96Z</time></trkpt><trkpt lat="43.0003767" lon="12.0025783"><ele>286.5</ele><time>2026-04-19T08:32:27.959Z</time></trkpt><trkpt lat="43.000255" lon="12.0026067"><ele>290.25</ele><time>2026-04-19T08:32:28.96Z</time></trkpt><trkpt lat="43.0001317" lon="12.0026367"><ele>294.0</ele><time>2026-04-19T08:32:29.959Z</time></trkpt><trkpt lat="43.000025" lon="12.0026567"><ele>294.0</ele><time>2026-04-19T08:32:30.96Z</time></trkpt><trkpt lat="42.99993" lon="12.0026783"><ele>294.0</ele><time>2026-04-19T08:32:31.959Z</time></trkpt><trkpt lat="42.9998417" lon="12.0026883"><ele>294.0</ele><time>2026-04-19T08:32:32.96Z</time></trkpt><trkpt lat="42.9997483" lon="12.0027033"><ele>294.0</ele><time>2026-04-19T08:32:33.959Z</time></trkpt><trkpt lat="42.999635" lon="12.0027167"><ele>294.0</ele><time>2026-04-19T08:32:34.959Z</time></trkpt><trkpt lat="42.99954" lon="12.002735"><ele>294.0</ele><time>2026-04-19T08:32:35.959Z</time></trkpt><trkpt lat="42.999435" lon="12.0027533"><ele>294.0</ele><time>2026-04-19T08:32:36.96Z</time></trkpt><trkpt lat="42.9993267" lon="12.0027717"><ele>294.0</ele><time>2026-04-19T08:32:37.96Z</time></trkpt><trkpt lat="42.99923" lon="12.0028033"><ele>294.0</ele><time>2026-04-19T08:32:38.96Z</time></trkpt><trkpt lat="42.9991483" lon="12.002845"><ele>294.0</ele><time>2026-04-19T08:32:39.96Z</time></trkpt><trkpt lat="42.9990867" lon="12.0029117"><ele>295.0</ele><time>2026-04-19T08:32:40.959Z</time></trkpt><trkpt lat="42.9990317" lon="12.0029867"><ele>296.0</ele><time>2026-04-19T08:32:41.96Z</time></trkpt><trkpt lat="42.9989983" lon="12.00306"><ele>297.0</ele><time>2026-04-19T08:32:42.959Z</time></trkpt><trkpt lat="42.9989567" lon="12.00319"><ele>298.0</ele><time>2026-04-19T08:32:44.959Z</time></trkpt><trkpt lat="42.9989283" lon="12.0032683"><ele>299.0</ele><time>2026-04-19T08:32:47.959Z</time></trkpt><trkpt lat="42.9988267" lon="12.00323"><ele>300.0</ele><time>2026-04-19T08:32:50.959Z</time></trkpt><trkpt lat="42.99871" lon="12.0031617"><ele>300.0</ele><time>2026-04-19T08:32:52.959Z</time></trkpt><trkpt lat="42.9986" lon="12.003105"><ele>300.0</ele><time>2026-04-19T08:32:54.96Z</time></trkpt><trkpt lat="42.9985317" lon="12.0030383"><ele>300.0</ele><time>2026-04-19T08:32:56.96Z</time></trkpt><trkpt lat="42.9984683" lon="12.0029383"><ele>300.0</ele><time>2026-04-19T08:32:58.96Z</time></trkpt><trkpt lat="42.9983983" lon="12.0028817"><ele>300.0</ele><time>2026-04-19T08:33:00.96Z</time></trkpt><trkpt lat="42.9983467" lon="12.0028217"><ele>300.0</ele><time>2026-04-19T08:33:03.96Z</time></trkpt><trkpt lat="42.9983883" lon="12.00291"><ele>300.0</ele><time>2026-04-19T08:33:14.96Z</time></trkpt><trkpt lat="42.9985" lon="12.003"><ele>300.0</ele><time>2026-04-19T08:33:16.959Z</time></trkpt><trkpt lat="42.9985967" lon="12.0030867"><ele>300.0</ele><time>2026-04-19T08:33:18.959Z</time></trkpt><trkpt lat="42.99866" lon="12.003125"><ele>300.0</ele><time>2026-04-19T08:33:20.959Z</time></trkpt><trkpt lat="42.9987217" lon="12.00317"><ele>300.0</ele><time>2026-04-19T08:33:24.959Z</time></trkpt><trkpt lat="42.9987017" lon="12.0032667"><ele>301.1666666666667</ele><time>2026-04-19T08:33:34.959Z</time></trkpt><trkpt lat="42.9986717" lon="12.0033433"><ele>302.3333333333333</ele><time>2026-04-19T08:33:36.96Z</time></trkpt><trkpt lat="42.9986533" lon="12.0034267"><ele>303.5</ele><time>2026-04-19T08:33:38.96Z</time></trkpt><trkpt lat="42.99867" lon="12.0035233"><ele>304.66666666666663</ele><time>2026-04-19T08:33:40.959Z</time></trkpt><trkpt lat="42.9986917" lon="12.00364"><ele>305.8333333333333</ele><time>2026-04-19T08:33:42.96Z</time></trkpt><trkpt lat="42.9986983" lon="12.00376"><ele>307.0</ele><time>2026-04-19T08:33:44.96Z</time></trkpt><trkpt lat="42.9986817" lon="12.0038767"><ele>307.0</ele><time>2026-04-19T08:33:46.96Z</time></trkpt><trkpt lat="42.998635" lon="12.0039783"><ele>307.0</ele><time>2026-04-19T08:33:48.96Z</time></trkpt><trkpt lat="42.9985917" lon="12.0040867"><ele>307.0</ele><time>2026-04-19T08:33:50.959Z</time></trkpt><trkpt lat="42.9985633" lon="12.0041767"><ele>307.0</ele><time>2026-04-19T08:33:52.959Z</time></trkpt><trkpt lat="42.998555" lon="12.0042867"><ele>307.0</ele><time>2026-04-19T08:33:54.96Z</time></trkpt><trkpt lat="42.9985733" lon="12.0043783"><ele>307.0</ele><time>2026-04-19T08:33:56.959Z</time></trkpt><trkpt lat="42.9985967" lon="12.0044917"><ele>305.8333333333333</ele><time>2026-04-19T08:33:59.959Z</time></trkpt><trkpt lat="42.9986233" lon="12.0045983"><ele>304.66666666666663</ele><time>2026-04-19T08:34:02.96Z</time></trkpt><trkpt lat="42.9986517" lon="12.0047267"><ele>303.5</ele><time>2026-04-19T08:34:05.959Z</time></trkpt><trkpt lat="42.9986783" lon="12.004815"><ele>302.3333333333333</ele><time>2026-04-19T08:34:07.959Z</time></trkpt><trkpt lat="42.9987017" lon="12.0049"><ele>301.1666666666667</ele><time>2026-04-19T08:34:09.96Z</time></trkpt><trkpt lat="42.99873" lon="12.0050183"><ele>300.0</ele><time>2026-04-19T08:34:12.96Z</time></trkpt><trkpt lat="42.9987483" lon="12.0051017"><ele>298.1428571428571</ele><time>2026-04-19T08:34:14.959Z</time></trkpt><trkpt lat="42.998775" lon="12.005185"><ele>296.2857142857143</ele><time>2026-04-19T08:34:16.96Z</time></trkpt><trkpt lat="42.9988" lon="12.005275"><ele>294.42857142857144</ele><time>2026-04-19T08:34:18.959Z</time></trkpt><trkpt lat="42.99884" lon="12.0053917"><ele>292.57142857142856</ele><time>2026-04-19T08:34:21.96Z</time></trkpt><trkpt lat="42.99887" lon="12.0054867"><ele>290.7142857142857</ele><time>2026-04-19T08:34:23.96Z</time></trkpt><trkpt lat="42.9989067" lon="12.0055733"><ele>288.85714285714283</ele><time>2026-04-19T08:34:25.96Z</time></trkpt><trkpt lat="42.9989367" lon="12.0056533"><ele>287.0</ele><time>2026-04-19T08:34:27.96Z</time></trkpt><trkpt lat="42.9989817" lon="12.005745"><ele>285.0</ele><time>2026-04-19T08:34:29.96Z</time></trkpt><trkpt lat="42.9990667" lon="12.00585"><ele>283.0</ele><time>2026-04-19T08:34:31.96Z</time></trkpt><trkpt lat="42.999165" lon="12.0059283"><ele>281.0</ele><time>2026-04-19T08:34:33.96Z</time></trkpt><trkpt lat="42.9992683" lon="12.0059867"><ele>279.0</ele><time>2026-04-19T08:34:35.96Z</time></trkpt><trkpt lat="42.9993833" lon="12.00605"><ele>278.8</ele><time>2026-04-19T08:34:37.96Z</time></trkpt><trkpt lat="42.99945" lon="12.0060733"><ele>278.59999999999997</ele><time>2026-04-19T08:34:38.96Z</time></trkpt><trkpt lat="42.9995517" lon="12.0061217"><ele>278.4</ele><time>2026-04-19T08:34:40.959Z</time></trkpt><trkpt lat="42.999645" lon="12.0061417"><ele>278.2</ele><time>2026-04-19T08:34:42.959Z</time></trkpt><trkpt lat="42.9997583" lon="12.0061633"><ele>278.0</ele><time>2026-04-19T08:34:44.959Z</time></trkpt><trkpt lat="42.999855" lon="12.0061917"><ele>278.0</ele><time>2026-04-19T08:34:46.96Z</time></trkpt><trkpt lat="42.999935" lon="12.0062117"><ele>278.0</ele><time>2026-04-19T08:34:48.959Z</time></trkpt><trkpt lat="43.0000267" lon="12.00626"><ele>278.0</ele><time>2026-04-19T08:34:50.96Z</time></trkpt><trkpt lat="43.000105" lon="12.00631"><ele>278.0</ele><time>2026-04-19T08:34:52.96Z</time></trkpt><trkpt lat="43.000165" lon="12.0064067"><ele>278.0</ele><time>2026-04-19T08:34:55.959Z</time></trkpt><trkpt lat="43.0002017" lon="12.006515"><ele>278.0</ele><time>2026-04-19T08:34:57.96Z</time></trkpt><trkpt lat="43.0002483" lon="12.006675"><ele>276.8</ele><time>2026-04-19T08:34:59.959Z</time></trkpt><trkpt lat="43.0002767" lon="12.0067633"><ele>275.6</ele><time>2026-04-19T08:35:00.96Z</time></trkpt><trkpt lat="43.0003017" lon="12.00685"><ele>274.4</ele><time>2026-04-19T08:35:01.959Z</time></trkpt><trkpt lat="43.0003217" lon="12.007005"><ele>273.2</ele><time>2026-04-19T08:35:03.959Z</time></trkpt><trkpt lat="43.00029" lon="12.0071783"><ele>272.0</ele><time>2026-04-19T08:35:05.959Z</time></trkpt><trkpt lat="43.000265" lon="12.0073033"><ele>272.0</ele><time>2026-04-19T08:35:06.959Z</time></trkpt><trkpt lat="43.0002383" lon="12.0074533"><ele>272.0</ele><time>2026-04-19T08:35:07.96Z</time></trkpt><trkpt lat="43.0002217" lon="12.0076167"><ele>272.0</ele><time>2026-04-19T08:35:08.96Z</time></trkpt><trkpt lat="43.000215" lon="12.0077933"><ele>272.0</ele><time>2026-04-19T08:35:09.96Z</time></trkpt><trkpt lat="43.000205" lon="12.0079717"><ele>271.83333333333337</ele><time>2026-04-19T08:35:10.959Z</time></trkpt><trkpt lat="43.000195" lon="12.00813"><ele>271.6666666666667</ele><time>2026-04-19T08:35:11.96Z</time></trkpt><trkpt lat="43.0001933" lon="12.0082617"><ele>271.5</ele><time>2026-04-19T08:35:12.959Z</time></trkpt><trkpt lat="43.0001933" lon="12.00837"><ele>271.3333333333333</ele><time>2026-04-19T08:35:13.96Z</time></trkpt><trkpt lat="43.0001917" lon="12.0084683"><ele>271.16666666666663</ele><time>2026-04-19T08:35:14.959Z</time></trkpt><trkpt lat="43.0001867" lon="12.008555"><ele>271.0</ele><time>2026-04-19T08:35:15.959Z</time></trkpt><trkpt lat="43.0001817" lon="12.00866"><ele>271.0</ele><time>2026-04-19T08:35:17.959Z</time></trkpt><trkpt lat="43.00016" lon="12.0087433"><ele>271.0</ele><time>2026-04-19T08:35:21.96Z</time></trkpt><trkpt lat="43.0000917" lon="12.008755"><ele>271.0</ele><time>2026-04-19T08:35:23.959Z</time></trkpt><trkpt lat="43.0000267" lon="12.00874"><ele>271.0</ele><time>2026-04-19T08:35:24.96Z</time></trkpt><trkpt lat="42.9999383" lon="12.00872"><ele>271.0</ele><time>2026-04-19T08:35:25.959Z</time></trkpt><trkpt lat="42.9998217" lon="12.008695"><ele>271.0</ele><time>2026-04-19T08:35:26.96Z</time></trkpt><trkpt lat="42.99967" lon="12.00867"><ele>271.0</ele><time>2026-04-19T08:35:27.959Z</time></trkpt><trkpt lat="42.9995133" lon="12.00864"><ele>271.0</ele><time>2026-04-19T08:35:28.96Z</time></trkpt><trkpt lat="42.9993333" lon="12.0086033"><ele>271.0</ele><time>2026-04-19T08:35:29.959Z</time></trkpt><trkpt lat="42.9991233" lon="12.0085667"><ele>272.0</ele><time>2026-04-19T08:35:30.96Z</time></trkpt><trkpt lat="42.9988883" lon="12.008525"><ele>273.0</ele><time>2026-04-19T08:35:31.959Z</time></trkpt><trkpt lat="42.99867" lon="12.0084833"><ele>273.0</ele><time>2026-04-19T08:35:32.958Z</time></trkpt><trkpt lat="42.998465" lon="12.0084417"><ele>273.0</ele><time>2026-04-19T08:35:33.958Z</time></trkpt><trkpt lat="42.9982833" lon="12.008405"><ele>273.0</ele><time>2026-04-19T08:35:34.958Z</time></trkpt><trkpt lat="42.99809" lon="12.0083817"><ele>274.0</ele><time>2026-04-19T08:35:35.958Z</time></trkpt><trkpt lat="42.9979283" lon="12.0083483"><ele>275.0</ele><time>2026-04-19T08:35:36.959Z</time></trkpt><trkpt lat="42.9977717" lon="12.008305"><ele>276.0</ele><time>2026-04-19T08:35:37.959Z</time></trkpt><trkpt lat="42.99763" lon="12.0082467"><ele>276.0</ele><time>2026-04-19T08:35:38.958Z</time></trkpt><trkpt lat="42.997495" lon="12.00816"><ele>276.0</ele><time>2026-04-19T08:35:39.959Z</time></trkpt><trkpt lat="42.9973783" lon="12.008035"><ele>276.0</ele><time>2026-04-19T08:35:40.959Z</time></trkpt><trkpt lat="42.9972667" lon="12.0078783"><ele>276.0</ele><time>2026-04-19T08:35:41.959Z</time></trkpt><trkpt lat="42.99715" lon="12.0077033"><ele>276.0</ele><time>2026-04-19T08:35:42.959Z</time></trkpt><trkpt lat="42.9970267" lon="12.0075283"><ele>276.0</ele><time>2026-04-19T08:35:43.958Z</time></trkpt><trkpt lat="42.996915" lon="12.0073633"><ele>275.75</ele><time>2026-04-19T08:35:44.959Z</time></trkpt><trkpt lat="42.9968067" lon="12.0072133"><ele>275.5</ele><time>2026-04-19T08:35:45.958Z</time></trkpt><trkpt lat="42.9967033" lon="12.00707"><ele>275.25</ele><time>2026-04-19T08:35:46.958Z</time></trkpt><trkpt lat="42.9966117" lon="12.0069383"><ele>275.0</ele><time>2026-04-19T08:35:47.959Z</time></trkpt><trkpt lat="42.996525" lon="12.0068267"><ele>275.4</ele><time>2026-04-19T08:35:48.958Z</time></trkpt><trkpt lat="42.9964583" lon="12.0067283"><ele>275.8</ele><time>2026-04-19T08:35:49.959Z</time></trkpt><trkpt lat="42.9964017" lon="12.0066617"><ele>276.2</ele><time>2026-04-19T08:35:50.959Z</time></trkpt><trkpt lat="42.9963133" lon="12.0066067"><ele>276.6</ele><time>2026-04-19T08:35:52.959Z</time></trkpt><trkpt lat="42.996205" lon="12.0066467"><ele>277.0</ele><time>2026-04-19T08:35:54.959Z</time></trkpt><trkpt lat="42.9961183" lon="12.0066917"><ele>277.0</ele><time>2026-04-19T08:35:55.959Z</time></trkpt><trkpt lat="42.9959817" lon="12.0067767"><ele>277.0</ele><time>2026-04-19T08:35:56.959Z</time></trkpt><trkpt lat="42.995825" lon="12.0068767"><ele>277.0</ele><time>2026-04-19T08:35:57.959Z</time></trkpt><trkpt lat="42.9956617" lon="12.0069733"><ele>278.3333333333333</ele><time>2026-04-19T08:35:58.958Z</time></trkpt><trkpt lat="42.99552" lon="12.0070583"><ele>279.6666666666667</ele><time>2026-04-19T08:35:59.959Z</time></trkpt><trkpt lat="42.99538" lon="12.0071433"><ele>281.0</ele><time>2026-04-19T08:36:00.959Z</time></trkpt><trkpt lat="42.9952383" lon="12.0072183"><ele>281.0</ele><time>2026-04-19T08:36:01.958Z</time></trkpt><trkpt lat="42.9950733" lon="12.0072983"><ele>281.0</ele><time>2026-04-19T08:36:02.958Z</time></trkpt><trkpt lat="42.9948883" lon="12.0073967"><ele>281.0</ele><time>2026-04-19T08:36:03.958Z</time></trkpt><trkpt lat="42.99469" lon="12.0075"><ele>283.0</ele><time>2026-04-19T08:36:04.958Z</time></trkpt><trkpt lat="42.9944917" lon="12.00759"><ele>285.0</ele><time>2026-04-19T08:36:05.958Z</time></trkpt><trkpt lat="42.9943233" lon="12.0076717"><ele>287.0</ele><time>2026-04-19T08:36:06.959Z</time></trkpt><trkpt lat="42.9941583" lon="12.0077517"><ele>288.0</ele><time>2026-04-19T08:36:07.958Z</time></trkpt><trkpt lat="42.9940067" lon="12.00784"><ele>289.0</ele><time>2026-04-19T08:36:08.958Z</time></trkpt><trkpt lat="42.9938567" lon="12.0079367"><ele>290.0</ele><time>2026-04-19T08:36:09.958Z</time></trkpt><trkpt lat="42.9937117" lon="12.0080183"><ele>290.0</ele><time>2026-04-19T08:36:10.959Z</time></trkpt><trkpt lat="42.9935583" lon="12.0080933"><ele>290.0</ele><time>2026-04-19T08:36:11.959Z</time></trkpt><trkpt lat="42.99341" lon="12.00815"><ele>290.0</ele><time>2026-04-19T08:36:12.959Z</time></trkpt><trkpt lat="42.99327" lon="12.008185"><ele>290.6666666666667</ele><time>2026-04-19T08:36:13.959Z</time></trkpt><trkpt lat="42.9931283" lon="12.0082183"><ele>291.3333333333333</ele><time>2026-04-19T08:36:14.959Z</time></trkpt><trkpt lat="42.9929817" lon="12.0082583"><ele>292.0</ele><time>2026-04-19T08:36:15.959Z</time></trkpt><trkpt lat="42.9928233" lon="12.00832"><ele>293.66666666666663</ele><time>2026-04-19T08:36:16.959Z</time></trkpt><trkpt lat="42.9926833" lon="12.0084083"><ele>295.3333333333333</ele><time>2026-04-19T08:36:17.958Z</time></trkpt><trkpt lat="42.9925417" lon="12.0085183"><ele>297.0</ele><time>2026-04-19T08:36:18.959Z</time></trkpt><trkpt lat="42.9923917" lon="12.00864"><ele>298.0</ele><time>2026-04-19T08:36:19.958Z</time></trkpt><trkpt lat="42.992245" lon="12.00877"><ele>299.0</ele><time>2026-04-19T08:36:20.958Z</time></trkpt><trkpt lat="42.9920867" lon="12.0089017"><ele>300.0</ele><time>2026-04-19T08:36:21.959Z</time></trkpt><trkpt lat="42.991935" lon="12.0090267"><ele>300.0</ele><time>2026-04-19T08:36:22.959Z</time></trkpt><trkpt lat="42.99178" lon="12.00915"><ele>300.0</ele><time>2026-04-19T08:36:23.958Z</time></trkpt><trkpt lat="42.991645" lon="12.00927"><ele>300.0</ele><time>2026-04-19T08:36:24.959Z</time></trkpt><trkpt lat="42.9915233" lon="12.0093933"><ele>302.6</ele><time>2026-04-19T08:36:25.958Z</time></trkpt><trkpt lat="42.99142" lon="12.0094983"><ele>305.2</ele><time>2026-04-19T08:36:26.958Z</time></trkpt><trkpt lat="42.9913283" lon="12.00959"><ele>307.8</ele><time>2026-04-19T08:36:27.958Z</time></trkpt><trkpt lat="42.9912667" lon="12.0096867"><ele>310.4</ele><time>2026-04-19T08:36:28.958Z</time></trkpt><trkpt lat="42.9912283" lon="12.0098067"><ele>313.0</ele><time>2026-04-19T08:36:29.959Z</time></trkpt><trkpt lat="42.9912083" lon="12.0099417"><ele>313.8333333333333</ele><time>2026-04-19T08:36:30.958Z</time></trkpt><trkpt lat="42.991195" lon="12.0100733"><ele>314.66666666666663</ele><time>2026-04-19T08:36:31.959Z</time></trkpt><trkpt lat="42.991175" lon="12.0101933"><ele>315.5</ele><time>2026-04-19T08:36:32.959Z</time></trkpt><trkpt lat="42.991145" lon="12.0103017"><ele>316.3333333333333</ele><time>2026-04-19T08:36:33.959Z</time></trkpt><trkpt lat="42.9911" lon="12.01038"><ele>317.1666666666667</ele><time>2026-04-19T08:36:34.959Z</time></trkpt><trkpt lat="42.9910433" lon="12.01043"><ele>318.0</ele><time>2026-04-19T08:36:35.958Z</time></trkpt><trkpt lat="42.9909667" lon="12.0104583"><ele>318.0</ele><time>2026-04-19T08:36:36.958Z</time></trkpt><trkpt lat="42.990855" lon="12.0104733"><ele>318.0</ele><time>2026-04-19T08:36:37.959Z</time></trkpt><trkpt lat="42.9907167" lon="12.010475"><ele>318.0</ele><time>2026-04-19T08:36:38.959Z</time></trkpt><trkpt lat="42.990585" lon="12.0104633"><ele>318.0</ele><time>2026-04-19T08:36:39.959Z</time></trkpt><trkpt lat="42.9904517" lon="12.0104433"><ele>321.25</ele><time>2026-04-19T08:36:40.959Z</time></trkpt><trkpt lat="42.9903233" lon="12.0104433"><ele>324.5</ele><time>2026-04-19T08:36:41.958Z</time></trkpt><trkpt lat="42.9902067" lon="12.010465"><ele>327.75</ele><time>2026-04-19T08:36:42.959Z</time></trkpt><trkpt lat="42.990085" lon="12.0105183"><ele>331.0</ele><time>2026-04-19T08:36:43.958Z</time></trkpt><trkpt lat="42.98998" lon="12.0105867"><ele>331.0</ele><time>2026-04-19T08:36:44.958Z</time></trkpt><trkpt lat="42.9898817" lon="12.0106667"><ele>331.0</ele><time>2026-04-19T08:36:45.958Z</time></trkpt><trkpt lat="42.989785" lon="12.010765"><ele>331.0</ele><time>2026-04-19T08:36:46.959Z</time></trkpt><trkpt lat="42.989695" lon="12.0108667"><ele>331.0</ele><time>2026-04-19T08:36:47.958Z</time></trkpt><trkpt lat="42.9896217" lon="12.01098"><ele>332.0</ele><time>2026-04-19T08:36:48.958Z</time></trkpt><trkpt lat="42.98956" lon="12.0111167"><ele>333.0</ele><time>2026-04-19T08:36:49.958Z</time></trkpt><trkpt lat="42.9894983" lon="12.0112867"><ele>334.0</ele><time>2026-04-19T08:36:50.959Z</time></trkpt><trkpt lat="42.9894333" lon="12.011455"><ele>335.0</ele><time>2026-04-19T08:36:51.958Z</time></trkpt><trkpt lat="42.9893633" lon="12.01163"><ele>335.5</ele><time>2026-04-19T08:36:52.958Z</time></trkpt><trkpt lat="42.98929" lon="12.0118317"><ele>336.0</ele><time>2026-04-19T08:36:53.958Z</time></trkpt><trkpt lat="42.9892217" lon="12.0120167"><ele>336.5</ele><time>2026-04-19T08:36:54.959Z</time></trkpt><trkpt lat="42.9891567" lon="12.012165"><ele>337.0</ele><time>2026-04-19T08:36:55.958Z</time></trkpt><trkpt lat="42.9891" lon="12.012305"><ele>339.0</ele><time>2026-04-19T08:36:56.958Z</time></trkpt><trkpt lat="42.9890583" lon="12.0124333"><ele>341.0</ele><time>2026-04-19T08:36:57.958Z</time></trkpt><trkpt lat="42.9890383" lon="12.0125367"><ele>343.0</ele><time>2026-04-19T08:36:58.959Z</time></trkpt><trkpt lat="42.9890433" lon="12.012645"><ele>345.0</ele><time>2026-04-19T08:36:59.958Z</time></trkpt><trkpt lat="42.98905" lon="12.0127617"><ele>347.0</ele><time>2026-04-19T08:37:00.959Z</time></trkpt><trkpt lat="42.9890733" lon="12.012895"><ele>349.0</ele><time>2026-04-19T08:37:01.959Z</time></trkpt><trkpt lat="42.9891117" lon="12.0130417"><ele>349.16666666666663</ele><time>2026-04-19T08:37:02.959Z</time></trkpt><trkpt lat="42.9891483" lon="12.0131767"><ele>349.3333333333333</ele><time>2026-04-19T08:37:03.959Z</time></trkpt><trkpt lat="42.9891883" lon="12.0133017"><ele>349.5</ele><time>2026-04-19T08:37:04.959Z</time></trkpt><trkpt lat="42.98921" lon="12.0134133"><ele>349.6666666666667</ele><time>2026-04-19T08:37:05.958Z</time></trkpt><trkpt lat="42.98921" lon="12.0135117"><ele>349.83333333333337</ele><time>2026-04-19T08:37:06.959Z</time></trkpt><trkpt lat="42.9891917" lon="12.0136133"><ele>350.0</ele><time>2026-04-19T08:37:07.959Z</time></trkpt><trkpt lat="42.98915" lon="12.0136933"><ele>352.8</ele><time>2026-04-19T08:37:08.958Z</time></trkpt><trkpt lat="42.989095" lon="12.0137617"><ele>355.6</ele><time>2026-04-19T08:37:09.958Z</time></trkpt><trkpt lat="42.9890183" lon="12.0138283"><ele>358.4</ele><time>2026-04-19T08:37:10.958Z</time></trkpt><trkpt lat="42.9889267" lon="12.0139083"><ele>361.2</ele><time>2026-04-19T08:37:11.959Z</time></trkpt><trkpt lat="42.9888233" lon="12.0140083"><ele>364.0</ele><time>2026-04-19T08:37:12.959Z</time></trkpt><trkpt lat="42.9887067" lon="12.014105"><ele>363.0</ele><time>2026-04-19T08:37:13.958Z</time></trkpt><trkpt lat="42.9885917" lon="12.01419"><ele>362.0</ele><time>2026-04-19T08:37:14.959Z</time></trkpt><trkpt lat="42.9884717" lon="12.0142617"><ele>361.0</ele><time>2026-04-19T08:37:15.959Z</time></trkpt><trkpt lat="42.9883583" lon="12.01431"><ele>360.0</ele><time>2026-04-19T08:37:16.958Z</time></trkpt><trkpt lat="42.98825" lon="12.0143517"><ele>364.2</ele><time>2026-04-19T08:37:17.959Z</time></trkpt><trkpt lat="42.9881583" lon="12.01441"><ele>368.4</ele><time>2026-04-19T08:37:18.958Z</time></trkpt><trkpt lat="42.9880867" lon="12.0144833"><ele>372.6</ele><time>2026-04-19T08:37:19.958Z</time></trkpt><trkpt lat="42.9880133" lon="12.0145917"><ele>376.8</ele><time>2026-04-19T08:37:20.959Z</time></trkpt><trkpt lat="42.9879283" lon="12.014725"><ele>381.0</ele><time>2026-04-19T08:37:21.958Z</time></trkpt><trkpt lat="42.9878333" lon="12.0148433"><ele>381.0</ele><time>2026-04-19T08:37:22.959Z</time></trkpt><trkpt lat="42.9877433" lon="12.0149567"><ele>381.0</ele><time>2026-04-19T08:37:23.959Z</time></trkpt><trkpt lat="42.9876567" lon="12.01505"><ele>381.0</ele><time>2026-04-19T08:37:24.958Z</time></trkpt><trkpt lat="42.9875717" lon="12.0151217"><ele>381.0</ele><time>2026-04-19T08:37:25.959Z</time></trkpt><trkpt lat="42.9874967" lon="12.01518"><ele>381.0</ele><time>2026-04-19T08:37:26.959Z</time></trkpt><trkpt lat="42.9874333" lon="12.0152417"><ele>380.6</ele><time>2026-04-19T08:37:27.959Z</time></trkpt><trkpt lat="42.987355" lon="12.0153067"><ele>380.20000000000005</ele><time>2026-04-19T08:37:28.958Z</time></trkpt><trkpt lat="42.9872533" lon="12.0153817"><ele>379.79999999999995</ele><time>2026-04-19T08:37:29.959Z</time></trkpt><trkpt lat="42.9871483" lon="12.0154583"><ele>379.4</ele><time>2026-04-19T08:37:30.958Z</time></trkpt><trkpt lat="42.987045" lon="12.0155367"><ele>379.0</ele><time>2026-04-19T08:37:31.959Z</time></trkpt><trkpt lat="42.9869383" lon="12.0156183"><ele>379.0</ele><time>2026-04-19T08:37:32.958Z</time></trkpt><trkpt lat="42.98682" lon="12.0157"><ele>379.0</ele><time>2026-04-19T08:37:33.959Z</time></trkpt><trkpt lat="42.98671" lon="12.01577"><ele>379.0</ele><time>2026-04-19T08:37:34.959Z</time></trkpt><trkpt lat="42.98661" lon="12.0158167"><ele>379.0</ele><time>2026-04-19T08:37:35.958Z</time></trkpt><trkpt lat="42.9865183" lon="12.0158667"><ele>379.3333333333333</ele><time>2026-04-19T08:37:36.958Z</time></trkpt><trkpt lat="42.9864433" lon="12.01592"><ele>379.66666666666663</ele><time>2026-04-19T08:37:37.959Z</time></trkpt><trkpt lat="42.9863833" lon="12.0159983"><ele>380.0</ele><time>2026-04-19T08:37:38.958Z</time></trkpt><trkpt lat="42.9863317" lon="12.0160817"><ele>380.3333333333333</ele><time>2026-04-19T08:37:39.958Z</time></trkpt><trkpt lat="42.9863067" lon="12.016195"><ele>380.6666666666667</ele><time>2026-04-19T08:37:40.958Z</time></trkpt><trkpt lat="42.986295" lon="12.016345"><ele>381.0</ele><time>2026-04-19T08:37:41.959Z</time></trkpt><trkpt lat="42.9862783" lon="12.0165317"><ele>381.6666666666667</ele><time>2026-04-19T08:37:42.959Z</time></trkpt><trkpt lat="42.9862483" lon="12.0167433"><ele>382.33333333333337</ele><time>2026-04-19T08:37:43.958Z</time></trkpt><trkpt lat="42.9862183" lon="12.01695"><ele>383.0</ele><time>2026-04-19T08:37:44.959Z</time></trkpt><trkpt lat="42.9862067" lon="12.01715"><ele>383.0</ele><time>2026-04-19T08:37:45.959Z</time></trkpt><trkpt lat="42.98619" lon="12.0173233"><ele>383.0</ele><time>2026-04-19T08:37:46.958Z</time></trkpt><trkpt lat="42.986175" lon="12.0174667"><ele>383.0</ele><time>2026-04-19T08:37:47.959Z</time></trkpt><trkpt lat="42.9861583" lon="12.01759"><ele>383.0</ele><time>2026-04-19T08:37:48.959Z</time></trkpt><trkpt lat="42.9861333" lon="12.0176933"><ele>383.0</ele><time>2026-04-19T08:37:49.959Z</time></trkpt><trkpt lat="42.9860967" lon="12.0178"><ele>382.33333333333337</ele><time>2026-04-19T08:37:50.959Z</time></trkpt><trkpt lat="42.98607" lon="12.0178983"><ele>381.6666666666667</ele><time>2026-04-19T08:37:51.959Z</time></trkpt><trkpt lat="42.9860483" lon="12.0179867"><ele>381.0</ele><time>2026-04-19T08:37:52.959Z</time></trkpt><trkpt lat="42.98604" lon="12.018165"><ele>380.3333333333333</ele><time>2026-04-19T08:37:54.959Z</time></trkpt><trkpt lat="42.986045" lon="12.0182667"><ele>379.66666666666663</ele><time>2026-04-19T08:37:55.959Z</time></trkpt><trkpt lat="42.9860567" lon="12.0183833"><ele>379.0</ele><time>2026-04-19T08:37:56.959Z</time></trkpt><trkpt lat="42.9860533" lon="12.0184983"><ele>378.5</ele><time>2026-04-19T08:37:57.959Z</time></trkpt><trkpt lat="42.9860533" lon="12.0186017"><ele>378.0</ele><time>2026-04-19T08:37:58.958Z</time></trkpt><trkpt lat="42.9860567" lon="12.01869"><ele>377.5</ele><time>2026-04-19T08:37:59.959Z</time></trkpt><trkpt lat="42.9860733" lon="12.0188467"><ele>377.0</ele><time>2026-04-19T08:38:01.959Z</time></trkpt><trkpt lat="42.9860617" lon="12.0189883"><ele>376.5</ele><time>2026-04-19T08:38:03.958Z</time></trkpt><trkpt lat="42.9860567" lon="12.0190867"><ele>376.0</ele><time>2026-04-19T08:38:04.959Z</time></trkpt><trkpt lat="42.98605" lon="12.019215"><ele>377.0</ele><time>2026-04-19T08:38:05.958Z</time></trkpt><trkpt lat="42.9860383" lon="12.0193333"><ele>378.0</ele><time>2026-04-19T08:38:06.958Z</time></trkpt><trkpt lat="42.9860317" lon="12.0194433"><ele>379.0</ele><time>2026-04-19T08:38:07.958Z</time></trkpt><trkpt lat="42.9860317" lon="12.019545"><ele>380.0</ele><time>2026-04-19T08:38:08.958Z</time></trkpt><trkpt lat="42.9860233" lon="12.0196683"><ele>381.0</ele><time>2026-04-19T08:38:09.959Z</time></trkpt><trkpt lat="42.9860133" lon="12.0198233"><ele>382.0</ele><time>2026-04-19T08:38:10.958Z</time></trkpt><trkpt lat="42.9859933" lon="12.0199967"><ele>382.75</ele><time>2026-04-19T08:38:11.959Z</time></trkpt><trkpt lat="42.9859567" lon="12.0201933"><ele>383.5</ele><time>2026-04-19T08:38:12.958Z</time></trkpt><trkpt lat="42.9859317" lon="12.0203667"><ele>384.25</ele><time>2026-04-19T08:38:13.959Z</time></trkpt><trkpt lat="42.9859117" lon="12.0205117"><ele>385.0</ele><time>2026-04-19T08:38:14.959Z</time></trkpt><trkpt lat="42.9859033" lon="12.0206117"><ele>385.0</ele><time>2026-04-19T08:38:15.959Z</time></trkpt><trkpt lat="42.9859" lon="12.0207133"><ele>385.0</ele><time>2026-04-19T08:38:16.959Z</time></trkpt><trkpt lat="42.9859033" lon="12.0208183"><ele>385.0</ele><time>2026-04-19T08:38:17.959Z</time></trkpt><trkpt lat="42.9859217" lon="12.0209417"><ele>385.0</ele><time>2026-04-19T08:38:18.958Z</time></trkpt><trkpt lat="42.9859483" lon="12.021085"><ele>385.0</ele><time>2026-04-19T08:38:19.958Z</time></trkpt><trkpt lat="42.9859733" lon="12.0212233"><ele>385.0</ele><time>2026-04-19T08:38:20.959Z</time></trkpt><trkpt lat="42.9860033" lon="12.02136"><ele>385.0</ele><time>2026-04-19T08:38:21.959Z</time></trkpt><trkpt lat="42.9860367" lon="12.0214833"><ele>385.0</ele><time>2026-04-19T08:38:22.958Z</time></trkpt><trkpt lat="42.9860533" lon="12.0216167"><ele>385.0</ele><time>2026-04-19T08:38:23.959Z</time></trkpt><trkpt lat="42.9860667" lon="12.0217267"><ele>385.0</ele><time>2026-04-19T08:38:24.958Z</time></trkpt><trkpt lat="42.98608" lon="12.0218417"><ele>385.00000000000006</ele><time>2026-04-19T08:38:25.958Z</time></trkpt><trkpt lat="42.9860883" lon="12.021945"><ele>385.0</ele><time>2026-04-19T08:38:26.958Z</time></trkpt><trkpt lat="42.9860867" lon="12.0220533"><ele>385.0</ele><time>2026-04-19T08:38:27.958Z</time></trkpt><trkpt lat="42.9860883" lon="12.0221717"><ele>385.0</ele><time>2026-04-19T08:38:28.959Z</time></trkpt><trkpt lat="42.986095" lon="12.0222817"><ele>385.00000000000006</ele><time>2026-04-19T08:38:29.958Z</time></trkpt><trkpt lat="42.9860967" lon="12.0223933"><ele>385.0</ele><time>2026-04-19T08:38:30.959Z</time></trkpt><trkpt lat="42.9861067" lon="12.0225183"><ele>383.1666666666667</ele><time>2026-04-19T08:38:31.958Z</time></trkpt><trkpt lat="42.986115" lon="12.02263"><ele>381.33333333333337</ele><time>2026-04-19T08:38:32.959Z</time></trkpt><trkpt lat="42.98613" lon="12.022725"><ele>379.5</ele><time>2026-04-19T08:38:33.958Z</time></trkpt><trkpt lat="42.9861483" lon="12.022815"><ele>377.6666666666667</ele><time>2026-04-19T08:38:34.958Z</time></trkpt><trkpt lat="42.9861683" lon="12.022925"><ele>375.83333333333337</ele><time>2026-04-19T08:38:35.958Z</time></trkpt><trkpt lat="42.9861817" lon="12.0230467"><ele>374.0</ele><time>2026-04-19T08:38:36.959Z</time></trkpt><trkpt lat="42.9861817" lon="12.02318"><ele>372.4</ele><time>2026-04-19T08:38:37.958Z</time></trkpt><trkpt lat="42.9861767" lon="12.023315"><ele>370.79999999999995</ele><time>2026-04-19T08:38:38.959Z</time></trkpt><trkpt lat="42.9861733" lon="12.023455"><ele>369.20000000000005</ele><time>2026-04-19T08:38:39.959Z</time></trkpt><trkpt lat="42.986155" lon="12.023595"><ele>367.6</ele><time>2026-04-19T08:38:40.958Z</time></trkpt><trkpt lat="42.98614" lon="12.0237333"><ele>366.0</ele><time>2026-04-19T08:38:41.959Z</time></trkpt><trkpt lat="42.9861233" lon="12.02386"><ele>366.0</ele><time>2026-04-19T08:38:42.959Z</time></trkpt><trkpt lat="42.9860983" lon="12.0239717"><ele>366.0</ele><time>2026-04-19T08:38:43.959Z</time></trkpt><trkpt lat="42.98607" lon="12.02408"><ele>366.0</ele><time>2026-04-19T08:38:44.959Z</time></trkpt><trkpt lat="42.98603" lon="12.0241833"><ele>366.0</ele><time>2026-04-19T08:38:45.958Z</time></trkpt><trkpt lat="42.985995" lon="12.02429"><ele>366.0</ele><time>2026-04-19T08:38:46.958Z</time></trkpt><trkpt lat="42.98597" lon="12.024395"><ele>366.0</ele><time>2026-04-19T08:38:47.959Z</time></trkpt><trkpt lat="42.985965" lon="12.02449"><ele>365.6666666666667</ele><time>2026-04-19T08:38:48.958Z</time></trkpt><trkpt lat="42.9859683" lon="12.0246033"><ele>365.3333333333333</ele><time>2026-04-19T08:38:49.959Z</time></trkpt><trkpt lat="42.9859783" lon="12.0247133"><ele>365.0</ele><time>2026-04-19T08:38:50.958Z</time></trkpt><trkpt lat="42.98598" lon="12.0248167"><ele>364.66666666666663</ele><time>2026-04-19T08:38:51.959Z</time></trkpt><trkpt lat="42.9859617" lon="12.02496"><ele>364.3333333333333</ele><time>2026-04-19T08:38:53.959Z</time></trkpt><trkpt lat="42.9859283" lon="12.0250383"><ele>364.0</ele><time>2026-04-19T08:38:55.958Z</time></trkpt><trkpt lat="42.98586" lon="12.02507"><ele>365.0</ele><time>2026-04-19T08:38:58.959Z</time></trkpt><trkpt lat="42.9857683" lon="12.0250583"><ele>366.0</ele><time>2026-04-19T08:39:01.958Z</time></trkpt><trkpt lat="42.9856967" lon="12.025055"><ele>367.0</ele><time>2026-04-19T08:39:03.959Z</time></trkpt><trkpt lat="42.98563" lon="12.025055"><ele>368.0</ele><time>2026-04-19T08:39:05.959Z</time></trkpt><trkpt lat="42.98554" lon="12.0250533"><ele>369.0</ele><time>2026-04-19T08:39:08.959Z</time></trkpt><trkpt lat="42.985475" lon="12.0250417"><ele>370.0</ele><time>2026-04-19T08:39:10.958Z</time></trkpt><trkpt lat="42.9854117" lon="12.02503"><ele>370.0</ele><time>2026-04-19T08:39:12.958Z</time></trkpt><trkpt lat="42.9853267" lon="12.0249917"><ele>370.0</ele><time>2026-04-19T08:39:15.959Z</time></trkpt><trkpt lat="42.9852717" lon="12.0249217"><ele>370.0</ele><time>2026-04-19T08:39:18.958Z</time></trkpt><trkpt lat="42.9852183" lon="12.0248317"><ele>370.0</ele><time>2026-04-19T08:39:21.959Z</time></trkpt><trkpt lat="42.9851867" lon="12.0247433"><ele>370.0</ele><time>2026-04-19T08:39:23.958Z</time></trkpt><trkpt lat="42.9851483" lon="12.0246383"><ele>370.0</ele><time>2026-04-19T08:39:25.958Z</time></trkpt><trkpt lat="42.9850983" lon="12.0245833"><ele>370.4285714285714</ele><time>2026-04-19T08:39:27.958Z</time></trkpt><trkpt lat="42.9850317" lon="12.0245533"><ele>370.85714285714283</ele><time>2026-04-19T08:39:30.959Z</time></trkpt><trkpt lat="42.98496" lon="12.0245567"><ele>371.2857142857143</ele><time>2026-04-19T08:39:33.959Z</time></trkpt><trkpt lat="42.98487" lon="12.024565"><ele>371.71428571428567</ele><time>2026-04-19T08:39:36.959Z</time></trkpt><trkpt lat="42.9848" lon="12.0245583"><ele>372.14285714285717</ele><time>2026-04-19T08:39:38.959Z</time></trkpt><trkpt lat="42.98473" lon="12.0245467"><ele>372.57142857142856</ele><time>2026-04-19T08:39:40.959Z</time></trkpt><trkpt lat="42.9846633" lon="12.02454"><ele>373.0</ele><time>2026-04-19T08:39:42.958Z</time></trkpt><trkpt lat="42.9845733" lon="12.02453"><ele>371.59999999999997</ele><time>2026-04-19T08:39:45.958Z</time></trkpt><trkpt lat="42.9844967" lon="12.0245217"><ele>370.2</ele><time>2026-04-19T08:39:47.959Z</time></trkpt><trkpt lat="42.9843933" lon="12.0245167"><ele>368.8</ele><time>2026-04-19T08:39:49.959Z</time></trkpt><trkpt lat="42.98429" lon="12.02451"><ele>367.4</ele><time>2026-04-19T08:39:51.958Z</time></trkpt><trkpt lat="42.9841917" lon="12.0244967"><ele>366.0</ele><time>2026-04-19T08:39:53.958Z</time></trkpt><trkpt lat="42.9840983" lon="12.0244917"><ele>361.8</ele><time>2026-04-19T08:39:55.958Z</time></trkpt><trkpt lat="42.9839933" lon="12.02448"><ele>357.6</ele><time>2026-04-19T08:39:57.958Z</time></trkpt><trkpt lat="42.9838867" lon="12.0244767"><ele>353.4</ele><time>2026-04-19T08:39:59.958Z</time></trkpt><trkpt lat="42.9837983" lon="12.0244633"><ele>349.2</ele><time>2026-04-19T08:40:01.959Z</time></trkpt><trkpt lat="42.9837117" lon="12.024455"><ele>345.0</ele><time>2026-04-19T08:40:03.958Z</time></trkpt><trkpt lat="42.9836233" lon="12.02445"><ele>345.0</ele><time>2026-04-19T08:40:05.959Z</time></trkpt><trkpt lat="42.9835083" lon="12.0244567"><ele>345.0</ele><time>2026-04-19T08:40:07.958Z</time></trkpt><trkpt lat="42.983445" lon="12.0244517"><ele>345.0</ele><time>2026-04-19T08:40:08.959Z</time></trkpt><trkpt lat="42.9833267" lon="12.02444"><ele>345.0</ele><time>2026-04-19T08:40:10.959Z</time></trkpt><trkpt lat="42.98322" lon="12.0244333"><ele>345.0</ele><time>2026-04-19T08:40:12.958Z</time></trkpt><trkpt lat="42.983115" lon="12.0244217"><ele>342.2</ele><time>2026-04-19T08:40:14.959Z</time></trkpt><trkpt lat="42.9829967" lon="12.0244017"><ele>339.4</ele><time>2026-04-19T08:40:16.958Z</time></trkpt><trkpt lat="42.9828667" lon="12.0243983"><ele>336.6</ele><time>2026-04-19T08:40:18.958Z</time></trkpt><trkpt lat="42.9827967" lon="12.0243967"><ele>333.8</ele><time>2026-04-19T08:40:19.959Z</time></trkpt><trkpt lat="42.9827067" lon="12.0243917"><ele>331.0</ele><time>2026-04-19T08:40:20.958Z</time></trkpt><trkpt lat="42.9826167" lon="12.0243833"><ele>331.0</ele><time>2026-04-19T08:40:21.958Z</time></trkpt><trkpt lat="42.982535" lon="12.0243767"><ele>331.0</ele><time>2026-04-19T08:40:22.958Z</time></trkpt><trkpt lat="42.9824583" lon="12.0243767"><ele>331.0</ele><time>2026-04-19T08:40:23.958Z</time></trkpt><trkpt lat="42.982395" lon="12.0243817"><ele>331.0</ele><time>2026-04-19T08:40:24.959Z</time></trkpt><trkpt lat="42.982325" lon="12.02441"><ele>331.0</ele><time>2026-04-19T08:40:26.958Z</time></trkpt><trkpt lat="42.98231" lon="12.024525"><ele>331.0</ele><time>2026-04-19T08:40:28.959Z</time></trkpt><trkpt lat="42.982315" lon="12.02464"><ele>327.75</ele><time>2026-04-19T08:40:29.959Z</time></trkpt><trkpt lat="42.9823317" lon="12.024795"><ele>324.5</ele><time>2026-04-19T08:40:30.958Z</time></trkpt><trkpt lat="42.9823517" lon="12.0249567"><ele>321.25</ele><time>2026-04-19T08:40:31.958Z</time></trkpt><trkpt lat="42.9823633" lon="12.0251133"><ele>318.0</ele><time>2026-04-19T08:40:32.958Z</time></trkpt><trkpt lat="42.982365" lon="12.0252683"><ele>318.0</ele><time>2026-04-19T08:40:33.959Z</time></trkpt><trkpt lat="42.9823617" lon="12.0254283"><ele>318.0</ele><time>2026-04-19T08:40:34.958Z</time></trkpt><trkpt lat="42.9823533" lon="12.0256033"><ele>318.0</ele><time>2026-04-19T08:40:35.959Z</time></trkpt><trkpt lat="42.9823433" lon="12.0257933"><ele>318.0</ele><time>2026-04-19T08:40:36.958Z</time></trkpt><trkpt lat="42.9823317" lon="12.0259917"><ele>317.75</ele><time>2026-04-19T08:40:37.959Z</time></trkpt><trkpt lat="42.9823217" lon="12.0261967"><ele>317.5</ele><time>2026-04-19T08:40:38.959Z</time></trkpt><trkpt lat="42.982315" lon="12.0263983"><ele>317.25</ele><time>2026-04-19T08:40:39.959Z</time></trkpt><trkpt lat="42.9823083" lon="12.0265933"><ele>317.0</ele><time>2026-04-19T08:40:40.958Z</time></trkpt><trkpt lat="42.9823017" lon="12.02679"><ele>316.0</ele><time>2026-04-19T08:40:41.959Z</time></trkpt><trkpt lat="42.9822933" lon="12.0269883"><ele>315.0</ele><time>2026-04-19T08:40:42.959Z</time></trkpt><trkpt lat="42.9822867" lon="12.0271833"><ele>314.0</ele><time>2026-04-19T08:40:43.958Z</time></trkpt><trkpt lat="42.982275" lon="12.0273817"><ele>313.0</ele><time>2026-04-19T08:40:44.958Z</time></trkpt><trkpt lat="42.98226" lon="12.0275817"><ele>313.0</ele><time>2026-04-19T08:40:45.958Z</time></trkpt><trkpt lat="42.98225" lon="12.0277783"><ele>313.0</ele><time>2026-04-19T08:40:46.958Z</time></trkpt><trkpt lat="42.9822383" lon="12.0279583"><ele>313.0</ele><time>2026-04-19T08:40:47.959Z</time></trkpt><trkpt lat="42.9822233" lon="12.028135"><ele>313.0</ele><time>2026-04-19T08:40:48.958Z</time></trkpt><trkpt lat="42.982205" lon="12.0283117"><ele>312.5</ele><time>2026-04-19T08:40:49.959Z</time></trkpt><trkpt lat="42.9821967" lon="12.0285067"><ele>312.0</ele><time>2026-04-19T08:40:50.958Z</time></trkpt><trkpt lat="42.9821833" lon="12.0287067"><ele>311.5</ele><time>2026-04-19T08:40:51.958Z</time></trkpt><trkpt lat="42.9821683" lon="12.0289183"><ele>311.0</ele><time>2026-04-19T08:40:52.958Z</time></trkpt><trkpt lat="42.9821583" lon="12.0291267"><ele>311.0</ele><time>2026-04-19T08:40:53.958Z</time></trkpt><trkpt lat="42.982145" lon="12.0293333"><ele>311.0</ele><time>2026-04-19T08:40:54.959Z</time></trkpt><trkpt lat="42.9821333" lon="12.0295283"><ele>311.0</ele><time>2026-04-19T08:40:55.958Z</time></trkpt><trkpt lat="42.9821233" lon="12.0296967"><ele>311.0</ele><time>2026-04-19T08:40:56.959Z</time></trkpt><trkpt lat="42.9821217" lon="12.0298417"><ele>312.75</ele><time>2026-04-19T08:40:57.959Z</time></trkpt><trkpt lat="42.9821133" lon="12.0299967"><ele>314.5</ele><time>2026-04-19T08:40:58.959Z</time></trkpt><trkpt lat="42.9821017" lon="12.030155"><ele>316.25</ele><time>2026-04-19T08:40:59.958Z</time></trkpt><trkpt lat="42.98209" lon="12.0303133"><ele>318.0</ele><time>2026-04-19T08:41:00.958Z</time></trkpt><trkpt lat="42.9820733" lon="12.0304867"><ele>318.0</ele><time>2026-04-19T08:41:01.959Z</time></trkpt><trkpt lat="42.98205" lon="12.0306683"><ele>318.0</ele><time>2026-04-19T08:41:02.958Z</time></trkpt><trkpt lat="42.9820283" lon="12.0308417"><ele>318.0</ele><time>2026-04-19T08:41:03.958Z</time></trkpt><trkpt lat="42.9820133" lon="12.0310067"><ele>318.0</ele><time>2026-04-19T08:41:04.958Z</time></trkpt><trkpt lat="42.9820033" lon="12.0311817"><ele>320.0</ele><time>2026-04-19T08:41:05.958Z</time></trkpt><trkpt lat="42.981995" lon="12.0313617"><ele>322.0</ele><time>2026-04-19T08:41:06.959Z</time></trkpt><trkpt lat="42.9819867" lon="12.0315317"><ele>324.0</ele><time>2026-04-19T08:41:07.958Z</time></trkpt><trkpt lat="42.9819767" lon="12.031695"><ele>326.0</ele><time>2026-04-19T08:41:08.959Z</time></trkpt><trkpt lat="42.9819617" lon="12.0318533"><ele>326.20000000000005</ele><time>2026-04-19T08:41:09.958Z</time></trkpt><trkpt lat="42.9819417" lon="12.0320133"><ele>326.40000000000003</ele><time>2026-04-19T08:41:10.959Z</time></trkpt><trkpt lat="42.981925" lon="12.0321633"><ele>326.6</ele><time>2026-04-19T08:41:11.959Z</time></trkpt><trkpt lat="42.9819183" lon="12.0323033"><ele>326.8</ele><time>2026-04-19T08:41:12.958Z</time></trkpt><trkpt lat="42.9819217" lon="12.0324283"><ele>327.0</ele><time>2026-04-19T08:41:13.958Z</time></trkpt><trkpt lat="42.9819283" lon="12.0325533"><ele>327.0</ele><time>2026-04-19T08:41:14.959Z</time></trkpt><trkpt lat="42.9819483" lon="12.0326583"><ele>327.0</ele><time>2026-04-19T08:41:15.959Z</time></trkpt><trkpt lat="42.9819733" lon="12.0327783"><ele>327.0</ele><time>2026-04-19T08:41:16.959Z</time></trkpt><trkpt lat="42.982" lon="12.0329033"><ele>327.0</ele><time>2026-04-19T08:41:17.959Z</time></trkpt><trkpt lat="42.9820167" lon="12.0330133"><ele>327.0</ele><time>2026-04-19T08:41:18.959Z</time></trkpt><trkpt lat="42.9820167" lon="12.0331217"><ele>327.0</ele><time>2026-04-19T08:41:19.958Z</time></trkpt><trkpt lat="42.982015" lon="12.0332217"><ele>326.8333333333333</ele><time>2026-04-19T08:41:20.959Z</time></trkpt><trkpt lat="42.9820233" lon="12.0333617"><ele>326.6666666666667</ele><time>2026-04-19T08:41:22.958Z</time></trkpt><trkpt lat="42.9820033" lon="12.03345"><ele>326.5</ele><time>2026-04-19T08:41:24.959Z</time></trkpt><trkpt lat="42.981935" lon="12.0335267"><ele>326.33333333333337</ele><time>2026-04-19T08:41:27.959Z</time></trkpt><trkpt lat="42.98188" lon="12.0336133"><ele>326.1666666666667</ele><time>2026-04-19T08:41:30.959Z</time></trkpt><trkpt lat="42.9818933" lon="12.0337517"><ele>326.0</ele><time>2026-04-19T08:41:33.959Z</time></trkpt><trkpt lat="42.98189" lon="12.0338483"><ele>326.0</ele><time>2026-04-19T08:41:34.959Z</time></trkpt><trkpt lat="42.9818767" lon="12.0339583"><ele>326.0</ele><time>2026-04-19T08:41:35.959Z</time></trkpt><trkpt lat="42.981845" lon="12.0340967"><ele>326.0</ele><time>2026-04-19T08:41:36.959Z</time></trkpt><trkpt lat="42.9818133" lon="12.0342383"><ele>326.0</ele><time>2026-04-19T08:41:37.958Z</time></trkpt><trkpt lat="42.981775" lon="12.0343733"><ele>326.0</ele><time>2026-04-19T08:41:38.959Z</time></trkpt><trkpt lat="42.981745" lon="12.034495"><ele>325.4</ele><time>2026-04-19T08:41:39.958Z</time></trkpt><trkpt lat="42.9817217" lon="12.03462"><ele>324.8</ele><time>2026-04-19T08:41:40.959Z</time></trkpt><trkpt lat="42.9817083" lon="12.034745"><ele>324.2</ele><time>2026-04-19T08:41:41.958Z</time></trkpt><trkpt lat="42.9817167" lon="12.0348867"><ele>323.59999999999997</ele><time>2026-04-19T08:41:42.959Z</time></trkpt><trkpt lat="42.9817283" lon="12.0350167"><ele>323.0</ele><time>2026-04-19T08:41:43.958Z</time></trkpt><trkpt lat="42.9817567" lon="12.0351417"><ele>320.4</ele><time>2026-04-19T08:41:44.959Z</time></trkpt><trkpt lat="42.9817917" lon="12.0352683"><ele>317.79999999999995</ele><time>2026-04-19T08:41:45.959Z</time></trkpt><trkpt lat="42.981845" lon="12.0354083"><ele>315.2</ele><time>2026-04-19T08:41:46.958Z</time></trkpt><trkpt lat="42.9819083" lon="12.0355567"><ele>312.6</ele><time>2026-04-19T08:41:47.959Z</time></trkpt><trkpt lat="42.9819667" lon="12.0356783"><ele>310.0</ele><time>2026-04-19T08:41:48.959Z</time></trkpt><trkpt lat="42.982025" lon="12.0357933"><ele>307.4</ele><time>2026-04-19T08:41:49.958Z</time></trkpt><trkpt lat="42.982085" lon="12.0358983"><ele>304.8</ele><time>2026-04-19T08:41:50.958Z</time></trkpt><trkpt lat="42.9821467" lon="12.0360133"><ele>302.2</ele><time>2026-04-19T08:41:51.959Z</time></trkpt><trkpt lat="42.9822017" lon="12.0361317"><ele>299.6</ele><time>2026-04-19T08:41:52.959Z</time></trkpt><trkpt lat="42.9822483" lon="12.036255"><ele>297.0</ele><time>2026-04-19T08:41:53.958Z</time></trkpt><trkpt lat="42.9822933" lon="12.0363933"><ele>297.0</ele><time>2026-04-19T08:41:54.959Z</time></trkpt><trkpt lat="42.9823383" lon="12.0365533"><ele>297.0</ele><time>2026-04-19T08:41:55.958Z</time></trkpt><trkpt lat="42.9823833" lon="12.0367117"><ele>297.0</ele><time>2026-04-19T08:41:56.958Z</time></trkpt><trkpt lat="42.9824317" lon="12.0368633"><ele>297.0</ele><time>2026-04-19T08:41:57.958Z</time></trkpt><trkpt lat="42.9824667" lon="12.0369917"><ele>297.2</ele><time>2026-04-19T08:41:58.959Z</time></trkpt><trkpt lat="42.9824883" lon="12.0371317"><ele>297.4</ele><time>2026-04-19T08:41:59.958Z</time></trkpt><trkpt lat="42.9825067" lon="12.03728"><ele>297.6</ele><time>2026-04-19T08:42:00.959Z</time></trkpt><trkpt lat="42.982525" lon="12.0374217"><ele>297.8</ele><time>2026-04-19T08:42:01.958Z</time></trkpt><trkpt lat="42.9825333" lon="12.0375517"><ele>298.0</ele><time>2026-04-19T08:42:02.959Z</time></trkpt><trkpt lat="42.9825367" lon="12.0376783"><ele>298.66666666666663</ele><time>2026-04-19T08:42:03.958Z</time></trkpt><trkpt lat="42.9825517" lon="12.03778"><ele>299.3333333333333</ele><time>2026-04-19T08:42:04.959Z</time></trkpt><trkpt lat="42.9825783" lon="12.0378667"><ele>300.0</ele><time>2026-04-19T08:42:05.958Z</time></trkpt><trkpt lat="42.9826367" lon="12.0379833"><ele>300.6666666666667</ele><time>2026-04-19T08:42:07.959Z</time></trkpt><trkpt lat="42.9826617" lon="12.038075"><ele>301.33333333333337</ele><time>2026-04-19T08:42:09.958Z</time></trkpt><trkpt lat="42.982645" lon="12.0382167"><ele>302.0</ele><time>2026-04-19T08:42:11.959Z</time></trkpt><trkpt lat="42.9826633" lon="12.0383633"><ele>303.4</ele><time>2026-04-19T08:42:13.958Z</time></trkpt><trkpt lat="42.9826883" lon="12.0384583"><ele>304.79999999999995</ele><time>2026-04-19T08:42:14.958Z</time></trkpt><trkpt lat="42.9827333" lon="12.03857"><ele>306.2</ele><time>2026-04-19T08:42:15.959Z</time></trkpt><trkpt lat="42.9827967" lon="12.038695"><ele>307.59999999999997</ele><time>2026-04-19T08:42:16.959Z</time></trkpt><trkpt lat="42.98287" lon="12.0388133"><ele>309.0</ele><time>2026-04-19T08:42:17.958Z</time></trkpt><trkpt lat="42.982945" lon="12.0389383"><ele>309.0</ele><time>2026-04-19T08:42:18.958Z</time></trkpt><trkpt lat="42.983025" lon="12.039065"><ele>309.0</ele><time>2026-04-19T08:42:19.959Z</time></trkpt><trkpt lat="42.9830933" lon="12.0391933"><ele>309.0</ele><time>2026-04-19T08:42:20.959Z</time></trkpt><trkpt lat="42.9831583" lon="12.0393"><ele>309.0</ele><time>2026-04-19T08:42:21.958Z</time></trkpt><trkpt lat="42.9832017" lon="12.039405"><ele>309.0</ele><time>2026-04-19T08:42:22.958Z</time></trkpt><trkpt lat="42.9832367" lon="12.0395017"><ele>309.8</ele><time>2026-04-19T08:42:23.958Z</time></trkpt><trkpt lat="42.9832617" lon="12.039625"><ele>310.59999999999997</ele><time>2026-04-19T08:42:24.958Z</time></trkpt><trkpt lat="42.9832833" lon="12.0397633"><ele>311.4</ele><time>2026-04-19T08:42:25.959Z</time></trkpt><trkpt lat="42.983295" lon="12.039905"><ele>312.2</ele><time>2026-04-19T08:42:26.958Z</time></trkpt><trkpt lat="42.983305" lon="12.04007"><ele>313.0</ele><time>2026-04-19T08:42:27.959Z</time></trkpt><trkpt lat="42.9833233" lon="12.0402283"><ele>315.8</ele><time>2026-04-19T08:42:28.958Z</time></trkpt><trkpt lat="42.9833383" lon="12.04037"><ele>318.6</ele><time>2026-04-19T08:42:29.958Z</time></trkpt><trkpt lat="42.9833483" lon="12.040515"><ele>321.40000000000003</ele><time>2026-04-19T08:42:30.959Z</time></trkpt><trkpt lat="42.983365" lon="12.0406667"><ele>324.20000000000005</ele><time>2026-04-19T08:42:31.958Z</time></trkpt><trkpt lat="42.98339" lon="12.0408033"><ele>327.0</ele><time>2026-04-19T08:42:32.958Z</time></trkpt><trkpt lat="42.9834117" lon="12.0409417"><ele>327.20000000000005</ele><time>2026-04-19T08:42:33.958Z</time></trkpt><trkpt lat="42.9834333" lon="12.0410783"><ele>327.4</ele><time>2026-04-19T08:42:34.958Z</time></trkpt><trkpt lat="42.9834533" lon="12.0412083"><ele>327.6</ele><time>2026-04-19T08:42:35.957Z</time></trkpt><trkpt lat="42.9834733" lon="12.0413467"><ele>327.79999999999995</ele><time>2026-04-19T08:42:36.958Z</time></trkpt><trkpt lat="42.98347" lon="12.0414883"><ele>328.0</ele><time>2026-04-19T08:42:37.958Z</time></trkpt><trkpt lat="42.9834783" lon="12.0416167"><ele>328.66666666666663</ele><time>2026-04-19T08:42:38.958Z</time></trkpt><trkpt lat="42.9834983" lon="12.0417317"><ele>329.3333333333333</ele><time>2026-04-19T08:42:39.958Z</time></trkpt><trkpt lat="42.9835033" lon="12.04184"><ele>330.0</ele><time>2026-04-19T08:42:40.957Z</time></trkpt><trkpt lat="42.9834967" lon="12.041945"><ele>330.6666666666667</ele><time>2026-04-19T08:42:41.957Z</time></trkpt><trkpt lat="42.9834917" lon="12.0420433"><ele>331.33333333333337</ele><time>2026-04-19T08:42:42.957Z</time></trkpt><trkpt lat="42.9834733" lon="12.04217"><ele>332.0</ele><time>2026-04-19T08:42:44.957Z</time></trkpt><trkpt lat="42.98345" lon="12.0422733"><ele>332.0</ele><time>2026-04-19T08:42:46.958Z</time></trkpt><trkpt lat="42.9834183" lon="12.0424283"><ele>332.0</ele><time>2026-04-19T08:42:48.957Z</time></trkpt><trkpt lat="42.9834" lon="12.04255"><ele>332.0</ele><time>2026-04-19T08:42:49.958Z</time></trkpt><trkpt lat="42.9833817" lon="12.0426867"><ele>332.0</ele><time>2026-04-19T08:42:50.958Z</time></trkpt><trkpt lat="42.9833533" lon="12.0428383"><ele>332.0</ele><time>2026-04-19T08:42:51.958Z</time></trkpt><trkpt lat="42.9833217" lon="12.0429833"><ele>336.0</ele><time>2026-04-19T08:42:52.958Z</time></trkpt><trkpt lat="42.98329" lon="12.04311"><ele>340.0</ele><time>2026-04-19T08:42:53.958Z</time></trkpt><trkpt lat="42.9832567" lon="12.0432217"><ele>344.0</ele><time>2026-04-19T08:42:54.958Z</time></trkpt><trkpt lat="42.9832183" lon="12.0433217"><ele>348.0</ele><time>2026-04-19T08:42:55.958Z</time></trkpt><trkpt lat="42.983175" lon="12.0434183"><ele>352.0</ele><time>2026-04-19T08:42:56.957Z</time></trkpt><trkpt lat="42.9831317" lon="12.0435067"><ele>356.0</ele><time>2026-04-19T08:42:57.954Z</time></trkpt><trkpt lat="42.983095" lon="12.0435783"><ele>356.0</ele><time>2026-04-19T08:42:58.958Z</time></trkpt><trkpt lat="42.9830117" lon="12.0436733"><ele>356.0</ele><time>2026-04-19T08:43:00.958Z</time></trkpt><trkpt lat="42.9829317" lon="12.04371"><ele>356.0</ele><time>2026-04-19T08:43:02.958Z</time></trkpt><trkpt lat="42.9828217" lon="12.0437533"><ele>356.0</ele><time>2026-04-19T08:43:04.958Z</time></trkpt><trkpt lat="42.98276" lon="12.043775"><ele>356.0</ele><time>2026-04-19T08:43:05.957Z</time></trkpt><trkpt lat="42.9826733" lon="12.0438667"><ele>356.0</ele><time>2026-04-19T08:43:07.957Z</time></trkpt><trkpt lat="42.9826333" lon="12.0439383"><ele>356.0</ele><time>2026-04-19T08:43:08.957Z</time></trkpt><trkpt lat="42.9825917" lon="12.0440267"><ele>356.0</ele><time>2026-04-19T08:43:09.958Z</time></trkpt><trkpt lat="42.98256" lon="12.0441133"><ele>356.0</ele><time>2026-04-19T08:43:10.958Z</time></trkpt><trkpt lat="42.98253" lon="12.0442133"><ele>356.0</ele><time>2026-04-19T08:43:11.958Z</time></trkpt><trkpt lat="42.9824933" lon="12.0443133"><ele>356.0</ele><time>2026-04-19T08:43:12.958Z</time></trkpt><trkpt lat="42.9824567" lon="12.0444167"><ele>358.33333333333337</ele><time>2026-04-19T08:43:13.958Z</time></trkpt><trkpt lat="42.9824167" lon="12.0445017"><ele>360.6666666666667</ele><time>2026-04-19T08:43:14.957Z</time></trkpt><trkpt lat="42.9823667" lon="12.0445717"><ele>363.0</ele><time>2026-04-19T08:43:15.957Z</time></trkpt><trkpt lat="42.98231" lon="12.0446433"><ele>365.3333333333333</ele><time>2026-04-19T08:43:16.958Z</time></trkpt><trkpt lat="42.9822467" lon="12.044705"><ele>367.66666666666663</ele><time>2026-04-19T08:43:17.957Z</time></trkpt><trkpt lat="42.9821783" lon="12.04477"><ele>370.0</ele><time>2026-04-19T08:43:18.957Z</time></trkpt><trkpt lat="42.9821117" lon="12.044845"><ele>370.0</ele><time>2026-04-19T08:43:19.957Z</time></trkpt><trkpt lat="42.9820617" lon="12.04492"><ele>370.0</ele><time>2026-04-19T08:43:20.958Z</time></trkpt><trkpt lat="42.9820233" lon="12.0450033"><ele>370.0</ele><time>2026-04-19T08:43:21.958Z</time></trkpt><trkpt lat="42.981995" lon="12.045095"><ele>370.0</ele><time>2026-04-19T08:43:22.958Z</time></trkpt><trkpt lat="42.981985" lon="12.04519"><ele>370.0</ele><time>2026-04-19T08:43:23.957Z</time></trkpt><trkpt lat="42.981985" lon="12.045295"><ele>370.0</ele><time>2026-04-19T08:43:24.957Z</time></trkpt><trkpt lat="42.9819983" lon="12.0454233"><ele>368.16666666666663</ele><time>2026-04-19T08:43:25.957Z</time></trkpt><trkpt lat="42.9820133" lon="12.0455317"><ele>366.3333333333333</ele><time>2026-04-19T08:43:26.958Z</time></trkpt><trkpt lat="42.98203" lon="12.04562"><ele>364.5</ele><time>2026-04-19T08:43:27.957Z</time></trkpt><trkpt lat="42.982045" lon="12.0457133"><ele>362.6666666666667</ele><time>2026-04-19T08:43:28.957Z</time></trkpt><trkpt lat="42.9820517" lon="12.0458"><ele>360.83333333333337</ele><time>2026-04-19T08:43:29.957Z</time></trkpt><trkpt lat="42.9820467" lon="12.045935"><ele>359.0</ele><time>2026-04-19T08:43:31.958Z</time></trkpt><trkpt lat="42.9820283" lon="12.046045"><ele>357.6666666666667</ele><time>2026-04-19T08:43:33.957Z</time></trkpt><trkpt lat="42.9819917" lon="12.0462"><ele>356.33333333333337</ele><time>2026-04-19T08:43:35.958Z</time></trkpt><trkpt lat="42.981965" lon="12.0462867"><ele>355.0</ele><time>2026-04-19T08:43:36.957Z</time></trkpt><trkpt lat="42.981925" lon="12.0463767"><ele>353.6666666666667</ele><time>2026-04-19T08:43:37.958Z</time></trkpt><trkpt lat="42.9818783" lon="12.0464583"><ele>352.3333333333333</ele><time>2026-04-19T08:43:38.957Z</time></trkpt><trkpt lat="42.9818367" lon="12.0465467"><ele>351.0</ele><time>2026-04-19T08:43:39.958Z</time></trkpt><trkpt lat="42.9818083" lon="12.0466483"><ele>350.20000000000005</ele><time>2026-04-19T08:43:40.958Z</time></trkpt><trkpt lat="42.9817983" lon="12.0467517"><ele>349.40000000000003</ele><time>2026-04-19T08:43:41.957Z</time></trkpt><trkpt lat="42.9817983" lon="12.0468733"><ele>348.6</ele><time>2026-04-19T08:43:42.957Z</time></trkpt><trkpt lat="42.9818083" lon="12.0470067"><ele>347.8</ele><time>2026-04-19T08:43:43.957Z</time></trkpt><trkpt lat="42.98183" lon="12.047135"><ele>347.0</ele><time>2026-04-19T08:43:44.957Z</time></trkpt><trkpt lat="42.98185" lon="12.0472583"><ele>347.0</ele><time>2026-04-19T08:43:45.958Z</time></trkpt><trkpt lat="42.9818583" lon="12.0473833"><ele>347.0</ele><time>2026-04-19T08:43:46.958Z</time></trkpt><trkpt lat="42.98186" lon="12.0475117"><ele>347.0</ele><time>2026-04-19T08:43:47.958Z</time></trkpt><trkpt lat="42.98187" lon="12.04764"><ele>347.0</ele><time>2026-04-19T08:43:48.958Z</time></trkpt><trkpt lat="42.98187" lon="12.0477517"><ele>347.0</ele><time>2026-04-19T08:43:49.957Z</time></trkpt><trkpt lat="42.9818633" lon="12.0478617"><ele>347.0</ele><time>2026-04-19T08:43:50.957Z</time></trkpt><trkpt lat="42.98186" lon="12.0479867"><ele>346.83333333333337</ele><time>2026-04-19T08:43:51.958Z</time></trkpt><trkpt lat="42.981855" lon="12.048105"><ele>346.6666666666667</ele><time>2026-04-19T08:43:52.958Z</time></trkpt><trkpt lat="42.9818517" lon="12.0482167"><ele>346.5</ele><time>2026-04-19T08:43:53.958Z</time></trkpt><trkpt lat="42.9818433" lon="12.0483233"><ele>346.3333333333333</ele><time>2026-04-19T08:43:54.958Z</time></trkpt><trkpt lat="42.98183" lon="12.0484167"><ele>346.16666666666663</ele><time>2026-04-19T08:43:55.958Z</time></trkpt><trkpt lat="42.9817933" lon="12.0485567"><ele>346.0</ele><time>2026-04-19T08:43:57.958Z</time></trkpt><trkpt lat="42.981785" lon="12.0487183"><ele>346.5</ele><time>2026-04-19T08:43:59.957Z</time></trkpt><trkpt lat="42.9818233" lon="12.0488683"><ele>347.0</ele><time>2026-04-19T08:44:01.957Z</time></trkpt><trkpt lat="42.9818683" lon="12.04897"><ele>347.5</ele><time>2026-04-19T08:44:02.957Z</time></trkpt><trkpt lat="42.98191" lon="12.0490633"><ele>348.0</ele><time>2026-04-19T08:44:03.958Z</time></trkpt><trkpt lat="42.9819417" lon="12.0491467"><ele>348.5</ele><time>2026-04-19T08:44:04.958Z</time></trkpt><trkpt lat="42.9819633" lon="12.0492283"><ele>349.0</ele><time>2026-04-19T08:44:05.957Z</time></trkpt><trkpt lat="42.98197" lon="12.04941"><ele>351.16666666666663</ele><time>2026-04-19T08:44:07.958Z</time></trkpt><trkpt lat="42.981965" lon="12.049515"><ele>353.3333333333333</ele><time>2026-04-19T08:44:08.957Z</time></trkpt><trkpt lat="42.9819667" lon="12.0496233"><ele>355.5</ele><time>2026-04-19T08:44:09.958Z</time></trkpt><trkpt lat="42.98198" lon="12.0497383"><ele>357.6666666666667</ele><time>2026-04-19T08:44:10.958Z</time></trkpt><trkpt lat="42.9820117" lon="12.0498633"><ele>359.83333333333337</ele><time>2026-04-19T08:44:11.958Z</time></trkpt><trkpt lat="42.9820317" lon="12.0499933"><ele>362.0</ele><time>2026-04-19T08:44:12.958Z</time></trkpt><trkpt lat="42.98205" lon="12.050125"><ele>362.85714285714283</ele><time>2026-04-19T08:44:13.957Z</time></trkpt><trkpt lat="42.982065" lon="12.05024"><ele>363.71428571428567</ele><time>2026-04-19T08:44:14.957Z</time></trkpt><trkpt lat="42.9820683" lon="12.0503433"><ele>364.57142857142856</ele><time>2026-04-19T08:44:15.958Z</time></trkpt><trkpt lat="42.9820617" lon="12.0504417"><ele>365.42857142857144</ele><time>2026-04-19T08:44:16.958Z</time></trkpt><trkpt lat="42.9820433" lon="12.0505267"><ele>366.2857142857143</ele><time>2026-04-19T08:44:17.958Z</time></trkpt><trkpt lat="42.9820217" lon="12.0506217"><ele>367.14285714285717</ele><time>2026-04-19T08:44:18.957Z</time></trkpt><trkpt lat="42.9820067" lon="12.0507183"><ele>368.0</ele><time>2026-04-19T08:44:19.958Z</time></trkpt><trkpt lat="42.9819517" lon="12.0508833"><ele>368.0</ele><time>2026-04-19T08:44:21.957Z</time></trkpt><trkpt lat="42.981915" lon="12.0509783"><ele>368.0</ele><time>2026-04-19T08:44:22.958Z</time></trkpt><trkpt lat="42.981865" lon="12.0510967"><ele>368.0</ele><time>2026-04-19T08:44:23.958Z</time></trkpt><trkpt lat="42.9818117" lon="12.0512133"><ele>368.0</ele><time>2026-04-19T08:44:24.957Z</time></trkpt><trkpt lat="42.9817583" lon="12.0513117"><ele>368.0</ele><time>2026-04-19T08:44:25.958Z</time></trkpt><trkpt lat="42.9817217" lon="12.0514067"><ele>368.0</ele><time>2026-04-19T08:44:26.957Z</time></trkpt><trkpt lat="42.9816833" lon="12.0515467"><ele>371.0</ele><time>2026-04-19T08:44:28.958Z</time></trkpt><trkpt lat="42.9816783" lon="12.051735"><ele>374.0</ele><time>2026-04-19T08:44:30.957Z</time></trkpt><trkpt lat="42.9816733" lon="12.0518583"><ele>377.0</ele><time>2026-04-19T08:44:31.958Z</time></trkpt><trkpt lat="42.981655" lon="12.0519683"><ele>380.0</ele><time>2026-04-19T08:44:32.958Z</time></trkpt><trkpt lat="42.98164" lon="12.0520617"><ele>382.99999999999994</ele><time>2026-04-19T08:44:33.957Z</time></trkpt><trkpt lat="42.981615" lon="12.0521433"><ele>386.0</ele><time>2026-04-19T08:44:34.958Z</time></trkpt><trkpt lat="42.9815483" lon="12.0522667"><ele>385.99999999999994</ele><time>2026-04-19T08:44:36.957Z</time></trkpt><trkpt lat="42.981465" lon="12.0523217"><ele>386.0</ele><time>2026-04-19T08:44:38.958Z</time></trkpt><trkpt lat="42.9814" lon="12.052335"><ele>386.0</ele><time>2026-04-19T08:44:39.958Z</time></trkpt><trkpt lat="42.9813083" lon="12.0523283"><ele>386.0</ele><time>2026-04-19T08:44:40.958Z</time></trkpt><trkpt lat="42.981225" lon="12.0523267"><ele>385.99999999999994</ele><time>2026-04-19T08:44:41.958Z</time></trkpt><trkpt lat="42.981155" lon="12.052335"><ele>386.0</ele><time>2026-04-19T08:44:42.958Z</time></trkpt><trkpt lat="42.9810883" lon="12.0523467"><ele>386.0</ele><time>2026-04-19T08:44:43.958Z</time></trkpt><trkpt lat="42.9810183" lon="12.0523567"><ele>386.0</ele><time>2026-04-19T08:44:44.957Z</time></trkpt><trkpt lat="42.9809333" lon="12.0523433"><ele>386.0</ele><time>2026-04-19T08:44:45.958Z</time></trkpt><trkpt lat="42.9808367" lon="12.0523117"><ele>386.0</ele><time>2026-04-19T08:44:46.958Z</time></trkpt><trkpt lat="42.980725" lon="12.0522717"><ele>386.0</ele><time>2026-04-19T08:44:47.957Z</time></trkpt><trkpt lat="42.9806417" lon="12.0522267"><ele>385.75</ele><time>2026-04-19T08:44:48.957Z</time></trkpt><trkpt lat="42.980555" lon="12.0521583"><ele>385.5</ele><time>2026-04-19T08:44:49.957Z</time></trkpt><trkpt lat="42.9804483" lon="12.0520567"><ele>385.25</ele><time>2026-04-19T08:44:50.957Z</time></trkpt><trkpt lat="42.9803483" lon="12.05196"><ele>385.0</ele><time>2026-04-19T08:44:51.958Z</time></trkpt><trkpt lat="42.9802483" lon="12.051885"><ele>385.0</ele><time>2026-04-19T08:44:52.958Z</time></trkpt><trkpt lat="42.98014" lon="12.05182"><ele>385.0</ele><time>2026-04-19T08:44:53.958Z</time></trkpt><trkpt lat="42.9800417" lon="12.051745"><ele>385.0</ele><time>2026-04-19T08:44:54.957Z</time></trkpt><trkpt lat="42.979945" lon="12.0516717"><ele>385.0</ele><time>2026-04-19T08:44:55.957Z</time></trkpt><trkpt lat="42.9798717" lon="12.0516083"><ele>385.0</ele><time>2026-04-19T08:44:56.957Z</time></trkpt><trkpt lat="42.979815" lon="12.0515567"><ele>383.33333333333337</ele><time>2026-04-19T08:44:57.957Z</time></trkpt><trkpt lat="42.9797583" lon="12.0515167"><ele>381.6666666666667</ele><time>2026-04-19T08:44:58.958Z</time></trkpt><trkpt lat="42.9796783" lon="12.0514517"><ele>380.0</ele><time>2026-04-19T08:45:00.958Z</time></trkpt><trkpt lat="42.9796183" lon="12.0513983"><ele>378.33333333333337</ele><time>2026-04-19T08:45:02.957Z</time></trkpt><trkpt lat="42.9795383" lon="12.0513333"><ele>376.6666666666667</ele><time>2026-04-19T08:45:05.957Z</time></trkpt><trkpt lat="42.9794733" lon="12.0512917"><ele>375.0</ele><time>2026-04-19T08:45:07.958Z</time></trkpt><trkpt lat="42.97936" lon="12.0512083"><ele>375.0</ele><time>2026-04-19T08:45:09.958Z</time></trkpt><trkpt lat="42.9792833" lon="12.0511383"><ele>375.0</ele><time>2026-04-19T08:45:10.958Z</time></trkpt><trkpt lat="42.9792033" lon="12.0510767"><ele>375.0</ele><time>2026-04-19T08:45:11.958Z</time></trkpt><trkpt lat="42.9791283" lon="12.051005"><ele>375.0</ele><time>2026-04-19T08:45:12.957Z</time></trkpt><trkpt lat="42.979065" lon="12.0509417"><ele>375.0</ele><time>2026-04-19T08:45:13.958Z</time></trkpt><trkpt lat="42.978955" lon="12.0508733"><ele>374.6666666666667</ele><time>2026-04-19T08:45:15.957Z</time></trkpt><trkpt lat="42.9788733" lon="12.050795"><ele>374.3333333333333</ele><time>2026-04-19T08:45:17.958Z</time></trkpt><trkpt lat="42.97881" lon="12.0507117"><ele>374.0</ele><time>2026-04-19T08:45:19.957Z</time></trkpt><trkpt lat="42.978745" lon="12.05061"><ele>373.66666666666663</ele><time>2026-04-19T08:45:21.957Z</time></trkpt><trkpt lat="42.97869" lon="12.0505433"><ele>373.3333333333333</ele><time>2026-04-19T08:45:22.957Z</time></trkpt><trkpt lat="42.97863" lon="12.05049"><ele>373.0</ele><time>2026-04-19T08:45:23.958Z</time></trkpt><trkpt lat="42.9785167" lon="12.0504383"><ele>371.0</ele><time>2026-04-19T08:45:25.958Z</time></trkpt><trkpt lat="42.978415" lon="12.0504533"><ele>369.0</ele><time>2026-04-19T08:45:27.957Z</time></trkpt><trkpt lat="42.9783467" lon="12.05054"><ele>367.0</ele><time>2026-04-19T08:45:29.957Z</time></trkpt><trkpt lat="42.978335" lon="12.0507017"><ele>365.0</ele><time>2026-04-19T08:45:31.957Z</time></trkpt><trkpt lat="42.978325" lon="12.0508333"><ele>363.0</ele><time>2026-04-19T08:45:33.958Z</time></trkpt><trkpt lat="42.97826" lon="12.05089"><ele>363.0</ele><time>2026-04-19T08:45:35.958Z</time></trkpt><trkpt lat="42.978185" lon="12.050865"><ele>363.0</ele><time>2026-04-19T08:45:37.958Z</time></trkpt><trkpt lat="42.9781433" lon="12.0507817"><ele>363.0</ele><time>2026-04-19T08:45:39.957Z</time></trkpt><trkpt lat="42.97813" lon="12.050645"><ele>363.0</ele><time>2026-04-19T08:45:41.958Z</time></trkpt><trkpt lat="42.97807" lon="12.0505183"><ele>363.0</ele><time>2026-04-19T08:45:43.957Z</time></trkpt><trkpt lat="42.977985" lon="12.0504533"><ele>362.59999999999997</ele><time>2026-04-19T08:45:45.957Z</time></trkpt><trkpt lat="42.9778917" lon="12.0504183"><ele>362.2</ele><time>2026-04-19T08:45:47.957Z</time></trkpt><trkpt lat="42.9777983" lon="12.0504167"><ele>361.8</ele><time>2026-04-19T08:45:49.957Z</time></trkpt><trkpt lat="42.9777067" lon="12.0504517"><ele>361.4</ele><time>2026-04-19T08:45:51.957Z</time></trkpt><trkpt lat="42.9776233" lon="12.050485"><ele>361.0</ele><time>2026-04-19T08:45:53.957Z</time></trkpt><trkpt lat="42.9775417" lon="12.05048"><ele>359.0</ele><time>2026-04-19T08:45:56.957Z</time></trkpt><trkpt lat="42.977455" lon="12.050425"><ele>357.0</ele><time>2026-04-19T08:45:59.957Z</time></trkpt><trkpt lat="42.9774" lon="12.05038"><ele>355.0</ele><time>2026-04-19T08:46:01.957Z</time></trkpt><trkpt lat="42.9773417" lon="12.0503283"><ele>353.0</ele><time>2026-04-19T08:46:03.957Z</time></trkpt><trkpt lat="42.9772867" lon="12.0502733"><ele>351.0</ele><time>2026-04-19T08:46:05.957Z</time></trkpt><trkpt lat="42.9772067" lon="12.0501883"><ele>349.0</ele><time>2026-04-19T08:46:07.958Z</time></trkpt><trkpt lat="42.9771533" lon="12.050135"><ele>349.0</ele><time>2026-04-19T08:46:08.958Z</time></trkpt><trkpt lat="42.9770817" lon="12.0500217"><ele>349.0</ele><time>2026-04-19T08:46:10.957Z</time></trkpt><trkpt lat="42.9770267" lon="12.04989"><ele>349.0</ele><time>2026-04-19T08:46:12.957Z</time></trkpt><trkpt lat="42.9769933" lon="12.0498133"><ele>349.0</ele><time>2026-04-19T08:46:13.958Z</time></trkpt><trkpt lat="42.976945" lon="12.04973"><ele>349.0</ele><time>2026-04-19T08:46:14.958Z</time></trkpt><trkpt lat="42.9769017" lon="12.0496483"><ele>349.0</ele><time>2026-04-19T08:46:15.957Z</time></trkpt><trkpt lat="42.9768433" lon="12.04953"><ele>348.3333333333333</ele><time>2026-04-19T08:46:17.957Z</time></trkpt><trkpt lat="42.9767983" lon="12.049435"><ele>347.66666666666663</ele><time>2026-04-19T08:46:19.958Z</time></trkpt><trkpt lat="42.976795" lon="12.0493233"><ele>347.0</ele><time>2026-04-19T08:46:21.958Z</time></trkpt><trkpt lat="42.9768083" lon="12.0492017"><ele>346.3333333333333</ele><time>2026-04-19T08:46:23.958Z</time></trkpt><trkpt lat="42.9768067" lon="12.0490933"><ele>345.6666666666667</ele><time>2026-04-19T08:46:25.958Z</time></trkpt><trkpt lat="42.9767133" lon="12.0491733"><ele>345.0</ele><time>2026-04-19T08:46:32.957Z</time></trkpt><trkpt lat="42.9766933" lon="12.0492667"><ele>345.0</ele><time>2026-04-19T08:46:33.957Z</time></trkpt><trkpt lat="42.9766867" lon="12.049385"><ele>345.0</ele><time>2026-04-19T08:46:34.958Z</time></trkpt><trkpt lat="42.976685" lon="12.0495467"><ele>345.0</ele><time>2026-04-19T08:46:35.958Z</time></trkpt><trkpt lat="42.976685" lon="12.0497617"><ele>345.0</ele><time>2026-04-19T08:46:36.957Z</time></trkpt><trkpt lat="42.9766817" lon="12.04999"><ele>342.0</ele><time>2026-04-19T08:46:37.958Z</time></trkpt><trkpt lat="42.9766767" lon="12.0501967"><ele>339.0</ele><time>2026-04-19T08:46:38.957Z</time></trkpt><trkpt lat="42.9766633" lon="12.05038"><ele>336.0</ele><time>2026-04-19T08:46:39.957Z</time></trkpt><trkpt lat="42.9766433" lon="12.050555"><ele>333.0</ele><time>2026-04-19T08:46:40.958Z</time></trkpt><trkpt lat="42.9766067" lon="12.0507167"><ele>334.0</ele><time>2026-04-19T08:46:41.958Z</time></trkpt><trkpt lat="42.9765583" lon="12.0508617"><ele>335.0</ele><time>2026-04-19T08:46:42.957Z</time></trkpt><trkpt lat="42.9765033" lon="12.050995"><ele>336.0</ele><time>2026-04-19T08:46:43.957Z</time></trkpt><trkpt lat="42.976425" lon="12.05112"><ele>337.0</ele><time>2026-04-19T08:46:44.958Z</time></trkpt><trkpt lat="42.9763233" lon="12.0512383"><ele>337.0</ele><time>2026-04-19T08:46:45.958Z</time></trkpt><trkpt lat="42.9762" lon="12.0513633"><ele>337.0</ele><time>2026-04-19T08:46:46.958Z</time></trkpt><trkpt lat="42.9760667" lon="12.051505"><ele>337.0</ele><time>2026-04-19T08:46:47.958Z</time></trkpt><trkpt lat="42.9759567" lon="12.05167"><ele>338.0</ele><time>2026-04-19T08:46:48.957Z</time></trkpt><trkpt lat="42.97587" lon="12.051865"><ele>339.0</ele><time>2026-04-19T08:46:49.957Z</time></trkpt><trkpt lat="42.9757917" lon="12.0520833"><ele>340.0</ele><time>2026-04-19T08:46:50.958Z</time></trkpt><trkpt lat="42.9757283" lon="12.05231"><ele>343.3333333333333</ele><time>2026-04-19T08:46:51.957Z</time></trkpt><trkpt lat="42.9756867" lon="12.052525"><ele>346.6666666666667</ele><time>2026-04-19T08:46:52.957Z</time></trkpt><trkpt lat="42.9756667" lon="12.0527717"><ele>350.0</ele><time>2026-04-19T08:46:53.958Z</time></trkpt><trkpt lat="42.9756567" lon="12.0530533"><ele>352.0</ele><time>2026-04-19T08:46:54.958Z</time></trkpt><trkpt lat="42.9756467" lon="12.0533317"><ele>354.0</ele><time>2026-04-19T08:46:55.957Z</time></trkpt><trkpt lat="42.9756517" lon="12.0535833"><ele>356.0</ele><time>2026-04-19T08:46:56.958Z</time></trkpt><trkpt lat="42.9756533" lon="12.0537917"><ele>356.0</ele><time>2026-04-19T08:46:57.958Z</time></trkpt><trkpt lat="42.9756317" lon="12.0539717"><ele>356.0</ele><time>2026-04-19T08:46:58.957Z</time></trkpt><trkpt lat="42.975575" lon="12.0541467"><ele>356.0</ele><time>2026-04-19T08:46:59.957Z</time></trkpt><trkpt lat="42.9754767" lon="12.05433"><ele>356.0</ele><time>2026-04-19T08:47:00.957Z</time></trkpt><trkpt lat="42.975365" lon="12.0545183"><ele>355.33333333333337</ele><time>2026-04-19T08:47:01.958Z</time></trkpt><trkpt lat="42.9752533" lon="12.0547133"><ele>354.6666666666667</ele><time>2026-04-19T08:47:02.958Z</time></trkpt><trkpt lat="42.9751533" lon="12.0549083"><ele>354.0</ele><time>2026-04-19T08:47:03.958Z</time></trkpt><trkpt lat="42.97507" lon="12.0551117"><ele>354.6666666666667</ele><time>2026-04-19T08:47:04.957Z</time></trkpt><trkpt lat="42.975005" lon="12.055335"><ele>355.33333333333337</ele><time>2026-04-19T08:47:05.958Z</time></trkpt><trkpt lat="42.9749533" lon="12.0555833"><ele>356.0</ele><time>2026-04-19T08:47:06.958Z</time></trkpt><trkpt lat="42.9748983" lon="12.05585"><ele>358.33333333333337</ele><time>2026-04-19T08:47:07.957Z</time></trkpt><trkpt lat="42.9748283" lon="12.0560883"><ele>360.6666666666667</ele><time>2026-04-19T08:47:08.958Z</time></trkpt><trkpt lat="42.97474" lon="12.0563167"><ele>363.0</ele><time>2026-04-19T08:47:09.957Z</time></trkpt><trkpt lat="42.974645" lon="12.0565217"><ele>366.0</ele><time>2026-04-19T08:47:10.958Z</time></trkpt><trkpt lat="42.974555" lon="12.056725"><ele>369.0</ele><time>2026-04-19T08:47:11.958Z</time></trkpt><trkpt lat="42.97446" lon="12.056925"><ele>372.0</ele><time>2026-04-19T08:47:12.958Z</time></trkpt><trkpt lat="42.9743817" lon="12.0571233"><ele>372.0</ele><time>2026-04-19T08:47:13.958Z</time></trkpt><trkpt lat="42.9743267" lon="12.0573167"><ele>372.0</ele><time>2026-04-19T08:47:14.958Z</time></trkpt><trkpt lat="42.9742883" lon="12.0575267"><ele>372.0</ele><time>2026-04-19T08:47:15.957Z</time></trkpt><trkpt lat="42.97428" lon="12.0577733"><ele>374.3333333333333</ele><time>2026-04-19T08:47:16.958Z</time></trkpt><trkpt lat="42.9742817" lon="12.0580317"><ele>376.66666666666663</ele><time>2026-04-19T08:47:17.958Z</time></trkpt><trkpt lat="42.97429" lon="12.0582717"><ele>379.0</ele><time>2026-04-19T08:47:18.958Z</time></trkpt><trkpt lat="42.9743033" lon="12.0584933"><ele>380.5</ele><time>2026-04-19T08:47:19.958Z</time></trkpt><trkpt lat="42.9743133" lon="12.0587017"><ele>382.0</ele><time>2026-04-19T08:47:20.957Z</time></trkpt><trkpt lat="42.9743283" lon="12.05889"><ele>383.5</ele><time>2026-04-19T08:47:21.957Z</time></trkpt><trkpt lat="42.9743433" lon="12.059055"><ele>385.0</ele><time>2026-04-19T08:47:22.957Z</time></trkpt><trkpt lat="42.9743383" lon="12.0592233"><ele>385.0</ele><time>2026-04-19T08:47:23.958Z</time></trkpt><trkpt lat="42.9743033" lon="12.0594017"><ele>385.0</ele><time>2026-04-19T08:47:24.957Z</time></trkpt><trkpt lat="42.9742417" lon="12.0595867"><ele>385.0</ele><time>2026-04-19T08:47:25.958Z</time></trkpt><trkpt lat="42.9741633" lon="12.059775"><ele>385.0</ele><time>2026-04-19T08:47:26.957Z</time></trkpt><trkpt lat="42.9740767" lon="12.0599733"><ele>385.0</ele><time>2026-04-19T08:47:27.957Z</time></trkpt><trkpt lat="42.9739767" lon="12.060145"><ele>385.0</ele><time>2026-04-19T08:47:28.957Z</time></trkpt><trkpt lat="42.973885" lon="12.0602933"><ele>385.0</ele><time>2026-04-19T08:47:29.958Z</time></trkpt><trkpt lat="42.973805" lon="12.0604267"><ele>385.0</ele><time>2026-04-19T08:47:30.957Z</time></trkpt><trkpt lat="42.9737283" lon="12.06054"><ele>385.0</ele><time>2026-04-19T08:47:31.958Z</time></trkpt><trkpt lat="42.9736683" lon="12.0606267"><ele>385.0</ele><time>2026-04-19T08:47:32.957Z</time></trkpt><trkpt lat="42.9736067" lon="12.06068"><ele>385.0</ele><time>2026-04-19T08:47:33.957Z</time></trkpt><trkpt lat="42.9735467" lon="12.0607533"><ele>385.0</ele><time>2026-04-19T08:47:35.957Z</time></trkpt><trkpt lat="42.9736033" lon="12.0608467"><ele>385.0</ele><time>2026-04-19T08:47:38.958Z</time></trkpt><trkpt lat="42.9737333" lon="12.0609033"><ele>386.25</ele><time>2026-04-19T08:47:40.958Z</time></trkpt><trkpt lat="42.9738183" lon="12.0609433"><ele>387.5</ele><time>2026-04-19T08:47:41.958Z</time></trkpt><trkpt lat="42.973905" lon="12.0609983"><ele>388.75</ele><time>2026-04-19T08:47:42.957Z</time></trkpt><trkpt lat="42.97401" lon="12.0610717"><ele>390.0</ele><time>2026-04-19T08:47:43.957Z</time></trkpt><trkpt lat="42.9741433" lon="12.061165"><ele>389.66666666666663</ele><time>2026-04-19T08:47:44.957Z</time></trkpt><trkpt lat="42.9742983" lon="12.0612867"><ele>389.3333333333333</ele><time>2026-04-19T08:47:45.957Z</time></trkpt><trkpt lat="42.9744417" lon="12.061395"><ele>389.0</ele><time>2026-04-19T08:47:46.957Z</time></trkpt><trkpt lat="42.9745767" lon="12.0614833"><ele>389.0</ele><time>2026-04-19T08:47:47.957Z</time></trkpt><trkpt lat="42.9746917" lon="12.0615533"><ele>389.0</ele><time>2026-04-19T08:47:48.958Z</time></trkpt><trkpt lat="42.97479" lon="12.0616283"><ele>389.0</ele><time>2026-04-19T08:47:49.957Z</time></trkpt><trkpt lat="42.97488" lon="12.0617317"><ele>389.0</ele><time>2026-04-19T08:47:50.958Z</time></trkpt><trkpt lat="42.9749683" lon="12.0618517"><ele>391.5</ele><time>2026-04-19T08:47:51.958Z</time></trkpt><trkpt lat="42.9750517" lon="12.0619933"><ele>394.0</ele><time>2026-04-19T08:47:52.958Z</time></trkpt><trkpt lat="42.9751433" lon="12.0621417"><ele>396.5</ele><time>2026-04-19T08:47:53.957Z</time></trkpt><trkpt lat="42.975245" lon="12.062255"><ele>399.0</ele><time>2026-04-19T08:47:54.957Z</time></trkpt><trkpt lat="42.9753383" lon="12.0623483"><ele>399.0</ele><time>2026-04-19T08:47:55.957Z</time></trkpt><trkpt lat="42.97544" lon="12.0624333"><ele>399.0</ele><time>2026-04-19T08:47:56.957Z</time></trkpt><trkpt lat="42.9755617" lon="12.0625"><ele>399.0</ele><time>2026-04-19T08:47:57.957Z</time></trkpt><trkpt lat="42.9757133" lon="12.0625583"><ele>399.0</ele><time>2026-04-19T08:47:58.957Z</time></trkpt><trkpt lat="42.9758467" lon="12.0626133"><ele>401.6</ele><time>2026-04-19T08:47:59.957Z</time></trkpt><trkpt lat="42.97597" lon="12.0626633"><ele>404.2</ele><time>2026-04-19T08:48:00.958Z</time></trkpt><trkpt lat="42.976075" lon="12.0627017"><ele>406.8</ele><time>2026-04-19T08:48:01.958Z</time></trkpt><trkpt lat="42.9761583" lon="12.06272"><ele>409.40000000000003</ele><time>2026-04-19T08:48:02.958Z</time></trkpt><trkpt lat="42.976225" lon="12.0627117"><ele>412.0</ele><time>2026-04-19T08:48:03.958Z</time></trkpt><trkpt lat="42.976285" lon="12.0626817"><ele>412.0</ele><time>2026-04-19T08:48:04.957Z</time></trkpt><trkpt lat="42.9763517" lon="12.0626183"><ele>412.0</ele><time>2026-04-19T08:48:05.957Z</time></trkpt><trkpt lat="42.9764333" lon="12.062535"><ele>412.0</ele><time>2026-04-19T08:48:06.957Z</time></trkpt><trkpt lat="42.97653" lon="12.0624267"><ele>412.0</ele><time>2026-04-19T08:48:07.957Z</time></trkpt><trkpt lat="42.976635" lon="12.0622917"><ele>415.25</ele><time>2026-04-19T08:48:08.958Z</time></trkpt><trkpt lat="42.9767367" lon="12.0621517"><ele>418.5</ele><time>2026-04-19T08:48:09.957Z</time></trkpt><trkpt lat="42.9768267" lon="12.0620233"><ele>421.75</ele><time>2026-04-19T08:48:10.958Z</time></trkpt><trkpt lat="42.9769033" lon="12.0619317"><ele>425.0</ele><time>2026-04-19T08:48:11.958Z</time></trkpt><trkpt lat="42.976975" lon="12.0618817"><ele>425.0</ele><time>2026-04-19T08:48:12.958Z</time></trkpt><trkpt lat="42.9770583" lon="12.0618533"><ele>425.0</ele><time>2026-04-19T08:48:13.957Z</time></trkpt><trkpt lat="42.97716" lon="12.0618483"><ele>425.0</ele><time>2026-04-19T08:48:14.958Z</time></trkpt><trkpt lat="42.9772833" lon="12.0618667"><ele>425.0</ele><time>2026-04-19T08:48:15.958Z</time></trkpt><trkpt lat="42.9774333" lon="12.0618867"><ele>426.75</ele><time>2026-04-19T08:48:16.957Z</time></trkpt><trkpt lat="42.97759" lon="12.0619017"><ele>428.5</ele><time>2026-04-19T08:48:17.958Z</time></trkpt><trkpt lat="42.9777233" lon="12.0619133"><ele>430.25</ele><time>2026-04-19T08:48:18.957Z</time></trkpt><trkpt lat="42.9778317" lon="12.0619183"><ele>432.0</ele><time>2026-04-19T08:48:19.958Z</time></trkpt><trkpt lat="42.97791" lon="12.06192"><ele>432.0</ele><time>2026-04-19T08:48:20.957Z</time></trkpt><trkpt lat="42.97801" lon="12.0619317"><ele>432.0</ele><time>2026-04-19T08:48:22.958Z</time></trkpt><trkpt lat="42.97807" lon="12.0620317"><ele>432.0</ele><time>2026-04-19T08:48:24.958Z</time></trkpt><trkpt lat="42.9781067" lon="12.06214"><ele>432.0</ele><time>2026-04-19T08:48:26.958Z</time></trkpt><trkpt lat="42.97813" lon="12.062275"><ele>432.0</ele><time>2026-04-19T08:48:28.957Z</time></trkpt><trkpt lat="42.9781467" lon="12.0623617"><ele>432.0</ele><time>2026-04-19T08:48:29.958Z</time></trkpt><trkpt lat="42.97817" lon="12.0624517"><ele>431.6666666666667</ele><time>2026-04-19T08:48:30.958Z</time></trkpt><trkpt lat="42.9781983" lon="12.062545"><ele>431.33333333333337</ele><time>2026-04-19T08:48:31.957Z</time></trkpt><trkpt lat="42.9782333" lon="12.06265"><ele>431.0</ele><time>2026-04-19T08:48:32.957Z</time></trkpt><trkpt lat="42.9782633" lon="12.0627467"><ele>430.6666666666667</ele><time>2026-04-19T08:48:33.958Z</time></trkpt><trkpt lat="42.9782917" lon="12.062825"><ele>430.33333333333337</ele><time>2026-04-19T08:48:34.958Z</time></trkpt><trkpt lat="42.9783183" lon="12.0629667"><ele>430.0</ele><time>2026-04-19T08:48:36.958Z</time></trkpt><trkpt lat="42.97834" lon="12.06312"><ele>431.1666666666667</ele><time>2026-04-19T08:48:38.958Z</time></trkpt><trkpt lat="42.978365" lon="12.0632083"><ele>432.33333333333337</ele><time>2026-04-19T08:48:39.957Z</time></trkpt><trkpt lat="42.9783933" lon="12.0632867"><ele>433.5</ele><time>2026-04-19T08:48:40.957Z</time></trkpt><trkpt lat="42.9784533" lon="12.0634083"><ele>434.66666666666663</ele><time>2026-04-19T08:48:42.957Z</time></trkpt><trkpt lat="42.9784883" lon="12.06351"><ele>435.8333333333333</ele><time>2026-04-19T08:48:44.958Z</time></trkpt><trkpt lat="42.9785067" lon="12.06368"><ele>437.0</ele><time>2026-04-19T08:48:46.957Z</time></trkpt><trkpt lat="42.9785633" lon="12.0638217"><ele>436.99999999999994</ele><time>2026-04-19T08:48:48.957Z</time></trkpt><trkpt lat="42.9786167" lon="12.0638817"><ele>437.0</ele><time>2026-04-19T08:48:49.957Z</time></trkpt><trkpt lat="42.978675" lon="12.0639217"><ele>437.0</ele><time>2026-04-19T08:48:50.957Z</time></trkpt><trkpt lat="42.9787733" lon="12.0639917"><ele>437.0</ele><time>2026-04-19T08:48:52.957Z</time></trkpt><trkpt lat="42.9788267" lon="12.0640383"><ele>436.99999999999994</ele><time>2026-04-19T08:48:53.958Z</time></trkpt><trkpt lat="42.9788833" lon="12.0640917"><ele>437.0</ele><time>2026-04-19T08:48:54.958Z</time></trkpt><trkpt lat="42.9789833" lon="12.0641817"><ele>436.99999999999994</ele><time>2026-04-19T08:48:56.957Z</time></trkpt><trkpt lat="42.9790467" lon="12.0642383"><ele>437.0</ele><time>2026-04-19T08:48:57.958Z</time></trkpt><trkpt lat="42.9791017" lon="12.064295"><ele>437.0</ele><time>2026-04-19T08:48:58.958Z</time></trkpt><trkpt lat="42.9791867" lon="12.0643417"><ele>437.0</ele><time>2026-04-19T08:49:00.957Z</time></trkpt><trkpt lat="42.979295" lon="12.0643383"><ele>436.99999999999994</ele><time>2026-04-19T08:49:02.957Z</time></trkpt><trkpt lat="42.97939" lon="12.0643533"><ele>437.0</ele><time>2026-04-19T08:49:04.958Z</time></trkpt><trkpt lat="42.9794567" lon="12.0644267"><ele>436.99999999999994</ele><time>2026-04-19T08:49:06.957Z</time></trkpt><trkpt lat="42.9794933" lon="12.0645017"><ele>437.0</ele><time>2026-04-19T08:49:08.957Z</time></trkpt><trkpt lat="42.9794733" lon="12.06461"><ele>437.0</ele><time>2026-04-19T08:49:11.956Z</time></trkpt><trkpt lat="42.9794183" lon="12.0646883"><ele>437.0</ele><time>2026-04-19T08:49:13.957Z</time></trkpt><trkpt lat="42.97929" lon="12.0647683"><ele>436.99999999999994</ele><time>2026-04-19T08:49:15.957Z</time></trkpt><trkpt lat="42.9792233" lon="12.0648117"><ele>437.0</ele><time>2026-04-19T08:49:16.957Z</time></trkpt><trkpt lat="42.979115" lon="12.0648617"><ele>435.3333333333333</ele><time>2026-04-19T08:49:18.956Z</time></trkpt><trkpt lat="42.9790167" lon="12.0649"><ele>433.66666666666663</ele><time>2026-04-19T08:49:20.956Z</time></trkpt><trkpt lat="42.97895" lon="12.0649417"><ele>432.0</ele><time>2026-04-19T08:49:22.957Z</time></trkpt><trkpt lat="42.9788533" lon="12.065005"><ele>430.33333333333337</ele><time>2026-04-19T08:49:25.957Z</time></trkpt><trkpt lat="42.9787917" lon="12.0650467"><ele>428.6666666666667</ele><time>2026-04-19T08:49:26.957Z</time></trkpt><trkpt lat="42.978725" lon="12.0650983"><ele>427.0</ele><time>2026-04-19T08:49:27.956Z</time></trkpt><trkpt lat="42.97865" lon="12.0651733"><ele>426.33333333333337</ele><time>2026-04-19T08:49:29.957Z</time></trkpt><trkpt lat="42.9786183" lon="12.0652683"><ele>425.6666666666667</ele><time>2026-04-19T08:49:31.957Z</time></trkpt><trkpt lat="42.9786217" lon="12.0653583"><ele>425.0</ele><time>2026-04-19T08:49:33.957Z</time></trkpt><trkpt lat="42.9786717" lon="12.0654467"><ele>424.33333333333337</ele><time>2026-04-19T08:49:35.957Z</time></trkpt><trkpt lat="42.9787333" lon="12.0655467"><ele>423.6666666666667</ele><time>2026-04-19T08:49:37.956Z</time></trkpt><trkpt lat="42.9787583" lon="12.0656383"><ele>423.0</ele><time>2026-04-19T08:49:39.956Z</time></trkpt><trkpt lat="42.97875" lon="12.0657483"><ele>422.5</ele><time>2026-04-19T08:49:42.956Z</time></trkpt><trkpt lat="42.9787367" lon="12.0658367"><ele>422.0</ele><time>2026-04-19T08:49:44.956Z</time></trkpt><trkpt lat="42.978725" lon="12.065925"><ele>421.5</ele><time>2026-04-19T08:49:46.956Z</time></trkpt><trkpt lat="42.9787233" lon="12.066045"><ele>421.0</ele><time>2026-04-19T08:49:48.957Z</time></trkpt><trkpt lat="42.9787283" lon="12.0661383"><ele>420.5</ele><time>2026-04-19T08:49:50.956Z</time></trkpt><trkpt lat="42.978745" lon="12.0662217"><ele>420.0</ele><time>2026-04-19T08:49:52.957Z</time></trkpt><trkpt lat="42.97882" lon="12.066315"><ele>420.0</ele><time>2026-04-19T08:49:54.957Z</time></trkpt><trkpt lat="42.9789183" lon="12.0664133"><ele>420.0</ele><time>2026-04-19T08:49:56.957Z</time></trkpt><trkpt lat="42.9790067" lon="12.066475"><ele>420.0</ele><time>2026-04-19T08:49:58.957Z</time></trkpt><trkpt lat="42.9790683" lon="12.0664367"><ele>420.0</ele><time>2026-04-19T08:50:02.956Z</time></trkpt><trkpt lat="42.979125" lon="12.0663583"><ele>420.0</ele><time>2026-04-19T08:50:06.956Z</time></trkpt><trkpt lat="42.9791883" lon="12.0663017"><ele>420.0</ele><time>2026-04-19T08:50:10.957Z</time></trkpt><trkpt lat="42.97924" lon="12.06636"><ele>420.6666666666667</ele><time>2026-04-19T08:50:13.957Z</time></trkpt><trkpt lat="42.9792783" lon="12.0664533"><ele>421.33333333333337</ele><time>2026-04-19T08:50:18.957Z</time></trkpt><trkpt lat="42.9793283" lon="12.0665383"><ele>422.0</ele><time>2026-04-19T08:50:21.957Z</time></trkpt><trkpt lat="42.97938" lon="12.066635"><ele>422.6666666666667</ele><time>2026-04-19T08:50:23.956Z</time></trkpt><trkpt lat="42.979415" lon="12.0667217"><ele>423.33333333333337</ele><time>2026-04-19T08:50:25.957Z</time></trkpt><trkpt lat="42.97947" lon="12.0668183"><ele>424.0</ele><time>2026-04-19T08:50:27.956Z</time></trkpt><trkpt lat="42.97955" lon="12.0669467"><ele>424.0</ele><time>2026-04-19T08:50:29.956Z</time></trkpt><trkpt lat="42.9795933" lon="12.0670817"><ele>424.0</ele><time>2026-04-19T08:50:31.956Z</time></trkpt><trkpt lat="42.9796183" lon="12.0671967"><ele>424.0</ele><time>2026-04-19T08:50:33.957Z</time></trkpt><trkpt lat="42.97962" lon="12.0673217"><ele>424.0</ele><time>2026-04-19T08:50:35.957Z</time></trkpt><trkpt lat="42.97964" lon="12.0674483"><ele>424.0</ele><time>2026-04-19T08:50:37.957Z</time></trkpt><trkpt lat="42.9796467" lon="12.06756"><ele>422.2</ele><time>2026-04-19T08:50:39.957Z</time></trkpt><trkpt lat="42.9797433" lon="12.06768"><ele>420.4</ele><time>2026-04-19T08:50:45.957Z</time></trkpt><trkpt lat="42.9797983" lon="12.0677433"><ele>418.6</ele><time>2026-04-19T08:50:46.956Z</time></trkpt><trkpt lat="42.9798633" lon="12.0678033"><ele>416.8</ele><time>2026-04-19T08:50:47.957Z</time></trkpt><trkpt lat="42.9799233" lon="12.06786"><ele>415.0</ele><time>2026-04-19T08:50:48.956Z</time></trkpt><trkpt lat="42.9800133" lon="12.0679417"><ele>415.1666666666667</ele><time>2026-04-19T08:50:50.957Z</time></trkpt><trkpt lat="42.9800667" lon="12.0679883"><ele>415.33333333333337</ele><time>2026-04-19T08:50:52.957Z</time></trkpt><trkpt lat="42.980105" lon="12.0680967"><ele>415.5</ele><time>2026-04-19T08:50:55.957Z</time></trkpt><trkpt lat="42.9800983" lon="12.068235"><ele>415.66666666666663</ele><time>2026-04-19T08:50:58.957Z</time></trkpt><trkpt lat="42.9800933" lon="12.0683333"><ele>415.8333333333333</ele><time>2026-04-19T08:51:00.957Z</time></trkpt><trkpt lat="42.9801083" lon="12.06844"><ele>416.0</ele><time>2026-04-19T08:51:02.956Z</time></trkpt><trkpt lat="42.980155" lon="12.068505"><ele>414.2857142857143</ele><time>2026-04-19T08:51:04.957Z</time></trkpt><trkpt lat="42.9802183" lon="12.0685233"><ele>412.5714285714286</ele><time>2026-04-19T08:51:07.956Z</time></trkpt><trkpt lat="42.9802717" lon="12.0685733"><ele>410.8571428571429</ele><time>2026-04-19T08:51:10.956Z</time></trkpt><trkpt lat="42.9802233" lon="12.068645"><ele>409.1428571428571</ele><time>2026-04-19T08:51:13.957Z</time></trkpt><trkpt lat="42.9801817" lon="12.0687167"><ele>407.42857142857144</ele><time>2026-04-19T08:51:16.957Z</time></trkpt><trkpt lat="42.980165" lon="12.06881"><ele>405.7142857142857</ele><time>2026-04-19T08:51:19.957Z</time></trkpt><trkpt lat="42.9801717" lon="12.068905"><ele>404.0</ele><time>2026-04-19T08:51:22.957Z</time></trkpt><trkpt lat="42.9801133" lon="12.069015"><ele>403.99999999999994</ele><time>2026-04-19T08:51:25.956Z</time></trkpt><trkpt lat="42.98005" lon="12.0690767"><ele>404.0</ele><time>2026-04-19T08:51:27.956Z</time></trkpt><trkpt lat="42.9800117" lon="12.0691767"><ele>404.0</ele><time>2026-04-19T08:51:30.956Z</time></trkpt><trkpt lat="42.9800233" lon="12.06929"><ele>404.0</ele><time>2026-04-19T08:51:32.956Z</time></trkpt><trkpt lat="42.9800467" lon="12.0694233"><ele>403.99999999999994</ele><time>2026-04-19T08:51:34.957Z</time></trkpt><trkpt lat="42.9800367" lon="12.0695467"><ele>404.0</ele><time>2026-04-19T08:51:36.957Z</time></trkpt><trkpt lat="42.9800267" lon="12.0696617"><ele>401.8333333333333</ele><time>2026-04-19T08:51:38.956Z</time></trkpt><trkpt lat="42.9800133" lon="12.0697617"><ele>399.66666666666663</ele><time>2026-04-19T08:51:42.956Z</time></trkpt><trkpt lat="42.97998" lon="12.0698533"><ele>397.5</ele><time>2026-04-19T08:51:45.956Z</time></trkpt><trkpt lat="42.9799233" lon="12.0699317"><ele>395.33333333333337</ele><time>2026-04-19T08:51:48.957Z</time></trkpt><trkpt lat="42.979875" lon="12.0700083"><ele>393.1666666666667</ele><time>2026-04-19T08:51:50.957Z</time></trkpt><trkpt lat="42.9798267" lon="12.0700867"><ele>391.0</ele><time>2026-04-19T08:51:52.956Z</time></trkpt><trkpt lat="42.979775" lon="12.0701933"><ele>389.1666666666667</ele><time>2026-04-19T08:51:54.957Z</time></trkpt><trkpt lat="42.9797283" lon="12.0703"><ele>387.33333333333337</ele><time>2026-04-19T08:51:56.956Z</time></trkpt><trkpt lat="42.979705" lon="12.07038"><ele>385.5</ele><time>2026-04-19T08:51:58.957Z</time></trkpt><trkpt lat="42.9796867" lon="12.0704833"><ele>383.6666666666667</ele><time>2026-04-19T08:52:00.956Z</time></trkpt><trkpt lat="42.97965" lon="12.07056"><ele>381.83333333333337</ele><time>2026-04-19T08:52:02.957Z</time></trkpt><trkpt lat="42.9795533" lon="12.0705983"><ele>380.0</ele><time>2026-04-19T08:52:05.957Z</time></trkpt><trkpt lat="42.979455" lon="12.0706017"><ele>380.0</ele><time>2026-04-19T08:52:07.956Z</time></trkpt><trkpt lat="42.979385" lon="12.0705883"><ele>380.0</ele><time>2026-04-19T08:52:09.957Z</time></trkpt><trkpt lat="42.97931" lon="12.0705533"><ele>380.0</ele><time>2026-04-19T08:52:12.957Z</time></trkpt><trkpt lat="42.9792367" lon="12.070525"><ele>380.0</ele><time>2026-04-19T08:52:15.956Z</time></trkpt><trkpt lat="42.9791733" lon="12.07046"><ele>380.0</ele><time>2026-04-19T08:52:24.957Z</time></trkpt><trkpt lat="42.9791033" lon="12.070425"><ele>380.0</ele><time>2026-04-19T08:52:26.956Z</time></trkpt><trkpt lat="42.9790417" lon="12.0704467"><ele>380.0</ele><time>2026-04-19T08:52:28.956Z</time></trkpt><trkpt lat="42.97897" lon="12.0705017"><ele>379.6666666666667</ele><time>2026-04-19T08:52:32.957Z</time></trkpt><trkpt lat="42.9789367" lon="12.0705783"><ele>379.33333333333337</ele><time>2026-04-19T08:52:34.956Z</time></trkpt><trkpt lat="42.9788967" lon="12.07065"><ele>379.0</ele><time>2026-04-19T08:52:35.957Z</time></trkpt><trkpt lat="42.9788567" lon="12.0707383"><ele>378.6666666666667</ele><time>2026-04-19T08:52:36.957Z</time></trkpt><trkpt lat="42.9788333" lon="12.0708283"><ele>378.3333333333333</ele><time>2026-04-19T08:52:37.956Z</time></trkpt><trkpt lat="42.9788" lon="12.0709483"><ele>378.0</ele><time>2026-04-19T08:52:39.957Z</time></trkpt><trkpt lat="42.9787733" lon="12.07107"><ele>377.0</ele><time>2026-04-19T08:52:42.957Z</time></trkpt><trkpt lat="42.978765" lon="12.07117"><ele>376.0</ele><time>2026-04-19T08:52:44.956Z</time></trkpt><trkpt lat="42.9787483" lon="12.0712683"><ele>375.0</ele><time>2026-04-19T08:52:46.956Z</time></trkpt><trkpt lat="42.978735" lon="12.0713633"><ele>374.0</ele><time>2026-04-19T08:52:49.957Z</time></trkpt><trkpt lat="42.9787117" lon="12.0714683"><ele>373.0</ele><time>2026-04-19T08:53:35.957Z</time></trkpt><trkpt lat="42.9786933" lon="12.0715583"><ele>372.0</ele><time>2026-04-19T08:53:39.957Z</time></trkpt><trkpt lat="42.9786833" lon="12.07165"><ele>371.0</ele><time>2026-04-19T08:53:44.957Z</time></trkpt><trkpt lat="42.9786733" lon="12.0717583"><ele>369.83333333333337</ele><time>2026-04-19T08:53:49.957Z</time></trkpt><trkpt lat="42.9786483" lon="12.0718483"><ele>368.6666666666667</ele><time>2026-04-19T08:53:51.957Z</time></trkpt><trkpt lat="42.9786167" lon="12.0720067"><ele>367.5</ele><time>2026-04-19T08:53:53.956Z</time></trkpt><trkpt lat="42.978585" lon="12.07217"><ele>366.3333333333333</ele><time>2026-04-19T08:53:55.957Z</time></trkpt><trkpt lat="42.9785667" lon="12.0722533"><ele>365.16666666666663</ele><time>2026-04-19T08:53:56.957Z</time></trkpt><trkpt lat="42.97855" lon="12.07234"><ele>364.0</ele><time>2026-04-19T08:53:57.956Z</time></trkpt><trkpt lat="42.9785283" lon="12.0724283"><ele>362.5</ele><time>2026-04-19T08:53:58.957Z</time></trkpt><trkpt lat="42.9785133" lon="12.0725167"><ele>361.0</ele><time>2026-04-19T08:53:59.956Z</time></trkpt><trkpt lat="42.97848" lon="12.0726817"><ele>359.5</ele><time>2026-04-19T08:54:01.956Z</time></trkpt><trkpt lat="42.978455" lon="12.07277"><ele>358.0</ele><time>2026-04-19T08:54:02.957Z</time></trkpt><trkpt lat="42.9784333" lon="12.07287"><ele>356.5</ele><time>2026-04-19T08:54:03.956Z</time></trkpt><trkpt lat="42.9784133" lon="12.0729633"><ele>355.0</ele><time>2026-04-19T08:54:04.957Z</time></trkpt><trkpt lat="42.97839" lon="12.0730533"><ele>355.0</ele><time>2026-04-19T08:54:05.956Z</time></trkpt><trkpt lat="42.9783767" lon="12.07319"><ele>355.0</ele><time>2026-04-19T08:54:07.957Z</time></trkpt><trkpt lat="42.9783833" lon="12.0732917"><ele>355.0</ele><time>2026-04-19T08:54:09.957Z</time></trkpt><trkpt lat="42.9783917" lon="12.0734683"><ele>355.0</ele><time>2026-04-19T08:54:11.956Z</time></trkpt><trkpt lat="42.9783917" lon="12.0735717"><ele>355.0</ele><time>2026-04-19T08:54:12.957Z</time></trkpt><trkpt lat="42.978375" lon="12.0736783"><ele>355.3333333333333</ele><time>2026-04-19T08:54:13.957Z</time></trkpt><trkpt lat="42.978335" lon="12.0737717"><ele>355.66666666666663</ele><time>2026-04-19T08:54:14.957Z</time></trkpt><trkpt lat="42.9782883" lon="12.0738517"><ele>356.0</ele><time>2026-04-19T08:54:15.956Z</time></trkpt><trkpt lat="42.9781983" lon="12.07395"><ele>356.3333333333333</ele><time>2026-04-19T08:54:17.957Z</time></trkpt><trkpt lat="42.978135" lon="12.074005"><ele>356.6666666666667</ele><time>2026-04-19T08:54:18.956Z</time></trkpt><trkpt lat="42.97807" lon="12.0740683"><ele>357.0</ele><time>2026-04-19T08:54:19.957Z</time></trkpt><trkpt lat="42.977995" lon="12.0741317"><ele>357.20000000000005</ele><time>2026-04-19T08:54:20.957Z</time></trkpt><trkpt lat="42.9779067" lon="12.0741867"><ele>357.4</ele><time>2026-04-19T08:54:21.956Z</time></trkpt><trkpt lat="42.9778183" lon="12.0742317"><ele>357.6</ele><time>2026-04-19T08:54:22.956Z</time></trkpt><trkpt lat="42.97773" lon="12.07427"><ele>357.79999999999995</ele><time>2026-04-19T08:54:23.957Z</time></trkpt><trkpt lat="42.9776383" lon="12.0743067"><ele>358.0</ele><time>2026-04-19T08:54:24.957Z</time></trkpt><trkpt lat="42.97755" lon="12.074345"><ele>357.59999999999997</ele><time>2026-04-19T08:54:25.957Z</time></trkpt><trkpt lat="42.9774733" lon="12.074395"><ele>357.2</ele><time>2026-04-19T08:54:26.957Z</time></trkpt><trkpt lat="42.9774017" lon="12.0744733"><ele>356.8</ele><time>2026-04-19T08:54:27.957Z</time></trkpt><trkpt lat="42.9773333" lon="12.0745617"><ele>356.4</ele><time>2026-04-19T08:54:28.957Z</time></trkpt><trkpt lat="42.9772633" lon="12.0746533"><ele>356.0</ele><time>2026-04-19T08:54:29.957Z</time></trkpt><trkpt lat="42.9772017" lon="12.0747433"><ele>356.0</ele><time>2026-04-19T08:54:30.957Z</time></trkpt><trkpt lat="42.9771483" lon="12.0748367"><ele>356.0</ele><time>2026-04-19T08:54:31.956Z</time></trkpt><trkpt lat="42.9771133" lon="12.0749383"><ele>356.0</ele><time>2026-04-19T08:54:32.956Z</time></trkpt><trkpt lat="42.9770583" lon="12.07503"><ele>356.0</ele><time>2026-04-19T08:54:33.957Z</time></trkpt><trkpt lat="42.9770067" lon="12.0751483"><ele>356.0</ele><time>2026-04-19T08:54:34.957Z</time></trkpt><trkpt lat="42.9769633" lon="12.0752767"><ele>355.25</ele><time>2026-04-19T08:54:35.957Z</time></trkpt><trkpt lat="42.976925" lon="12.0754367"><ele>354.5</ele><time>2026-04-19T08:54:36.956Z</time></trkpt><trkpt lat="42.9768783" lon="12.0756117"><ele>353.75</ele><time>2026-04-19T08:54:37.956Z</time></trkpt><trkpt lat="42.976835" lon="12.07579"><ele>353.0</ele><time>2026-04-19T08:54:38.957Z</time></trkpt><trkpt lat="42.9767883" lon="12.07597"><ele>353.0</ele><time>2026-04-19T08:54:39.957Z</time></trkpt><trkpt lat="42.9767467" lon="12.0761417"><ele>353.0</ele><time>2026-04-19T08:54:40.957Z</time></trkpt><trkpt lat="42.9767117" lon="12.0762767"><ele>353.0</ele><time>2026-04-19T08:54:41.957Z</time></trkpt><trkpt lat="42.9766783" lon="12.0763683"><ele>353.0</ele><time>2026-04-19T08:54:42.957Z</time></trkpt><trkpt lat="42.976645" lon="12.07645"><ele>353.0</ele><time>2026-04-19T08:54:43.956Z</time></trkpt><trkpt lat="42.9765917" lon="12.0765183"><ele>353.79999999999995</ele><time>2026-04-19T08:54:44.957Z</time></trkpt><trkpt lat="42.9765333" lon="12.0765883"><ele>354.6</ele><time>2026-04-19T08:54:45.957Z</time></trkpt><trkpt lat="42.9764783" lon="12.0766583"><ele>355.4</ele><time>2026-04-19T08:54:46.956Z</time></trkpt><trkpt lat="42.97641" lon="12.0767633"><ele>356.20000000000005</ele><time>2026-04-19T08:54:47.957Z</time></trkpt><trkpt lat="42.976335" lon="12.0769067"><ele>357.0</ele><time>2026-04-19T08:54:48.957Z</time></trkpt><trkpt lat="42.9762633" lon="12.0770667"><ele>357.0</ele><time>2026-04-19T08:54:49.957Z</time></trkpt><trkpt lat="42.9761867" lon="12.0772233"><ele>357.0</ele><time>2026-04-19T08:54:50.956Z</time></trkpt><trkpt lat="42.9761083" lon="12.0773833"><ele>357.0</ele><time>2026-04-19T08:54:51.957Z</time></trkpt><trkpt lat="42.9760283" lon="12.077545"><ele>357.0</ele><time>2026-04-19T08:54:52.957Z</time></trkpt><trkpt lat="42.9759517" lon="12.0777067"><ele>356.75</ele><time>2026-04-19T08:54:53.957Z</time></trkpt><trkpt lat="42.9758767" lon="12.0778633"><ele>356.5</ele><time>2026-04-19T08:54:54.957Z</time></trkpt><trkpt lat="42.9758" lon="12.07802"><ele>356.25</ele><time>2026-04-19T08:54:55.956Z</time></trkpt><trkpt lat="42.9757267" lon="12.0781683"><ele>356.0</ele><time>2026-04-19T08:54:56.957Z</time></trkpt><trkpt lat="42.9756517" lon="12.078315"><ele>354.5</ele><time>2026-04-19T08:54:57.956Z</time></trkpt><trkpt lat="42.9755767" lon="12.0784683"><ele>353.0</ele><time>2026-04-19T08:54:58.957Z</time></trkpt><trkpt lat="42.9755083" lon="12.0786133"><ele>351.5</ele><time>2026-04-19T08:54:59.956Z</time></trkpt><trkpt lat="42.9754433" lon="12.0787533"><ele>350.0</ele><time>2026-04-19T08:55:00.957Z</time></trkpt><trkpt lat="42.9753833" lon="12.0788683"><ele>350.0</ele><time>2026-04-19T08:55:01.957Z</time></trkpt><trkpt lat="42.97534" lon="12.0789567"><ele>350.0</ele><time>2026-04-19T08:55:02.957Z</time></trkpt><trkpt lat="42.9752933" lon="12.0790867"><ele>350.0</ele><time>2026-04-19T08:55:04.956Z</time></trkpt><trkpt lat="42.9752283" lon="12.0791983"><ele>350.0</ele><time>2026-04-19T08:55:06.957Z</time></trkpt><trkpt lat="42.9751867" lon="12.0792817"><ele>350.0</ele><time>2026-04-19T08:55:08.956Z</time></trkpt><trkpt lat="42.9751367" lon="12.0793817"><ele>350.0</ele><time>2026-04-19T08:55:10.957Z</time></trkpt><trkpt lat="42.9750967" lon="12.079475"><ele>350.0</ele><time>2026-04-19T08:55:11.956Z</time></trkpt><trkpt lat="42.9750383" lon="12.0795867"><ele>350.0</ele><time>2026-04-19T08:55:12.956Z</time></trkpt><trkpt lat="42.9749717" lon="12.07971"><ele>350.0</ele><time>2026-04-19T08:55:13.956Z</time></trkpt><trkpt lat="42.97491" lon="12.079845"><ele>350.0</ele><time>2026-04-19T08:55:14.956Z</time></trkpt><trkpt lat="42.97485" lon="12.0799867"><ele>349.0</ele><time>2026-04-19T08:55:15.957Z</time></trkpt><trkpt lat="42.9747917" lon="12.080135"><ele>348.0</ele><time>2026-04-19T08:55:16.956Z</time></trkpt><trkpt lat="42.9747233" lon="12.0803"><ele>347.0</ele><time>2026-04-19T08:55:17.956Z</time></trkpt><trkpt lat="42.9746567" lon="12.0804483"><ele>346.0</ele><time>2026-04-19T08:55:18.956Z</time></trkpt><trkpt lat="42.974595" lon="12.080585"><ele>346.0</ele><time>2026-04-19T08:55:19.956Z</time></trkpt><trkpt lat="42.9745383" lon="12.08071"><ele>346.0</ele><time>2026-04-19T08:55:20.956Z</time></trkpt><trkpt lat="42.9744917" lon="12.08082"><ele>346.0</ele><time>2026-04-19T08:55:21.956Z</time></trkpt><trkpt lat="42.9744417" lon="12.08093"><ele>346.0</ele><time>2026-04-19T08:55:22.956Z</time></trkpt><trkpt lat="42.9743867" lon="12.0810467"><ele>346.0</ele><time>2026-04-19T08:55:23.956Z</time></trkpt><trkpt lat="42.974335" lon="12.0811467"><ele>345.0</ele><time>2026-04-19T08:55:24.957Z</time></trkpt><trkpt lat="42.97429" lon="12.0812417"><ele>344.0</ele><time>2026-04-19T08:55:25.956Z</time></trkpt><trkpt lat="42.9742467" lon="12.0813167"><ele>343.0</ele><time>2026-04-19T08:55:26.956Z</time></trkpt><trkpt lat="42.974175" lon="12.0814217"><ele>342.0</ele><time>2026-04-19T08:55:28.957Z</time></trkpt><trkpt lat="42.974085" lon="12.0814433"><ele>341.0</ele><time>2026-04-19T08:55:30.955Z</time></trkpt><trkpt lat="42.97398" lon="12.0813817"><ele>339.85714285714283</ele><time>2026-04-19T08:55:32.955Z</time></trkpt><trkpt lat="42.9739183" lon="12.081345"><ele>338.7142857142857</ele><time>2026-04-19T08:55:33.955Z</time></trkpt><trkpt lat="42.97386" lon="12.08131"><ele>337.57142857142856</ele><time>2026-04-19T08:55:34.955Z</time></trkpt><trkpt lat="42.9737967" lon="12.081285"><ele>336.42857142857144</ele><time>2026-04-19T08:55:35.955Z</time></trkpt><trkpt lat="42.973725" lon="12.0812733"><ele>335.2857142857143</ele><time>2026-04-19T08:55:36.955Z</time></trkpt><trkpt lat="42.973635" lon="12.0812933"><ele>334.14285714285717</ele><time>2026-04-19T08:55:37.956Z</time></trkpt><trkpt lat="42.9735517" lon="12.0813133"><ele>333.0</ele><time>2026-04-19T08:55:38.955Z</time></trkpt><trkpt lat="42.9734667" lon="12.0813317"><ele>333.0</ele><time>2026-04-19T08:55:39.956Z</time></trkpt><trkpt lat="42.9733783" lon="12.0813483"><ele>333.0</ele><time>2026-04-19T08:55:40.956Z</time></trkpt><trkpt lat="42.9732917" lon="12.0813633"><ele>333.0</ele><time>2026-04-19T08:55:41.956Z</time></trkpt><trkpt lat="42.9731917" lon="12.081385"><ele>333.0</ele><time>2026-04-19T08:55:42.955Z</time></trkpt><trkpt lat="42.973095" lon="12.0814083"><ele>333.0</ele><time>2026-04-19T08:55:43.955Z</time></trkpt><trkpt lat="42.9729967" lon="12.0814283"><ele>332.0</ele><time>2026-04-19T08:55:44.956Z</time></trkpt><trkpt lat="42.9728983" lon="12.0814633"><ele>331.0</ele><time>2026-04-19T08:55:45.955Z</time></trkpt><trkpt lat="42.9728033" lon="12.0815067"><ele>330.0</ele><time>2026-04-19T08:55:46.955Z</time></trkpt><trkpt lat="42.97272" lon="12.0815383"><ele>329.0</ele><time>2026-04-19T08:55:47.956Z</time></trkpt><trkpt lat="42.9726433" lon="12.081565"><ele>328.0</ele><time>2026-04-19T08:55:48.956Z</time></trkpt><trkpt lat="42.9725667" lon="12.0815833"><ele>327.0</ele><time>2026-04-19T08:55:49.956Z</time></trkpt><trkpt lat="42.9724917" lon="12.0815933"><ele>323.6</ele><time>2026-04-19T08:55:50.955Z</time></trkpt><trkpt lat="42.97238" lon="12.0815783"><ele>320.20000000000005</ele><time>2026-04-19T08:55:52.956Z</time></trkpt><trkpt lat="42.9722817" lon="12.0814933"><ele>316.8</ele><time>2026-04-19T08:55:54.955Z</time></trkpt><trkpt lat="42.972225" lon="12.0814333"><ele>313.4</ele><time>2026-04-19T08:55:56.956Z</time></trkpt><trkpt lat="42.9721483" lon="12.0815083"><ele>310.0</ele><time>2026-04-19T08:55:59.956Z</time></trkpt><trkpt lat="42.9721217" lon="12.0816"><ele>309.2</ele><time>2026-04-19T08:56:00.956Z</time></trkpt><trkpt lat="42.972085" lon="12.0817167"><ele>308.4</ele><time>2026-04-19T08:56:01.956Z</time></trkpt><trkpt lat="42.9720317" lon="12.0818583"><ele>307.6</ele><time>2026-04-19T08:56:02.955Z</time></trkpt><trkpt lat="42.9719617" lon="12.0819917"><ele>306.8</ele><time>2026-04-19T08:56:03.955Z</time></trkpt><trkpt lat="42.9718933" lon="12.0821"><ele>306.0</ele><time>2026-04-19T08:56:04.956Z</time></trkpt><trkpt lat="42.9718267" lon="12.0821783"><ele>306.0</ele><time>2026-04-19T08:56:05.955Z</time></trkpt><trkpt lat="42.9717667" lon="12.0822367"><ele>306.0</ele><time>2026-04-19T08:56:06.955Z</time></trkpt><trkpt lat="42.9717067" lon="12.0823083"><ele>306.0</ele><time>2026-04-19T08:56:08.955Z</time></trkpt><trkpt lat="42.971685" lon="12.0824017"><ele>306.0</ele><time>2026-04-19T08:56:10.956Z</time></trkpt><trkpt lat="42.9716967" lon="12.0824933"><ele>306.0</ele><time>2026-04-19T08:56:11.955Z</time></trkpt><trkpt lat="42.9717217" lon="12.08262"><ele>306.0</ele><time>2026-04-19T08:56:12.956Z</time></trkpt><trkpt lat="42.971775" lon="12.0827583"><ele>305.0</ele><time>2026-04-19T08:56:13.956Z</time></trkpt><trkpt lat="42.97185" lon="12.0829083"><ele>304.0</ele><time>2026-04-19T08:56:14.955Z</time></trkpt><trkpt lat="42.9719583" lon="12.0830717"><ele>303.0</ele><time>2026-04-19T08:56:15.956Z</time></trkpt><trkpt lat="42.97207" lon="12.0832133"><ele>302.0</ele><time>2026-04-19T08:56:16.956Z</time></trkpt><trkpt lat="42.972195" lon="12.0833317"><ele>302.5</ele><time>2026-04-19T08:56:17.955Z</time></trkpt><trkpt lat="42.9723067" lon="12.0834383"><ele>303.0</ele><time>2026-04-19T08:56:18.955Z</time></trkpt><trkpt lat="42.9724117" lon="12.0835533"><ele>303.5</ele><time>2026-04-19T08:56:19.955Z</time></trkpt><trkpt lat="42.9725133" lon="12.0836783"><ele>304.0</ele><time>2026-04-19T08:56:20.955Z</time></trkpt><trkpt lat="42.9725967" lon="12.0838083"><ele>304.0</ele><time>2026-04-19T08:56:21.955Z</time></trkpt><trkpt lat="42.972675" lon="12.0839417"><ele>304.0</ele><time>2026-04-19T08:56:22.956Z</time></trkpt><trkpt lat="42.9727417" lon="12.0840583"><ele>304.0</ele><time>2026-04-19T08:56:23.956Z</time></trkpt><trkpt lat="42.9727833" lon="12.0841483"><ele>304.0</ele><time>2026-04-19T08:56:24.955Z</time></trkpt><trkpt lat="42.9728067" lon="12.08424"><ele>304.0</ele><time>2026-04-19T08:56:25.955Z</time></trkpt><trkpt lat="42.9728067" lon="12.0843633"><ele>300.75</ele><time>2026-04-19T08:56:26.956Z</time></trkpt><trkpt lat="42.972775" lon="12.0845133"><ele>297.5</ele><time>2026-04-19T08:56:27.956Z</time></trkpt><trkpt lat="42.9727167" lon="12.084685"><ele>294.25</ele><time>2026-04-19T08:56:28.956Z</time></trkpt><trkpt lat="42.97264" lon="12.08488"><ele>291.0</ele><time>2026-04-19T08:56:29.956Z</time></trkpt><trkpt lat="42.9725667" lon="12.0850917"><ele>288.6666666666667</ele><time>2026-04-19T08:56:30.955Z</time></trkpt><trkpt lat="42.9724883" lon="12.0853067"><ele>286.33333333333337</ele><time>2026-04-19T08:56:31.955Z</time></trkpt><trkpt lat="42.9724167" lon="12.0855083"><ele>284.0</ele><time>2026-04-19T08:56:32.955Z</time></trkpt><trkpt lat="42.972355" lon="12.08572"><ele>283.75</ele><time>2026-04-19T08:56:33.955Z</time></trkpt><trkpt lat="42.97231" lon="12.0859217"><ele>283.5</ele><time>2026-04-19T08:56:34.955Z</time></trkpt><trkpt lat="42.9722817" lon="12.0861083"><ele>283.25</ele><time>2026-04-19T08:56:35.955Z</time></trkpt><trkpt lat="42.9722767" lon="12.086285"><ele>283.0</ele><time>2026-04-19T08:56:36.956Z</time></trkpt><trkpt lat="42.9722983" lon="12.086455"><ele>285.0</ele><time>2026-04-19T08:56:37.956Z</time></trkpt><trkpt lat="42.9723467" lon="12.086635"><ele>287.0</ele><time>2026-04-19T08:56:38.955Z</time></trkpt><trkpt lat="42.9723983" lon="12.08682"><ele>289.0</ele><time>2026-04-19T08:56:39.956Z</time></trkpt><trkpt lat="42.9724433" lon="12.087005"><ele>291.0</ele><time>2026-04-19T08:56:40.956Z</time></trkpt><trkpt lat="42.97247" lon="12.0871783"><ele>291.0</ele><time>2026-04-19T08:56:41.955Z</time></trkpt><trkpt lat="42.9724617" lon="12.087345"><ele>291.0</ele><time>2026-04-19T08:56:42.956Z</time></trkpt><trkpt lat="42.97242" lon="12.0875217"><ele>291.0</ele><time>2026-04-19T08:56:43.955Z</time></trkpt><trkpt lat="42.972365" lon="12.0876833"><ele>291.0</ele><time>2026-04-19T08:56:44.955Z</time></trkpt><trkpt lat="42.97228" lon="12.0878033"><ele>291.8</ele><time>2026-04-19T08:56:45.955Z</time></trkpt><trkpt lat="42.97219" lon="12.0878917"><ele>292.6</ele><time>2026-04-19T08:56:46.956Z</time></trkpt><trkpt lat="42.9721" lon="12.0879383"><ele>293.4</ele><time>2026-04-19T08:56:47.956Z</time></trkpt><trkpt lat="42.972015" lon="12.0879567"><ele>294.2</ele><time>2026-04-19T08:56:48.956Z</time></trkpt><trkpt lat="42.97192" lon="12.087975"><ele>295.0</ele><time>2026-04-19T08:56:49.956Z</time></trkpt><trkpt lat="42.9718067" lon="12.08801"><ele>303.0</ele><time>2026-04-19T08:56:50.955Z</time></trkpt><trkpt lat="42.9716667" lon="12.0880533"><ele>311.0</ele><time>2026-04-19T08:56:51.956Z</time></trkpt><trkpt lat="42.971505" lon="12.088115"><ele>319.0</ele><time>2026-04-19T08:56:52.956Z</time></trkpt><trkpt lat="42.971325" lon="12.0881767"><ele>319.0</ele><time>2026-04-19T08:56:53.955Z</time></trkpt><trkpt lat="42.9711517" lon="12.0882233"><ele>319.0</ele><time>2026-04-19T08:56:54.956Z</time></trkpt><trkpt lat="42.9709867" lon="12.0882517"><ele>319.0</ele><time>2026-04-19T08:56:55.956Z</time></trkpt><trkpt lat="42.9708283" lon="12.0882683"><ele>314.25</ele><time>2026-04-19T08:56:56.956Z</time></trkpt><trkpt lat="42.970695" lon="12.0882917"><ele>309.5</ele><time>2026-04-19T08:56:57.956Z</time></trkpt><trkpt lat="42.970575" lon="12.0883217"><ele>304.75</ele><time>2026-04-19T08:56:58.956Z</time></trkpt><trkpt lat="42.97047" lon="12.08837"><ele>300.0</ele><time>2026-04-19T08:56:59.956Z</time></trkpt><trkpt lat="42.970375" lon="12.08844"><ele>300.0</ele><time>2026-04-19T08:57:00.956Z</time></trkpt><trkpt lat="42.9702933" lon="12.088515"><ele>300.0</ele><time>2026-04-19T08:57:01.956Z</time></trkpt><trkpt lat="42.970235" lon="12.0886067"><ele>300.0</ele><time>2026-04-19T08:57:02.955Z</time></trkpt><trkpt lat="42.970205" lon="12.08871"><ele>300.0</ele><time>2026-04-19T08:57:03.956Z</time></trkpt><trkpt lat="42.9702" lon="12.0888533"><ele>300.0</ele><time>2026-04-19T08:57:04.956Z</time></trkpt><trkpt lat="42.9702283" lon="12.089"><ele>296.25</ele><time>2026-04-19T08:57:05.955Z</time></trkpt><trkpt lat="42.97028" lon="12.0891583"><ele>292.5</ele><time>2026-04-19T08:57:06.955Z</time></trkpt><trkpt lat="42.9703483" lon="12.0893133"><ele>288.75</ele><time>2026-04-19T08:57:07.956Z</time></trkpt><trkpt lat="42.9704067" lon="12.089455"><ele>285.0</ele><time>2026-04-19T08:57:08.956Z</time></trkpt><trkpt lat="42.9704483" lon="12.0895617"><ele>285.0</ele><time>2026-04-19T08:57:09.956Z</time></trkpt><trkpt lat="42.9704883" lon="12.089645"><ele>285.0</ele><time>2026-04-19T08:57:10.955Z</time></trkpt><trkpt lat="42.9705467" lon="12.08972"><ele>285.0</ele><time>2026-04-19T08:57:11.956Z</time></trkpt><trkpt lat="42.97061" lon="12.0897833"><ele>285.0</ele><time>2026-04-19T08:57:12.955Z</time></trkpt><trkpt lat="42.9706717" lon="12.089865"><ele>285.0</ele><time>2026-04-19T08:57:13.956Z</time></trkpt><trkpt lat="42.9707267" lon="12.089945"><ele>285.0</ele><time>2026-04-19T08:57:14.955Z</time></trkpt><trkpt lat="42.9707633" lon="12.0900533"><ele>286.1666666666667</ele><time>2026-04-19T08:57:15.956Z</time></trkpt><trkpt lat="42.9707817" lon="12.0901817"><ele>287.3333333333333</ele><time>2026-04-19T08:57:16.956Z</time></trkpt><trkpt lat="42.97078" lon="12.0903183"><ele>288.5</ele><time>2026-04-19T08:57:17.955Z</time></trkpt><trkpt lat="42.9707733" lon="12.09044"><ele>289.66666666666663</ele><time>2026-04-19T08:57:18.955Z</time></trkpt><trkpt lat="42.9707967" lon="12.0905333"><ele>290.8333333333333</ele><time>2026-04-19T08:57:19.955Z</time></trkpt><trkpt lat="42.9708367" lon="12.0906"><ele>292.0</ele><time>2026-04-19T08:57:20.956Z</time></trkpt><trkpt lat="42.9708983" lon="12.0906317"><ele>294.0</ele><time>2026-04-19T08:57:21.956Z</time></trkpt><trkpt lat="42.970965" lon="12.0906283"><ele>296.0</ele><time>2026-04-19T08:57:22.956Z</time></trkpt><trkpt lat="42.9710467" lon="12.0905867"><ele>298.0</ele><time>2026-04-19T08:57:23.956Z</time></trkpt><trkpt lat="42.9711217" lon="12.09055"><ele>300.0</ele><time>2026-04-19T08:57:24.956Z</time></trkpt><trkpt lat="42.9712167" lon="12.0906333"><ele>302.0</ele><time>2026-04-19T08:57:26.956Z</time></trkpt><trkpt lat="42.971235" lon="12.090725"><ele>304.0</ele><time>2026-04-19T08:57:27.955Z</time></trkpt><trkpt lat="42.971225" lon="12.0908217"><ele>304.2</ele><time>2026-04-19T08:57:28.955Z</time></trkpt><trkpt lat="42.9711767" lon="12.0909167"><ele>304.4</ele><time>2026-04-19T08:57:29.955Z</time></trkpt><trkpt lat="42.9711017" lon="12.0910117"><ele>304.6</ele><time>2026-04-19T08:57:30.955Z</time></trkpt><trkpt lat="42.970985" lon="12.0910833"><ele>304.8</ele><time>2026-04-19T08:57:31.956Z</time></trkpt><trkpt lat="42.9708883" lon="12.0911683"><ele>305.0</ele><time>2026-04-19T08:57:32.956Z</time></trkpt><trkpt lat="42.9708117" lon="12.0912933"><ele>305.0</ele><time>2026-04-19T08:57:33.956Z</time></trkpt><trkpt lat="42.9707733" lon="12.0914367"><ele>305.0</ele><time>2026-04-19T08:57:34.956Z</time></trkpt><trkpt lat="42.97073" lon="12.0915867"><ele>305.0</ele><time>2026-04-19T08:57:35.956Z</time></trkpt><trkpt lat="42.9706683" lon="12.09173"><ele>305.0</ele><time>2026-04-19T08:57:36.955Z</time></trkpt><trkpt lat="42.9705733" lon="12.0918383"><ele>307.75</ele><time>2026-04-19T08:57:37.955Z</time></trkpt><trkpt lat="42.9704517" lon="12.0919167"><ele>310.5</ele><time>2026-04-19T08:57:38.955Z</time></trkpt><trkpt lat="42.9703183" lon="12.0919667"><ele>313.25</ele><time>2026-04-19T08:57:39.955Z</time></trkpt><trkpt lat="42.9701933" lon="12.092"><ele>316.0</ele><time>2026-04-19T08:57:40.955Z</time></trkpt><trkpt lat="42.9700883" lon="12.0920117"><ele>317.00000000000006</ele><time>2026-04-19T08:57:41.955Z</time></trkpt><trkpt lat="42.9700167" lon="12.09203"><ele>318.0</ele><time>2026-04-19T08:57:42.955Z</time></trkpt><trkpt lat="42.969955" lon="12.09207"><ele>319.0</ele><time>2026-04-19T08:57:43.955Z</time></trkpt><trkpt lat="42.9699333" lon="12.0921533"><ele>320.0</ele><time>2026-04-19T08:57:44.955Z</time></trkpt><trkpt lat="42.96993" lon="12.0922683"><ele>321.0</ele><time>2026-04-19T08:57:45.956Z</time></trkpt><trkpt lat="42.9699183" lon="12.09237"><ele>322.00000000000006</ele><time>2026-04-19T08:57:46.955Z</time></trkpt><trkpt lat="42.96985" lon="12.092425"><ele>323.0</ele><time>2026-04-19T08:57:48.956Z</time></trkpt><trkpt lat="42.96976" lon="12.0923533"><ele>320.5</ele><time>2026-04-19T08:57:50.955Z</time></trkpt><trkpt lat="42.9697133" lon="12.092265"><ele>318.0</ele><time>2026-04-19T08:57:51.956Z</time></trkpt><trkpt lat="42.969655" lon="12.0921633"><ele>315.5</ele><time>2026-04-19T08:57:52.955Z</time></trkpt><trkpt lat="42.9695917" lon="12.092075"><ele>313.0</ele><time>2026-04-19T08:57:53.956Z</time></trkpt><trkpt lat="42.9695133" lon="12.0920167"><ele>310.5</ele><time>2026-04-19T08:57:54.956Z</time></trkpt><trkpt lat="42.9694217" lon="12.0919883"><ele>308.0</ele><time>2026-04-19T08:57:55.956Z</time></trkpt><trkpt lat="42.9693317" lon="12.0919867"><ele>308.0</ele><time>2026-04-19T08:57:56.955Z</time></trkpt><trkpt lat="42.969215" lon="12.09202"><ele>308.0</ele><time>2026-04-19T08:57:57.956Z</time></trkpt><trkpt lat="42.9690967" lon="12.092085"><ele>308.0</ele><time>2026-04-19T08:57:58.955Z</time></trkpt><trkpt lat="42.96897" lon="12.0921833"><ele>308.0</ele><time>2026-04-19T08:57:59.955Z</time></trkpt><trkpt lat="42.9688433" lon="12.0923"><ele>311.0</ele><time>2026-04-19T08:58:00.956Z</time></trkpt><trkpt lat="42.9687383" lon="12.0924083"><ele>314.0</ele><time>2026-04-19T08:58:01.955Z</time></trkpt><trkpt lat="42.9686583" lon="12.0925367"><ele>317.0</ele><time>2026-04-19T08:58:02.956Z</time></trkpt><trkpt lat="42.9685983" lon="12.0926917"><ele>320.0</ele><time>2026-04-19T08:58:03.956Z</time></trkpt><trkpt lat="42.9685467" lon="12.0928867"><ele>322.8</ele><time>2026-04-19T08:58:04.956Z</time></trkpt><trkpt lat="42.9684933" lon="12.093065"><ele>325.6</ele><time>2026-04-19T08:58:05.955Z</time></trkpt><trkpt lat="42.9684317" lon="12.0932033"><ele>328.4</ele><time>2026-04-19T08:58:06.956Z</time></trkpt><trkpt lat="42.9683633" lon="12.0932783"><ele>331.2</ele><time>2026-04-19T08:58:07.956Z</time></trkpt><trkpt lat="42.9682783" lon="12.093315"><ele>334.0</ele><time>2026-04-19T08:58:08.955Z</time></trkpt><trkpt lat="42.9682017" lon="12.0932983"><ele>335.2</ele><time>2026-04-19T08:58:09.955Z</time></trkpt><trkpt lat="42.9681283" lon="12.09324"><ele>336.4</ele><time>2026-04-19T08:58:10.956Z</time></trkpt><trkpt lat="42.9680517" lon="12.0931383"><ele>337.6</ele><time>2026-04-19T08:58:11.955Z</time></trkpt><trkpt lat="42.9679917" lon="12.092995"><ele>338.8</ele><time>2026-04-19T08:58:12.956Z</time></trkpt><trkpt lat="42.9679167" lon="12.092875"><ele>340.0</ele><time>2026-04-19T08:58:13.955Z</time></trkpt><trkpt lat="42.96784" lon="12.0927933"><ele>340.0</ele><time>2026-04-19T08:58:14.955Z</time></trkpt><trkpt lat="42.9677517" lon="12.0927617"><ele>340.0</ele><time>2026-04-19T08:58:15.955Z</time></trkpt><trkpt lat="42.967665" lon="12.092765"><ele>340.0</ele><time>2026-04-19T08:58:16.955Z</time></trkpt><trkpt lat="42.96758" lon="12.0928033"><ele>340.0</ele><time>2026-04-19T08:58:17.955Z</time></trkpt><trkpt lat="42.967515" lon="12.09288"><ele>340.0</ele><time>2026-04-19T08:58:18.955Z</time></trkpt><trkpt lat="42.9674783" lon="12.093015"><ele>342.0</ele><time>2026-04-19T08:58:19.956Z</time></trkpt><trkpt lat="42.9674667" lon="12.093185"><ele>344.0</ele><time>2026-04-19T08:58:20.955Z</time></trkpt><trkpt lat="42.96746" lon="12.0933667"><ele>346.0</ele><time>2026-04-19T08:58:21.955Z</time></trkpt><trkpt lat="42.96744" lon="12.09353"><ele>348.0</ele><time>2026-04-19T08:58:22.955Z</time></trkpt><trkpt lat="42.967395" lon="12.09367"><ele>351.25</ele><time>2026-04-19T08:58:23.955Z</time></trkpt><trkpt lat="42.9673333" lon="12.0937967"><ele>354.5</ele><time>2026-04-19T08:58:24.955Z</time></trkpt><trkpt lat="42.9672433" lon="12.0939033"><ele>357.75</ele><time>2026-04-19T08:58:25.955Z</time></trkpt><trkpt lat="42.96713" lon="12.09401"><ele>361.0</ele><time>2026-04-19T08:58:26.956Z</time></trkpt><trkpt lat="42.9669933" lon="12.0941283"><ele>362.0</ele><time>2026-04-19T08:58:27.955Z</time></trkpt><trkpt lat="42.9668483" lon="12.0942517"><ele>363.0</ele><time>2026-04-19T08:58:28.955Z</time></trkpt><trkpt lat="42.9666967" lon="12.0943817"><ele>364.0</ele><time>2026-04-19T08:58:29.955Z</time></trkpt><trkpt lat="42.9665633" lon="12.09454"><ele>368.0</ele><time>2026-04-19T08:58:30.956Z</time></trkpt><trkpt lat="42.9664567" lon="12.0947"><ele>372.0</ele><time>2026-04-19T08:58:31.956Z</time></trkpt><trkpt lat="42.9663667" lon="12.0948767"><ele>376.0</ele><time>2026-04-19T08:58:32.956Z</time></trkpt><trkpt lat="42.966305" lon="12.09505"><ele>377.5</ele><time>2026-04-19T08:58:33.955Z</time></trkpt><trkpt lat="42.9662417" lon="12.0951983"><ele>379.0</ele><time>2026-04-19T08:58:34.955Z</time></trkpt><trkpt lat="42.9661767" lon="12.0953133"><ele>380.5</ele><time>2026-04-19T08:58:35.955Z</time></trkpt><trkpt lat="42.9660783" lon="12.0953983"><ele>382.0</ele><time>2026-04-19T08:58:36.956Z</time></trkpt><trkpt lat="42.9659617" lon="12.09546"><ele>387.0</ele><time>2026-04-19T08:58:37.956Z</time></trkpt><trkpt lat="42.9658183" lon="12.0954833"><ele>392.0</ele><time>2026-04-19T08:58:38.956Z</time></trkpt><trkpt lat="42.9656517" lon="12.0955317"><ele>397.0</ele><time>2026-04-19T08:58:39.956Z</time></trkpt><trkpt lat="42.9654717" lon="12.09561"><ele>397.0</ele><time>2026-04-19T08:58:40.956Z</time></trkpt><trkpt lat="42.9652967" lon="12.0956967"><ele>397.0</ele><time>2026-04-19T08:58:41.956Z</time></trkpt><trkpt lat="42.9651367" lon="12.0957633"><ele>397.0</ele><time>2026-04-19T08:58:42.955Z</time></trkpt><trkpt lat="42.9649917" lon="12.095845"><ele>398.75</ele><time>2026-04-19T08:58:43.956Z</time></trkpt><trkpt lat="42.964865" lon="12.095925"><ele>400.5</ele><time>2026-04-19T08:58:44.956Z</time></trkpt><trkpt lat="42.96475" lon="12.0960133"><ele>402.25</ele><time>2026-04-19T08:58:45.956Z</time></trkpt><trkpt lat="42.9646333" lon="12.0961233"><ele>404.0</ele><time>2026-04-19T08:58:46.955Z</time></trkpt><trkpt lat="42.9645133" lon="12.0962817"><ele>404.0</ele><time>2026-04-19T08:58:47.956Z</time></trkpt><trkpt lat="42.9643817" lon="12.0964733"><ele>404.0</ele><time>2026-04-19T08:58:48.955Z</time></trkpt><trkpt lat="42.9642333" lon="12.096695"><ele>404.0</ele><time>2026-04-19T08:58:49.955Z</time></trkpt><trkpt lat="42.96407" lon="12.096935"><ele>405.5</ele><time>2026-04-19T08:58:50.956Z</time></trkpt><trkpt lat="42.9639" lon="12.0971917"><ele>407.0</ele><time>2026-04-19T08:58:51.955Z</time></trkpt><trkpt lat="42.9637133" lon="12.0974733"><ele>407.0</ele><time>2026-04-19T08:58:52.956Z</time></trkpt><trkpt lat="42.9635283" lon="12.0977517"><ele>407.0</ele><time>2026-04-19T08:58:53.955Z</time></trkpt><trkpt lat="42.9633433" lon="12.09804"><ele>411.0</ele><time>2026-04-19T08:58:54.955Z</time></trkpt><trkpt lat="42.9631517" lon="12.098325"><ele>415.0</ele><time>2026-04-19T08:58:55.956Z</time></trkpt><trkpt lat="42.9629767" lon="12.0985783"><ele>415.0</ele><time>2026-04-19T08:58:56.955Z</time></trkpt><trkpt lat="42.9628083" lon="12.0988183"><ele>415.0</ele><time>2026-04-19T08:58:57.956Z</time></trkpt><trkpt lat="42.96265" lon="12.0990533"><ele>418.0</ele><time>2026-04-19T08:58:58.956Z</time></trkpt><trkpt lat="42.962495" lon="12.0992683"><ele>421.0</ele><time>2026-04-19T08:58:59.956Z</time></trkpt><trkpt lat="42.96235" lon="12.0994783"><ele>424.0</ele><time>2026-04-19T08:59:00.956Z</time></trkpt><trkpt lat="42.9622167" lon="12.099695"><ele>425.0</ele><time>2026-04-19T08:59:01.956Z</time></trkpt><trkpt lat="42.9620967" lon="12.09993"><ele>426.0</ele><time>2026-04-19T08:59:02.955Z</time></trkpt><trkpt lat="42.9619817" lon="12.1001883"><ele>427.0</ele><time>2026-04-19T08:59:03.955Z</time></trkpt><trkpt lat="42.9618767" lon="12.1004617"><ele>429.0</ele><time>2026-04-19T08:59:04.956Z</time></trkpt><trkpt lat="42.96177" lon="12.1007567"><ele>431.0</ele><time>2026-04-19T08:59:05.956Z</time></trkpt><trkpt lat="42.9616683" lon="12.1010533"><ele>433.3333333333333</ele><time>2026-04-19T08:59:06.956Z</time></trkpt><trkpt lat="42.961575" lon="12.1013333"><ele>435.66666666666663</ele><time>2026-04-19T08:59:07.955Z</time></trkpt><trkpt lat="42.961485" lon="12.101595"><ele>438.0</ele><time>2026-04-19T08:59:08.956Z</time></trkpt><trkpt lat="42.9614017" lon="12.10184"><ele>440.33333333333337</ele><time>2026-04-19T08:59:09.956Z</time></trkpt><trkpt lat="42.9613283" lon="12.10206"><ele>442.6666666666667</ele><time>2026-04-19T08:59:10.955Z</time></trkpt><trkpt lat="42.9612817" lon="12.1022817"><ele>445.0</ele><time>2026-04-19T08:59:11.956Z</time></trkpt><trkpt lat="42.96126" lon="12.1025183"><ele>448.0</ele><time>2026-04-19T08:59:12.955Z</time></trkpt><trkpt lat="42.961255" lon="12.1027567"><ele>451.0</ele><time>2026-04-19T08:59:13.956Z</time></trkpt><trkpt lat="42.9612667" lon="12.1029883"><ele>454.0</ele><time>2026-04-19T08:59:14.955Z</time></trkpt><trkpt lat="42.96131" lon="12.1032033"><ele>457.33333333333337</ele><time>2026-04-19T08:59:15.956Z</time></trkpt><trkpt lat="42.9613683" lon="12.103425"><ele>460.66666666666663</ele><time>2026-04-19T08:59:16.956Z</time></trkpt><trkpt lat="42.9614233" lon="12.1036367"><ele>464.0</ele><time>2026-04-19T08:59:17.956Z</time></trkpt><trkpt lat="42.9614667" lon="12.103825"><ele>464.0</ele><time>2026-04-19T08:59:18.956Z</time></trkpt><trkpt lat="42.9615" lon="12.1039933"><ele>464.0</ele><time>2026-04-19T08:59:19.955Z</time></trkpt><trkpt lat="42.9615183" lon="12.104155"><ele>464.0</ele><time>2026-04-19T08:59:20.955Z</time></trkpt><trkpt lat="42.96151" lon="12.1043283"><ele>464.0</ele><time>2026-04-19T08:59:21.955Z</time></trkpt><trkpt lat="42.9614733" lon="12.10452"><ele>467.3333333333333</ele><time>2026-04-19T08:59:22.955Z</time></trkpt><trkpt lat="42.961425" lon="12.104735"><ele>470.66666666666663</ele><time>2026-04-19T08:59:23.956Z</time></trkpt><trkpt lat="42.9613833" lon="12.1049583"><ele>474.0</ele><time>2026-04-19T08:59:24.955Z</time></trkpt><trkpt lat="42.96134" lon="12.1052033"><ele>476.33333333333337</ele><time>2026-04-19T08:59:25.956Z</time></trkpt><trkpt lat="42.9613067" lon="12.105475"><ele>478.6666666666667</ele><time>2026-04-19T08:59:26.956Z</time></trkpt><trkpt lat="42.9612783" lon="12.1057667"><ele>481.0</ele><time>2026-04-19T08:59:27.956Z</time></trkpt><trkpt lat="42.9612533" lon="12.1060783"><ele>484.6666666666667</ele><time>2026-04-19T08:59:28.956Z</time></trkpt><trkpt lat="42.9612383" lon="12.1063917"><ele>488.33333333333337</ele><time>2026-04-19T08:59:29.955Z</time></trkpt><trkpt lat="42.9612117" lon="12.10667"><ele>492.0</ele><time>2026-04-19T08:59:30.956Z</time></trkpt><trkpt lat="42.9611817" lon="12.1069117"><ele>496.0</ele><time>2026-04-19T08:59:31.955Z</time></trkpt><trkpt lat="42.9611633" lon="12.1071383"><ele>500.0</ele><time>2026-04-19T08:59:32.955Z</time></trkpt><trkpt lat="42.9611533" lon="12.107355"><ele>504.0</ele><time>2026-04-19T08:59:33.955Z</time></trkpt><trkpt lat="42.9611633" lon="12.1075883"><ele>505.66666666666663</ele><time>2026-04-19T08:59:34.955Z</time></trkpt><trkpt lat="42.9612017" lon="12.1078383"><ele>507.3333333333333</ele><time>2026-04-19T08:59:35.956Z</time></trkpt><trkpt lat="42.96125" lon="12.1081067"><ele>509.0</ele><time>2026-04-19T08:59:36.956Z</time></trkpt><trkpt lat="42.9612983" lon="12.1084067"><ele>509.0</ele><time>2026-04-19T08:59:37.955Z</time></trkpt><trkpt lat="42.9613467" lon="12.1087233"><ele>509.0</ele><time>2026-04-19T08:59:38.956Z</time></trkpt><trkpt lat="42.9613817" lon="12.1090317"><ele>509.0</ele><time>2026-04-19T08:59:39.956Z</time></trkpt><trkpt lat="42.9613967" lon="12.1092983"><ele>509.0</ele><time>2026-04-19T08:59:40.955Z</time></trkpt><trkpt lat="42.9614017" lon="12.10953"><ele>509.0</ele><time>2026-04-19T08:59:41.956Z</time></trkpt><trkpt lat="42.9614" lon="12.1097333"><ele>510.0</ele><time>2026-04-19T08:59:42.956Z</time></trkpt><trkpt lat="42.961385" lon="12.1099183"><ele>511.0</ele><time>2026-04-19T08:59:43.955Z</time></trkpt><trkpt lat="42.9613567" lon="12.1100767"><ele>512.0</ele><time>2026-04-19T08:59:44.955Z</time></trkpt><trkpt lat="42.961305" lon="12.110215"><ele>513.0</ele><time>2026-04-19T08:59:45.956Z</time></trkpt><trkpt lat="42.9612617" lon="12.1103233"><ele>513.0</ele><time>2026-04-19T08:59:46.955Z</time></trkpt><trkpt lat="42.961205" lon="12.110385"><ele>513.0</ele><time>2026-04-19T08:59:47.955Z</time></trkpt><trkpt lat="42.9611317" lon="12.1104183"><ele>513.0</ele><time>2026-04-19T08:59:48.956Z</time></trkpt><trkpt lat="42.9610217" lon="12.110405"><ele>513.0</ele><time>2026-04-19T08:59:49.956Z</time></trkpt><trkpt lat="42.9609017" lon="12.11036"><ele>513.0</ele><time>2026-04-19T08:59:50.955Z</time></trkpt><trkpt lat="42.9607683" lon="12.1102867"><ele>520.3333333333334</ele><time>2026-04-19T08:59:51.956Z</time></trkpt><trkpt lat="42.9606133" lon="12.1102217"><ele>527.6666666666667</ele><time>2026-04-19T08:59:52.955Z</time></trkpt><trkpt lat="42.9604383" lon="12.11016"><ele>535.0</ele><time>2026-04-19T08:59:53.956Z</time></trkpt><trkpt lat="42.960225" lon="12.11011"><ele>541.0</ele><time>2026-04-19T08:59:54.955Z</time></trkpt><trkpt lat="42.9599933" lon="12.1100833"><ele>547.0</ele><time>2026-04-19T08:59:55.956Z</time></trkpt><trkpt lat="42.9597467" lon="12.1100633"><ele>547.0</ele><time>2026-04-19T08:59:56.955Z</time></trkpt><trkpt lat="42.9594967" lon="12.1100433"><ele>547.0</ele><time>2026-04-19T08:59:57.955Z</time></trkpt><trkpt lat="42.9592683" lon="12.1100483"><ele>551.0</ele><time>2026-04-19T08:59:58.955Z</time></trkpt><trkpt lat="42.9590667" lon="12.1100433"><ele>555.0</ele><time>2026-04-19T08:59:59.955Z</time></trkpt><trkpt lat="42.9588917" lon="12.1100467"><ele>559.0</ele><time>2026-04-19T09:00:00.955Z</time></trkpt><trkpt lat="42.95873" lon="12.1100433"><ele>559.0</ele><time>2026-04-19T09:00:01.955Z</time></trkpt><trkpt lat="42.9585667" lon="12.1100433"><ele>559.0</ele><time>2026-04-19T09:00:02.956Z</time></trkpt><trkpt lat="42.958415" lon="12.11004"><ele>559.0</ele><time>2026-04-19T09:00:03.955Z</time></trkpt><trkpt lat="42.9582683" lon="12.1100433"><ele>560.4</ele><time>2026-04-19T09:00:04.955Z</time></trkpt><trkpt lat="42.958145" lon="12.1100467"><ele>561.8</ele><time>2026-04-19T09:00:05.955Z</time></trkpt><trkpt lat="42.9580367" lon="12.110055"><ele>563.2</ele><time>2026-04-19T09:00:06.955Z</time></trkpt><trkpt lat="42.9579517" lon="12.1100767"><ele>564.6</ele><time>2026-04-19T09:00:07.956Z</time></trkpt><trkpt lat="42.9578717" lon="12.11012"><ele>566.0</ele><time>2026-04-19T09:00:08.956Z</time></trkpt><trkpt lat="42.957815" lon="12.110175"><ele>566.0</ele><time>2026-04-19T09:00:09.955Z</time></trkpt><trkpt lat="42.9577683" lon="12.11033"><ele>566.0</ele><time>2026-04-19T09:00:11.955Z</time></trkpt><trkpt lat="42.9577817" lon="12.1104433"><ele>566.0</ele><time>2026-04-19T09:00:12.955Z</time></trkpt><trkpt lat="42.9578133" lon="12.110615"><ele>566.0</ele><time>2026-04-19T09:00:13.955Z</time></trkpt><trkpt lat="42.957855" lon="12.11082"><ele>562.0</ele><time>2026-04-19T09:00:14.955Z</time></trkpt><trkpt lat="42.9578933" lon="12.1110517"><ele>558.0</ele><time>2026-04-19T09:00:15.956Z</time></trkpt><trkpt lat="42.9579183" lon="12.1112517"><ele>554.0</ele><time>2026-04-19T09:00:16.956Z</time></trkpt><trkpt lat="42.9579433" lon="12.111425"><ele>554.2</ele><time>2026-04-19T09:00:17.955Z</time></trkpt><trkpt lat="42.9579717" lon="12.111585"><ele>554.4</ele><time>2026-04-19T09:00:18.956Z</time></trkpt><trkpt lat="42.9579833" lon="12.1117183"><ele>554.6</ele><time>2026-04-19T09:00:19.955Z</time></trkpt><trkpt lat="42.9580017" lon="12.1118267"><ele>554.8</ele><time>2026-04-19T09:00:20.955Z</time></trkpt><trkpt lat="42.95802" lon="12.1119333"><ele>555.0</ele><time>2026-04-19T09:00:21.956Z</time></trkpt><trkpt lat="42.95802" lon="12.1120283"><ele>555.0</ele><time>2026-04-19T09:00:22.956Z</time></trkpt><trkpt lat="42.9580167" lon="12.112125"><ele>555.0</ele><time>2026-04-19T09:00:23.956Z</time></trkpt><trkpt lat="42.9580133" lon="12.1122217"><ele>555.0</ele><time>2026-04-19T09:00:24.956Z</time></trkpt><trkpt lat="42.9580117" lon="12.112315"><ele>555.0</ele><time>2026-04-19T09:00:25.956Z</time></trkpt><trkpt lat="42.9580067" lon="12.1124767"><ele>555.0</ele><time>2026-04-19T09:00:27.956Z</time></trkpt><trkpt lat="42.9579967" lon="12.11259"><ele>555.0</ele><time>2026-04-19T09:00:29.956Z</time></trkpt><trkpt lat="42.9580233" lon="12.1124583"><ele>555.0</ele><time>2026-04-19T09:00:38.955Z</time></trkpt><trkpt lat="42.958035" lon="12.1123317"><ele>555.0</ele><time>2026-04-19T09:00:39.956Z</time></trkpt><trkpt lat="42.9580383" lon="12.1121517"><ele>555.0</ele><time>2026-04-19T09:00:40.955Z</time></trkpt><trkpt lat="42.95803" lon="12.1119417"><ele>555.0</ele><time>2026-04-19T09:00:41.956Z</time></trkpt><trkpt lat="42.9580117" lon="12.1117217"><ele>554.6666666666666</ele><time>2026-04-19T09:00:42.956Z</time></trkpt><trkpt lat="42.957975" lon="12.1114767"><ele>554.3333333333333</ele><time>2026-04-19T09:00:43.956Z</time></trkpt><trkpt lat="42.957935" lon="12.1112267"><ele>554.0</ele><time>2026-04-19T09:00:44.955Z</time></trkpt><trkpt lat="42.9579" lon="12.1109917"><ele>554.0</ele><time>2026-04-19T09:00:45.956Z</time></trkpt><trkpt lat="42.9578667" lon="12.11078"><ele>554.0</ele><time>2026-04-19T09:00:46.956Z</time></trkpt><trkpt lat="42.9578483" lon="12.1106083"><ele>554.0</ele><time>2026-04-19T09:00:47.955Z</time></trkpt><trkpt lat="42.9578217" lon="12.110465"><ele>554.0</ele><time>2026-04-19T09:00:48.956Z</time></trkpt><trkpt lat="42.95781" lon="12.1103633"><ele>556.4</ele><time>2026-04-19T09:00:49.955Z</time></trkpt><trkpt lat="42.9577967" lon="12.1102717"><ele>558.8</ele><time>2026-04-19T09:00:51.955Z</time></trkpt><trkpt lat="42.957725" lon="12.1102217"><ele>561.2</ele><time>2026-04-19T09:00:54.956Z</time></trkpt><trkpt lat="42.9576433" lon="12.11031"><ele>563.6</ele><time>2026-04-19T09:00:56.956Z</time></trkpt><trkpt lat="42.957605" lon="12.1104217"><ele>566.0</ele><time>2026-04-19T09:00:57.955Z</time></trkpt><trkpt lat="42.957565" lon="12.1105867"><ele>566.75</ele><time>2026-04-19T09:00:58.955Z</time></trkpt><trkpt lat="42.9575367" lon="12.110785"><ele>567.5</ele><time>2026-04-19T09:00:59.955Z</time></trkpt><trkpt lat="42.9575167" lon="12.1109633"><ele>568.25</ele><time>2026-04-19T09:01:00.955Z</time></trkpt><trkpt lat="42.9575233" lon="12.1111133"><ele>569.0</ele><time>2026-04-19T09:01:01.955Z</time></trkpt><trkpt lat="42.9575383" lon="12.1112583"><ele>571.0</ele><time>2026-04-19T09:01:02.956Z</time></trkpt><trkpt lat="42.9575483" lon="12.11139"><ele>573.0</ele><time>2026-04-19T09:01:03.955Z</time></trkpt><trkpt lat="42.957545" lon="12.1115067"><ele>575.0</ele><time>2026-04-19T09:01:04.955Z</time></trkpt><trkpt lat="42.9575417" lon="12.11161"><ele>577.0</ele><time>2026-04-19T09:01:05.956Z</time></trkpt><trkpt lat="42.957535" lon="12.1116983"><ele>579.0</ele><time>2026-04-19T09:01:06.955Z</time></trkpt><trkpt lat="42.9575233" lon="12.1118017"><ele>581.0</ele><time>2026-04-19T09:01:07.955Z</time></trkpt><trkpt lat="42.9575083" lon="12.1119183"><ele>581.0</ele><time>2026-04-19T09:01:08.955Z</time></trkpt><trkpt lat="42.9575067" lon="12.1120317"><ele>581.0</ele><time>2026-04-19T09:01:09.956Z</time></trkpt><trkpt lat="42.95751" lon="12.1121267"><ele>581.0</ele><time>2026-04-19T09:01:10.956Z</time></trkpt><trkpt lat="42.95753" lon="12.1122467"><ele>581.0</ele><time>2026-04-19T09:01:12.956Z</time></trkpt><trkpt lat="42.95755" lon="12.1123617"><ele>581.0</ele><time>2026-04-19T09:01:14.955Z</time></trkpt><trkpt lat="42.957555" lon="12.11254"><ele>583.0</ele><time>2026-04-19T09:01:16.956Z</time></trkpt><trkpt lat="42.9575467" lon="12.11266"><ele>585.0</ele><time>2026-04-19T09:01:17.956Z</time></trkpt><trkpt lat="42.9575283" lon="12.112785"><ele>587.0</ele><time>2026-04-19T09:01:18.955Z</time></trkpt><trkpt lat="42.9575017" lon="12.1128883"><ele>589.0</ele><time>2026-04-19T09:01:19.955Z</time></trkpt><trkpt lat="42.9574683" lon="12.1130517"><ele>591.0</ele><time>2026-04-19T09:01:21.955Z</time></trkpt><trkpt lat="42.9574517" lon="12.11321"><ele>592.0</ele><time>2026-04-19T09:01:23.956Z</time></trkpt><trkpt lat="42.9574283" lon="12.1133633"><ele>593.0</ele><time>2026-04-19T09:01:25.955Z</time></trkpt><trkpt lat="42.9573533" lon="12.1134367"><ele>594.0</ele><time>2026-04-19T09:01:27.955Z</time></trkpt><trkpt lat="42.9572783" lon="12.11346"><ele>595.0</ele><time>2026-04-19T09:01:28.955Z</time></trkpt><trkpt lat="42.95719" lon="12.1134967"><ele>596.0</ele><time>2026-04-19T09:01:29.956Z</time></trkpt><trkpt lat="42.9571167" lon="12.1135317"><ele>596.0</ele><time>2026-04-19T09:01:30.956Z</time></trkpt><trkpt lat="42.9570133" lon="12.113605"><ele>596.0</ele><time>2026-04-19T09:01:32.955Z</time></trkpt><trkpt lat="42.9569483" lon="12.11371"><ele>596.0</ele><time>2026-04-19T09:01:34.955Z</time></trkpt><trkpt lat="42.9568883" lon="12.113765"><ele>596.0</ele><time>2026-04-19T09:01:35.955Z</time></trkpt><trkpt lat="42.9568317" lon="12.1138333"><ele>596.0</ele><time>2026-04-19T09:01:36.956Z</time></trkpt><trkpt lat="42.956775" lon="12.1138917"><ele>596.0</ele><time>2026-04-19T09:01:37.955Z</time></trkpt><trkpt lat="42.9566717" lon="12.1139933"><ele>597.6666666666666</ele><time>2026-04-19T09:01:39.956Z</time></trkpt><trkpt lat="42.9566083" lon="12.11404"><ele>599.3333333333333</ele><time>2026-04-19T09:01:40.956Z</time></trkpt><trkpt lat="42.9565183" lon="12.11412"><ele>601.0</ele><time>2026-04-19T09:01:41.956Z</time></trkpt><trkpt lat="42.9564317" lon="12.11419"><ele>602.6666666666666</ele><time>2026-04-19T09:01:42.956Z</time></trkpt><trkpt lat="42.95635" lon="12.114245"><ele>604.3333333333334</ele><time>2026-04-19T09:01:43.956Z</time></trkpt><trkpt lat="42.95629" lon="12.1142783"><ele>606.0</ele><time>2026-04-19T09:01:44.956Z</time></trkpt><trkpt lat="42.9562267" lon="12.11429"><ele>606.1666666666666</ele><time>2026-04-19T09:01:45.955Z</time></trkpt><trkpt lat="42.9561617" lon="12.1142817"><ele>606.3333333333334</ele><time>2026-04-19T09:01:46.955Z</time></trkpt><trkpt lat="42.956075" lon="12.114275"><ele>606.5</ele><time>2026-04-19T09:01:47.956Z</time></trkpt><trkpt lat="42.9559933" lon="12.1142733"><ele>606.6666666666667</ele><time>2026-04-19T09:01:48.956Z</time></trkpt><trkpt lat="42.9559083" lon="12.1142717"><ele>606.8333333333334</ele><time>2026-04-19T09:01:49.955Z</time></trkpt><trkpt lat="42.9558317" lon="12.1142517"><ele>607.0</ele><time>2026-04-19T09:01:50.956Z</time></trkpt><trkpt lat="42.955755" lon="12.11424"><ele>607.8333333333334</ele><time>2026-04-19T09:01:51.955Z</time></trkpt><trkpt lat="42.9556917" lon="12.1142383"><ele>608.6666666666667</ele><time>2026-04-19T09:01:52.956Z</time></trkpt><trkpt lat="42.9555917" lon="12.1142167"><ele>609.5</ele><time>2026-04-19T09:01:54.955Z</time></trkpt><trkpt lat="42.955475" lon="12.114195"><ele>610.3333333333334</ele><time>2026-04-19T09:01:56.956Z</time></trkpt><trkpt lat="42.9554067" lon="12.11418"><ele>611.1666666666666</ele><time>2026-04-19T09:01:57.955Z</time></trkpt><trkpt lat="42.9553267" lon="12.1141483"><ele>612.0</ele><time>2026-04-19T09:01:58.955Z</time></trkpt><trkpt lat="42.9552417" lon="12.1141183"><ele>612.0</ele><time>2026-04-19T09:01:59.956Z</time></trkpt><trkpt lat="42.9551433" lon="12.1140767"><ele>612.0</ele><time>2026-04-19T09:02:00.956Z</time></trkpt><trkpt lat="42.9550433" lon="12.1140233"><ele>612.0</ele><time>2026-04-19T09:02:01.956Z</time></trkpt><trkpt lat="42.9549433" lon="12.113965"><ele>612.0</ele><time>2026-04-19T09:02:02.955Z</time></trkpt><trkpt lat="42.954845" lon="12.1139"><ele>612.0</ele><time>2026-04-19T09:02:03.955Z</time></trkpt><trkpt lat="42.9547433" lon="12.1138267"><ele>613.0</ele><time>2026-04-19T09:02:04.955Z</time></trkpt><trkpt lat="42.9546333" lon="12.1137483"><ele>614.0</ele><time>2026-04-19T09:02:05.956Z</time></trkpt><trkpt lat="42.9545217" lon="12.1136917"><ele>615.0</ele><time>2026-04-19T09:02:06.955Z</time></trkpt><trkpt lat="42.9544133" lon="12.113645"><ele>616.0</ele><time>2026-04-19T09:02:07.956Z</time></trkpt><trkpt lat="42.9542933" lon="12.11359"><ele>618.0</ele><time>2026-04-19T09:02:08.956Z</time></trkpt><trkpt lat="42.9541517" lon="12.1135067"><ele>620.0</ele><time>2026-04-19T09:02:09.955Z</time></trkpt><trkpt lat="42.9540167" lon="12.1134317"><ele>622.0</ele><time>2026-04-19T09:02:10.956Z</time></trkpt><trkpt lat="42.95392" lon="12.1133783"><ele>624.0</ele><time>2026-04-19T09:02:11.956Z</time></trkpt><trkpt lat="42.9538333" lon="12.1133433"><ele>624.0</ele><time>2026-04-19T09:02:12.955Z</time></trkpt><trkpt lat="42.95376" lon="12.1133383"><ele>624.0</ele><time>2026-04-19T09:02:13.956Z</time></trkpt><trkpt lat="42.9536917" lon="12.1133583"><ele>624.0</ele><time>2026-04-19T09:02:14.956Z</time></trkpt><trkpt lat="42.9536267" lon="12.1133967"><ele>624.0</ele><time>2026-04-19T09:02:15.955Z</time></trkpt><trkpt lat="42.953575" lon="12.1134483"><ele>624.0</ele><time>2026-04-19T09:02:16.956Z</time></trkpt><trkpt lat="42.9535317" lon="12.1135817"><ele>624.0</ele><time>2026-04-19T09:02:18.955Z</time></trkpt><trkpt lat="42.9535417" lon="12.1136683"><ele>624.0</ele><time>2026-04-19T09:02:19.955Z</time></trkpt><trkpt lat="42.9535683" lon="12.113765"><ele>624.0</ele><time>2026-04-19T09:02:20.955Z</time></trkpt><trkpt lat="42.9536183" lon="12.1138567"><ele>624.0</ele><time>2026-04-19T09:02:21.955Z</time></trkpt><trkpt lat="42.9536967" lon="12.1139567"><ele>624.0</ele><time>2026-04-19T09:02:22.955Z</time></trkpt><trkpt lat="42.9537683" lon="12.1140467"><ele>624.0</ele><time>2026-04-19T09:02:23.954Z</time></trkpt><trkpt lat="42.95382" lon="12.1141183"><ele>624.0</ele><time>2026-04-19T09:02:24.955Z</time></trkpt><trkpt lat="42.9538467" lon="12.1141967"><ele>624.0</ele><time>2026-04-19T09:02:25.954Z</time></trkpt><trkpt lat="42.953845" lon="12.11433"><ele>623.0</ele><time>2026-04-19T09:02:27.954Z</time></trkpt><trkpt lat="42.9538083" lon="12.114415"><ele>622.0</ele><time>2026-04-19T09:02:28.955Z</time></trkpt><trkpt lat="42.9537433" lon="12.1145083"><ele>621.0</ele><time>2026-04-19T09:02:29.955Z</time></trkpt><trkpt lat="42.9536483" lon="12.1146083"><ele>620.0</ele><time>2026-04-19T09:02:30.955Z</time></trkpt><trkpt lat="42.9535367" lon="12.1146867"><ele>619.0</ele><time>2026-04-19T09:02:31.954Z</time></trkpt><trkpt lat="42.9534367" lon="12.1147683"><ele>622.8</ele><time>2026-04-19T09:02:32.954Z</time></trkpt><trkpt lat="42.95335" lon="12.11487"><ele>626.5999999999999</ele><time>2026-04-19T09:02:33.954Z</time></trkpt><trkpt lat="42.9532833" lon="12.1149733"><ele>630.4</ele><time>2026-04-19T09:02:34.954Z</time></trkpt><trkpt lat="42.953225" lon="12.115045"><ele>634.1999999999999</ele><time>2026-04-19T09:02:35.955Z</time></trkpt><trkpt lat="42.95312" lon="12.11509"><ele>638.0</ele><time>2026-04-19T09:02:37.955Z</time></trkpt><trkpt lat="42.953045" lon="12.1150183"><ele>638.0</ele><time>2026-04-19T09:02:39.954Z</time></trkpt><trkpt lat="42.9530283" lon="12.114925"><ele>638.0</ele><time>2026-04-19T09:02:40.954Z</time></trkpt><trkpt lat="42.953035" lon="12.11479"><ele>638.0</ele><time>2026-04-19T09:02:41.954Z</time></trkpt><trkpt lat="42.9530483" lon="12.1146283"><ele>638.0</ele><time>2026-04-19T09:02:42.955Z</time></trkpt><trkpt lat="42.9530417" lon="12.1144483"><ele>638.0</ele><time>2026-04-19T09:02:43.954Z</time></trkpt><trkpt lat="42.953035" lon="12.1142783"><ele>638.4</ele><time>2026-04-19T09:02:44.954Z</time></trkpt><trkpt lat="42.953015" lon="12.114115"><ele>638.8</ele><time>2026-04-19T09:02:45.954Z</time></trkpt><trkpt lat="42.9529917" lon="12.1139833"><ele>639.2</ele><time>2026-04-19T09:02:46.955Z</time></trkpt><trkpt lat="42.9529517" lon="12.113885"><ele>639.6</ele><time>2026-04-19T09:02:47.954Z</time></trkpt><trkpt lat="42.9528933" lon="12.113775"><ele>640.0</ele><time>2026-04-19T09:02:48.955Z</time></trkpt><trkpt lat="42.9528167" lon="12.11365"><ele>640.0</ele><time>2026-04-19T09:02:49.955Z</time></trkpt><trkpt lat="42.952735" lon="12.11351"><ele>640.0</ele><time>2026-04-19T09:02:50.954Z</time></trkpt><trkpt lat="42.952655" lon="12.1134"><ele>640.0</ele><time>2026-04-19T09:02:51.955Z</time></trkpt><trkpt lat="42.9525617" lon="12.1133133"><ele>640.0</ele><time>2026-04-19T09:02:52.955Z</time></trkpt><trkpt lat="42.952485" lon="12.113225"><ele>644.6</ele><time>2026-04-19T09:02:53.955Z</time></trkpt><trkpt lat="42.9524317" lon="12.1131167"><ele>649.2</ele><time>2026-04-19T09:02:54.955Z</time></trkpt><trkpt lat="42.9524167" lon="12.1129817"><ele>653.8</ele><time>2026-04-19T09:02:55.955Z</time></trkpt><trkpt lat="42.9524133" lon="12.1128267"><ele>658.4</ele><time>2026-04-19T09:02:56.955Z</time></trkpt><trkpt lat="42.9524317" lon="12.1126733"><ele>663.0</ele><time>2026-04-19T09:02:57.955Z</time></trkpt><trkpt lat="42.95247" lon="12.1125017"><ele>663.25</ele><time>2026-04-19T09:02:58.955Z</time></trkpt><trkpt lat="42.95253" lon="12.112325"><ele>663.5</ele><time>2026-04-19T09:02:59.955Z</time></trkpt><trkpt lat="42.9525783" lon="12.11217"><ele>663.75</ele><time>2026-04-19T09:03:00.954Z</time></trkpt><trkpt lat="42.9526183" lon="12.1120283"><ele>664.0</ele><time>2026-04-19T09:03:01.954Z</time></trkpt><trkpt lat="42.9526383" lon="12.1119133"><ele>664.0</ele><time>2026-04-19T09:03:02.955Z</time></trkpt><trkpt lat="42.9526583" lon="12.1118133"><ele>664.0</ele><time>2026-04-19T09:03:03.954Z</time></trkpt><trkpt lat="42.9526683" lon="12.11172"><ele>664.0</ele><time>2026-04-19T09:03:04.954Z</time></trkpt><trkpt lat="42.9526383" lon="12.11158"><ele>664.0</ele><time>2026-04-19T09:03:06.955Z</time></trkpt><trkpt lat="42.95254" lon="12.111545"><ele>664.0</ele><time>2026-04-19T09:03:08.954Z</time></trkpt><trkpt lat="42.9524717" lon="12.1115733"><ele>664.0</ele><time>2026-04-19T09:03:09.954Z</time></trkpt><trkpt lat="42.9524083" lon="12.1116367"><ele>664.0</ele><time>2026-04-19T09:03:10.954Z</time></trkpt><trkpt lat="42.952345" lon="12.1117217"><ele>664.0</ele><time>2026-04-19T09:03:11.954Z</time></trkpt><trkpt lat="42.9522883" lon="12.1118067"><ele>664.0</ele><time>2026-04-19T09:03:12.954Z</time></trkpt><trkpt lat="42.95222" lon="12.11186"><ele>664.0</ele><time>2026-04-19T09:03:13.955Z</time></trkpt><trkpt lat="42.9521433" lon="12.111865"><ele>664.0</ele><time>2026-04-19T09:03:14.955Z</time></trkpt><trkpt lat="42.9520517" lon="12.1118183"><ele>664.0</ele><time>2026-04-19T09:03:15.955Z</time></trkpt><trkpt lat="42.95197" lon="12.1117733"><ele>664.0</ele><time>2026-04-19T09:03:16.955Z</time></trkpt><trkpt lat="42.9519033" lon="12.1117433"><ele>664.0</ele><time>2026-04-19T09:03:17.955Z</time></trkpt><trkpt lat="42.9517967" lon="12.1117933"><ele>664.0</ele><time>2026-04-19T09:03:19.954Z</time></trkpt><trkpt lat="42.9518083" lon="12.11195"><ele>664.0</ele><time>2026-04-19T09:03:21.954Z</time></trkpt><trkpt lat="42.9518483" lon="12.11208"><ele>664.0</ele><time>2026-04-19T09:03:22.954Z</time></trkpt><trkpt lat="42.9518733" lon="12.1122133"><ele>664.0</ele><time>2026-04-19T09:03:23.955Z</time></trkpt><trkpt lat="42.951865" lon="12.1123517"><ele>664.0</ele><time>2026-04-19T09:03:24.955Z</time></trkpt><trkpt lat="42.95183" lon="12.112485"><ele>664.0</ele><time>2026-04-19T09:03:25.954Z</time></trkpt><trkpt lat="42.9517717" lon="12.1125967"><ele>664.0</ele><time>2026-04-19T09:03:26.955Z</time></trkpt><trkpt lat="42.9517" lon="12.112695"><ele>664.0</ele><time>2026-04-19T09:03:27.954Z</time></trkpt><trkpt lat="42.9516017" lon="12.1127983"><ele>669.5</ele><time>2026-04-19T09:03:28.955Z</time></trkpt><trkpt lat="42.951495" lon="12.1128917"><ele>675.0</ele><time>2026-04-19T09:03:29.955Z</time></trkpt><trkpt lat="42.9513783" lon="12.1129633"><ele>680.5</ele><time>2026-04-19T09:03:30.954Z</time></trkpt><trkpt lat="42.9512467" lon="12.11301"><ele>686.0</ele><time>2026-04-19T09:03:31.954Z</time></trkpt><trkpt lat="42.9510933" lon="12.1130367"><ele>686.0</ele><time>2026-04-19T09:03:32.955Z</time></trkpt><trkpt lat="42.95092" lon="12.1130383"><ele>686.0</ele><time>2026-04-19T09:03:33.954Z</time></trkpt><trkpt lat="42.9507333" lon="12.1130567"><ele>686.0</ele><time>2026-04-19T09:03:34.955Z</time></trkpt><trkpt lat="42.9505533" lon="12.1131017"><ele>690.0</ele><time>2026-04-19T09:03:35.955Z</time></trkpt><trkpt lat="42.9504033" lon="12.11315"><ele>694.0</ele><time>2026-04-19T09:03:36.954Z</time></trkpt><trkpt lat="42.9502667" lon="12.11323"><ele>698.0</ele><time>2026-04-19T09:03:37.954Z</time></trkpt><trkpt lat="42.950135" lon="12.11333"><ele>701.6666666666666</ele><time>2026-04-19T09:03:38.955Z</time></trkpt><trkpt lat="42.9500033" lon="12.1134617"><ele>705.3333333333334</ele><time>2026-04-19T09:03:39.954Z</time></trkpt><trkpt lat="42.94986" lon="12.1136217"><ele>709.0</ele><time>2026-04-19T09:03:40.954Z</time></trkpt><trkpt lat="42.9497083" lon="12.11378"><ele>709.0</ele><time>2026-04-19T09:03:41.954Z</time></trkpt><trkpt lat="42.94956" lon="12.11392"><ele>709.0</ele><time>2026-04-19T09:03:42.955Z</time></trkpt><trkpt lat="42.9494133" lon="12.114035"><ele>709.0</ele><time>2026-04-19T09:03:43.955Z</time></trkpt><trkpt lat="42.9492667" lon="12.1141283"><ele>713.0</ele><time>2026-04-19T09:03:44.955Z</time></trkpt><trkpt lat="42.9491283" lon="12.1142117"><ele>717.0</ele><time>2026-04-19T09:03:45.954Z</time></trkpt><trkpt lat="42.94901" lon="12.11429"><ele>721.0</ele><time>2026-04-19T09:03:46.955Z</time></trkpt><trkpt lat="42.9489117" lon="12.11433"><ele>725.0</ele><time>2026-04-19T09:03:47.955Z</time></trkpt><trkpt lat="42.9488283" lon="12.114335"><ele>725.0</ele><time>2026-04-19T09:03:48.954Z</time></trkpt><trkpt lat="42.948745" lon="12.114295"><ele>725.0</ele><time>2026-04-19T09:03:49.955Z</time></trkpt><trkpt lat="42.948665" lon="12.1142133"><ele>725.0</ele><time>2026-04-19T09:03:50.954Z</time></trkpt><trkpt lat="42.9485883" lon="12.1141367"><ele>725.0</ele><time>2026-04-19T09:03:51.955Z</time></trkpt><trkpt lat="42.9485183" lon="12.11409"><ele>725.0</ele><time>2026-04-19T09:03:52.955Z</time></trkpt><trkpt lat="42.9484383" lon="12.114075"><ele>725.0</ele><time>2026-04-19T09:03:53.955Z</time></trkpt><trkpt lat="42.948355" lon="12.1140817"><ele>728.5</ele><time>2026-04-19T09:03:54.955Z</time></trkpt><trkpt lat="42.948255" lon="12.1141333"><ele>732.0</ele><time>2026-04-19T09:03:55.955Z</time></trkpt><trkpt lat="42.9481467" lon="12.114235"><ele>735.5</ele><time>2026-04-19T09:03:56.954Z</time></trkpt><trkpt lat="42.94804" lon="12.1143683"><ele>739.0</ele><time>2026-04-19T09:03:57.954Z</time></trkpt><trkpt lat="42.9479233" lon="12.11453"><ele>739.0</ele><time>2026-04-19T09:03:58.955Z</time></trkpt><trkpt lat="42.9477833" lon="12.114695"><ele>739.0</ele><time>2026-04-19T09:03:59.955Z</time></trkpt><trkpt lat="42.9476483" lon="12.1148133"><ele>739.0</ele><time>2026-04-19T09:04:00.955Z</time></trkpt><trkpt lat="42.9475367" lon="12.114905"><ele>743.75</ele><time>2026-04-19T09:04:01.954Z</time></trkpt><trkpt lat="42.9474267" lon="12.1149567"><ele>748.5</ele><time>2026-04-19T09:04:02.955Z</time></trkpt><trkpt lat="42.9473" lon="12.1149767"><ele>753.25</ele><time>2026-04-19T09:04:03.954Z</time></trkpt><trkpt lat="42.9471683" lon="12.1149867"><ele>758.0</ele><time>2026-04-19T09:04:04.954Z</time></trkpt><trkpt lat="42.947045" lon="12.1149867"><ele>758.0</ele><time>2026-04-19T09:04:05.955Z</time></trkpt><trkpt lat="42.94695" lon="12.1150083"><ele>758.0</ele><time>2026-04-19T09:04:06.954Z</time></trkpt><trkpt lat="42.9468717" lon="12.1150483"><ele>758.0</ele><time>2026-04-19T09:04:07.955Z</time></trkpt><trkpt lat="42.946825" lon="12.1151183"><ele>758.0</ele><time>2026-04-19T09:04:08.954Z</time></trkpt><trkpt lat="42.9467933" lon="12.11521"><ele>758.0</ele><time>2026-04-19T09:04:09.955Z</time></trkpt><trkpt lat="42.9467767" lon="12.1153317"><ele>758.0</ele><time>2026-04-19T09:04:10.955Z</time></trkpt><trkpt lat="42.9467533" lon="12.1154817"><ele>758.0</ele><time>2026-04-19T09:04:11.955Z</time></trkpt><trkpt lat="42.9467133" lon="12.1156233"><ele>758.0</ele><time>2026-04-19T09:04:12.955Z</time></trkpt><trkpt lat="42.946665" lon="12.1157267"><ele>758.0</ele><time>2026-04-19T09:04:13.955Z</time></trkpt><trkpt lat="42.9466083" lon="12.1157733"><ele>758.0</ele><time>2026-04-19T09:04:14.955Z</time></trkpt><trkpt lat="42.94648" lon="12.1157483"><ele>758.0</ele><time>2026-04-19T09:04:16.955Z</time></trkpt><trkpt lat="42.9464117" lon="12.1157383"><ele>761.2</ele><time>2026-04-19T09:04:17.955Z</time></trkpt><trkpt lat="42.9463317" lon="12.1158367"><ele>764.4</ele><time>2026-04-19T09:04:19.955Z</time></trkpt><trkpt lat="42.9463217" lon="12.11595"><ele>767.6</ele><time>2026-04-19T09:04:20.954Z</time></trkpt><trkpt lat="42.9463133" lon="12.1160967"><ele>770.8000000000001</ele><time>2026-04-19T09:04:21.954Z</time></trkpt><trkpt lat="42.94629" lon="12.11622"><ele>774.0</ele><time>2026-04-19T09:04:22.955Z</time></trkpt><trkpt lat="42.9462567" lon="12.1163017"><ele>774.0</ele><time>2026-04-19T09:04:23.955Z</time></trkpt><trkpt lat="42.9461333" lon="12.11634"><ele>774.0</ele><time>2026-04-19T09:04:25.955Z</time></trkpt><trkpt lat="42.94604" lon="12.1163"><ele>774.0</ele><time>2026-04-19T09:04:26.955Z</time></trkpt><trkpt lat="42.9459433" lon="12.1162533"><ele>774.0</ele><time>2026-04-19T09:04:27.954Z</time></trkpt><trkpt lat="42.94587" lon="12.1162383"><ele>774.0</ele><time>2026-04-19T09:04:28.955Z</time></trkpt><trkpt lat="42.94578" lon="12.116295"><ele>777.4000000000001</ele><time>2026-04-19T09:04:30.955Z</time></trkpt><trkpt lat="42.9457917" lon="12.1165"><ele>780.8</ele><time>2026-04-19T09:04:32.955Z</time></trkpt><trkpt lat="42.945795" lon="12.1165917"><ele>784.2</ele><time>2026-04-19T09:04:33.954Z</time></trkpt><trkpt lat="42.9457333" lon="12.116685"><ele>787.5999999999999</ele><time>2026-04-19T09:04:35.955Z</time></trkpt><trkpt lat="42.9456267" lon="12.11662"><ele>791.0</ele><time>2026-04-19T09:04:37.955Z</time></trkpt><trkpt lat="42.945545" lon="12.1165617"><ele>791.0</ele><time>2026-04-19T09:04:38.955Z</time></trkpt><trkpt lat="42.9454417" lon="12.1165283"><ele>791.0</ele><time>2026-04-19T09:04:39.955Z</time></trkpt><trkpt lat="42.94533" lon="12.1165267"><ele>791.0</ele><time>2026-04-19T09:04:40.954Z</time></trkpt><trkpt lat="42.9452317" lon="12.1164817"><ele>791.0</ele><time>2026-04-19T09:04:41.954Z</time></trkpt><trkpt lat="42.94515" lon="12.1164233"><ele>791.0</ele><time>2026-04-19T09:04:42.954Z</time></trkpt><trkpt lat="42.9450833" lon="12.1163167"><ele>795.8</ele><time>2026-04-19T09:04:43.954Z</time></trkpt><trkpt lat="42.9450383" lon="12.116175"><ele>800.5999999999999</ele><time>2026-04-19T09:04:44.955Z</time></trkpt><trkpt lat="42.9450133" lon="12.1160467"><ele>805.4</ele><time>2026-04-19T09:04:45.955Z</time></trkpt><trkpt lat="42.9449733" lon="12.115945"><ele>810.2</ele><time>2026-04-19T09:04:46.955Z</time></trkpt><trkpt lat="42.9449267" lon="12.1158517"><ele>815.0</ele><time>2026-04-19T09:04:47.954Z</time></trkpt><trkpt lat="42.9448667" lon="12.1157583"><ele>812.6</ele><time>2026-04-19T09:04:48.955Z</time></trkpt><trkpt lat="42.9447983" lon="12.11568"><ele>810.2</ele><time>2026-04-19T09:04:49.954Z</time></trkpt><trkpt lat="42.9447267" lon="12.1156017"><ele>807.8</ele><time>2026-04-19T09:04:50.954Z</time></trkpt><trkpt lat="42.9446417" lon="12.1155567"><ele>805.4</ele><time>2026-04-19T09:04:51.954Z</time></trkpt><trkpt lat="42.9445417" lon="12.1155433"><ele>803.0</ele><time>2026-04-19T09:04:52.954Z</time></trkpt><trkpt lat="42.9444583" lon="12.115555"><ele>803.0</ele><time>2026-04-19T09:04:53.954Z</time></trkpt><trkpt lat="42.9443867" lon="12.1156017"><ele>803.0</ele><time>2026-04-19T09:04:54.955Z</time></trkpt><trkpt lat="42.9443383" lon="12.1156733"><ele>803.0</ele><time>2026-04-19T09:04:55.954Z</time></trkpt><trkpt lat="42.9443033" lon="12.115785"><ele>803.0</ele><time>2026-04-19T09:04:56.954Z</time></trkpt><trkpt lat="42.9442917" lon="12.1159267"><ele>803.0</ele><time>2026-04-19T09:04:57.954Z</time></trkpt><trkpt lat="42.944295" lon="12.1161067"><ele>806.0</ele><time>2026-04-19T09:04:58.954Z</time></trkpt><trkpt lat="42.9443167" lon="12.1163217"><ele>809.0</ele><time>2026-04-19T09:04:59.954Z</time></trkpt><trkpt lat="42.9443383" lon="12.1164983"><ele>812.0</ele><time>2026-04-19T09:05:00.954Z</time></trkpt><trkpt lat="42.9443467" lon="12.1166267"><ele>815.0</ele><time>2026-04-19T09:05:01.955Z</time></trkpt><trkpt lat="42.94434" lon="12.1167217"><ele>816.8</ele><time>2026-04-19T09:05:02.955Z</time></trkpt><trkpt lat="42.9442733" lon="12.11684"><ele>818.6</ele><time>2026-04-19T09:05:04.955Z</time></trkpt><trkpt lat="42.9442033" lon="12.116835"><ele>820.4000000000001</ele><time>2026-04-19T09:05:05.955Z</time></trkpt><trkpt lat="42.944105" lon="12.116805"><ele>822.2</ele><time>2026-04-19T09:05:06.955Z</time></trkpt><trkpt lat="42.9439867" lon="12.116775"><ele>824.0</ele><time>2026-04-19T09:05:07.955Z</time></trkpt><trkpt lat="42.9438517" lon="12.1167733"><ele>827.0</ele><time>2026-04-19T09:05:08.954Z</time></trkpt><trkpt lat="42.9437317" lon="12.1167817"><ele>830.0</ele><time>2026-04-19T09:05:09.954Z</time></trkpt><trkpt lat="42.9436333" lon="12.1168167"><ele>833.0</ele><time>2026-04-19T09:05:10.955Z</time></trkpt><trkpt lat="42.9435183" lon="12.1168617"><ele>836.0</ele><time>2026-04-19T09:05:11.954Z</time></trkpt><trkpt lat="42.9434117" lon="12.116895"><ele>836.1999999999999</ele><time>2026-04-19T09:05:12.954Z</time></trkpt><trkpt lat="42.9432983" lon="12.11695"><ele>836.4</ele><time>2026-04-19T09:05:13.954Z</time></trkpt><trkpt lat="42.94319" lon="12.1170067"><ele>836.6</ele><time>2026-04-19T09:05:14.954Z</time></trkpt><trkpt lat="42.943105" lon="12.1170617"><ele>836.8</ele><time>2026-04-19T09:05:15.954Z</time></trkpt><trkpt lat="42.943035" lon="12.11711"><ele>837.0</ele><time>2026-04-19T09:05:16.955Z</time></trkpt><trkpt lat="42.9429833" lon="12.11717"><ele>837.0</ele><time>2026-04-19T09:05:17.954Z</time></trkpt><trkpt lat="42.9429433" lon="12.1172517"><ele>837.0</ele><time>2026-04-19T09:05:18.954Z</time></trkpt><trkpt lat="42.942905" lon="12.1173567"><ele>837.0</ele><time>2026-04-19T09:05:19.955Z</time></trkpt><trkpt lat="42.9428717" lon="12.1174833"><ele>837.0</ele><time>2026-04-19T09:05:20.954Z</time></trkpt><trkpt lat="42.942835" lon="12.1176167"><ele>837.0</ele><time>2026-04-19T09:05:21.955Z</time></trkpt><trkpt lat="42.9427933" lon="12.1177267"><ele>838.0</ele><time>2026-04-19T09:05:22.955Z</time></trkpt><trkpt lat="42.9427533" lon="12.117815"><ele>839.0</ele><time>2026-04-19T09:05:23.955Z</time></trkpt><trkpt lat="42.942715" lon="12.1178833"><ele>840.0</ele><time>2026-04-19T09:05:24.955Z</time></trkpt><trkpt lat="42.942655" lon="12.117975"><ele>841.0</ele><time>2026-04-19T09:05:26.954Z</time></trkpt><trkpt lat="42.9425917" lon="12.1180183"><ele>842.0</ele><time>2026-04-19T09:05:28.954Z</time></trkpt><trkpt lat="42.942515" lon="12.1180383"><ele>843.0</ele><time>2026-04-19T09:05:30.954Z</time></trkpt><trkpt lat="42.9424517" lon="12.11804"><ele>844.0</ele><time>2026-04-19T09:05:31.955Z</time></trkpt><trkpt lat="42.9423567" lon="12.118035"><ele>844.0</ele><time>2026-04-19T09:05:32.954Z</time></trkpt><trkpt lat="42.94224" lon="12.1180167"><ele>844.0</ele><time>2026-04-19T09:05:33.954Z</time></trkpt><trkpt lat="42.9421183" lon="12.117975"><ele>844.0</ele><time>2026-04-19T09:05:34.954Z</time></trkpt><trkpt lat="42.9419967" lon="12.11791"><ele>844.0</ele><time>2026-04-19T09:05:35.955Z</time></trkpt><trkpt lat="42.9418867" lon="12.1178417"><ele>844.0</ele><time>2026-04-19T09:05:36.954Z</time></trkpt><trkpt lat="42.9417867" lon="12.1177767"><ele>844.0</ele><time>2026-04-19T09:05:37.955Z</time></trkpt><trkpt lat="42.9417017" lon="12.1177017"><ele>844.0</ele><time>2026-04-19T09:05:38.955Z</time></trkpt><trkpt lat="42.941625" lon="12.1176317"><ele>844.0</ele><time>2026-04-19T09:05:39.955Z</time></trkpt><trkpt lat="42.9415467" lon="12.1175783"><ele>844.0</ele><time>2026-04-19T09:05:40.954Z</time></trkpt><trkpt lat="42.9414783" lon="12.1175333"><ele>843.0</ele><time>2026-04-19T09:05:41.954Z</time></trkpt><trkpt lat="42.9414" lon="12.1174933"><ele>842.0</ele><time>2026-04-19T09:05:42.955Z</time></trkpt><trkpt lat="42.94131" lon="12.1174683"><ele>841.0</ele><time>2026-04-19T09:05:43.955Z</time></trkpt><trkpt lat="42.9412183" lon="12.117465"><ele>840.0</ele><time>2026-04-19T09:05:44.954Z</time></trkpt><trkpt lat="42.941105" lon="12.1174917"><ele>839.0</ele><time>2026-04-19T09:05:45.955Z</time></trkpt><trkpt lat="42.9409833" lon="12.1175283"><ele>838.0000000000001</ele><time>2026-04-19T09:05:46.954Z</time></trkpt><trkpt lat="42.94087" lon="12.1175567"><ele>837.0</ele><time>2026-04-19T09:05:47.955Z</time></trkpt><trkpt lat="42.9407633" lon="12.1175867"><ele>836.0</ele><time>2026-04-19T09:05:48.954Z</time></trkpt><trkpt lat="42.9406817" lon="12.1176217"><ele>835.0</ele><time>2026-04-19T09:05:49.955Z</time></trkpt><trkpt lat="42.94062" lon="12.1176583"><ele>834.0000000000001</ele><time>2026-04-19T09:05:50.955Z</time></trkpt><trkpt lat="42.9405633" lon="12.11771"><ele>833.0</ele><time>2026-04-19T09:05:51.954Z</time></trkpt><trkpt lat="42.9404783" lon="12.1178317"><ele>833.0000000000001</ele><time>2026-04-19T09:05:53.955Z</time></trkpt><trkpt lat="42.9404083" lon="12.1178983"><ele>833.0</ele><time>2026-04-19T09:05:55.954Z</time></trkpt><trkpt lat="42.94035" lon="12.11794"><ele>833.0</ele><time>2026-04-19T09:05:57.955Z</time></trkpt><trkpt lat="42.9402783" lon="12.1179967"><ele>833.0</ele><time>2026-04-19T09:06:00.954Z</time></trkpt><trkpt lat="42.940265" lon="12.11809"><ele>833.0000000000001</ele><time>2026-04-19T09:06:02.954Z</time></trkpt><trkpt lat="42.9402733" lon="12.11819"><ele>833.0</ele><time>2026-04-19T09:06:04.955Z</time></trkpt><trkpt lat="42.9403" lon="12.1182967"><ele>832.1666666666667</ele><time>2026-04-19T09:06:06.955Z</time></trkpt><trkpt lat="42.9403283" lon="12.118395"><ele>831.3333333333334</ele><time>2026-04-19T09:06:08.955Z</time></trkpt><trkpt lat="42.940395" lon="12.11848"><ele>830.5</ele><time>2026-04-19T09:06:11.954Z</time></trkpt><trkpt lat="42.94046" lon="12.1185433"><ele>829.6666666666667</ele><time>2026-04-19T09:06:13.955Z</time></trkpt><trkpt lat="42.940515" lon="12.1185883"><ele>828.8333333333334</ele><time>2026-04-19T09:06:15.954Z</time></trkpt><trkpt lat="42.9405983" lon="12.1186233"><ele>828.0</ele><time>2026-04-19T09:06:18.954Z</time></trkpt><trkpt lat="42.9406833" lon="12.118655"><ele>828.0</ele><time>2026-04-19T09:06:21.955Z</time></trkpt><trkpt lat="42.9407533" lon="12.1186983"><ele>828.0</ele><time>2026-04-19T09:06:23.954Z</time></trkpt><trkpt lat="42.9408433" lon="12.1187767"><ele>828.0</ele><time>2026-04-19T09:06:25.954Z</time></trkpt><trkpt lat="42.9409217" lon="12.11886"><ele>828.0</ele><time>2026-04-19T09:06:27.954Z</time></trkpt><trkpt lat="42.9410217" lon="12.1189467"><ele>828.0</ele><time>2026-04-19T09:06:29.954Z</time></trkpt><trkpt lat="42.9411033" lon="12.1190383"><ele>827.0</ele><time>2026-04-19T09:06:31.955Z</time></trkpt><trkpt lat="42.9411717" lon="12.11912"><ele>826.0</ele><time>2026-04-19T09:06:33.955Z</time></trkpt><trkpt lat="42.9412217" lon="12.1191933"><ele>825.0</ele><time>2026-04-19T09:06:35.954Z</time></trkpt><trkpt lat="42.9412817" lon="12.1192917"><ele>824.0</ele><time>2026-04-19T09:06:37.955Z</time></trkpt><trkpt lat="42.941375" lon="12.1193917"><ele>823.0</ele><time>2026-04-19T09:06:39.955Z</time></trkpt><trkpt lat="42.941455" lon="12.1194933"><ele>823.0</ele><time>2026-04-19T09:06:41.954Z</time></trkpt><trkpt lat="42.9415067" lon="12.1195833"><ele>823.0</ele><time>2026-04-19T09:06:43.955Z</time></trkpt><trkpt lat="42.9415167" lon="12.1196817"><ele>823.0</ele><time>2026-04-19T09:06:45.954Z</time></trkpt><trkpt lat="42.94151" lon="12.1197967"><ele>823.0</ele><time>2026-04-19T09:06:47.954Z</time></trkpt><trkpt lat="42.941455" lon="12.11991"><ele>823.0</ele><time>2026-04-19T09:06:49.954Z</time></trkpt><trkpt lat="42.9413917" lon="12.120035"><ele>818.6666666666666</ele><time>2026-04-19T09:06:51.954Z</time></trkpt><trkpt lat="42.941355" lon="12.1201867"><ele>814.3333333333333</ele><time>2026-04-19T09:06:53.955Z</time></trkpt><trkpt lat="42.9413383" lon="12.12032"><ele>810.0</ele><time>2026-04-19T09:06:55.954Z</time></trkpt><trkpt lat="42.9413283" lon="12.1204217"><ele>805.6666666666667</ele><time>2026-04-19T09:06:57.955Z</time></trkpt><trkpt lat="42.9413583" lon="12.12053"><ele>801.3333333333334</ele><time>2026-04-19T09:06:59.955Z</time></trkpt><trkpt lat="42.941395" lon="12.1206167"><ele>797.0</ele><time>2026-04-19T09:07:01.955Z</time></trkpt><trkpt lat="42.9414217" lon="12.1207133"><ele>794.2</ele><time>2026-04-19T09:07:03.955Z</time></trkpt><trkpt lat="42.9414367" lon="12.1208383"><ele>791.4000000000001</ele><time>2026-04-19T09:07:05.954Z</time></trkpt><trkpt lat="42.94142" lon="12.1209583"><ele>788.5999999999999</ele><time>2026-04-19T09:07:07.955Z</time></trkpt><trkpt lat="42.9413867" lon="12.12111"><ele>785.8</ele><time>2026-04-19T09:07:09.955Z</time></trkpt><trkpt lat="42.94137" lon="12.1212367"><ele>783.0</ele><time>2026-04-19T09:07:11.955Z</time></trkpt><trkpt lat="42.9413433" lon="12.1213267"><ele>783.0</ele><time>2026-04-19T09:07:13.955Z</time></trkpt><trkpt lat="42.9413133" lon="12.12142"><ele>783.0</ele><time>2026-04-19T09:07:15.954Z</time></trkpt><trkpt lat="42.9412883" lon="12.1215583"><ele>783.0</ele><time>2026-04-19T09:07:17.955Z</time></trkpt><trkpt lat="42.9412833" lon="12.12167"><ele>783.0</ele><time>2026-04-19T09:07:19.955Z</time></trkpt><trkpt lat="42.941285" lon="12.121765"><ele>783.0</ele><time>2026-04-19T09:07:21.955Z</time></trkpt><trkpt lat="42.94127" lon="12.1218833"><ele>783.0</ele><time>2026-04-19T09:07:23.954Z</time></trkpt><trkpt lat="42.9412467" lon="12.1219717"><ele>781.0</ele><time>2026-04-19T09:07:24.954Z</time></trkpt><trkpt lat="42.9412167" lon="12.1221133"><ele>779.0</ele><time>2026-04-19T09:07:26.954Z</time></trkpt><trkpt lat="42.9411767" lon="12.12219"><ele>777.0</ele><time>2026-04-19T09:07:28.955Z</time></trkpt><trkpt lat="42.941105" lon="12.1222667"><ele>775.0</ele><time>2026-04-19T09:07:30.955Z</time></trkpt><trkpt lat="42.9410333" lon="12.12231"><ele>773.0</ele><time>2026-04-19T09:07:32.954Z</time></trkpt><trkpt lat="42.94095" lon="12.12231"><ele>771.0</ele><time>2026-04-19T09:07:34.955Z</time></trkpt><trkpt lat="42.94086" lon="12.1223"><ele>769.5999999999999</ele><time>2026-04-19T09:07:36.954Z</time></trkpt><trkpt lat="42.940755" lon="12.12231"><ele>768.2</ele><time>2026-04-19T09:07:38.955Z</time></trkpt><trkpt lat="42.9406417" lon="12.12232"><ele>766.8</ele><time>2026-04-19T09:07:40.954Z</time></trkpt><trkpt lat="42.9405267" lon="12.1223333"><ele>765.4000000000001</ele><time>2026-04-19T09:07:42.954Z</time></trkpt><trkpt lat="42.9404567" lon="12.12235"><ele>764.0</ele><time>2026-04-19T09:07:43.955Z</time></trkpt><trkpt lat="42.9403783" lon="12.1223767"><ele>764.0</ele><time>2026-04-19T09:07:44.954Z</time></trkpt><trkpt lat="42.9403067" lon="12.1223917"><ele>764.0</ele><time>2026-04-19T09:07:45.954Z</time></trkpt><trkpt lat="42.9402367" lon="12.1223983"><ele>764.0</ele><time>2026-04-19T09:07:46.954Z</time></trkpt><trkpt lat="42.94017" lon="12.1223917"><ele>764.0</ele><time>2026-04-19T09:07:47.955Z</time></trkpt><trkpt lat="42.9400467" lon="12.1223983"><ele>764.0</ele><time>2026-04-19T09:07:49.955Z</time></trkpt><trkpt lat="42.9399783" lon="12.122415"><ele>764.0</ele><time>2026-04-19T09:07:50.955Z</time></trkpt><trkpt lat="42.9399133" lon="12.1224283"><ele>763.2</ele><time>2026-04-19T09:07:51.954Z</time></trkpt><trkpt lat="42.93985" lon="12.1224467"><ele>762.4000000000001</ele><time>2026-04-19T09:07:52.954Z</time></trkpt><trkpt lat="42.9397533" lon="12.1224783"><ele>761.6</ele><time>2026-04-19T09:07:54.954Z</time></trkpt><trkpt lat="42.9396417" lon="12.1224883"><ele>760.8</ele><time>2026-04-19T09:07:56.955Z</time></trkpt><trkpt lat="42.93954" lon="12.1225133"><ele>760.0</ele><time>2026-04-19T09:07:58.955Z</time></trkpt><trkpt lat="42.93945" lon="12.12255"><ele>760.0</ele><time>2026-04-19T09:08:00.954Z</time></trkpt><trkpt lat="42.9393517" lon="12.1225933"><ele>760.0</ele><time>2026-04-19T09:08:02.955Z</time></trkpt><trkpt lat="42.939225" lon="12.1226467"><ele>760.0</ele><time>2026-04-19T09:08:04.954Z</time></trkpt><trkpt lat="42.9391017" lon="12.1226733"><ele>760.0</ele><time>2026-04-19T09:08:06.954Z</time></trkpt><trkpt lat="42.9390033" lon="12.1226933"><ele>759.1666666666667</ele><time>2026-04-19T09:08:08.955Z</time></trkpt><trkpt lat="42.938935" lon="12.1227183"><ele>758.3333333333334</ele><time>2026-04-19T09:08:10.955Z</time></trkpt><trkpt lat="42.93888" lon="12.1227967"><ele>757.5</ele><time>2026-04-19T09:08:12.954Z</time></trkpt><trkpt lat="42.93883" lon="12.1228717"><ele>756.6666666666666</ele><time>2026-04-19T09:08:14.955Z</time></trkpt><trkpt lat="42.9387733" lon="12.122945"><ele>755.8333333333333</ele><time>2026-04-19T09:08:16.955Z</time></trkpt><trkpt lat="42.93871" lon="12.1230117"><ele>755.0</ele><time>2026-04-19T09:08:18.955Z</time></trkpt><trkpt lat="42.9386417" lon="12.1230483"><ele>755.0</ele><time>2026-04-19T09:08:20.955Z</time></trkpt><trkpt lat="42.9385567" lon="12.1230767"><ele>755.0</ele><time>2026-04-19T09:08:22.955Z</time></trkpt><trkpt lat="42.9384817" lon="12.12308"><ele>755.0</ele><time>2026-04-19T09:08:25.954Z</time></trkpt><trkpt lat="42.93839" lon="12.1230717"><ele>755.0</ele><time>2026-04-19T09:08:29.954Z</time></trkpt><trkpt lat="42.9383333" lon="12.1231167"><ele>755.0</ele><time>2026-04-19T09:08:32.955Z</time></trkpt><trkpt lat="42.9382767" lon="12.1231833"><ele>755.0</ele><time>2026-04-19T09:08:34.955Z</time></trkpt><trkpt lat="42.9381967" lon="12.12321"><ele>755.5</ele><time>2026-04-19T09:08:36.954Z</time></trkpt><trkpt lat="42.9381333" lon="12.1232083"><ele>756.0</ele><time>2026-04-19T09:08:37.954Z</time></trkpt><trkpt lat="42.93806" lon="12.1232017"><ele>756.5</ele><time>2026-04-19T09:08:38.955Z</time></trkpt><trkpt lat="42.9379767" lon="12.1232083"><ele>757.0</ele><time>2026-04-19T09:08:39.954Z</time></trkpt><trkpt lat="42.9378933" lon="12.123215"><ele>757.5</ele><time>2026-04-19T09:08:40.954Z</time></trkpt><trkpt lat="42.9378267" lon="12.1232267"><ele>758.0</ele><time>2026-04-19T09:08:41.955Z</time></trkpt><trkpt lat="42.937715" lon="12.1232583"><ele>758.0</ele><time>2026-04-19T09:08:43.954Z</time></trkpt><trkpt lat="42.9376567" lon="12.1233"><ele>758.0</ele><time>2026-04-19T09:08:44.955Z</time></trkpt><trkpt lat="42.9375517" lon="12.1233567"><ele>758.0</ele><time>2026-04-19T09:08:46.955Z</time></trkpt><trkpt lat="42.9374283" lon="12.1234017"><ele>758.0</ele><time>2026-04-19T09:08:48.955Z</time></trkpt><trkpt lat="42.9373183" lon="12.123465"><ele>758.0</ele><time>2026-04-19T09:08:50.955Z</time></trkpt><trkpt lat="42.9372367" lon="12.123575"><ele>756.6666666666666</ele><time>2026-04-19T09:08:52.954Z</time></trkpt><trkpt lat="42.937165" lon="12.12371"><ele>755.3333333333333</ele><time>2026-04-19T09:08:54.954Z</time></trkpt><trkpt lat="42.9371067" lon="12.1238083"><ele>754.0</ele><time>2026-04-19T09:08:56.954Z</time></trkpt><trkpt lat="42.9370583" lon="12.1238783"><ele>752.6666666666666</ele><time>2026-04-19T09:08:59.955Z</time></trkpt><trkpt lat="42.9369983" lon="12.1239517"><ele>751.3333333333334</ele><time>2026-04-19T09:09:07.954Z</time></trkpt><trkpt lat="42.9369417" lon="12.123995"><ele>750.0</ele><time>2026-04-19T09:09:10.955Z</time></trkpt><trkpt lat="42.93687" lon="12.12407"><ele>749.8333333333334</ele><time>2026-04-19T09:09:12.954Z</time></trkpt><trkpt lat="42.936825" lon="12.1241317"><ele>749.6666666666666</ele><time>2026-04-19T09:09:13.954Z</time></trkpt><trkpt lat="42.936765" lon="12.1242267"><ele>749.5</ele><time>2026-04-19T09:09:15.954Z</time></trkpt><trkpt lat="42.93672" lon="12.1242917"><ele>749.3333333333333</ele><time>2026-04-19T09:09:17.954Z</time></trkpt><trkpt lat="42.9366433" lon="12.1243383"><ele>749.1666666666666</ele><time>2026-04-19T09:09:20.955Z</time></trkpt><trkpt lat="42.936525" lon="12.1243683"><ele>749.0</ele><time>2026-04-19T09:09:22.954Z</time></trkpt><trkpt lat="42.9364633" lon="12.1243967"><ele>749.0</ele><time>2026-04-19T09:09:23.955Z</time></trkpt><trkpt lat="42.9363767" lon="12.1244417"><ele>749.0</ele><time>2026-04-19T09:09:25.955Z</time></trkpt><trkpt lat="42.93632" lon="12.1244833"><ele>749.0</ele><time>2026-04-19T09:09:27.954Z</time></trkpt><trkpt lat="42.9362383" lon="12.1245117"><ele>749.0</ele><time>2026-04-19T09:09:29.955Z</time></trkpt><trkpt lat="42.93615" lon="12.124525"><ele>749.0</ele><time>2026-04-19T09:09:32.954Z</time></trkpt><trkpt lat="42.9360617" lon="12.12456"><ele>749.0</ele><time>2026-04-19T09:09:34.955Z</time></trkpt><trkpt lat="42.9359783" lon="12.1246133"><ele>749.0</ele><time>2026-04-19T09:09:36.955Z</time></trkpt><trkpt lat="42.9359067" lon="12.124655"><ele>749.0</ele><time>2026-04-19T09:09:38.954Z</time></trkpt><trkpt lat="42.9358083" lon="12.1247033"><ele>749.0</ele><time>2026-04-19T09:09:40.953Z</time></trkpt><trkpt lat="42.93571" lon="12.1247367"><ele>749.0</ele><time>2026-04-19T09:09:42.953Z</time></trkpt><trkpt lat="42.9356167" lon="12.1248267"><ele>749.0</ele><time>2026-04-19T09:09:44.953Z</time></trkpt><trkpt lat="42.9355633" lon="12.1248883"><ele>749.4000000000001</ele><time>2026-04-19T09:09:45.953Z</time></trkpt><trkpt lat="42.9354767" lon="12.12499"><ele>749.8</ele><time>2026-04-19T09:09:47.953Z</time></trkpt><trkpt lat="42.9354017" lon="12.1250733"><ele>750.2</ele><time>2026-04-19T09:09:49.953Z</time></trkpt><trkpt lat="42.9353133" lon="12.1251417"><ele>750.5999999999999</ele><time>2026-04-19T09:09:51.954Z</time></trkpt><trkpt lat="42.9352283" lon="12.12519"><ele>751.0</ele><time>2026-04-19T09:09:53.954Z</time></trkpt><trkpt lat="42.93513" lon="12.1252317"><ele>749.5</ele><time>2026-04-19T09:09:55.953Z</time></trkpt><trkpt lat="42.93505" lon="12.1252717"><ele>748.0</ele><time>2026-04-19T09:09:57.954Z</time></trkpt><trkpt lat="42.9349583" lon="12.1253117"><ele>746.5</ele><time>2026-04-19T09:10:00.954Z</time></trkpt><trkpt lat="42.9348867" lon="12.1253417"><ele>745.0</ele><time>2026-04-19T09:10:02.954Z</time></trkpt><trkpt lat="42.9348117" lon="12.125375"><ele>743.5</ele><time>2026-04-19T09:10:04.953Z</time></trkpt><trkpt lat="42.9347433" lon="12.12547"><ele>742.0</ele><time>2026-04-19T09:10:07.953Z</time></trkpt><trkpt lat="42.9347083" lon="12.12555"><ele>742.0</ele><time>2026-04-19T09:10:09.954Z</time></trkpt><trkpt lat="42.934665" lon="12.1256133"><ele>742.0</ele><time>2026-04-19T09:10:11.954Z</time></trkpt><trkpt lat="42.934605" lon="12.1256867"><ele>742.0</ele><time>2026-04-19T09:10:14.954Z</time></trkpt><trkpt lat="42.9345367" lon="12.1256983"><ele>742.0</ele><time>2026-04-19T09:10:17.953Z</time></trkpt><trkpt lat="42.9344467" lon="12.1256633"><ele>742.0</ele><time>2026-04-19T09:10:20.954Z</time></trkpt><trkpt lat="42.9343667" lon="12.12565"><ele>742.0</ele><time>2026-04-19T09:10:30.954Z</time></trkpt><trkpt lat="42.934325" lon="12.1257317"><ele>741.0</ele><time>2026-04-19T09:10:33.954Z</time></trkpt><trkpt lat="42.9343033" lon="12.1258367"><ele>740.0</ele><time>2026-04-19T09:10:36.953Z</time></trkpt><trkpt lat="42.9343083" lon="12.1259283"><ele>739.0</ele><time>2026-04-19T09:10:38.953Z</time></trkpt><trkpt lat="42.9343467" lon="12.1260517"><ele>738.0</ele><time>2026-04-19T09:10:41.954Z</time></trkpt><trkpt lat="42.9343883" lon="12.126145"><ele>737.0</ele><time>2026-04-19T09:10:44.954Z</time></trkpt><trkpt lat="42.9344283" lon="12.1262567"><ele>736.0</ele><time>2026-04-19T09:10:47.953Z</time></trkpt><trkpt lat="42.9344583" lon="12.12638"><ele>736.0</ele><time>2026-04-19T09:10:50.953Z</time></trkpt><trkpt lat="42.9344883" lon="12.1264917"><ele>736.0</ele><time>2026-04-19T09:10:53.953Z</time></trkpt><trkpt lat="42.93453" lon="12.126605"><ele>736.0</ele><time>2026-04-19T09:10:56.954Z</time></trkpt><trkpt lat="42.9345617" lon="12.1266883"><ele>736.0</ele><time>2026-04-19T09:10:58.954Z</time></trkpt><trkpt lat="42.9345967" lon="12.1267667"><ele>736.0</ele><time>2026-04-19T09:11:00.953Z</time></trkpt><trkpt lat="42.9346383" lon="12.1268417"><ele>736.0</ele><time>2026-04-19T09:11:02.954Z</time></trkpt><trkpt lat="42.9346833" lon="12.1269467"><ele>733.6666666666667</ele><time>2026-04-19T09:11:04.953Z</time></trkpt><trkpt lat="42.9347067" lon="12.1270267"><ele>731.3333333333334</ele><time>2026-04-19T09:11:06.953Z</time></trkpt><trkpt lat="42.9347067" lon="12.127145"><ele>729.0</ele><time>2026-04-19T09:11:09.954Z</time></trkpt><trkpt lat="42.934705" lon="12.127265"><ele>726.6666666666666</ele><time>2026-04-19T09:11:12.953Z</time></trkpt><trkpt lat="42.9347117" lon="12.1273583"><ele>724.3333333333333</ele><time>2026-04-19T09:11:14.954Z</time></trkpt><trkpt lat="42.93466" lon="12.1274467"><ele>722.0</ele><time>2026-04-19T09:11:17.954Z</time></trkpt><trkpt lat="42.9345883" lon="12.1274967"><ele>720.1666666666666</ele><time>2026-04-19T09:11:19.954Z</time></trkpt><trkpt lat="42.9345167" lon="12.127535"><ele>718.3333333333333</ele><time>2026-04-19T09:11:21.953Z</time></trkpt><trkpt lat="42.9344417" lon="12.127575"><ele>716.5</ele><time>2026-04-19T09:11:23.953Z</time></trkpt><trkpt lat="42.93435" lon="12.12761"><ele>714.6666666666666</ele><time>2026-04-19T09:11:26.954Z</time></trkpt><trkpt lat="42.93429" lon="12.1276617"><ele>712.8333333333334</ele><time>2026-04-19T09:11:28.954Z</time></trkpt><trkpt lat="42.93424" lon="12.1277167"><ele>711.0</ele><time>2026-04-19T09:11:30.954Z</time></trkpt><trkpt lat="42.9342033" lon="12.1278417"><ele>709.8333333333334</ele><time>2026-04-19T09:11:33.953Z</time></trkpt><trkpt lat="42.9341483" lon="12.1279417"><ele>708.6666666666666</ele><time>2026-04-19T09:11:35.953Z</time></trkpt><trkpt lat="42.9340867" lon="12.1280133"><ele>707.5</ele><time>2026-04-19T09:11:37.954Z</time></trkpt><trkpt lat="42.9340333" lon="12.1280917"><ele>706.3333333333333</ele><time>2026-04-19T09:11:39.954Z</time></trkpt><trkpt lat="42.93398" lon="12.12816"><ele>705.1666666666666</ele><time>2026-04-19T09:11:41.953Z</time></trkpt><trkpt lat="42.933925" lon="12.128215"><ele>704.0</ele><time>2026-04-19T09:11:43.954Z</time></trkpt><trkpt lat="42.93385" lon="12.12828"><ele>703.6666666666666</ele><time>2026-04-19T09:11:46.954Z</time></trkpt><trkpt lat="42.9337967" lon="12.12836"><ele>703.3333333333333</ele><time>2026-04-19T09:11:55.953Z</time></trkpt><trkpt lat="42.9337367" lon="12.1284283"><ele>703.0</ele><time>2026-04-19T09:12:25.953Z</time></trkpt><trkpt lat="42.9336817" lon="12.128495"><ele>702.6666666666666</ele><time>2026-04-19T09:12:27.953Z</time></trkpt><trkpt lat="42.9336417" lon="12.128565"><ele>702.3333333333334</ele><time>2026-04-19T09:12:29.953Z</time></trkpt><trkpt lat="42.9336017" lon="12.12866"><ele>702.0</ele><time>2026-04-19T09:12:32.954Z</time></trkpt><trkpt lat="42.933575" lon="12.1287567"><ele>702.0</ele><time>2026-04-19T09:12:52.954Z</time></trkpt><trkpt lat="42.9335533" lon="12.12888"><ele>702.0</ele><time>2026-04-19T09:12:55.953Z</time></trkpt><trkpt lat="42.9334783" lon="12.128955"><ele>702.0</ele><time>2026-04-19T09:13:51.953Z</time></trkpt><trkpt lat="42.933425" lon="12.129015"><ele>702.0</ele><time>2026-04-19T09:14:01.954Z</time></trkpt><trkpt lat="42.933405" lon="12.1291183"><ele>702.0</ele><time>2026-04-19T09:14:04.953Z</time></trkpt><trkpt lat="42.9333967" lon="12.1292233"><ele>702.0</ele><time>2026-04-19T09:14:06.954Z</time></trkpt><trkpt lat="42.93339" lon="12.12933"><ele>700.8571428571429</ele><time>2026-04-19T09:14:08.953Z</time></trkpt><trkpt lat="42.9333833" lon="12.129435"><ele>699.7142857142858</ele><time>2026-04-19T09:14:10.954Z</time></trkpt><trkpt lat="42.933395" lon="12.1295433"><ele>698.5714285714287</ele><time>2026-04-19T09:14:12.954Z</time></trkpt><trkpt lat="42.9333933" lon="12.1296383"><ele>697.4285714285714</ele><time>2026-04-19T09:14:14.954Z</time></trkpt><trkpt lat="42.933385" lon="12.1297383"><ele>696.2857142857142</ele><time>2026-04-19T09:14:16.953Z</time></trkpt><trkpt lat="42.93337" lon="12.1298283"><ele>695.1428571428572</ele><time>2026-04-19T09:14:18.953Z</time></trkpt><trkpt lat="42.9333667" lon="12.1299317"><ele>694.0</ele><time>2026-04-19T09:14:20.953Z</time></trkpt><trkpt lat="42.93334" lon="12.1300467"><ele>691.0</ele><time>2026-04-19T09:14:23.953Z</time></trkpt><trkpt lat="42.933275" lon="12.130085"><ele>688.0</ele><time>2026-04-19T09:14:26.953Z</time></trkpt><trkpt lat="42.9331883" lon="12.1300567"><ele>685.0</ele><time>2026-04-19T09:14:29.954Z</time></trkpt><trkpt lat="42.9331033" lon="12.129995"><ele>682.0</ele><time>2026-04-19T09:14:32.954Z</time></trkpt><trkpt lat="42.933045" lon="12.1299617"><ele>679.0</ele><time>2026-04-19T09:14:34.953Z</time></trkpt><trkpt lat="42.9329883" lon="12.1299167"><ele>676.0</ele><time>2026-04-19T09:14:36.953Z</time></trkpt><trkpt lat="42.9329183" lon="12.12992"><ele>676.0</ele><time>2026-04-19T09:14:38.953Z</time></trkpt><trkpt lat="42.93284" lon="12.1299483"><ele>676.0</ele><time>2026-04-19T09:14:40.953Z</time></trkpt><trkpt lat="42.9327467" lon="12.129985"><ele>676.0</ele><time>2026-04-19T09:14:42.954Z</time></trkpt><trkpt lat="42.9326733" lon="12.1300083"><ele>676.0</ele><time>2026-04-19T09:14:44.954Z</time></trkpt><trkpt lat="42.9325883" lon="12.130045"><ele>676.0</ele><time>2026-04-19T09:14:46.954Z</time></trkpt><trkpt lat="42.93253" lon="12.1300933"><ele>676.0</ele><time>2026-04-19T09:14:48.953Z</time></trkpt><trkpt lat="42.9324733" lon="12.1301783"><ele>673.1666666666667</ele><time>2026-04-19T09:14:51.953Z</time></trkpt><trkpt lat="42.9324483" lon="12.13027"><ele>670.3333333333334</ele><time>2026-04-19T09:14:53.953Z</time></trkpt><trkpt lat="42.9324217" lon="12.1303533"><ele>667.5</ele><time>2026-04-19T09:14:55.953Z</time></trkpt><trkpt lat="42.9324" lon="12.1304533"><ele>664.6666666666666</ele><time>2026-04-19T09:14:57.954Z</time></trkpt><trkpt lat="42.9323667" lon="12.1306017"><ele>661.8333333333333</ele><time>2026-04-19T09:14:59.954Z</time></trkpt><trkpt lat="42.9323217" lon="12.130685"><ele>659.0</ele><time>2026-04-19T09:15:01.953Z</time></trkpt><trkpt lat="42.9322733" lon="12.13075"><ele>658.5</ele><time>2026-04-19T09:15:03.954Z</time></trkpt><trkpt lat="42.9322167" lon="12.13081"><ele>658.0</ele><time>2026-04-19T09:15:05.954Z</time></trkpt><trkpt lat="42.93215" lon="12.1308717"><ele>657.5</ele><time>2026-04-19T09:15:07.953Z</time></trkpt><trkpt lat="42.9320867" lon="12.130935"><ele>657.0</ele><time>2026-04-19T09:15:09.953Z</time></trkpt><trkpt lat="42.9320033" lon="12.1310383"><ele>656.5</ele><time>2026-04-19T09:15:11.954Z</time></trkpt><trkpt lat="42.9319183" lon="12.1311183"><ele>656.0</ele><time>2026-04-19T09:15:13.954Z</time></trkpt><trkpt lat="42.9318217" lon="12.1312"><ele>655.3333333333333</ele><time>2026-04-19T09:15:15.954Z</time></trkpt><trkpt lat="42.931715" lon="12.1312933"><ele>654.6666666666666</ele><time>2026-04-19T09:15:17.954Z</time></trkpt><trkpt lat="42.93166" lon="12.1313367"><ele>654.0</ele><time>2026-04-19T09:15:18.953Z</time></trkpt><trkpt lat="42.931605" lon="12.1313917"><ele>653.3333333333334</ele><time>2026-04-19T09:15:19.953Z</time></trkpt><trkpt lat="42.9315517" lon="12.131445"><ele>652.6666666666667</ele><time>2026-04-19T09:15:20.954Z</time></trkpt><trkpt lat="42.9314517" lon="12.13153"><ele>652.0</ele><time>2026-04-19T09:15:22.954Z</time></trkpt><trkpt lat="42.9313433" lon="12.1315667"><ele>652.0</ele><time>2026-04-19T09:15:24.953Z</time></trkpt><trkpt lat="42.93128" lon="12.1315883"><ele>652.0</ele><time>2026-04-19T09:15:25.953Z</time></trkpt><trkpt lat="42.9311917" lon="12.1316217"><ele>652.0</ele><time>2026-04-19T09:15:27.954Z</time></trkpt><trkpt lat="42.93109" lon="12.1317117"><ele>652.0</ele><time>2026-04-19T09:15:29.953Z</time></trkpt><trkpt lat="42.9310267" lon="12.1317767"><ele>652.0</ele><time>2026-04-19T09:15:30.953Z</time></trkpt><trkpt lat="42.9309483" lon="12.1318667"><ele>650.8333333333334</ele><time>2026-04-19T09:15:31.953Z</time></trkpt><trkpt lat="42.9308783" lon="12.1319517"><ele>649.6666666666667</ele><time>2026-04-19T09:15:32.953Z</time></trkpt><trkpt lat="42.9308283" lon="12.1320283"><ele>648.5</ele><time>2026-04-19T09:15:33.954Z</time></trkpt><trkpt lat="42.9307533" lon="12.1321217"><ele>647.3333333333334</ele><time>2026-04-19T09:15:35.954Z</time></trkpt><trkpt lat="42.93068" lon="12.132195"><ele>646.1666666666666</ele><time>2026-04-19T09:15:38.954Z</time></trkpt><trkpt lat="42.9306217" lon="12.1322533"><ele>645.0</ele><time>2026-04-19T09:15:58.953Z</time></trkpt><trkpt lat="42.930515" lon="12.1323033"><ele>645.0</ele><time>2026-04-19T09:16:00.954Z</time></trkpt><trkpt lat="42.9304317" lon="12.1323383"><ele>645.0</ele><time>2026-04-19T09:16:01.953Z</time></trkpt><trkpt lat="42.93036" lon="12.1323767"><ele>645.0</ele><time>2026-04-19T09:16:02.953Z</time></trkpt><trkpt lat="42.9303" lon="12.1324033"><ele>645.0</ele><time>2026-04-19T09:16:03.953Z</time></trkpt><trkpt lat="42.9302383" lon="12.1324283"><ele>645.0</ele><time>2026-04-19T09:16:04.954Z</time></trkpt><trkpt lat="42.9301383" lon="12.1324633"><ele>645.0</ele><time>2026-04-19T09:16:06.952Z</time></trkpt><trkpt lat="42.9300783" lon="12.1324917"><ele>644.6</ele><time>2026-04-19T09:16:07.952Z</time></trkpt><trkpt lat="42.9300133" lon="12.1325117"><ele>644.2</ele><time>2026-04-19T09:16:08.952Z</time></trkpt><trkpt lat="42.9299017" lon="12.132505"><ele>643.8</ele><time>2026-04-19T09:16:10.952Z</time></trkpt><trkpt lat="42.9297933" lon="12.1325267"><ele>643.4</ele><time>2026-04-19T09:16:12.952Z</time></trkpt><trkpt lat="42.9297283" lon="12.132565"><ele>643.0</ele><time>2026-04-19T09:16:13.952Z</time></trkpt><trkpt lat="42.9296383" lon="12.13264"><ele>643.0</ele><time>2026-04-19T09:16:14.952Z</time></trkpt><trkpt lat="42.929545" lon="12.1327083"><ele>643.0</ele><time>2026-04-19T09:16:15.953Z</time></trkpt><trkpt lat="42.9294583" lon="12.13276"><ele>643.0</ele><time>2026-04-19T09:16:16.953Z</time></trkpt><trkpt lat="42.9293967" lon="12.1328017"><ele>643.0</ele><time>2026-04-19T09:16:17.952Z</time></trkpt><trkpt lat="42.9293167" lon="12.1328483"><ele>643.0</ele><time>2026-04-19T09:16:18.953Z</time></trkpt><trkpt lat="42.92923" lon="12.1329133"><ele>641.0</ele><time>2026-04-19T09:16:19.952Z</time></trkpt><trkpt lat="42.9291433" lon="12.1329967"><ele>639.0</ele><time>2026-04-19T09:16:20.953Z</time></trkpt><trkpt lat="42.9290667" lon="12.133055"><ele>637.0</ele><time>2026-04-19T09:16:21.953Z</time></trkpt><trkpt lat="42.9289983" lon="12.1331"><ele>635.0</ele><time>2026-04-19T09:16:22.953Z</time></trkpt><trkpt lat="42.9289333" lon="12.13313"><ele>633.0</ele><time>2026-04-19T09:16:23.953Z</time></trkpt><trkpt lat="42.92881" lon="12.133155"><ele>633.0</ele><time>2026-04-19T09:16:25.952Z</time></trkpt><trkpt lat="42.9286783" lon="12.1331333"><ele>633.0</ele><time>2026-04-19T09:16:27.952Z</time></trkpt><trkpt lat="42.9286133" lon="12.1331317"><ele>633.0</ele><time>2026-04-19T09:16:28.953Z</time></trkpt><trkpt lat="42.928545" lon="12.13314"><ele>633.0</ele><time>2026-04-19T09:16:29.952Z</time></trkpt><trkpt lat="42.9284733" lon="12.1331583"><ele>633.0</ele><time>2026-04-19T09:16:30.953Z</time></trkpt><trkpt lat="42.92841" lon="12.1331817"><ele>633.0</ele><time>2026-04-19T09:16:31.953Z</time></trkpt><trkpt lat="42.92832" lon="12.13324"><ele>633.0</ele><time>2026-04-19T09:16:33.953Z</time></trkpt><trkpt lat="42.928275" lon="12.1333033"><ele>633.0</ele><time>2026-04-19T09:16:35.953Z</time></trkpt><trkpt lat="42.9282783" lon="12.1333983"><ele>633.0</ele><time>2026-04-19T09:16:37.953Z</time></trkpt><trkpt lat="42.9282833" lon="12.133515"><ele>633.0</ele><time>2026-04-19T09:16:39.952Z</time></trkpt><trkpt lat="42.9282983" lon="12.1336133"><ele>633.0</ele><time>2026-04-19T09:16:41.952Z</time></trkpt><trkpt lat="42.9283083" lon="12.1337017"><ele>633.0</ele><time>2026-04-19T09:16:43.953Z</time></trkpt><trkpt lat="42.9282367" lon="12.1337733"><ele>633.0</ele><time>2026-04-19T09:16:46.952Z</time></trkpt><trkpt lat="42.9281167" lon="12.1337733"><ele>633.0</ele><time>2026-04-19T09:16:48.953Z</time></trkpt><trkpt lat="42.9280517" lon="12.1337633"><ele>633.0</ele><time>2026-04-19T09:16:49.952Z</time></trkpt><trkpt lat="42.9279417" lon="12.1337483"><ele>633.0</ele><time>2026-04-19T09:16:51.953Z</time></trkpt><trkpt lat="42.9278583" lon="12.1338133"><ele>633.0</ele><time>2026-04-19T09:16:53.952Z</time></trkpt><trkpt lat="42.927805" lon="12.1339"><ele>633.0</ele><time>2026-04-19T09:16:54.952Z</time></trkpt><trkpt lat="42.9277483" lon="12.134"><ele>633.0</ele><time>2026-04-19T09:16:55.952Z</time></trkpt><trkpt lat="42.927675" lon="12.1340933"><ele>632.4</ele><time>2026-04-19T09:16:56.952Z</time></trkpt><trkpt lat="42.927595" lon="12.13418"><ele>631.8</ele><time>2026-04-19T09:16:57.953Z</time></trkpt><trkpt lat="42.9275117" lon="12.13427"><ele>631.2</ele><time>2026-04-19T09:16:58.952Z</time></trkpt><trkpt lat="42.9274217" lon="12.134355"><ele>630.6</ele><time>2026-04-19T09:16:59.953Z</time></trkpt><trkpt lat="42.927345" lon="12.1344083"><ele>630.0</ele><time>2026-04-19T09:17:00.952Z</time></trkpt><trkpt lat="42.9272783" lon="12.1344433"><ele>628.8</ele><time>2026-04-19T09:17:01.952Z</time></trkpt><trkpt lat="42.927185" lon="12.1344583"><ele>627.6</ele><time>2026-04-19T09:17:02.953Z</time></trkpt><trkpt lat="42.9270683" lon="12.13447"><ele>626.4</ele><time>2026-04-19T09:17:03.953Z</time></trkpt><trkpt lat="42.9269517" lon="12.13449"><ele>625.2</ele><time>2026-04-19T09:17:04.953Z</time></trkpt><trkpt lat="42.9268333" lon="12.134495"><ele>624.0</ele><time>2026-04-19T09:17:05.952Z</time></trkpt><trkpt lat="42.9267317" lon="12.1345017"><ele>621.8</ele><time>2026-04-19T09:17:06.953Z</time></trkpt><trkpt lat="42.9266367" lon="12.1345167"><ele>619.5999999999999</ele><time>2026-04-19T09:17:07.952Z</time></trkpt><trkpt lat="42.926545" lon="12.1345517"><ele>617.4</ele><time>2026-04-19T09:17:08.952Z</time></trkpt><trkpt lat="42.9264717" lon="12.1346"><ele>615.1999999999999</ele><time>2026-04-19T09:17:09.953Z</time></trkpt><trkpt lat="42.9263917" lon="12.1346783"><ele>613.0</ele><time>2026-04-19T09:17:10.953Z</time></trkpt><trkpt lat="42.9263083" lon="12.1347583"><ele>613.0</ele><time>2026-04-19T09:17:11.952Z</time></trkpt><trkpt lat="42.9262033" lon="12.1348317"><ele>613.0</ele><time>2026-04-19T09:17:12.953Z</time></trkpt><trkpt lat="42.9260867" lon="12.13491"><ele>613.0</ele><time>2026-04-19T09:17:13.953Z</time></trkpt><trkpt lat="42.9259567" lon="12.1349883"><ele>613.0</ele><time>2026-04-19T09:17:14.953Z</time></trkpt><trkpt lat="42.9258283" lon="12.13508"><ele>614.3333333333334</ele><time>2026-04-19T09:17:15.952Z</time></trkpt><trkpt lat="42.9257267" lon="12.135155"><ele>615.6666666666667</ele><time>2026-04-19T09:17:16.953Z</time></trkpt><trkpt lat="42.9256567" lon="12.13522"><ele>617.0</ele><time>2026-04-19T09:17:17.953Z</time></trkpt><trkpt lat="42.9256017" lon="12.1352717"><ele>618.3333333333334</ele><time>2026-04-19T09:17:18.952Z</time></trkpt><trkpt lat="42.9255417" lon="12.1353167"><ele>619.6666666666666</ele><time>2026-04-19T09:17:19.952Z</time></trkpt><trkpt lat="42.9254767" lon="12.1353633"><ele>621.0</ele><time>2026-04-19T09:17:20.953Z</time></trkpt><trkpt lat="42.9254067" lon="12.1354167"><ele>621.0</ele><time>2026-04-19T09:17:21.953Z</time></trkpt><trkpt lat="42.925335" lon="12.1354867"><ele>621.0</ele><time>2026-04-19T09:17:22.952Z</time></trkpt><trkpt lat="42.925265" lon="12.13555"><ele>621.0</ele><time>2026-04-19T09:17:23.952Z</time></trkpt><trkpt lat="42.92519" lon="12.13562"><ele>621.0</ele><time>2026-04-19T09:17:24.952Z</time></trkpt><trkpt lat="42.9251217" lon="12.1357067"><ele>621.0</ele><time>2026-04-19T09:17:25.952Z</time></trkpt><trkpt lat="42.9250567" lon="12.135775"><ele>621.0</ele><time>2026-04-19T09:17:26.953Z</time></trkpt><trkpt lat="42.9249883" lon="12.135845"><ele>623.5</ele><time>2026-04-19T09:17:27.952Z</time></trkpt><trkpt lat="42.9249033" lon="12.135925"><ele>626.0</ele><time>2026-04-19T09:17:28.953Z</time></trkpt><trkpt lat="42.924825" lon="12.1360333"><ele>628.5</ele><time>2026-04-19T09:17:29.953Z</time></trkpt><trkpt lat="42.92473" lon="12.1361483"><ele>631.0</ele><time>2026-04-19T09:17:30.953Z</time></trkpt><trkpt lat="42.9246483" lon="12.1362533"><ele>631.0</ele><time>2026-04-19T09:17:31.952Z</time></trkpt><trkpt lat="42.9245717" lon="12.1363367"><ele>631.0</ele><time>2026-04-19T09:17:32.952Z</time></trkpt><trkpt lat="42.9245033" lon="12.1364083"><ele>631.0</ele><time>2026-04-19T09:17:33.953Z</time></trkpt><trkpt lat="42.9244433" lon="12.1364667"><ele>631.0</ele><time>2026-04-19T09:17:34.953Z</time></trkpt><trkpt lat="42.9243667" lon="12.1365217"><ele>631.0</ele><time>2026-04-19T09:17:35.952Z</time></trkpt><trkpt lat="42.9242783" lon="12.136575"><ele>631.0</ele><time>2026-04-19T09:17:36.953Z</time></trkpt><trkpt lat="42.9241983" lon="12.1366283"><ele>630.6</ele><time>2026-04-19T09:17:37.952Z</time></trkpt><trkpt lat="42.924125" lon="12.1366717"><ele>630.2</ele><time>2026-04-19T09:17:38.952Z</time></trkpt><trkpt lat="42.9240567" lon="12.13672"><ele>629.8</ele><time>2026-04-19T09:17:39.952Z</time></trkpt><trkpt lat="42.92399" lon="12.1367833"><ele>629.4</ele><time>2026-04-19T09:17:40.952Z</time></trkpt><trkpt lat="42.92391" lon="12.1368733"><ele>629.0</ele><time>2026-04-19T09:17:41.952Z</time></trkpt><trkpt lat="42.9238167" lon="12.1369717"><ele>629.0</ele><time>2026-04-19T09:17:42.953Z</time></trkpt><trkpt lat="42.9237283" lon="12.1370883"><ele>629.0</ele><time>2026-04-19T09:17:43.953Z</time></trkpt><trkpt lat="42.9236483" lon="12.13718"><ele>629.0</ele><time>2026-04-19T09:17:44.953Z</time></trkpt><trkpt lat="42.9235867" lon="12.1372517"><ele>629.0</ele><time>2026-04-19T09:17:45.952Z</time></trkpt><trkpt lat="42.9235233" lon="12.1372983"><ele>629.0</ele><time>2026-04-19T09:17:46.953Z</time></trkpt><trkpt lat="42.923465" lon="12.1373433"><ele>629.0</ele><time>2026-04-19T09:17:47.953Z</time></trkpt><trkpt lat="42.9233933" lon="12.1373833"><ele>628.25</ele><time>2026-04-19T09:17:48.953Z</time></trkpt><trkpt lat="42.92329" lon="12.137395"><ele>627.5</ele><time>2026-04-19T09:17:49.953Z</time></trkpt><trkpt lat="42.9231767" lon="12.1374083"><ele>626.75</ele><time>2026-04-19T09:17:50.953Z</time></trkpt><trkpt lat="42.9230583" lon="12.13741"><ele>626.0</ele><time>2026-04-19T09:17:51.953Z</time></trkpt><trkpt lat="42.92294" lon="12.1373967"><ele>626.0</ele><time>2026-04-19T09:17:52.953Z</time></trkpt><trkpt lat="42.9228333" lon="12.1373933"><ele>626.0</ele><time>2026-04-19T09:17:53.953Z</time></trkpt><trkpt lat="42.92274" lon="12.1373883"><ele>626.0</ele><time>2026-04-19T09:17:54.952Z</time></trkpt><trkpt lat="42.9226483" lon="12.137385"><ele>626.0</ele><time>2026-04-19T09:17:55.952Z</time></trkpt><trkpt lat="42.9225433" lon="12.1373967"><ele>626.0</ele><time>2026-04-19T09:17:56.952Z</time></trkpt><trkpt lat="42.9224317" lon="12.1374083"><ele>626.6666666666666</ele><time>2026-04-19T09:17:57.953Z</time></trkpt><trkpt lat="42.9223267" lon="12.137415"><ele>627.3333333333333</ele><time>2026-04-19T09:17:58.953Z</time></trkpt><trkpt lat="42.9222283" lon="12.1374233"><ele>628.0</ele><time>2026-04-19T09:17:59.953Z</time></trkpt><trkpt lat="42.9221417" lon="12.137445"><ele>628.6666666666666</ele><time>2026-04-19T09:18:00.953Z</time></trkpt><trkpt lat="42.9220633" lon="12.13748"><ele>629.3333333333334</ele><time>2026-04-19T09:18:01.953Z</time></trkpt><trkpt lat="42.9219967" lon="12.137525"><ele>630.0</ele><time>2026-04-19T09:18:02.953Z</time></trkpt><trkpt lat="42.921925" lon="12.1375817"><ele>630.0</ele><time>2026-04-19T09:18:03.952Z</time></trkpt><trkpt lat="42.9218367" lon="12.1376683"><ele>630.0</ele><time>2026-04-19T09:18:04.952Z</time></trkpt><trkpt lat="42.9217483" lon="12.13777"><ele>630.0</ele><time>2026-04-19T09:18:05.952Z</time></trkpt><trkpt lat="42.9216783" lon="12.13786"><ele>630.0</ele><time>2026-04-19T09:18:06.952Z</time></trkpt><trkpt lat="42.9216233" lon="12.137915"><ele>630.0</ele><time>2026-04-19T09:18:07.952Z</time></trkpt><trkpt lat="42.921525" lon="12.1379833"><ele>628.6</ele><time>2026-04-19T09:18:09.953Z</time></trkpt><trkpt lat="42.9214633" lon="12.1380133"><ele>627.2</ele><time>2026-04-19T09:18:10.953Z</time></trkpt><trkpt lat="42.9213883" lon="12.1380417"><ele>625.8</ele><time>2026-04-19T09:18:11.952Z</time></trkpt><trkpt lat="42.9212867" lon="12.138075"><ele>624.4</ele><time>2026-04-19T09:18:12.952Z</time></trkpt><trkpt lat="42.9211733" lon="12.1381217"><ele>623.0</ele><time>2026-04-19T09:18:13.952Z</time></trkpt><trkpt lat="42.9210817" lon="12.1381567"><ele>623.0</ele><time>2026-04-19T09:18:14.952Z</time></trkpt><trkpt lat="42.9210033" lon="12.1381717"><ele>623.0</ele><time>2026-04-19T09:18:15.952Z</time></trkpt><trkpt lat="42.9209267" lon="12.13816"><ele>623.0</ele><time>2026-04-19T09:18:16.953Z</time></trkpt><trkpt lat="42.92084" lon="12.1381183"><ele>623.0</ele><time>2026-04-19T09:18:17.952Z</time></trkpt><trkpt lat="42.920735" lon="12.1380617"><ele>623.0</ele><time>2026-04-19T09:18:18.953Z</time></trkpt><trkpt lat="42.92062" lon="12.1380033"><ele>622.4</ele><time>2026-04-19T09:18:19.952Z</time></trkpt><trkpt lat="42.9205167" lon="12.1379417"><ele>621.8</ele><time>2026-04-19T09:18:20.953Z</time></trkpt><trkpt lat="42.9204417" lon="12.1378833"><ele>621.2</ele><time>2026-04-19T09:18:21.953Z</time></trkpt><trkpt lat="42.9203717" lon="12.1377983"><ele>620.6</ele><time>2026-04-19T09:18:22.952Z</time></trkpt><trkpt lat="42.9202933" lon="12.1377033"><ele>620.0</ele><time>2026-04-19T09:18:23.952Z</time></trkpt><trkpt lat="42.9202083" lon="12.1376133"><ele>620.0</ele><time>2026-04-19T09:18:24.952Z</time></trkpt><trkpt lat="42.9201183" lon="12.1375533"><ele>620.0</ele><time>2026-04-19T09:18:25.953Z</time></trkpt><trkpt lat="42.9200317" lon="12.1375083"><ele>620.0</ele><time>2026-04-19T09:18:26.952Z</time></trkpt><trkpt lat="42.9199383" lon="12.1374733"><ele>620.0</ele><time>2026-04-19T09:18:27.952Z</time></trkpt><trkpt lat="42.9198383" lon="12.13744"><ele>620.0</ele><time>2026-04-19T09:18:28.953Z</time></trkpt><trkpt lat="42.9197383" lon="12.1373933"><ele>619.2</ele><time>2026-04-19T09:18:29.953Z</time></trkpt><trkpt lat="42.9196383" lon="12.1373367"><ele>618.4</ele><time>2026-04-19T09:18:30.952Z</time></trkpt><trkpt lat="42.91954" lon="12.1372917"><ele>617.6</ele><time>2026-04-19T09:18:31.952Z</time></trkpt><trkpt lat="42.919445" lon="12.1372533"><ele>616.8</ele><time>2026-04-19T09:18:32.953Z</time></trkpt><trkpt lat="42.9193633" lon="12.1372133"><ele>616.0</ele><time>2026-04-19T09:18:33.953Z</time></trkpt><trkpt lat="42.9192917" lon="12.13715"><ele>617.3333333333334</ele><time>2026-04-19T09:18:34.953Z</time></trkpt><trkpt lat="42.919225" lon="12.13707"><ele>618.6666666666667</ele><time>2026-04-19T09:18:35.953Z</time></trkpt><trkpt lat="42.9191567" lon="12.1369933"><ele>620.0</ele><time>2026-04-19T09:18:36.953Z</time></trkpt><trkpt lat="42.9190917" lon="12.1369267"><ele>621.3333333333334</ele><time>2026-04-19T09:18:37.953Z</time></trkpt><trkpt lat="42.9190333" lon="12.1368683"><ele>622.6666666666666</ele><time>2026-04-19T09:18:38.953Z</time></trkpt><trkpt lat="42.91898" lon="12.13682"><ele>624.0</ele><time>2026-04-19T09:18:39.953Z</time></trkpt><trkpt lat="42.918845" lon="12.1367867"><ele>624.0</ele><time>2026-04-19T09:18:41.952Z</time></trkpt><trkpt lat="42.9187483" lon="12.13677"><ele>624.0</ele><time>2026-04-19T09:18:42.952Z</time></trkpt><trkpt lat="42.9186417" lon="12.1367467"><ele>624.0</ele><time>2026-04-19T09:18:43.952Z</time></trkpt><trkpt lat="42.9185367" lon="12.1367167"><ele>624.0</ele><time>2026-04-19T09:18:44.952Z</time></trkpt><trkpt lat="42.9184317" lon="12.1367017"><ele>624.0</ele><time>2026-04-19T09:18:45.953Z</time></trkpt><trkpt lat="42.91833" lon="12.1366917"><ele>624.4</ele><time>2026-04-19T09:18:46.953Z</time></trkpt><trkpt lat="42.9182383" lon="12.136685"><ele>624.8</ele><time>2026-04-19T09:18:47.952Z</time></trkpt><trkpt lat="42.9181417" lon="12.1366717"><ele>625.2</ele><time>2026-04-19T09:18:48.953Z</time></trkpt><trkpt lat="42.9180433" lon="12.13665"><ele>625.6</ele><time>2026-04-19T09:18:49.953Z</time></trkpt><trkpt lat="42.917955" lon="12.136625"><ele>626.0</ele><time>2026-04-19T09:18:50.953Z</time></trkpt><trkpt lat="42.9178483" lon="12.1365917"><ele>624.5</ele><time>2026-04-19T09:18:51.953Z</time></trkpt><trkpt lat="42.9177317" lon="12.13655"><ele>623.0</ele><time>2026-04-19T09:18:52.953Z</time></trkpt><trkpt lat="42.9176183" lon="12.1365067"><ele>621.5</ele><time>2026-04-19T09:18:53.952Z</time></trkpt><trkpt lat="42.9175183" lon="12.1364717"><ele>620.0</ele><time>2026-04-19T09:18:54.953Z</time></trkpt><trkpt lat="42.91741" lon="12.1364417"><ele>618.8333333333333</ele><time>2026-04-19T09:18:55.953Z</time></trkpt><trkpt lat="42.9173083" lon="12.1364133"><ele>617.6666666666666</ele><time>2026-04-19T09:18:56.952Z</time></trkpt><trkpt lat="42.917215" lon="12.1364033"><ele>616.5</ele><time>2026-04-19T09:18:57.953Z</time></trkpt><trkpt lat="42.9171283" lon="12.1364033"><ele>615.3333333333334</ele><time>2026-04-19T09:18:58.952Z</time></trkpt><trkpt lat="42.9170533" lon="12.136395"><ele>614.1666666666667</ele><time>2026-04-19T09:18:59.953Z</time></trkpt><trkpt lat="42.9169867" lon="12.13638"><ele>613.0</ele><time>2026-04-19T09:19:00.953Z</time></trkpt><trkpt lat="42.9168783" lon="12.1363383"><ele>613.0</ele><time>2026-04-19T09:19:02.952Z</time></trkpt><trkpt lat="42.916785" lon="12.1363083"><ele>613.0</ele><time>2026-04-19T09:19:04.953Z</time></trkpt><trkpt lat="42.9167033" lon="12.136305"><ele>613.0</ele><time>2026-04-19T09:19:06.953Z</time></trkpt><trkpt lat="42.9166417" lon="12.1363667"><ele>613.0</ele><time>2026-04-19T09:19:20.953Z</time></trkpt><trkpt lat="42.9167067" lon="12.136515"><ele>613.0</ele><time>2026-04-19T09:19:22.952Z</time></trkpt><trkpt lat="42.916785" lon="12.1366117"><ele>614.3333333333334</ele><time>2026-04-19T09:19:23.953Z</time></trkpt><trkpt lat="42.916895" lon="12.13673"><ele>615.6666666666666</ele><time>2026-04-19T09:19:24.952Z</time></trkpt><trkpt lat="42.917025" lon="12.13687"><ele>617.0</ele><time>2026-04-19T09:19:25.953Z</time></trkpt><trkpt lat="42.9171467" lon="12.137025"><ele>617.0</ele><time>2026-04-19T09:19:26.952Z</time></trkpt><trkpt lat="42.9172567" lon="12.1371683"><ele>617.0</ele><time>2026-04-19T09:19:27.952Z</time></trkpt><trkpt lat="42.917355" lon="12.1372933"><ele>617.0</ele><time>2026-04-19T09:19:28.953Z</time></trkpt><trkpt lat="42.9174283" lon="12.1374167"><ele>617.0</ele><time>2026-04-19T09:19:29.952Z</time></trkpt><trkpt lat="42.917485" lon="12.1375567"><ele>614.75</ele><time>2026-04-19T09:19:30.953Z</time></trkpt><trkpt lat="42.9175117" lon="12.1377067"><ele>612.5</ele><time>2026-04-19T09:19:31.952Z</time></trkpt><trkpt lat="42.917525" lon="12.1378783"><ele>610.25</ele><time>2026-04-19T09:19:32.952Z</time></trkpt><trkpt lat="42.9175217" lon="12.138055"><ele>608.0</ele><time>2026-04-19T09:19:33.952Z</time></trkpt><trkpt lat="42.91752" lon="12.1382317"><ele>607.5</ele><time>2026-04-19T09:19:34.953Z</time></trkpt><trkpt lat="42.9175317" lon="12.1383967"><ele>607.0</ele><time>2026-04-19T09:19:35.952Z</time></trkpt><trkpt lat="42.9175517" lon="12.1385633"><ele>606.5</ele><time>2026-04-19T09:19:36.953Z</time></trkpt><trkpt lat="42.9175833" lon="12.1387083"><ele>606.0</ele><time>2026-04-19T09:19:37.953Z</time></trkpt><trkpt lat="42.91763" lon="12.138845"><ele>606.0</ele><time>2026-04-19T09:19:38.952Z</time></trkpt><trkpt lat="42.9177033" lon="12.1389767"><ele>606.0</ele><time>2026-04-19T09:19:39.952Z</time></trkpt><trkpt lat="42.917795" lon="12.1390867"><ele>606.0</ele><time>2026-04-19T09:19:40.953Z</time></trkpt><trkpt lat="42.9179" lon="12.13917"><ele>606.0</ele><time>2026-04-19T09:19:41.952Z</time></trkpt><trkpt lat="42.91802" lon="12.13922"><ele>601.75</ele><time>2026-04-19T09:19:42.953Z</time></trkpt><trkpt lat="42.918145" lon="12.1392383"><ele>597.5</ele><time>2026-04-19T09:19:43.952Z</time></trkpt><trkpt lat="42.91827" lon="12.1392117"><ele>593.25</ele><time>2026-04-19T09:19:44.953Z</time></trkpt><trkpt lat="42.9183883" lon="12.1391567"><ele>589.0</ele><time>2026-04-19T09:19:45.952Z</time></trkpt><trkpt lat="42.9184933" lon="12.1390817"><ele>592.0</ele><time>2026-04-19T09:19:46.952Z</time></trkpt><trkpt lat="42.918585" lon="12.138975"><ele>595.0</ele><time>2026-04-19T09:19:47.952Z</time></trkpt><trkpt lat="42.9186667" lon="12.1388517"><ele>598.0</ele><time>2026-04-19T09:19:48.953Z</time></trkpt><trkpt lat="42.9187467" lon="12.1387533"><ele>601.0</ele><time>2026-04-19T09:19:49.953Z</time></trkpt><trkpt lat="42.9188267" lon="12.138695"><ele>604.0</ele><time>2026-04-19T09:19:50.952Z</time></trkpt><trkpt lat="42.918905" lon="12.1386817"><ele>604.0</ele><time>2026-04-19T09:19:51.952Z</time></trkpt><trkpt lat="42.9189833" lon="12.138695"><ele>604.0</ele><time>2026-04-19T09:19:52.952Z</time></trkpt><trkpt lat="42.9190717" lon="12.138745"><ele>604.0</ele><time>2026-04-19T09:19:53.952Z</time></trkpt><trkpt lat="42.9191717" lon="12.1388467"><ele>604.0</ele><time>2026-04-19T09:19:54.953Z</time></trkpt><trkpt lat="42.9192833" lon="12.1389883"><ele>602.25</ele><time>2026-04-19T09:19:55.952Z</time></trkpt><trkpt lat="42.9193833" lon="12.1391267"><ele>600.5</ele><time>2026-04-19T09:19:56.952Z</time></trkpt><trkpt lat="42.9194633" lon="12.1392817"><ele>598.75</ele><time>2026-04-19T09:19:57.952Z</time></trkpt><trkpt lat="42.9195233" lon="12.1394433"><ele>597.0</ele><time>2026-04-19T09:19:58.953Z</time></trkpt><trkpt lat="42.9195683" lon="12.1396217"><ele>597.0</ele><time>2026-04-19T09:19:59.952Z</time></trkpt><trkpt lat="42.9196067" lon="12.1398167"><ele>597.0</ele><time>2026-04-19T09:20:00.953Z</time></trkpt><trkpt lat="42.9196417" lon="12.140015"><ele>597.0</ele><time>2026-04-19T09:20:01.952Z</time></trkpt><trkpt lat="42.9196833" lon="12.1402067"><ele>597.0</ele><time>2026-04-19T09:20:02.952Z</time></trkpt><trkpt lat="42.919715" lon="12.1403983"><ele>592.75</ele><time>2026-04-19T09:20:03.952Z</time></trkpt><trkpt lat="42.91974" lon="12.1405783"><ele>588.5</ele><time>2026-04-19T09:20:04.953Z</time></trkpt><trkpt lat="42.9197617" lon="12.1407333"><ele>584.25</ele><time>2026-04-19T09:20:05.953Z</time></trkpt><trkpt lat="42.9197567" lon="12.1408917"><ele>580.0</ele><time>2026-04-19T09:20:06.953Z</time></trkpt><trkpt lat="42.9197183" lon="12.1410283"><ele>578.0</ele><time>2026-04-19T09:20:07.952Z</time></trkpt><trkpt lat="42.919655" lon="12.141175"><ele>576.0</ele><time>2026-04-19T09:20:08.953Z</time></trkpt><trkpt lat="42.9195683" lon="12.14131"><ele>574.0</ele><time>2026-04-19T09:20:09.952Z</time></trkpt><trkpt lat="42.9194733" lon="12.14144"><ele>572.0</ele><time>2026-04-19T09:20:10.953Z</time></trkpt><trkpt lat="42.9193783" lon="12.141545"><ele>569.75</ele><time>2026-04-19T09:20:11.953Z</time></trkpt><trkpt lat="42.91928" lon="12.1416517"><ele>567.5</ele><time>2026-04-19T09:20:12.952Z</time></trkpt><trkpt lat="42.91916" lon="12.1417483"><ele>565.25</ele><time>2026-04-19T09:20:13.953Z</time></trkpt><trkpt lat="42.919015" lon="12.1418367"><ele>563.0</ele><time>2026-04-19T09:20:14.952Z</time></trkpt><trkpt lat="42.9188467" lon="12.141935"><ele>563.0</ele><time>2026-04-19T09:20:15.953Z</time></trkpt><trkpt lat="42.91865" lon="12.1420383"><ele>563.0</ele><time>2026-04-19T09:20:16.953Z</time></trkpt><trkpt lat="42.9184383" lon="12.1421617"><ele>563.0</ele><time>2026-04-19T09:20:17.953Z</time></trkpt><trkpt lat="42.9182383" lon="12.14229"><ele>569.6666666666666</ele><time>2026-04-19T09:20:18.953Z</time></trkpt><trkpt lat="42.9180367" lon="12.1423933"><ele>576.3333333333334</ele><time>2026-04-19T09:20:19.953Z</time></trkpt><trkpt lat="42.9178433" lon="12.142485"><ele>583.0</ele><time>2026-04-19T09:20:20.953Z</time></trkpt><trkpt lat="42.9176783" lon="12.1425783"><ele>580.6666666666667</ele><time>2026-04-19T09:20:21.953Z</time></trkpt><trkpt lat="42.917525" lon="12.142665"><ele>578.3333333333334</ele><time>2026-04-19T09:20:22.953Z</time></trkpt><trkpt lat="42.9173917" lon="12.14275"><ele>576.0</ele><time>2026-04-19T09:20:23.952Z</time></trkpt><trkpt lat="42.9172633" lon="12.1428167"><ele>576.0</ele><time>2026-04-19T09:20:24.952Z</time></trkpt><trkpt lat="42.9171417" lon="12.142875"><ele>576.0</ele><time>2026-04-19T09:20:25.953Z</time></trkpt><trkpt lat="42.917025" lon="12.142895"><ele>576.0</ele><time>2026-04-19T09:20:26.952Z</time></trkpt><trkpt lat="42.9169233" lon="12.1429333"><ele>576.0</ele><time>2026-04-19T09:20:27.952Z</time></trkpt><trkpt lat="42.9168233" lon="12.142985"><ele>573.5</ele><time>2026-04-19T09:20:28.953Z</time></trkpt><trkpt lat="42.91671" lon="12.1430483"><ele>571.0</ele><time>2026-04-19T09:20:29.952Z</time></trkpt><trkpt lat="42.9165883" lon="12.1431067"><ele>568.5</ele><time>2026-04-19T09:20:30.952Z</time></trkpt><trkpt lat="42.9164733" lon="12.1431817"><ele>566.0</ele><time>2026-04-19T09:20:31.953Z</time></trkpt><trkpt lat="42.9163583" lon="12.1432583"><ele>566.5</ele><time>2026-04-19T09:20:32.952Z</time></trkpt><trkpt lat="42.9162383" lon="12.14334"><ele>567.0</ele><time>2026-04-19T09:20:33.953Z</time></trkpt><trkpt lat="42.91612" lon="12.1434467"><ele>567.5</ele><time>2026-04-19T09:20:34.953Z</time></trkpt><trkpt lat="42.91601" lon="12.1435767"><ele>568.0</ele><time>2026-04-19T09:20:35.952Z</time></trkpt><trkpt lat="42.91589" lon="12.1437033"><ele>568.0</ele><time>2026-04-19T09:20:36.953Z</time></trkpt><trkpt lat="42.9157667" lon="12.14382"><ele>568.0</ele><time>2026-04-19T09:20:37.952Z</time></trkpt><trkpt lat="42.9156283" lon="12.1439183"><ele>568.0</ele><time>2026-04-19T09:20:38.953Z</time></trkpt><trkpt lat="42.915475" lon="12.14399"><ele>567.0</ele><time>2026-04-19T09:20:39.953Z</time></trkpt><trkpt lat="42.9153" lon="12.14406"><ele>566.0</ele><time>2026-04-19T09:20:40.953Z</time></trkpt><trkpt lat="42.9151283" lon="12.1441283"><ele>565.0</ele><time>2026-04-19T09:20:41.953Z</time></trkpt><trkpt lat="42.91496" lon="12.1441983"><ele>565.0</ele><time>2026-04-19T09:20:42.952Z</time></trkpt><trkpt lat="42.9147933" lon="12.1442767"><ele>565.0</ele><time>2026-04-19T09:20:43.953Z</time></trkpt><trkpt lat="42.914635" lon="12.1443633"><ele>565.0</ele><time>2026-04-19T09:20:44.953Z</time></trkpt><trkpt lat="42.91449" lon="12.144445"><ele>565.0</ele><time>2026-04-19T09:20:45.952Z</time></trkpt><trkpt lat="42.9143583" lon="12.144525"><ele>565.0</ele><time>2026-04-19T09:20:46.952Z</time></trkpt><trkpt lat="42.91424" lon="12.1446067"><ele>565.0</ele><time>2026-04-19T09:20:47.952Z</time></trkpt><trkpt lat="42.914125" lon="12.1447217"><ele>565.0</ele><time>2026-04-19T09:20:48.953Z</time></trkpt><trkpt lat="42.9140267" lon="12.14487"><ele>563.6</ele><time>2026-04-19T09:20:49.953Z</time></trkpt><trkpt lat="42.9139483" lon="12.145005"><ele>562.2</ele><time>2026-04-19T09:20:50.953Z</time></trkpt><trkpt lat="42.9138967" lon="12.145125"><ele>560.8</ele><time>2026-04-19T09:20:51.953Z</time></trkpt><trkpt lat="42.9138733" lon="12.145235"><ele>559.4</ele><time>2026-04-19T09:20:52.953Z</time></trkpt><trkpt lat="42.9138717" lon="12.1453517"><ele>558.0</ele><time>2026-04-19T09:20:53.953Z</time></trkpt><trkpt lat="42.9138983" lon="12.1454633"><ele>558.0</ele><time>2026-04-19T09:20:54.952Z</time></trkpt><trkpt lat="42.9139483" lon="12.14557"><ele>558.0</ele><time>2026-04-19T09:20:55.953Z</time></trkpt><trkpt lat="42.91403" lon="12.145655"><ele>558.0</ele><time>2026-04-19T09:20:56.952Z</time></trkpt><trkpt lat="42.9141383" lon="12.1457267"><ele>558.0</ele><time>2026-04-19T09:20:57.952Z</time></trkpt><trkpt lat="42.91426" lon="12.1457933"><ele>558.0</ele><time>2026-04-19T09:20:58.953Z</time></trkpt><trkpt lat="42.9143817" lon="12.1458617"><ele>556.25</ele><time>2026-04-19T09:20:59.953Z</time></trkpt><trkpt lat="42.9145083" lon="12.1459267"><ele>554.5</ele><time>2026-04-19T09:21:00.953Z</time></trkpt><trkpt lat="42.9146367" lon="12.1460083"><ele>552.75</ele><time>2026-04-19T09:21:01.953Z</time></trkpt><trkpt lat="42.9147567" lon="12.1460617"><ele>551.0</ele><time>2026-04-19T09:21:02.953Z</time></trkpt><trkpt lat="42.9148467" lon="12.1461117"><ele>551.0</ele><time>2026-04-19T09:21:03.953Z</time></trkpt><trkpt lat="42.9149133" lon="12.1461517"><ele>551.0</ele><time>2026-04-19T09:21:04.953Z</time></trkpt><trkpt lat="42.9149983" lon="12.1462033"><ele>551.0</ele><time>2026-04-19T09:21:06.953Z</time></trkpt><trkpt lat="42.9149283" lon="12.14611"><ele>551.0</ele><time>2026-04-19T09:21:16.953Z</time></trkpt><trkpt lat="42.91485" lon="12.1460733"><ele>551.0</ele><time>2026-04-19T09:21:17.952Z</time></trkpt><trkpt lat="42.91476" lon="12.1460317"><ele>551.0</ele><time>2026-04-19T09:21:18.952Z</time></trkpt><trkpt lat="42.9146417" lon="12.145975"><ele>551.0</ele><time>2026-04-19T09:21:19.952Z</time></trkpt><trkpt lat="42.9145" lon="12.14591"><ele>551.0</ele><time>2026-04-19T09:21:20.953Z</time></trkpt><trkpt lat="42.91433" lon="12.14582"><ele>551.0</ele><time>2026-04-19T09:21:21.952Z</time></trkpt><trkpt lat="42.9141867" lon="12.145735"><ele>552.4</ele><time>2026-04-19T09:21:22.952Z</time></trkpt><trkpt lat="42.91407" lon="12.1456433"><ele>553.8</ele><time>2026-04-19T09:21:23.952Z</time></trkpt><trkpt lat="42.9139883" lon="12.1455533"><ele>555.1999999999999</ele><time>2026-04-19T09:21:24.953Z</time></trkpt><trkpt lat="42.9139317" lon="12.145475"><ele>556.6</ele><time>2026-04-19T09:21:25.953Z</time></trkpt><trkpt lat="42.9139067" lon="12.1453767"><ele>558.0</ele><time>2026-04-19T09:21:26.953Z</time></trkpt><trkpt lat="42.9138983" lon="12.1452733"><ele>558.0</ele><time>2026-04-19T09:21:27.953Z</time></trkpt><trkpt lat="42.9139133" lon="12.1451767"><ele>558.0</ele><time>2026-04-19T09:21:28.952Z</time></trkpt><trkpt lat="42.9139433" lon="12.14508"><ele>558.0</ele><time>2026-04-19T09:21:29.953Z</time></trkpt><trkpt lat="42.9139817" lon="12.145"><ele>558.0</ele><time>2026-04-19T09:21:30.953Z</time></trkpt><trkpt lat="42.9140283" lon="12.1449333"><ele>558.0</ele><time>2026-04-19T09:21:31.952Z</time></trkpt><trkpt lat="42.9140933" lon="12.1448367"><ele>558.0</ele><time>2026-04-19T09:21:33.953Z</time></trkpt><trkpt lat="42.914025" lon="12.1447917"><ele>558.0</ele><time>2026-04-19T09:21:37.952Z</time></trkpt><trkpt lat="42.9138917" lon="12.1448383"><ele>558.0</ele><time>2026-04-19T09:21:39.953Z</time></trkpt><trkpt lat="42.9138117" lon="12.144865"><ele>558.0</ele><time>2026-04-19T09:21:40.952Z</time></trkpt><trkpt lat="42.9137417" lon="12.1448767"><ele>558.0</ele><time>2026-04-19T09:21:41.952Z</time></trkpt><trkpt lat="42.913635" lon="12.1449083"><ele>558.0</ele><time>2026-04-19T09:21:43.952Z</time></trkpt><trkpt lat="42.9135717" lon="12.144925"><ele>558.0</ele><time>2026-04-19T09:21:45.952Z</time></trkpt><trkpt lat="42.9135017" lon="12.1449983"><ele>558.0</ele><time>2026-04-19T09:21:48.952Z</time></trkpt><trkpt lat="42.9134783" lon="12.1450783"><ele>558.0</ele><time>2026-04-19T09:21:49.953Z</time></trkpt><trkpt lat="42.9134533" lon="12.1451983"><ele>558.0</ele><time>2026-04-19T09:21:50.953Z</time></trkpt><trkpt lat="42.91342" lon="12.1453283"><ele>558.0</ele><time>2026-04-19T09:21:51.953Z</time></trkpt><trkpt lat="42.913375" lon="12.145465"><ele>555.5</ele><time>2026-04-19T09:21:52.953Z</time></trkpt><trkpt lat="42.913335" lon="12.1456017"><ele>553.0</ele><time>2026-04-19T09:21:53.952Z</time></trkpt><trkpt lat="42.9132917" lon="12.1457183"><ele>550.5</ele><time>2026-04-19T09:21:54.953Z</time></trkpt><trkpt lat="42.9132533" lon="12.1458217"><ele>548.0</ele><time>2026-04-19T09:21:55.952Z</time></trkpt><trkpt lat="42.9132083" lon="12.1459117"><ele>545.5</ele><time>2026-04-19T09:21:56.952Z</time></trkpt><trkpt lat="42.9131733" lon="12.1460033"><ele>543.0</ele><time>2026-04-19T09:21:57.952Z</time></trkpt><trkpt lat="42.9131383" lon="12.14609"><ele>542.0</ele><time>2026-04-19T09:21:58.952Z</time></trkpt><trkpt lat="42.9131017" lon="12.1461817"><ele>541.0</ele><time>2026-04-19T09:21:59.952Z</time></trkpt><trkpt lat="42.9130717" lon="12.1462767"><ele>540.0</ele><time>2026-04-19T09:22:00.951Z</time></trkpt><trkpt lat="42.9130433" lon="12.1463767"><ele>539.0</ele><time>2026-04-19T09:22:01.952Z</time></trkpt><trkpt lat="42.913005" lon="12.1464767"><ele>538.0</ele><time>2026-04-19T09:22:02.952Z</time></trkpt><trkpt lat="42.912965" lon="12.14657"><ele>537.0</ele><time>2026-04-19T09:22:03.951Z</time></trkpt><trkpt lat="42.9129217" lon="12.1466567"><ele>535.0</ele><time>2026-04-19T09:22:04.952Z</time></trkpt><trkpt lat="42.9128733" lon="12.1467433"><ele>533.0</ele><time>2026-04-19T09:22:05.951Z</time></trkpt><trkpt lat="42.9128417" lon="12.1468183"><ele>531.0</ele><time>2026-04-19T09:22:06.951Z</time></trkpt><trkpt lat="42.91279" lon="12.1469433"><ele>529.0</ele><time>2026-04-19T09:22:08.951Z</time></trkpt><trkpt lat="42.9127817" lon="12.1470917"><ele>527.0</ele><time>2026-04-19T09:22:10.952Z</time></trkpt><trkpt lat="42.9127717" lon="12.1471967"><ele>525.0</ele><time>2026-04-19T09:22:11.952Z</time></trkpt><trkpt lat="42.912755" lon="12.1472983"><ele>522.5</ele><time>2026-04-19T09:22:12.951Z</time></trkpt><trkpt lat="42.9127317" lon="12.14739"><ele>520.0</ele><time>2026-04-19T09:22:13.951Z</time></trkpt><trkpt lat="42.9127117" lon="12.1474933"><ele>517.5</ele><time>2026-04-19T09:22:14.952Z</time></trkpt><trkpt lat="42.9126967" lon="12.1475917"><ele>515.0</ele><time>2026-04-19T09:22:15.951Z</time></trkpt><trkpt lat="42.912685" lon="12.1476783"><ele>512.5</ele><time>2026-04-19T09:22:16.951Z</time></trkpt><trkpt lat="42.912655" lon="12.1478267"><ele>510.0</ele><time>2026-04-19T09:22:18.951Z</time></trkpt><trkpt lat="42.91265" lon="12.14792"><ele>510.0</ele><time>2026-04-19T09:22:20.952Z</time></trkpt><trkpt lat="42.9125867" lon="12.1480467"><ele>510.0</ele><time>2026-04-19T09:22:23.952Z</time></trkpt><trkpt lat="42.91252" lon="12.14811"><ele>510.0</ele><time>2026-04-19T09:22:24.952Z</time></trkpt><trkpt lat="42.9124233" lon="12.1482017"><ele>510.0</ele><time>2026-04-19T09:22:25.951Z</time></trkpt><trkpt lat="42.9123017" lon="12.1483233"><ele>505.33333333333337</ele><time>2026-04-19T09:22:26.951Z</time></trkpt><trkpt lat="42.9121617" lon="12.1484583"><ele>500.6666666666667</ele><time>2026-04-19T09:22:27.952Z</time></trkpt><trkpt lat="42.9120333" lon="12.1486083"><ele>496.0</ele><time>2026-04-19T09:22:28.952Z</time></trkpt><trkpt lat="42.9119183" lon="12.1487583"><ele>496.0</ele><time>2026-04-19T09:22:29.952Z</time></trkpt><trkpt lat="42.9118317" lon="12.148925"><ele>496.0</ele><time>2026-04-19T09:22:30.951Z</time></trkpt><trkpt lat="42.9117617" lon="12.1490917"><ele>496.0</ele><time>2026-04-19T09:22:31.951Z</time></trkpt><trkpt lat="42.9117067" lon="12.1492317"><ele>496.0</ele><time>2026-04-19T09:22:32.952Z</time></trkpt><trkpt lat="42.911675" lon="12.14935"><ele>494.50000000000006</ele><time>2026-04-19T09:22:33.952Z</time></trkpt><trkpt lat="42.91165" lon="12.149455"><ele>493.0</ele><time>2026-04-19T09:22:34.952Z</time></trkpt><trkpt lat="42.9116017" lon="12.1495533"><ele>491.5</ele><time>2026-04-19T09:22:36.951Z</time></trkpt><trkpt lat="42.911505" lon="12.1496117"><ele>490.0</ele><time>2026-04-19T09:22:38.952Z</time></trkpt><trkpt lat="42.9114317" lon="12.1496317"><ele>488.50000000000006</ele><time>2026-04-19T09:22:39.952Z</time></trkpt><trkpt lat="42.9113467" lon="12.1496617"><ele>487.0</ele><time>2026-04-19T09:22:40.952Z</time></trkpt><trkpt lat="42.9112633" lon="12.1496917"><ele>487.00000000000006</ele><time>2026-04-19T09:22:41.951Z</time></trkpt><trkpt lat="42.9111833" lon="12.1497217"><ele>487.0</ele><time>2026-04-19T09:22:42.951Z</time></trkpt><trkpt lat="42.9111083" lon="12.1497383"><ele>487.0</ele><time>2026-04-19T09:22:43.952Z</time></trkpt><trkpt lat="42.9110367" lon="12.1497583"><ele>487.0</ele><time>2026-04-19T09:22:44.952Z</time></trkpt><trkpt lat="42.9109667" lon="12.149775"><ele>487.00000000000006</ele><time>2026-04-19T09:22:45.951Z</time></trkpt><trkpt lat="42.9109017" lon="12.1498017"><ele>487.0</ele><time>2026-04-19T09:22:46.952Z</time></trkpt><trkpt lat="42.9108067" lon="12.149885"><ele>485.6</ele><time>2026-04-19T09:22:48.952Z</time></trkpt><trkpt lat="42.9107467" lon="12.1499883"><ele>484.20000000000005</ele><time>2026-04-19T09:22:50.952Z</time></trkpt><trkpt lat="42.910685" lon="12.1500367"><ele>482.8</ele><time>2026-04-19T09:22:52.952Z</time></trkpt><trkpt lat="42.910625" lon="12.1499733"><ele>481.4</ele><time>2026-04-19T09:22:54.951Z</time></trkpt><trkpt lat="42.9105817" lon="12.149805"><ele>480.0</ele><time>2026-04-19T09:22:56.951Z</time></trkpt><trkpt lat="42.91056" lon="12.1496783"><ele>479.6666666666667</ele><time>2026-04-19T09:22:57.952Z</time></trkpt><trkpt lat="42.91055" lon="12.149555"><ele>479.33333333333337</ele><time>2026-04-19T09:22:58.952Z</time></trkpt><trkpt lat="42.9105517" lon="12.1494383"><ele>479.0</ele><time>2026-04-19T09:22:59.952Z</time></trkpt><trkpt lat="42.9105733" lon="12.1493233"><ele>478.6666666666667</ele><time>2026-04-19T09:23:00.952Z</time></trkpt><trkpt lat="42.9106017" lon="12.14922"><ele>478.33333333333337</ele><time>2026-04-19T09:23:01.951Z</time></trkpt><trkpt lat="42.910615" lon="12.1491317"><ele>478.0</ele><time>2026-04-19T09:23:02.952Z</time></trkpt><trkpt lat="42.9105983" lon="12.1490133"><ele>478.0</ele><time>2026-04-19T09:23:04.951Z</time></trkpt><trkpt lat="42.9105183" lon="12.14899"><ele>477.99999999999994</ele><time>2026-04-19T09:23:06.951Z</time></trkpt><trkpt lat="42.910385" lon="12.1490383"><ele>477.99999999999994</ele><time>2026-04-19T09:23:08.952Z</time></trkpt><trkpt lat="42.9103233" lon="12.1490633"><ele>478.0</ele><time>2026-04-19T09:23:09.952Z</time></trkpt><trkpt lat="42.910235" lon="12.149055"><ele>478.0</ele><time>2026-04-19T09:23:11.951Z</time></trkpt><trkpt lat="42.9101767" lon="12.1489583"><ele>477.6666666666667</ele><time>2026-04-19T09:23:13.951Z</time></trkpt><trkpt lat="42.9101617" lon="12.14887"><ele>477.33333333333337</ele><time>2026-04-19T09:23:14.951Z</time></trkpt><trkpt lat="42.9101633" lon="12.148765"><ele>477.0</ele><time>2026-04-19T09:23:15.952Z</time></trkpt><trkpt lat="42.9101717" lon="12.1486583"><ele>476.66666666666663</ele><time>2026-04-19T09:23:16.952Z</time></trkpt><trkpt lat="42.910175" lon="12.1485683"><ele>476.3333333333333</ele><time>2026-04-19T09:23:17.952Z</time></trkpt><trkpt lat="42.9101317" lon="12.1484167"><ele>476.0</ele><time>2026-04-19T09:23:19.952Z</time></trkpt><trkpt lat="42.9100417" lon="12.148315"><ele>473.8</ele><time>2026-04-19T09:23:21.952Z</time></trkpt><trkpt lat="42.909915" lon="12.1483117"><ele>471.6</ele><time>2026-04-19T09:23:23.952Z</time></trkpt><trkpt lat="42.90982" lon="12.148315"><ele>469.4</ele><time>2026-04-19T09:23:24.951Z</time></trkpt><trkpt lat="42.90972" lon="12.1483267"><ele>467.2</ele><time>2026-04-19T09:23:25.951Z</time></trkpt><trkpt lat="42.9096167" lon="12.1483317"><ele>465.0</ele><time>2026-04-19T09:23:26.951Z</time></trkpt><trkpt lat="42.9094983" lon="12.1483233"><ele>465.0</ele><time>2026-04-19T09:23:27.951Z</time></trkpt><trkpt lat="42.9093733" lon="12.1483133"><ele>465.0</ele><time>2026-04-19T09:23:28.951Z</time></trkpt><trkpt lat="42.9092633" lon="12.1483083"><ele>465.0</ele><time>2026-04-19T09:23:29.952Z</time></trkpt><trkpt lat="42.9091867" lon="12.1483133"><ele>465.0</ele><time>2026-04-19T09:23:30.951Z</time></trkpt><trkpt lat="42.9090833" lon="12.1483733"><ele>465.0</ele><time>2026-04-19T09:23:32.951Z</time></trkpt><trkpt lat="42.909025" lon="12.1484483"><ele>466.8</ele><time>2026-04-19T09:23:33.951Z</time></trkpt><trkpt lat="42.908965" lon="12.1485533"><ele>468.6</ele><time>2026-04-19T09:23:34.952Z</time></trkpt><trkpt lat="42.9089083" lon="12.14868"><ele>470.4</ele><time>2026-04-19T09:23:35.952Z</time></trkpt><trkpt lat="42.9088633" lon="12.1488017"><ele>472.2</ele><time>2026-04-19T09:23:36.951Z</time></trkpt><trkpt lat="42.90882" lon="12.14891"><ele>474.0</ele><time>2026-04-19T09:23:37.951Z</time></trkpt><trkpt lat="42.9087783" lon="12.1489817"><ele>474.2</ele><time>2026-04-19T09:23:38.952Z</time></trkpt><trkpt lat="42.9086717" lon="12.1490867"><ele>474.4</ele><time>2026-04-19T09:23:40.952Z</time></trkpt><trkpt lat="42.908585" lon="12.1491367"><ele>474.6</ele><time>2026-04-19T09:23:41.951Z</time></trkpt><trkpt lat="42.9084733" lon="12.14917"><ele>474.8</ele><time>2026-04-19T09:23:42.951Z</time></trkpt><trkpt lat="42.9083717" lon="12.1491967"><ele>475.0</ele><time>2026-04-19T09:23:43.951Z</time></trkpt><trkpt lat="42.9082767" lon="12.14922"><ele>475.0</ele><time>2026-04-19T09:23:44.952Z</time></trkpt><trkpt lat="42.9081767" lon="12.14923"><ele>475.0</ele><time>2026-04-19T09:23:45.952Z</time></trkpt><trkpt lat="42.9080767" lon="12.1492617"><ele>475.0</ele><time>2026-04-19T09:23:46.951Z</time></trkpt><trkpt lat="42.9079817" lon="12.1493133"><ele>475.0</ele><time>2026-04-19T09:23:47.952Z</time></trkpt><trkpt lat="42.907895" lon="12.1493717"><ele>475.0</ele><time>2026-04-19T09:23:48.951Z</time></trkpt><trkpt lat="42.9078267" lon="12.1494333"><ele>475.0</ele><time>2026-04-19T09:23:49.951Z</time></trkpt><trkpt lat="42.9077717" lon="12.1494933"><ele>475.0</ele><time>2026-04-19T09:23:50.952Z</time></trkpt><trkpt lat="42.9077217" lon="12.149645"><ele>475.0</ele><time>2026-04-19T09:23:52.951Z</time></trkpt><trkpt lat="42.9077133" lon="12.1497717"><ele>475.0</ele><time>2026-04-19T09:23:53.952Z</time></trkpt><trkpt lat="42.9076983" lon="12.1499217"><ele>475.0</ele><time>2026-04-19T09:23:54.952Z</time></trkpt><trkpt lat="42.907695" lon="12.1500517"><ele>475.00000000000006</ele><time>2026-04-19T09:23:55.952Z</time></trkpt><trkpt lat="42.9076733" lon="12.15014"><ele>475.0</ele><time>2026-04-19T09:23:56.952Z</time></trkpt><trkpt lat="42.907635" lon="12.1502183"><ele>475.0</ele><time>2026-04-19T09:23:57.951Z</time></trkpt><trkpt lat="42.9075733" lon="12.150285"><ele>475.0</ele><time>2026-04-19T09:23:58.952Z</time></trkpt><trkpt lat="42.907495" lon="12.1503483"><ele>475.00000000000006</ele><time>2026-04-19T09:23:59.952Z</time></trkpt><trkpt lat="42.9074" lon="12.1504067"><ele>475.0</ele><time>2026-04-19T09:24:00.951Z</time></trkpt><trkpt lat="42.9072883" lon="12.150465"><ele>475.0</ele><time>2026-04-19T09:24:01.951Z</time></trkpt><trkpt lat="42.9071633" lon="12.1505217"><ele>475.0</ele><time>2026-04-19T09:24:02.952Z</time></trkpt><trkpt lat="42.9070567" lon="12.150595"><ele>475.0</ele><time>2026-04-19T09:24:03.952Z</time></trkpt><trkpt lat="42.906955" lon="12.15067"><ele>475.0</ele><time>2026-04-19T09:24:04.951Z</time></trkpt><trkpt lat="42.906875" lon="12.1507467"><ele>474.0</ele><time>2026-04-19T09:24:05.952Z</time></trkpt><trkpt lat="42.9067967" lon="12.15081"><ele>473.0</ele><time>2026-04-19T09:24:06.952Z</time></trkpt><trkpt lat="42.9067167" lon="12.1508683"><ele>472.0</ele><time>2026-04-19T09:24:07.952Z</time></trkpt><trkpt lat="42.9066083" lon="12.1509167"><ele>471.0</ele><time>2026-04-19T09:24:08.952Z</time></trkpt><trkpt lat="42.9064833" lon="12.1509733"><ele>470.0</ele><time>2026-04-19T09:24:09.952Z</time></trkpt><trkpt lat="42.906365" lon="12.151035"><ele>470.0</ele><time>2026-04-19T09:24:10.952Z</time></trkpt><trkpt lat="42.9062667" lon="12.1510933"><ele>470.0</ele><time>2026-04-19T09:24:11.951Z</time></trkpt><trkpt lat="42.90618" lon="12.151165"><ele>470.0</ele><time>2026-04-19T09:24:12.952Z</time></trkpt><trkpt lat="42.9061033" lon="12.151215"><ele>470.0</ele><time>2026-04-19T09:24:13.952Z</time></trkpt><trkpt lat="42.9060117" lon="12.151255"><ele>470.0</ele><time>2026-04-19T09:24:14.952Z</time></trkpt><trkpt lat="42.9059217" lon="12.1512733"><ele>468.6</ele><time>2026-04-19T09:24:15.952Z</time></trkpt><trkpt lat="42.905835" lon="12.1513017"><ele>467.2</ele><time>2026-04-19T09:24:16.951Z</time></trkpt><trkpt lat="42.905745" lon="12.1513467"><ele>465.79999999999995</ele><time>2026-04-19T09:24:17.951Z</time></trkpt><trkpt lat="42.9056517" lon="12.1514133"><ele>464.4</ele><time>2026-04-19T09:24:18.952Z</time></trkpt><trkpt lat="42.905565" lon="12.1515"><ele>463.0</ele><time>2026-04-19T09:24:19.952Z</time></trkpt><trkpt lat="42.9054817" lon="12.1515883"><ele>463.0</ele><time>2026-04-19T09:24:20.952Z</time></trkpt><trkpt lat="42.9054117" lon="12.1516683"><ele>462.99999999999994</ele><time>2026-04-19T09:24:21.952Z</time></trkpt><trkpt lat="42.905335" lon="12.151725"><ele>462.99999999999994</ele><time>2026-04-19T09:24:22.952Z</time></trkpt><trkpt lat="42.90526" lon="12.1517583"><ele>463.0</ele><time>2026-04-19T09:24:23.951Z</time></trkpt><trkpt lat="42.905175" lon="12.1517883"><ele>463.0</ele><time>2026-04-19T09:24:24.951Z</time></trkpt><trkpt lat="42.9050667" lon="12.1518217"><ele>464.75</ele><time>2026-04-19T09:24:25.952Z</time></trkpt><trkpt lat="42.9049433" lon="12.151855"><ele>466.5</ele><time>2026-04-19T09:24:26.951Z</time></trkpt><trkpt lat="42.9048017" lon="12.1518933"><ele>468.25</ele><time>2026-04-19T09:24:27.952Z</time></trkpt><trkpt lat="42.9046717" lon="12.1519283"><ele>470.0</ele><time>2026-04-19T09:24:28.952Z</time></trkpt><trkpt lat="42.90456" lon="12.151955"><ele>469.99999999999994</ele><time>2026-04-19T09:24:29.952Z</time></trkpt><trkpt lat="42.90447" lon="12.1519883"><ele>470.0</ele><time>2026-04-19T09:24:30.952Z</time></trkpt><trkpt lat="42.9043783" lon="12.15201"><ele>470.0</ele><time>2026-04-19T09:24:31.952Z</time></trkpt><trkpt lat="42.9042917" lon="12.1520083"><ele>470.0</ele><time>2026-04-19T09:24:32.951Z</time></trkpt><trkpt lat="42.9042067" lon="12.1520183"><ele>469.99999999999994</ele><time>2026-04-19T09:24:33.952Z</time></trkpt><trkpt lat="42.9041433" lon="12.1520267"><ele>470.0</ele><time>2026-04-19T09:24:34.951Z</time></trkpt><trkpt lat="42.90404" lon="12.15213"><ele>469.66666666666663</ele><time>2026-04-19T09:24:36.951Z</time></trkpt><trkpt lat="42.9039867" lon="12.152205"><ele>469.3333333333333</ele><time>2026-04-19T09:24:37.952Z</time></trkpt><trkpt lat="42.9039333" lon="12.15227"><ele>469.0</ele><time>2026-04-19T09:24:38.951Z</time></trkpt><trkpt lat="42.903875" lon="12.1523317"><ele>468.66666666666663</ele><time>2026-04-19T09:24:39.951Z</time></trkpt><trkpt lat="42.9038017" lon="12.1523967"><ele>468.3333333333333</ele><time>2026-04-19T09:24:40.952Z</time></trkpt><trkpt lat="42.9037133" lon="12.1524783"><ele>468.0</ele><time>2026-04-19T09:24:41.952Z</time></trkpt><trkpt lat="42.9036217" lon="12.1525483"><ele>468.0</ele><time>2026-04-19T09:24:42.951Z</time></trkpt><trkpt lat="42.9035367" lon="12.1526083"><ele>468.0</ele><time>2026-04-19T09:24:43.951Z</time></trkpt><trkpt lat="42.90345" lon="12.1526417"><ele>468.0</ele><time>2026-04-19T09:24:44.952Z</time></trkpt><trkpt lat="42.90336" lon="12.152665"><ele>468.0</ele><time>2026-04-19T09:24:45.951Z</time></trkpt><trkpt lat="42.9032783" lon="12.152685"><ele>468.0</ele><time>2026-04-19T09:24:46.951Z</time></trkpt><trkpt lat="42.9032" lon="12.1527067"><ele>468.0</ele><time>2026-04-19T09:24:47.952Z</time></trkpt><trkpt lat="42.9031267" lon="12.15274"><ele>468.0</ele><time>2026-04-19T09:24:48.952Z</time></trkpt><trkpt lat="42.903065" lon="12.1527733"><ele>467.99999999999994</ele><time>2026-04-19T09:24:49.951Z</time></trkpt><trkpt lat="42.9029633" lon="12.152805"><ele>467.99999999999994</ele><time>2026-04-19T09:24:51.952Z</time></trkpt><trkpt lat="42.902865" lon="12.1527733"><ele>468.0</ele><time>2026-04-19T09:24:53.951Z</time></trkpt><trkpt lat="42.90278" lon="12.1526967"><ele>468.0</ele><time>2026-04-19T09:24:55.952Z</time></trkpt><trkpt lat="42.9027333" lon="12.1525333"><ele>468.0</ele><time>2026-04-19T09:24:57.951Z</time></trkpt><trkpt lat="42.9027317" lon="12.15244"><ele>468.0</ele><time>2026-04-19T09:24:58.952Z</time></trkpt><trkpt lat="42.9027417" lon="12.1523467"><ele>468.0</ele><time>2026-04-19T09:24:59.951Z</time></trkpt><trkpt lat="42.9027733" lon="12.1522283"><ele>468.0</ele><time>2026-04-19T09:25:00.952Z</time></trkpt><trkpt lat="42.90282" lon="12.15211"><ele>468.0</ele><time>2026-04-19T09:25:01.952Z</time></trkpt><trkpt lat="42.90286" lon="12.152"><ele>468.0</ele><time>2026-04-19T09:25:02.952Z</time></trkpt><trkpt lat="42.902885" lon="12.151895"><ele>468.0</ele><time>2026-04-19T09:25:03.952Z</time></trkpt><trkpt lat="42.9028967" lon="12.1517967"><ele>467.99999999999994</ele><time>2026-04-19T09:25:04.951Z</time></trkpt><trkpt lat="42.902885" lon="12.1516617"><ele>467.99999999999994</ele><time>2026-04-19T09:25:06.952Z</time></trkpt><trkpt lat="42.9028317" lon="12.1515167"><ele>468.0</ele><time>2026-04-19T09:25:08.952Z</time></trkpt><trkpt lat="42.90277" lon="12.1514267"><ele>468.0</ele><time>2026-04-19T09:25:09.951Z</time></trkpt><trkpt lat="42.9027033" lon="12.1513267"><ele>468.4</ele><time>2026-04-19T09:25:10.952Z</time></trkpt><trkpt lat="42.902655" lon="12.1512367"><ele>468.79999999999995</ele><time>2026-04-19T09:25:11.952Z</time></trkpt><trkpt lat="42.90261" lon="12.1511633"><ele>469.2</ele><time>2026-04-19T09:25:12.952Z</time></trkpt><trkpt lat="42.9025133" lon="12.1510667"><ele>469.6</ele><time>2026-04-19T09:25:14.952Z</time></trkpt><trkpt lat="42.9023967" lon="12.15103"><ele>470.0</ele><time>2026-04-19T09:25:16.952Z</time></trkpt><trkpt lat="42.902325" lon="12.1510417"><ele>467.6</ele><time>2026-04-19T09:25:17.951Z</time></trkpt><trkpt lat="42.9022467" lon="12.15106"><ele>465.2</ele><time>2026-04-19T09:25:18.952Z</time></trkpt><trkpt lat="42.9021833" lon="12.151065"><ele>462.79999999999995</ele><time>2026-04-19T09:25:19.952Z</time></trkpt><trkpt lat="42.9020867" lon="12.151025"><ele>460.4</ele><time>2026-04-19T09:25:21.951Z</time></trkpt><trkpt lat="42.902035" lon="12.1509233"><ele>458.0</ele><time>2026-04-19T09:25:23.952Z</time></trkpt><trkpt lat="42.9019833" lon="12.150735"><ele>458.79999999999995</ele><time>2026-04-19T09:25:25.952Z</time></trkpt><trkpt lat="42.9019433" lon="12.1505983"><ele>459.59999999999997</ele><time>2026-04-19T09:25:26.951Z</time></trkpt><trkpt lat="42.901885" lon="12.150455"><ele>460.40000000000003</ele><time>2026-04-19T09:25:27.952Z</time></trkpt><trkpt lat="42.901835" lon="12.1503233"><ele>461.20000000000005</ele><time>2026-04-19T09:25:28.952Z</time></trkpt><trkpt lat="42.9017933" lon="12.150215"><ele>462.0</ele><time>2026-04-19T09:25:29.952Z</time></trkpt><trkpt lat="42.9017583" lon="12.150125"><ele>459.6</ele><time>2026-04-19T09:25:30.952Z</time></trkpt><trkpt lat="42.901715" lon="12.1500533"><ele>457.20000000000005</ele><time>2026-04-19T09:25:31.952Z</time></trkpt><trkpt lat="42.901635" lon="12.1499967"><ele>454.8</ele><time>2026-04-19T09:25:33.952Z</time></trkpt><trkpt lat="42.901545" lon="12.1500567"><ele>452.4</ele><time>2026-04-19T09:25:35.951Z</time></trkpt><trkpt lat="42.9014983" lon="12.1502067"><ele>450.0</ele><time>2026-04-19T09:25:37.951Z</time></trkpt><trkpt lat="42.9014883" lon="12.150315"><ele>450.00000000000006</ele><time>2026-04-19T09:25:38.952Z</time></trkpt><trkpt lat="42.9014717" lon="12.1504283"><ele>450.0</ele><time>2026-04-19T09:25:39.952Z</time></trkpt><trkpt lat="42.901435" lon="12.1505167"><ele>450.00000000000006</ele><time>2026-04-19T09:25:40.951Z</time></trkpt><trkpt lat="42.90139" lon="12.1505883"><ele>450.00000000000006</ele><time>2026-04-19T09:25:41.952Z</time></trkpt><trkpt lat="42.9013217" lon="12.1506367"><ele>450.0</ele><time>2026-04-19T09:25:42.951Z</time></trkpt><trkpt lat="42.9012533" lon="12.150675"><ele>450.00000000000006</ele><time>2026-04-19T09:25:43.952Z</time></trkpt><trkpt lat="42.9011867" lon="12.150695"><ele>450.00000000000006</ele><time>2026-04-19T09:25:44.951Z</time></trkpt><trkpt lat="42.9011233" lon="12.1506883"><ele>450.0</ele><time>2026-04-19T09:25:45.951Z</time></trkpt><trkpt lat="42.90106" lon="12.150685"><ele>450.0</ele><time>2026-04-19T09:25:46.951Z</time></trkpt><trkpt lat="42.90098" lon="12.150745"><ele>450.0</ele><time>2026-04-19T09:25:48.951Z</time></trkpt><trkpt lat="42.9009083" lon="12.1509117"><ele>450.0</ele><time>2026-04-19T09:25:50.952Z</time></trkpt><trkpt lat="42.9008483" lon="12.1510067"><ele>450.0</ele><time>2026-04-19T09:25:51.951Z</time></trkpt><trkpt lat="42.9007717" lon="12.1511"><ele>450.8</ele><time>2026-04-19T09:25:52.951Z</time></trkpt><trkpt lat="42.900695" lon="12.1511783"><ele>451.6</ele><time>2026-04-19T09:25:53.952Z</time></trkpt><trkpt lat="42.9006083" lon="12.15125"><ele>452.4</ele><time>2026-04-19T09:25:54.951Z</time></trkpt><trkpt lat="42.900525" lon="12.1513017"><ele>453.2</ele><time>2026-04-19T09:25:55.952Z</time></trkpt><trkpt lat="42.9004383" lon="12.1513467"><ele>454.0</ele><time>2026-04-19T09:25:56.952Z</time></trkpt><trkpt lat="42.9003683" lon="12.1513833"><ele>454.0</ele><time>2026-04-19T09:25:57.952Z</time></trkpt><trkpt lat="42.9002983" lon="12.1514083"><ele>454.0</ele><time>2026-04-19T09:25:58.952Z</time></trkpt><trkpt lat="42.90022" lon="12.1513933"><ele>454.0</ele><time>2026-04-19T09:25:59.951Z</time></trkpt><trkpt lat="42.900125" lon="12.1513517"><ele>454.0</ele><time>2026-04-19T09:26:00.952Z</time></trkpt><trkpt lat="42.90002" lon="12.1513"><ele>454.0</ele><time>2026-04-19T09:26:01.952Z</time></trkpt><trkpt lat="42.8999133" lon="12.1512467"><ele>457.5</ele><time>2026-04-19T09:26:02.951Z</time></trkpt><trkpt lat="42.8998117" lon="12.1511883"><ele>461.0</ele><time>2026-04-19T09:26:03.951Z</time></trkpt><trkpt lat="42.8997133" lon="12.151125"><ele>464.5</ele><time>2026-04-19T09:26:04.951Z</time></trkpt><trkpt lat="42.8996133" lon="12.1510517"><ele>468.0</ele><time>2026-04-19T09:26:05.952Z</time></trkpt><trkpt lat="42.8995033" lon="12.1509883"><ele>468.0</ele><time>2026-04-19T09:26:06.952Z</time></trkpt><trkpt lat="42.899395" lon="12.15093"><ele>468.0</ele><time>2026-04-19T09:26:07.951Z</time></trkpt><trkpt lat="42.8992833" lon="12.15089"><ele>468.0</ele><time>2026-04-19T09:26:08.952Z</time></trkpt><trkpt lat="42.8991767" lon="12.1508617"><ele>468.0</ele><time>2026-04-19T09:26:09.951Z</time></trkpt><trkpt lat="42.8990683" lon="12.1508417"><ele>467.5</ele><time>2026-04-19T09:26:10.951Z</time></trkpt><trkpt lat="42.8989733" lon="12.15083"><ele>467.0</ele><time>2026-04-19T09:26:11.951Z</time></trkpt><trkpt lat="42.8988883" lon="12.150805"><ele>466.5</ele><time>2026-04-19T09:26:12.952Z</time></trkpt><trkpt lat="42.89881" lon="12.1508"><ele>466.0</ele><time>2026-04-19T09:26:13.952Z</time></trkpt><trkpt lat="42.898745" lon="12.1508117"><ele>465.5</ele><time>2026-04-19T09:26:14.951Z</time></trkpt><trkpt lat="42.89868" lon="12.1508567"><ele>465.0</ele><time>2026-04-19T09:26:16.952Z</time></trkpt><trkpt lat="42.898715" lon="12.15096"><ele>465.0</ele><time>2026-04-19T09:26:18.951Z</time></trkpt><trkpt lat="42.8987583" lon="12.151025"><ele>465.0</ele><time>2026-04-19T09:26:19.951Z</time></trkpt><trkpt lat="42.8988017" lon="12.1511033"><ele>465.0</ele><time>2026-04-19T09:26:20.951Z</time></trkpt><trkpt lat="42.8988333" lon="12.151185"><ele>465.0</ele><time>2026-04-19T09:26:21.951Z</time></trkpt><trkpt lat="42.8988583" lon="12.151315"><ele>465.0</ele><time>2026-04-19T09:26:23.951Z</time></trkpt><trkpt lat="42.8988683" lon="12.1514333"><ele>465.0</ele><time>2026-04-19T09:26:25.952Z</time></trkpt><trkpt lat="42.898875" lon="12.1515217"><ele>463.8333333333333</ele><time>2026-04-19T09:26:26.952Z</time></trkpt><trkpt lat="42.898885" lon="12.1516133"><ele>462.66666666666663</ele><time>2026-04-19T09:26:27.952Z</time></trkpt><trkpt lat="42.89889" lon="12.1517467"><ele>461.5</ele><time>2026-04-19T09:26:29.952Z</time></trkpt><trkpt lat="42.8988683" lon="12.1518583"><ele>460.3333333333333</ele><time>2026-04-19T09:26:31.952Z</time></trkpt><trkpt lat="42.8988117" lon="12.1519217"><ele>459.16666666666663</ele><time>2026-04-19T09:26:33.952Z</time></trkpt><trkpt lat="42.8987167" lon="12.151865"><ele>458.0</ele><time>2026-04-19T09:26:44.951Z</time></trkpt><trkpt lat="42.898685" lon="12.151715"><ele>457.99999999999994</ele><time>2026-04-19T09:26:46.952Z</time></trkpt><trkpt lat="42.89868" lon="12.1516117"><ele>458.0</ele><time>2026-04-19T09:26:47.952Z</time></trkpt><trkpt lat="42.8986833" lon="12.1515067"><ele>458.0</ele><time>2026-04-19T09:26:48.952Z</time></trkpt><trkpt lat="42.8986817" lon="12.151405"><ele>458.0</ele><time>2026-04-19T09:26:49.952Z</time></trkpt><trkpt lat="42.898655" lon="12.1512617"><ele>457.99999999999994</ele><time>2026-04-19T09:26:51.952Z</time></trkpt><trkpt lat="42.89857" lon="12.1511733"><ele>458.0</ele><time>2026-04-19T09:26:53.951Z</time></trkpt><trkpt lat="42.8985033" lon="12.1511233"><ele>462.0</ele><time>2026-04-19T09:26:54.951Z</time></trkpt><trkpt lat="42.8984133" lon="12.151055"><ele>466.0</ele><time>2026-04-19T09:26:55.951Z</time></trkpt><trkpt lat="42.89831" lon="12.1509783"><ele>470.0</ele><time>2026-04-19T09:26:56.951Z</time></trkpt><trkpt lat="42.8981917" lon="12.1508883"><ele>474.0</ele><time>2026-04-19T09:26:57.952Z</time></trkpt><trkpt lat="42.8980933" lon="12.150805"><ele>474.0</ele><time>2026-04-19T09:26:58.952Z</time></trkpt><trkpt lat="42.8980183" lon="12.1507367"><ele>474.0</ele><time>2026-04-19T09:26:59.951Z</time></trkpt><trkpt lat="42.8979567" lon="12.1506867"><ele>474.0</ele><time>2026-04-19T09:27:00.952Z</time></trkpt><trkpt lat="42.8978217" lon="12.1506267"><ele>474.0</ele><time>2026-04-19T09:27:02.951Z</time></trkpt><trkpt lat="42.8977367" lon="12.1506"><ele>474.0</ele><time>2026-04-19T09:27:03.951Z</time></trkpt><trkpt lat="42.897655" lon="12.150555"><ele>478.6</ele><time>2026-04-19T09:27:04.951Z</time></trkpt><trkpt lat="42.8975733" lon="12.150515"><ele>483.2</ele><time>2026-04-19T09:27:05.951Z</time></trkpt><trkpt lat="42.8974783" lon="12.150475"><ele>487.80000000000007</ele><time>2026-04-19T09:27:06.952Z</time></trkpt><trkpt lat="42.8973817" lon="12.1504433"><ele>492.40000000000003</ele><time>2026-04-19T09:27:07.951Z</time></trkpt><trkpt lat="42.8972767" lon="12.1504183"><ele>497.0</ele><time>2026-04-19T09:27:08.951Z</time></trkpt><trkpt lat="42.8971867" lon="12.15039"><ele>496.99999999999994</ele><time>2026-04-19T09:27:09.951Z</time></trkpt><trkpt lat="42.897115" lon="12.1503617"><ele>497.0</ele><time>2026-04-19T09:27:10.952Z</time></trkpt><trkpt lat="42.8970667" lon="12.1502983"><ele>497.0</ele><time>2026-04-19T09:27:12.951Z</time></trkpt><trkpt lat="42.8970983" lon="12.1502217"><ele>497.0</ele><time>2026-04-19T09:27:14.952Z</time></trkpt><trkpt lat="42.8972017" lon="12.1501367"><ele>496.99999999999994</ele><time>2026-04-19T09:27:16.951Z</time></trkpt><trkpt lat="42.8972767" lon="12.1500967"><ele>497.0</ele><time>2026-04-19T09:27:17.952Z</time></trkpt><trkpt lat="42.89737" lon="12.1500417"><ele>496.99999999999994</ele><time>2026-04-19T09:27:18.952Z</time></trkpt><trkpt lat="42.8974733" lon="12.149985"><ele>497.0</ele><time>2026-04-19T09:27:19.951Z</time></trkpt><trkpt lat="42.89757" lon="12.14994"><ele>497.0</ele><time>2026-04-19T09:27:20.952Z</time></trkpt><trkpt lat="42.8976483" lon="12.1498917"><ele>497.0</ele><time>2026-04-19T09:27:21.951Z</time></trkpt><trkpt lat="42.897705" lon="12.1498483"><ele>496.99999999999994</ele><time>2026-04-19T09:27:22.951Z</time></trkpt><trkpt lat="42.89775" lon="12.1497583"><ele>497.0</ele><time>2026-04-19T09:27:24.951Z</time></trkpt><trkpt lat="42.89773" lon="12.1496483"><ele>495.5</ele><time>2026-04-19T09:27:26.952Z</time></trkpt><trkpt lat="42.8976283" lon="12.1495367"><ele>494.0</ele><time>2026-04-19T09:27:28.952Z</time></trkpt><trkpt lat="42.89754" lon="12.1494683"><ele>492.5</ele><time>2026-04-19T09:27:29.951Z</time></trkpt><trkpt lat="42.8974333" lon="12.14938"><ele>491.0</ele><time>2026-04-19T09:27:30.951Z</time></trkpt><trkpt lat="42.8973217" lon="12.1492767"><ele>495.3333333333333</ele><time>2026-04-19T09:27:31.951Z</time></trkpt><trkpt lat="42.89719" lon="12.14915"><ele>499.66666666666663</ele><time>2026-04-19T09:27:32.952Z</time></trkpt><trkpt lat="42.89705" lon="12.14901"><ele>504.0</ele><time>2026-04-19T09:27:33.952Z</time></trkpt><trkpt lat="42.89692" lon="12.1488683"><ele>506.0</ele><time>2026-04-19T09:27:34.952Z</time></trkpt><trkpt lat="42.8968" lon="12.1487383"><ele>508.0</ele><time>2026-04-19T09:27:35.951Z</time></trkpt><trkpt lat="42.8966817" lon="12.1486083"><ele>510.0</ele><time>2026-04-19T09:27:36.951Z</time></trkpt><trkpt lat="42.896555" lon="12.1484733"><ele>511.66666666666663</ele><time>2026-04-19T09:27:37.951Z</time></trkpt><trkpt lat="42.89642" lon="12.148335"><ele>513.3333333333333</ele><time>2026-04-19T09:27:38.951Z</time></trkpt><trkpt lat="42.8962967" lon="12.148185"><ele>515.0</ele><time>2026-04-19T09:27:39.951Z</time></trkpt><trkpt lat="42.8961783" lon="12.14806"><ele>516.25</ele><time>2026-04-19T09:27:40.952Z</time></trkpt><trkpt lat="42.896085" lon="12.14795"><ele>517.5</ele><time>2026-04-19T09:27:41.952Z</time></trkpt><trkpt lat="42.8960067" lon="12.1478483"><ele>518.75</ele><time>2026-04-19T09:27:42.951Z</time></trkpt><trkpt lat="42.8959267" lon="12.1477233"><ele>520.0</ele><time>2026-04-19T09:27:43.952Z</time></trkpt><trkpt lat="42.8958467" lon="12.1475733"><ele>520.0</ele><time>2026-04-19T09:27:44.951Z</time></trkpt><trkpt lat="42.8957783" lon="12.1474167"><ele>520.0</ele><time>2026-04-19T09:27:45.952Z</time></trkpt><trkpt lat="42.8957067" lon="12.1472617"><ele>520.0</ele><time>2026-04-19T09:27:46.951Z</time></trkpt><trkpt lat="42.895635" lon="12.1471217"><ele>520.0</ele><time>2026-04-19T09:27:47.951Z</time></trkpt><trkpt lat="42.8955667" lon="12.1469917"><ele>521.0</ele><time>2026-04-19T09:27:48.952Z</time></trkpt><trkpt lat="42.8955033" lon="12.1468633"><ele>522.0</ele><time>2026-04-19T09:27:49.951Z</time></trkpt><trkpt lat="42.8954333" lon="12.1467467"><ele>523.0</ele><time>2026-04-19T09:27:50.952Z</time></trkpt><trkpt lat="42.8953767" lon="12.1466483"><ele>524.0</ele><time>2026-04-19T09:27:51.952Z</time></trkpt><trkpt lat="42.8953233" lon="12.1465617"><ele>525.0</ele><time>2026-04-19T09:27:52.952Z</time></trkpt><trkpt lat="42.8952783" lon="12.1464733"><ele>525.4</ele><time>2026-04-19T09:27:53.952Z</time></trkpt><trkpt lat="42.8952367" lon="12.1463767"><ele>525.8</ele><time>2026-04-19T09:27:54.951Z</time></trkpt><trkpt lat="42.89518" lon="12.14626"><ele>526.2</ele><time>2026-04-19T09:27:55.952Z</time></trkpt><trkpt lat="42.8951233" lon="12.1461333"><ele>526.6</ele><time>2026-04-19T09:27:56.951Z</time></trkpt><trkpt lat="42.89507" lon="12.146015"><ele>527.0</ele><time>2026-04-19T09:27:57.952Z</time></trkpt><trkpt lat="42.8950233" lon="12.145935"><ele>523.6</ele><time>2026-04-19T09:27:58.952Z</time></trkpt><trkpt lat="42.8949617" lon="12.14582"><ele>520.2</ele><time>2026-04-19T09:28:00.951Z</time></trkpt><trkpt lat="42.894915" lon="12.1457417"><ele>516.8</ele><time>2026-04-19T09:28:02.952Z</time></trkpt><trkpt lat="42.894845" lon="12.1457933"><ele>513.4</ele><time>2026-04-19T09:28:07.952Z</time></trkpt><trkpt lat="42.8947483" lon="12.145915"><ele>510.0</ele><time>2026-04-19T09:28:09.952Z</time></trkpt><trkpt lat="42.894685" lon="12.146005"><ele>510.0</ele><time>2026-04-19T09:28:10.951Z</time></trkpt><trkpt lat="42.8946217" lon="12.1460717"><ele>510.0</ele><time>2026-04-19T09:28:11.952Z</time></trkpt><trkpt lat="42.894515" lon="12.1461367"><ele>510.0</ele><time>2026-04-19T09:28:13.952Z</time></trkpt><trkpt lat="42.8944517" lon="12.14614"><ele>510.0</ele><time>2026-04-19T09:28:14.951Z</time></trkpt><trkpt lat="42.894365" lon="12.1461267"><ele>510.0</ele><time>2026-04-19T09:28:15.952Z</time></trkpt><trkpt lat="42.8942633" lon="12.14608"><ele>509.0</ele><time>2026-04-19T09:28:16.952Z</time></trkpt><trkpt lat="42.8941533" lon="12.1460233"><ele>508.0</ele><time>2026-04-19T09:28:17.951Z</time></trkpt><trkpt lat="42.89404" lon="12.1459683"><ele>507.0</ele><time>2026-04-19T09:28:18.952Z</time></trkpt><trkpt lat="42.8939317" lon="12.14591"><ele>506.0</ele><time>2026-04-19T09:28:19.951Z</time></trkpt><trkpt lat="42.8938467" lon="12.1458683"><ele>505.0</ele><time>2026-04-19T09:28:20.952Z</time></trkpt><trkpt lat="42.8937733" lon="12.1458483"><ele>505.0</ele><time>2026-04-19T09:28:21.952Z</time></trkpt><trkpt lat="42.89371" lon="12.145855"><ele>505.0</ele><time>2026-04-19T09:28:22.952Z</time></trkpt><trkpt lat="42.893615" lon="12.1459483"><ele>505.0</ele><time>2026-04-19T09:28:24.951Z</time></trkpt><trkpt lat="42.8935767" lon="12.1460417"><ele>505.0</ele><time>2026-04-19T09:28:25.95Z</time></trkpt><trkpt lat="42.8935367" lon="12.1461583"><ele>505.0</ele><time>2026-04-19T09:28:26.95Z</time></trkpt><trkpt lat="42.8934867" lon="12.1462783"><ele>506.25</ele><time>2026-04-19T09:28:27.951Z</time></trkpt><trkpt lat="42.89342" lon="12.1463967"><ele>507.5</ele><time>2026-04-19T09:28:28.95Z</time></trkpt><trkpt lat="42.8933433" lon="12.1465217"><ele>508.75</ele><time>2026-04-19T09:28:29.951Z</time></trkpt><trkpt lat="42.8932483" lon="12.1466683"><ele>510.0</ele><time>2026-04-19T09:28:30.951Z</time></trkpt><trkpt lat="42.8931383" lon="12.1468283"><ele>510.5</ele><time>2026-04-19T09:28:31.95Z</time></trkpt><trkpt lat="42.8930367" lon="12.1469833"><ele>511.0</ele><time>2026-04-19T09:28:32.95Z</time></trkpt><trkpt lat="42.8929483" lon="12.147115"><ele>511.5</ele><time>2026-04-19T09:28:33.951Z</time></trkpt><trkpt lat="42.89287" lon="12.1472517"><ele>512.0</ele><time>2026-04-19T09:28:34.951Z</time></trkpt><trkpt lat="42.8928" lon="12.1473967"><ele>512.5</ele><time>2026-04-19T09:28:35.95Z</time></trkpt><trkpt lat="42.8927317" lon="12.1475133"><ele>513.0</ele><time>2026-04-19T09:28:36.951Z</time></trkpt><trkpt lat="42.89268" lon="12.1475883"><ele>513.5</ele><time>2026-04-19T09:28:37.95Z</time></trkpt><trkpt lat="42.8926217" lon="12.1476383"><ele>514.0</ele><time>2026-04-19T09:28:38.951Z</time></trkpt><trkpt lat="42.89255" lon="12.1476633"><ele>514.5</ele><time>2026-04-19T09:28:39.951Z</time></trkpt><trkpt lat="42.8924567" lon="12.1476767"><ele>515.0</ele><time>2026-04-19T09:28:40.95Z</time></trkpt><trkpt lat="42.8923417" lon="12.1476733"><ele>515.0</ele><time>2026-04-19T09:28:41.95Z</time></trkpt><trkpt lat="42.8922117" lon="12.1476733"><ele>515.0</ele><time>2026-04-19T09:28:42.95Z</time></trkpt><trkpt lat="42.892075" lon="12.1476717"><ele>515.0</ele><time>2026-04-19T09:28:43.951Z</time></trkpt><trkpt lat="42.8919283" lon="12.1476517"><ele>515.0</ele><time>2026-04-19T09:28:44.95Z</time></trkpt><trkpt lat="42.89179" lon="12.14764"><ele>515.4</ele><time>2026-04-19T09:28:45.95Z</time></trkpt><trkpt lat="42.8916767" lon="12.1476283"><ele>515.8</ele><time>2026-04-19T09:28:46.951Z</time></trkpt><trkpt lat="42.8915567" lon="12.1476417"><ele>516.2</ele><time>2026-04-19T09:28:47.95Z</time></trkpt><trkpt lat="42.8914433" lon="12.1476633"><ele>516.6</ele><time>2026-04-19T09:28:48.95Z</time></trkpt><trkpt lat="42.89135" lon="12.1476717"><ele>517.0</ele><time>2026-04-19T09:28:49.95Z</time></trkpt><trkpt lat="42.8912767" lon="12.1476617"><ele>517.0</ele><time>2026-04-19T09:28:50.951Z</time></trkpt><trkpt lat="42.891195" lon="12.1476167"><ele>517.0</ele><time>2026-04-19T09:28:51.951Z</time></trkpt><trkpt lat="42.8911117" lon="12.1475483"><ele>517.0</ele><time>2026-04-19T09:28:52.951Z</time></trkpt><trkpt lat="42.89103" lon="12.1474533"><ele>517.0</ele><time>2026-04-19T09:28:53.95Z</time></trkpt><trkpt lat="42.8909367" lon="12.147375"><ele>517.0</ele><time>2026-04-19T09:28:54.951Z</time></trkpt><trkpt lat="42.890855" lon="12.1473117"><ele>515.6</ele><time>2026-04-19T09:28:55.951Z</time></trkpt><trkpt lat="42.89077" lon="12.147275"><ele>514.2</ele><time>2026-04-19T09:28:56.95Z</time></trkpt><trkpt lat="42.89068" lon="12.1472433"><ele>512.8</ele><time>2026-04-19T09:28:57.95Z</time></trkpt><trkpt lat="42.890575" lon="12.14723"><ele>511.4</ele><time>2026-04-19T09:28:58.95Z</time></trkpt><trkpt lat="42.890485" lon="12.14722"><ele>510.0</ele><time>2026-04-19T09:28:59.95Z</time></trkpt><trkpt lat="42.8903967" lon="12.1471933"><ele>510.0</ele><time>2026-04-19T09:29:00.95Z</time></trkpt><trkpt lat="42.8902967" lon="12.1471533"><ele>510.0</ele><time>2026-04-19T09:29:01.951Z</time></trkpt><trkpt lat="42.8901833" lon="12.1471167"><ele>510.0</ele><time>2026-04-19T09:29:02.95Z</time></trkpt><trkpt lat="42.890055" lon="12.14709"><ele>510.0</ele><time>2026-04-19T09:29:03.951Z</time></trkpt><trkpt lat="42.8899067" lon="12.1470717"><ele>509.0</ele><time>2026-04-19T09:29:04.95Z</time></trkpt><trkpt lat="42.889775" lon="12.147045"><ele>508.0</ele><time>2026-04-19T09:29:05.95Z</time></trkpt><trkpt lat="42.88967" lon="12.1470067"><ele>507.0</ele><time>2026-04-19T09:29:06.951Z</time></trkpt><trkpt lat="42.8895683" lon="12.1469533"><ele>506.0</ele><time>2026-04-19T09:29:07.951Z</time></trkpt><trkpt lat="42.889455" lon="12.14689"><ele>506.0</ele><time>2026-04-19T09:29:08.951Z</time></trkpt><trkpt lat="42.8893433" lon="12.1468217"><ele>506.0</ele><time>2026-04-19T09:29:09.95Z</time></trkpt><trkpt lat="42.8892567" lon="12.1467733"><ele>506.0</ele><time>2026-04-19T09:29:10.95Z</time></trkpt><trkpt lat="42.8891633" lon="12.14673"><ele>506.0</ele><time>2026-04-19T09:29:11.95Z</time></trkpt><trkpt lat="42.8890683" lon="12.1467"><ele>506.0</ele><time>2026-04-19T09:29:12.951Z</time></trkpt><trkpt lat="42.8889783" lon="12.1466917"><ele>505.8333333333333</ele><time>2026-04-19T09:29:13.951Z</time></trkpt><trkpt lat="42.8888933" lon="12.1467017"><ele>505.66666666666663</ele><time>2026-04-19T09:29:14.951Z</time></trkpt><trkpt lat="42.8888217" lon="12.1467233"><ele>505.5</ele><time>2026-04-19T09:29:15.95Z</time></trkpt><trkpt lat="42.888755" lon="12.1467617"><ele>505.33333333333337</ele><time>2026-04-19T09:29:16.95Z</time></trkpt><trkpt lat="42.88869" lon="12.146825"><ele>505.1666666666667</ele><time>2026-04-19T09:29:17.951Z</time></trkpt><trkpt lat="42.8886217" lon="12.1469133"><ele>505.0</ele><time>2026-04-19T09:29:18.951Z</time></trkpt><trkpt lat="42.88856" lon="12.1470083"><ele>505.00000000000006</ele><time>2026-04-19T09:29:19.951Z</time></trkpt><trkpt lat="42.888525" lon="12.1470917"><ele>505.0</ele><time>2026-04-19T09:29:20.951Z</time></trkpt><trkpt lat="42.8884533" lon="12.1471933"><ele>505.0</ele><time>2026-04-19T09:29:22.951Z</time></trkpt><trkpt lat="42.8883717" lon="12.147185"><ele>505.0</ele><time>2026-04-19T09:29:24.951Z</time></trkpt><trkpt lat="42.8883067" lon="12.1471317"><ele>505.00000000000006</ele><time>2026-04-19T09:29:25.95Z</time></trkpt><trkpt lat="42.8882517" lon="12.147055"><ele>505.0</ele><time>2026-04-19T09:29:26.951Z</time></trkpt><trkpt lat="42.88822" lon="12.146965"><ele>505.1666666666667</ele><time>2026-04-19T09:29:27.95Z</time></trkpt><trkpt lat="42.888205" lon="12.1468683"><ele>505.33333333333337</ele><time>2026-04-19T09:29:28.951Z</time></trkpt><trkpt lat="42.88821" lon="12.1467633"><ele>505.5</ele><time>2026-04-19T09:29:29.951Z</time></trkpt><trkpt lat="42.88823" lon="12.1466683"><ele>505.66666666666663</ele><time>2026-04-19T09:29:30.95Z</time></trkpt><trkpt lat="42.888235" lon="12.1465733"><ele>505.8333333333333</ele><time>2026-04-19T09:29:31.951Z</time></trkpt><trkpt lat="42.8882233" lon="12.1464883"><ele>506.0</ele><time>2026-04-19T09:29:32.951Z</time></trkpt><trkpt lat="42.8881233" lon="12.146365"><ele>505.3333333333333</ele><time>2026-04-19T09:29:34.95Z</time></trkpt><trkpt lat="42.8880483" lon="12.146325"><ele>504.66666666666663</ele><time>2026-04-19T09:29:35.95Z</time></trkpt><trkpt lat="42.8879533" lon="12.1462983"><ele>504.0</ele><time>2026-04-19T09:29:36.951Z</time></trkpt><trkpt lat="42.8878683" lon="12.14628"><ele>503.33333333333337</ele><time>2026-04-19T09:29:37.95Z</time></trkpt><trkpt lat="42.8878017" lon="12.1462417"><ele>502.6666666666667</ele><time>2026-04-19T09:29:38.951Z</time></trkpt><trkpt lat="42.88775" lon="12.146185"><ele>502.0</ele><time>2026-04-19T09:29:39.951Z</time></trkpt><trkpt lat="42.8877017" lon="12.1461033"><ele>502.00000000000006</ele><time>2026-04-19T09:29:40.951Z</time></trkpt><trkpt lat="42.887665" lon="12.1460033"><ele>502.0</ele><time>2026-04-19T09:29:41.951Z</time></trkpt><trkpt lat="42.8876217" lon="12.145915"><ele>502.0</ele><time>2026-04-19T09:29:42.951Z</time></trkpt><trkpt lat="42.8875683" lon="12.1458317"><ele>502.0</ele><time>2026-04-19T09:29:44.95Z</time></trkpt><trkpt lat="42.8874667" lon="12.1458467"><ele>502.00000000000006</ele><time>2026-04-19T09:29:47.95Z</time></trkpt><trkpt lat="42.8874033" lon="12.1458867"><ele>502.0</ele><time>2026-04-19T09:29:48.951Z</time></trkpt><trkpt lat="42.88733" lon="12.145945"><ele>503.20000000000005</ele><time>2026-04-19T09:29:49.95Z</time></trkpt><trkpt lat="42.8872467" lon="12.14602"><ele>504.40000000000003</ele><time>2026-04-19T09:29:50.95Z</time></trkpt><trkpt lat="42.8871583" lon="12.146095"><ele>505.59999999999997</ele><time>2026-04-19T09:29:51.95Z</time></trkpt><trkpt lat="42.8870683" lon="12.1461883"><ele>506.79999999999995</ele><time>2026-04-19T09:29:52.951Z</time></trkpt><trkpt lat="42.886975" lon="12.1462867"><ele>508.0</ele><time>2026-04-19T09:29:53.95Z</time></trkpt><trkpt lat="42.8868817" lon="12.14639"><ele>508.0</ele><time>2026-04-19T09:29:54.951Z</time></trkpt><trkpt lat="42.8867817" lon="12.1464917"><ele>507.99999999999994</ele><time>2026-04-19T09:29:55.951Z</time></trkpt><trkpt lat="42.88669" lon="12.1465833"><ele>507.99999999999994</ele><time>2026-04-19T09:29:56.95Z</time></trkpt><trkpt lat="42.88661" lon="12.1466683"><ele>508.0</ele><time>2026-04-19T09:29:57.951Z</time></trkpt><trkpt lat="42.88654" lon="12.14676"><ele>508.0</ele><time>2026-04-19T09:29:58.951Z</time></trkpt><trkpt lat="42.8864833" lon="12.146855"><ele>508.83333333333337</ele><time>2026-04-19T09:29:59.95Z</time></trkpt><trkpt lat="42.8864367" lon="12.14695"><ele>509.6666666666667</ele><time>2026-04-19T09:30:00.951Z</time></trkpt><trkpt lat="42.8864017" lon="12.1470467"><ele>510.5</ele><time>2026-04-19T09:30:01.951Z</time></trkpt><trkpt lat="42.88637" lon="12.1471267"><ele>511.33333333333337</ele><time>2026-04-19T09:30:02.95Z</time></trkpt><trkpt lat="42.886305" lon="12.14722"><ele>512.1666666666666</ele><time>2026-04-19T09:30:04.95Z</time></trkpt><trkpt lat="42.88624" lon="12.1472417"><ele>513.0</ele><time>2026-04-19T09:30:06.95Z</time></trkpt><trkpt lat="42.8861467" lon="12.1472133"><ele>513.0</ele><time>2026-04-19T09:30:08.95Z</time></trkpt><trkpt lat="42.8860917" lon="12.147155"><ele>513.0</ele><time>2026-04-19T09:30:09.951Z</time></trkpt><trkpt lat="42.886015" lon="12.1470783"><ele>513.0</ele><time>2026-04-19T09:30:10.951Z</time></trkpt><trkpt lat="42.8859183" lon="12.147015"><ele>513.0</ele><time>2026-04-19T09:30:11.95Z</time></trkpt><trkpt lat="42.885815" lon="12.14697"><ele>513.0</ele><time>2026-04-19T09:30:12.951Z</time></trkpt><trkpt lat="42.8857233" lon="12.146965"><ele>512.3333333333334</ele><time>2026-04-19T09:30:13.951Z</time></trkpt><trkpt lat="42.88564" lon="12.1469767"><ele>511.66666666666663</ele><time>2026-04-19T09:30:14.951Z</time></trkpt><trkpt lat="42.885565" lon="12.1470067"><ele>511.0</ele><time>2026-04-19T09:30:15.951Z</time></trkpt><trkpt lat="42.885495" lon="12.1470467"><ele>510.3333333333333</ele><time>2026-04-19T09:30:16.951Z</time></trkpt><trkpt lat="42.8854233" lon="12.1471533"><ele>509.66666666666663</ele><time>2026-04-19T09:30:18.95Z</time></trkpt><trkpt lat="42.8853867" lon="12.1472267"><ele>509.0</ele><time>2026-04-19T09:30:20.951Z</time></trkpt><trkpt lat="42.8853483" lon="12.1473367"><ele>509.99999999999994</ele><time>2026-04-19T09:30:23.951Z</time></trkpt><trkpt lat="42.885305" lon="12.1474483"><ele>511.0</ele><time>2026-04-19T09:30:26.951Z</time></trkpt><trkpt lat="42.885275" lon="12.1475583"><ele>512.0</ele><time>2026-04-19T09:30:28.951Z</time></trkpt><trkpt lat="42.8852617" lon="12.14765"><ele>513.0</ele><time>2026-04-19T09:30:29.95Z</time></trkpt><trkpt lat="42.8852617" lon="12.1477517"><ele>514.0</ele><time>2026-04-19T09:30:30.95Z</time></trkpt><trkpt lat="42.8852783" lon="12.14788"><ele>515.0</ele><time>2026-04-19T09:30:32.951Z</time></trkpt><trkpt lat="42.8852883" lon="12.1479783"><ele>515.0</ele><time>2026-04-19T09:30:34.95Z</time></trkpt><trkpt lat="42.88529" lon="12.1480683"><ele>515.0</ele><time>2026-04-19T09:30:35.951Z</time></trkpt><trkpt lat="42.8852933" lon="12.148205"><ele>515.0</ele><time>2026-04-19T09:30:36.951Z</time></trkpt><trkpt lat="42.88529" lon="12.14834"><ele>515.0</ele><time>2026-04-19T09:30:37.95Z</time></trkpt><trkpt lat="42.8852717" lon="12.14846"><ele>515.0</ele><time>2026-04-19T09:30:38.95Z</time></trkpt><trkpt lat="42.8852367" lon="12.148575"><ele>515.0</ele><time>2026-04-19T09:30:39.951Z</time></trkpt><trkpt lat="42.8852083" lon="12.1486883"><ele>516.0</ele><time>2026-04-19T09:30:40.951Z</time></trkpt><trkpt lat="42.8851983" lon="12.1487917"><ele>517.0</ele><time>2026-04-19T09:30:41.951Z</time></trkpt><trkpt lat="42.885195" lon="12.1488783"><ele>518.0</ele><time>2026-04-19T09:30:42.95Z</time></trkpt><trkpt lat="42.8851817" lon="12.148995"><ele>519.0</ele><time>2026-04-19T09:30:44.951Z</time></trkpt><trkpt lat="42.885165" lon="12.14914"><ele>520.0</ele><time>2026-04-19T09:30:47.951Z</time></trkpt><trkpt lat="42.8851367" lon="12.1492833"><ele>521.0</ele><time>2026-04-19T09:30:49.95Z</time></trkpt><trkpt lat="42.885115" lon="12.14937"><ele>520.5</ele><time>2026-04-19T09:30:50.951Z</time></trkpt><trkpt lat="42.88509" lon="12.1494583"><ele>520.0</ele><time>2026-04-19T09:30:51.951Z</time></trkpt><trkpt lat="42.8850883" lon="12.1496317"><ele>519.5</ele><time>2026-04-19T09:30:53.95Z</time></trkpt><trkpt lat="42.88511" lon="12.1497233"><ele>519.0</ele><time>2026-04-19T09:30:54.95Z</time></trkpt><trkpt lat="42.8851533" lon="12.149815"><ele>518.5</ele><time>2026-04-19T09:30:56.95Z</time></trkpt><trkpt lat="42.8851517" lon="12.1499083"><ele>518.0</ele><time>2026-04-19T09:30:59.95Z</time></trkpt><trkpt lat="42.8850933" lon="12.1499567"><ele>518.0</ele><time>2026-04-19T09:31:01.95Z</time></trkpt><trkpt lat="42.8849983" lon="12.1499433"><ele>518.0</ele><time>2026-04-19T09:31:03.95Z</time></trkpt><trkpt lat="42.8848883" lon="12.1499033"><ele>518.0</ele><time>2026-04-19T09:31:05.951Z</time></trkpt><trkpt lat="42.884785" lon="12.1498767"><ele>518.0</ele><time>2026-04-19T09:31:07.95Z</time></trkpt><trkpt lat="42.884705" lon="12.1499333"><ele>518.0</ele><time>2026-04-19T09:31:09.951Z</time></trkpt><trkpt lat="42.884675" lon="12.1500867"><ele>518.0</ele><time>2026-04-19T09:31:11.951Z</time></trkpt><trkpt lat="42.884635" lon="12.1502533"><ele>518.0</ele><time>2026-04-19T09:31:13.951Z</time></trkpt><trkpt lat="42.88459" lon="12.1503233"><ele>518.0</ele><time>2026-04-19T09:31:14.951Z</time></trkpt><trkpt lat="42.8845317" lon="12.1503817"><ele>518.0</ele><time>2026-04-19T09:31:15.951Z</time></trkpt><trkpt lat="42.8844617" lon="12.15044"><ele>518.0</ele><time>2026-04-19T09:31:16.951Z</time></trkpt><trkpt lat="42.8843883" lon="12.1505"><ele>518.0</ele><time>2026-04-19T09:31:17.951Z</time></trkpt><trkpt lat="42.8843083" lon="12.1505717"><ele>519.1999999999999</ele><time>2026-04-19T09:31:18.951Z</time></trkpt><trkpt lat="42.8842333" lon="12.15064"><ele>520.4</ele><time>2026-04-19T09:31:19.95Z</time></trkpt><trkpt lat="42.884145" lon="12.1507117"><ele>521.5999999999999</ele><time>2026-04-19T09:31:20.95Z</time></trkpt><trkpt lat="42.8840633" lon="12.1507933"><ele>522.8</ele><time>2026-04-19T09:31:21.95Z</time></trkpt><trkpt lat="42.8839817" lon="12.1508817"><ele>524.0</ele><time>2026-04-19T09:31:22.95Z</time></trkpt><trkpt lat="42.8839183" lon="12.1509617"><ele>525.2</ele><time>2026-04-19T09:31:23.951Z</time></trkpt><trkpt lat="42.8838767" lon="12.1510517"><ele>526.4</ele><time>2026-04-19T09:31:24.951Z</time></trkpt><trkpt lat="42.8838417" lon="12.151165"><ele>527.6</ele><time>2026-04-19T09:31:25.95Z</time></trkpt><trkpt lat="42.8838133" lon="12.15131"><ele>528.8</ele><time>2026-04-19T09:31:26.95Z</time></trkpt><trkpt lat="42.8837933" lon="12.1514817"><ele>530.0</ele><time>2026-04-19T09:31:27.951Z</time></trkpt><trkpt lat="42.8837867" lon="12.1516517"><ele>530.6</ele><time>2026-04-19T09:31:28.95Z</time></trkpt><trkpt lat="42.883775" lon="12.1518233"><ele>531.2</ele><time>2026-04-19T09:31:29.951Z</time></trkpt><trkpt lat="42.88376" lon="12.1519733"><ele>531.8</ele><time>2026-04-19T09:31:30.951Z</time></trkpt><trkpt lat="42.8837583" lon="12.1521217"><ele>532.4</ele><time>2026-04-19T09:31:31.95Z</time></trkpt><trkpt lat="42.8837583" lon="12.152255"><ele>533.0</ele><time>2026-04-19T09:31:32.951Z</time></trkpt><trkpt lat="42.8837483" lon="12.15237"><ele>533.1428571428571</ele><time>2026-04-19T09:31:33.951Z</time></trkpt><trkpt lat="42.883745" lon="12.1524633"><ele>533.2857142857142</ele><time>2026-04-19T09:31:34.951Z</time></trkpt><trkpt lat="42.8837283" lon="12.1525517"><ele>533.4285714285714</ele><time>2026-04-19T09:31:35.951Z</time></trkpt><trkpt lat="42.8837017" lon="12.1526517"><ele>533.5714285714286</ele><time>2026-04-19T09:31:36.95Z</time></trkpt><trkpt lat="42.8836667" lon="12.15276"><ele>533.7142857142858</ele><time>2026-04-19T09:31:37.951Z</time></trkpt><trkpt lat="42.88364" lon="12.1528483"><ele>533.8571428571429</ele><time>2026-04-19T09:31:38.95Z</time></trkpt><trkpt lat="42.8836217" lon="12.1529467"><ele>534.0</ele><time>2026-04-19T09:31:40.95Z</time></trkpt><trkpt lat="42.8835883" lon="12.1530583"><ele>534.0</ele><time>2026-04-19T09:31:43.95Z</time></trkpt><trkpt lat="42.8835167" lon="12.1531383"><ele>534.0</ele><time>2026-04-19T09:31:45.951Z</time></trkpt><trkpt lat="42.8834217" lon="12.1531783"><ele>534.0</ele><time>2026-04-19T09:31:47.95Z</time></trkpt><trkpt lat="42.8832983" lon="12.15321"><ele>534.0</ele><time>2026-04-19T09:31:49.95Z</time></trkpt><trkpt lat="42.8832167" lon="12.1532117"><ele>534.0</ele><time>2026-04-19T09:31:50.951Z</time></trkpt><trkpt lat="42.88313" lon="12.15323"><ele>531.8</ele><time>2026-04-19T09:31:51.95Z</time></trkpt><trkpt lat="42.8830117" lon="12.1532833"><ele>529.5999999999999</ele><time>2026-04-19T09:31:53.951Z</time></trkpt><trkpt lat="42.882915" lon="12.153355"><ele>527.4</ele><time>2026-04-19T09:31:55.951Z</time></trkpt><trkpt lat="42.8828017" lon="12.1534383"><ele>525.1999999999999</ele><time>2026-04-19T09:31:57.95Z</time></trkpt><trkpt lat="42.882735" lon="12.1534833"><ele>523.0</ele><time>2026-04-19T09:31:58.951Z</time></trkpt><trkpt lat="42.8826533" lon="12.1535217"><ele>523.1999999999999</ele><time>2026-04-19T09:31:59.951Z</time></trkpt><trkpt lat="42.8825717" lon="12.153555"><ele>523.4</ele><time>2026-04-19T09:32:00.951Z</time></trkpt><trkpt lat="42.8824717" lon="12.15358"><ele>523.5999999999999</ele><time>2026-04-19T09:32:01.95Z</time></trkpt><trkpt lat="42.88237" lon="12.15362"><ele>523.8</ele><time>2026-04-19T09:32:02.951Z</time></trkpt><trkpt lat="42.8822533" lon="12.1536617"><ele>524.0</ele><time>2026-04-19T09:32:03.951Z</time></trkpt><trkpt lat="42.8821333" lon="12.1537083"><ele>524.0</ele><time>2026-04-19T09:32:04.951Z</time></trkpt><trkpt lat="42.88203" lon="12.153755"><ele>524.0</ele><time>2026-04-19T09:32:05.951Z</time></trkpt><trkpt lat="42.88194" lon="12.153795"><ele>524.0</ele><time>2026-04-19T09:32:06.95Z</time></trkpt><trkpt lat="42.8818567" lon="12.1538233"><ele>524.0</ele><time>2026-04-19T09:32:07.951Z</time></trkpt><trkpt lat="42.88178" lon="12.1538467"><ele>524.0</ele><time>2026-04-19T09:32:08.951Z</time></trkpt><trkpt lat="42.8816567" lon="12.15382"><ele>524.6</ele><time>2026-04-19T09:32:10.951Z</time></trkpt><trkpt lat="42.88157" lon="12.1537833"><ele>525.2</ele><time>2026-04-19T09:32:11.951Z</time></trkpt><trkpt lat="42.8814733" lon="12.1537583"><ele>525.8000000000001</ele><time>2026-04-19T09:32:12.95Z</time></trkpt><trkpt lat="42.8813617" lon="12.1537517"><ele>526.4</ele><time>2026-04-19T09:32:13.951Z</time></trkpt><trkpt lat="42.8812433" lon="12.153755"><ele>527.0</ele><time>2026-04-19T09:32:14.951Z</time></trkpt><trkpt lat="42.8810933" lon="12.1537533"><ele>527.0</ele><time>2026-04-19T09:32:15.951Z</time></trkpt><trkpt lat="42.880935" lon="12.1537517"><ele>527.0</ele><time>2026-04-19T09:32:16.951Z</time></trkpt><trkpt lat="42.8807933" lon="12.153745"><ele>527.0</ele><time>2026-04-19T09:32:17.95Z</time></trkpt><trkpt lat="42.88066" lon="12.15375"><ele>527.0</ele><time>2026-04-19T09:32:18.95Z</time></trkpt><trkpt lat="42.880545" lon="12.1537433"><ele>526.75</ele><time>2026-04-19T09:32:19.95Z</time></trkpt><trkpt lat="42.8804233" lon="12.1537367"><ele>526.5</ele><time>2026-04-19T09:32:20.951Z</time></trkpt><trkpt lat="42.8802867" lon="12.1537333"><ele>526.25</ele><time>2026-04-19T09:32:21.951Z</time></trkpt><trkpt lat="42.8801367" lon="12.1537367"><ele>526.0</ele><time>2026-04-19T09:32:22.95Z</time></trkpt><trkpt lat="42.8799933" lon="12.15375"><ele>526.0</ele><time>2026-04-19T09:32:23.95Z</time></trkpt><trkpt lat="42.8798667" lon="12.1537517"><ele>526.0</ele><time>2026-04-19T09:32:24.951Z</time></trkpt><trkpt lat="42.8797433" lon="12.15375"><ele>526.0</ele><time>2026-04-19T09:32:25.95Z</time></trkpt><trkpt lat="42.879615" lon="12.1537533"><ele>526.0</ele><time>2026-04-19T09:32:26.951Z</time></trkpt><trkpt lat="42.8794767" lon="12.1537533"><ele>526.0</ele><time>2026-04-19T09:32:27.951Z</time></trkpt><trkpt lat="42.87933" lon="12.1537583"><ele>526.0</ele><time>2026-04-19T09:32:28.95Z</time></trkpt><trkpt lat="42.879185" lon="12.1537517"><ele>526.0</ele><time>2026-04-19T09:32:29.95Z</time></trkpt><trkpt lat="42.8790417" lon="12.1537517"><ele>526.0</ele><time>2026-04-19T09:32:30.95Z</time></trkpt><trkpt lat="42.87891" lon="12.153745"><ele>525.0</ele><time>2026-04-19T09:32:31.951Z</time></trkpt><trkpt lat="42.8787817" lon="12.1537433"><ele>524.0</ele><time>2026-04-19T09:32:32.951Z</time></trkpt><trkpt lat="42.87866" lon="12.1537583"><ele>523.0</ele><time>2026-04-19T09:32:33.951Z</time></trkpt><trkpt lat="42.8785483" lon="12.153785"><ele>522.0</ele><time>2026-04-19T09:32:34.951Z</time></trkpt><trkpt lat="42.8784383" lon="12.153825"><ele>521.3333333333334</ele><time>2026-04-19T09:32:35.951Z</time></trkpt><trkpt lat="42.87834" lon="12.1538667"><ele>520.6666666666666</ele><time>2026-04-19T09:32:36.95Z</time></trkpt><trkpt lat="42.8782517" lon="12.1539183"><ele>520.0</ele><time>2026-04-19T09:32:37.951Z</time></trkpt><trkpt lat="42.878175" lon="12.1539583"><ele>519.3333333333333</ele><time>2026-04-19T09:32:38.951Z</time></trkpt><trkpt lat="42.87811" lon="12.15399"><ele>518.6666666666666</ele><time>2026-04-19T09:32:39.951Z</time></trkpt><trkpt lat="42.8780417" lon="12.15401"><ele>518.0</ele><time>2026-04-19T09:32:40.951Z</time></trkpt><trkpt lat="42.8779717" lon="12.154015"><ele>518.0</ele><time>2026-04-19T09:32:41.95Z</time></trkpt><trkpt lat="42.8779067" lon="12.1540267"><ele>518.0</ele><time>2026-04-19T09:32:42.95Z</time></trkpt><trkpt lat="42.8778333" lon="12.15406"><ele>518.0</ele><time>2026-04-19T09:32:43.951Z</time></trkpt><trkpt lat="42.8777517" lon="12.15409"><ele>518.0</ele><time>2026-04-19T09:32:44.95Z</time></trkpt><trkpt lat="42.877655" lon="12.1541083"><ele>518.0</ele><time>2026-04-19T09:32:45.95Z</time></trkpt><trkpt lat="42.8775383" lon="12.15412"><ele>518.0</ele><time>2026-04-19T09:32:46.95Z</time></trkpt><trkpt lat="42.8774133" lon="12.1541133"><ele>518.5</ele><time>2026-04-19T09:32:47.951Z</time></trkpt><trkpt lat="42.8772967" lon="12.1541133"><ele>519.0</ele><time>2026-04-19T09:32:48.951Z</time></trkpt><trkpt lat="42.8771867" lon="12.1541183"><ele>519.5</ele><time>2026-04-19T09:32:49.95Z</time></trkpt><trkpt lat="42.8770683" lon="12.1541217"><ele>520.0</ele><time>2026-04-19T09:32:50.951Z</time></trkpt><trkpt lat="42.8769483" lon="12.1541183"><ele>520.0</ele><time>2026-04-19T09:32:51.951Z</time></trkpt><trkpt lat="42.8768333" lon="12.154105"><ele>520.0</ele><time>2026-04-19T09:32:52.951Z</time></trkpt><trkpt lat="42.87672" lon="12.1540833"><ele>520.0</ele><time>2026-04-19T09:32:53.951Z</time></trkpt><trkpt lat="42.8766083" lon="12.1540517"><ele>520.0</ele><time>2026-04-19T09:32:54.95Z</time></trkpt><trkpt lat="42.8765" lon="12.153995"><ele>521.0</ele><time>2026-04-19T09:32:55.951Z</time></trkpt><trkpt lat="42.8763817" lon="12.15393"><ele>522.0</ele><time>2026-04-19T09:32:56.95Z</time></trkpt><trkpt lat="42.8762717" lon="12.15386"><ele>523.0</ele><time>2026-04-19T09:32:57.95Z</time></trkpt><trkpt lat="42.8761683" lon="12.15377"><ele>524.0</ele><time>2026-04-19T09:32:58.95Z</time></trkpt><trkpt lat="42.8760733" lon="12.1536767"><ele>524.0</ele><time>2026-04-19T09:32:59.95Z</time></trkpt><trkpt lat="42.8759617" lon="12.1535817"><ele>524.0</ele><time>2026-04-19T09:33:00.95Z</time></trkpt><trkpt lat="42.87586" lon="12.1534567"><ele>524.0</ele><time>2026-04-19T09:33:01.951Z</time></trkpt><trkpt lat="42.8757633" lon="12.1533267"><ele>524.0</ele><time>2026-04-19T09:33:02.95Z</time></trkpt><trkpt lat="42.8756633" lon="12.15321"><ele>524.6</ele><time>2026-04-19T09:33:03.951Z</time></trkpt><trkpt lat="42.8755633" lon="12.15309"><ele>525.2</ele><time>2026-04-19T09:33:04.95Z</time></trkpt><trkpt lat="42.8754833" lon="12.1529833"><ele>525.8000000000001</ele><time>2026-04-19T09:33:05.951Z</time></trkpt><trkpt lat="42.8754167" lon="12.152875"><ele>526.4</ele><time>2026-04-19T09:33:06.951Z</time></trkpt><trkpt lat="42.875365" lon="12.15276"><ele>527.0</ele><time>2026-04-19T09:33:07.95Z</time></trkpt><trkpt lat="42.87532" lon="12.1526383"><ele>527.0</ele><time>2026-04-19T09:33:08.951Z</time></trkpt><trkpt lat="42.875265" lon="12.1525"><ele>527.0</ele><time>2026-04-19T09:33:09.95Z</time></trkpt><trkpt lat="42.8752083" lon="12.1523467"><ele>527.0</ele><time>2026-04-19T09:33:10.95Z</time></trkpt><trkpt lat="42.8751633" lon="12.1522033"><ele>527.0</ele><time>2026-04-19T09:33:11.951Z</time></trkpt><trkpt lat="42.8751217" lon="12.1520733"><ele>527.3333333333333</ele><time>2026-04-19T09:33:12.95Z</time></trkpt><trkpt lat="42.8750733" lon="12.151965"><ele>527.6666666666666</ele><time>2026-04-19T09:33:13.95Z</time></trkpt><trkpt lat="42.8750367" lon="12.15188"><ele>528.0</ele><time>2026-04-19T09:33:14.951Z</time></trkpt><trkpt lat="42.8749783" lon="12.151805"><ele>528.3333333333334</ele><time>2026-04-19T09:33:15.95Z</time></trkpt><trkpt lat="42.874905" lon="12.1517283"><ele>528.6666666666667</ele><time>2026-04-19T09:33:16.951Z</time></trkpt><trkpt lat="42.8748217" lon="12.15167"><ele>529.0</ele><time>2026-04-19T09:33:17.95Z</time></trkpt><trkpt lat="42.8747483" lon="12.1516217"><ele>529.0</ele><time>2026-04-19T09:33:18.951Z</time></trkpt><trkpt lat="42.8746833" lon="12.151595"><ele>529.0</ele><time>2026-04-19T09:33:19.951Z</time></trkpt><trkpt lat="42.8745733" lon="12.15161"><ele>529.0</ele><time>2026-04-19T09:33:21.951Z</time></trkpt><trkpt lat="42.8745067" lon="12.15172"><ele>529.0</ele><time>2026-04-19T09:33:23.95Z</time></trkpt><trkpt lat="42.87448" lon="12.1518183"><ele>529.0</ele><time>2026-04-19T09:33:24.95Z</time></trkpt><trkpt lat="42.87447" lon="12.1519167"><ele>529.0</ele><time>2026-04-19T09:33:25.951Z</time></trkpt><trkpt lat="42.87449" lon="12.1520717"><ele>529.0</ele><time>2026-04-19T09:33:27.951Z</time></trkpt><trkpt lat="42.8745083" lon="12.152155"><ele>529.0</ele><time>2026-04-19T09:33:28.951Z</time></trkpt><trkpt lat="42.874525" lon="12.152255"><ele>529.0</ele><time>2026-04-19T09:33:29.951Z</time></trkpt><trkpt lat="42.87453" lon="12.15237"><ele>529.0</ele><time>2026-04-19T09:33:30.951Z</time></trkpt><trkpt lat="42.8745333" lon="12.1524967"><ele>529.0</ele><time>2026-04-19T09:33:31.951Z</time></trkpt><trkpt lat="42.8745433" lon="12.15264"><ele>529.0</ele><time>2026-04-19T09:33:32.95Z</time></trkpt><trkpt lat="42.8745633" lon="12.1527767"><ele>528.6666666666667</ele><time>2026-04-19T09:33:33.951Z</time></trkpt><trkpt lat="42.87458" lon="12.15289"><ele>528.3333333333334</ele><time>2026-04-19T09:33:34.951Z</time></trkpt><trkpt lat="42.8745867" lon="12.153"><ele>528.0</ele><time>2026-04-19T09:33:35.95Z</time></trkpt><trkpt lat="42.87459" lon="12.153115"><ele>527.6666666666666</ele><time>2026-04-19T09:33:36.95Z</time></trkpt><trkpt lat="42.8745767" lon="12.1532217"><ele>527.3333333333333</ele><time>2026-04-19T09:33:37.951Z</time></trkpt><trkpt lat="42.8745633" lon="12.1533517"><ele>527.0</ele><time>2026-04-19T09:33:38.951Z</time></trkpt><trkpt lat="42.8745533" lon="12.153485"><ele>525.8333333333333</ele><time>2026-04-19T09:33:39.951Z</time></trkpt><trkpt lat="42.874545" lon="12.153615"><ele>524.6666666666666</ele><time>2026-04-19T09:33:40.95Z</time></trkpt><trkpt lat="42.874545" lon="12.1537183"><ele>523.5</ele><time>2026-04-19T09:33:41.95Z</time></trkpt><trkpt lat="42.8745517" lon="12.1538667"><ele>522.3333333333334</ele><time>2026-04-19T09:33:43.951Z</time></trkpt><trkpt lat="42.87451" lon="12.1539533"><ele>521.1666666666667</ele><time>2026-04-19T09:33:45.951Z</time></trkpt><trkpt lat="42.87442" lon="12.153955"><ele>520.0</ele><time>2026-04-19T09:33:47.951Z</time></trkpt><trkpt lat="42.87434" lon="12.1539"><ele>520.0</ele><time>2026-04-19T09:33:49.951Z</time></trkpt><trkpt lat="42.8742817" lon="12.1538367"><ele>520.0</ele><time>2026-04-19T09:33:51.951Z</time></trkpt><trkpt lat="42.8741967" lon="12.15383"><ele>520.0</ele><time>2026-04-19T09:33:54.95Z</time></trkpt><trkpt lat="42.8741183" lon="12.1539483"><ele>520.0</ele><time>2026-04-19T09:33:56.951Z</time></trkpt><trkpt lat="42.8740667" lon="12.15407"><ele>520.0</ele><time>2026-04-19T09:33:57.95Z</time></trkpt><trkpt lat="42.8740217" lon="12.1541867"><ele>516.2</ele><time>2026-04-19T09:33:58.95Z</time></trkpt><trkpt lat="42.87399" lon="12.1543"><ele>512.4</ele><time>2026-04-19T09:33:59.95Z</time></trkpt><trkpt lat="42.8739933" lon="12.1544117"><ele>508.6</ele><time>2026-04-19T09:34:00.951Z</time></trkpt><trkpt lat="42.87402" lon="12.154525"><ele>504.8</ele><time>2026-04-19T09:34:01.95Z</time></trkpt><trkpt lat="42.8740817" lon="12.154635"><ele>501.0</ele><time>2026-04-19T09:34:02.951Z</time></trkpt><trkpt lat="42.8741667" lon="12.1547317"><ele>501.0</ele><time>2026-04-19T09:34:03.951Z</time></trkpt><trkpt lat="42.874245" lon="12.1548317"><ele>501.0</ele><time>2026-04-19T09:34:04.95Z</time></trkpt><trkpt lat="42.87431" lon="12.1549267"><ele>501.0</ele><time>2026-04-19T09:34:05.951Z</time></trkpt><trkpt lat="42.8743467" lon="12.1550383"><ele>501.0</ele><time>2026-04-19T09:34:06.951Z</time></trkpt><trkpt lat="42.8743617" lon="12.1551717"><ele>501.0</ele><time>2026-04-19T09:34:07.951Z</time></trkpt><trkpt lat="42.8743533" lon="12.15534"><ele>499.75</ele><time>2026-04-19T09:34:08.95Z</time></trkpt><trkpt lat="42.8743317" lon="12.1555267"><ele>498.5</ele><time>2026-04-19T09:34:09.951Z</time></trkpt><trkpt lat="42.8743167" lon="12.15573"><ele>497.25</ele><time>2026-04-19T09:34:10.951Z</time></trkpt><trkpt lat="42.8743017" lon="12.1559183"><ele>496.0</ele><time>2026-04-19T09:34:11.95Z</time></trkpt><trkpt lat="42.8742933" lon="12.1560783"><ele>494.6</ele><time>2026-04-19T09:34:12.95Z</time></trkpt><trkpt lat="42.8743" lon="12.1562167"><ele>493.20000000000005</ele><time>2026-04-19T09:34:13.95Z</time></trkpt><trkpt lat="42.8743317" lon="12.156335"><ele>491.79999999999995</ele><time>2026-04-19T09:34:14.95Z</time></trkpt><trkpt lat="42.874395" lon="12.156445"><ele>490.4</ele><time>2026-04-19T09:34:15.95Z</time></trkpt><trkpt lat="42.8744833" lon="12.15652"><ele>489.0</ele><time>2026-04-19T09:34:16.951Z</time></trkpt><trkpt lat="42.8745717" lon="12.15659"><ele>487.4</ele><time>2026-04-19T09:34:17.951Z</time></trkpt><trkpt lat="42.8746417" lon="12.1566617"><ele>485.79999999999995</ele><time>2026-04-19T09:34:18.95Z</time></trkpt><trkpt lat="42.8746883" lon="12.156745"><ele>484.20000000000005</ele><time>2026-04-19T09:34:19.951Z</time></trkpt><trkpt lat="42.8747083" lon="12.1568567"><ele>482.6</ele><time>2026-04-19T09:34:20.95Z</time></trkpt><trkpt lat="42.8746933" lon="12.1570017"><ele>481.0</ele><time>2026-04-19T09:34:21.95Z</time></trkpt><trkpt lat="42.8746417" lon="12.157175"><ele>481.0</ele><time>2026-04-19T09:34:22.95Z</time></trkpt><trkpt lat="42.87455" lon="12.157365"><ele>481.0</ele><time>2026-04-19T09:34:23.95Z</time></trkpt><trkpt lat="42.874435" lon="12.1575433"><ele>481.0</ele><time>2026-04-19T09:34:24.951Z</time></trkpt><trkpt lat="42.874315" lon="12.1577133"><ele>480.0</ele><time>2026-04-19T09:34:25.951Z</time></trkpt><trkpt lat="42.8741767" lon="12.1578767"><ele>479.0</ele><time>2026-04-19T09:34:26.951Z</time></trkpt><trkpt lat="42.8740467" lon="12.1580333"><ele>478.0</ele><time>2026-04-19T09:34:27.95Z</time></trkpt><trkpt lat="42.8739333" lon="12.1581717"><ele>477.0</ele><time>2026-04-19T09:34:28.951Z</time></trkpt><trkpt lat="42.873835" lon="12.1583"><ele>476.0</ele><time>2026-04-19T09:34:29.95Z</time></trkpt><trkpt lat="42.87375" lon="12.158445"><ele>475.0</ele><time>2026-04-19T09:34:30.95Z</time></trkpt><trkpt lat="42.8736767" lon="12.158625"><ele>474.0</ele><time>2026-04-19T09:34:31.951Z</time></trkpt><trkpt lat="42.8736167" lon="12.1588567"><ele>472.33333333333337</ele><time>2026-04-19T09:34:32.951Z</time></trkpt><trkpt lat="42.8735583" lon="12.15913"><ele>470.6666666666667</ele><time>2026-04-19T09:34:33.951Z</time></trkpt><trkpt lat="42.8734983" lon="12.15944"><ele>469.0</ele><time>2026-04-19T09:34:34.951Z</time></trkpt><trkpt lat="42.8734383" lon="12.1597667"><ele>468.33333333333337</ele><time>2026-04-19T09:34:35.951Z</time></trkpt><trkpt lat="42.8733817" lon="12.16007"><ele>467.66666666666663</ele><time>2026-04-19T09:34:36.95Z</time></trkpt><trkpt lat="42.873335" lon="12.1603433"><ele>467.0</ele><time>2026-04-19T09:34:37.95Z</time></trkpt><trkpt lat="42.87329" lon="12.1605667"><ele>467.0</ele><time>2026-04-19T09:34:38.951Z</time></trkpt><trkpt lat="42.8732417" lon="12.1607583"><ele>467.0</ele><time>2026-04-19T09:34:39.95Z</time></trkpt><trkpt lat="42.8731733" lon="12.1609333"><ele>467.0</ele><time>2026-04-19T09:34:40.95Z</time></trkpt><trkpt lat="42.87308" lon="12.1611233"><ele>467.0</ele><time>2026-04-19T09:34:41.95Z</time></trkpt><trkpt lat="42.8729617" lon="12.1613067"><ele>467.0</ele><time>2026-04-19T09:34:42.951Z</time></trkpt><trkpt lat="42.872855" lon="12.1614783"><ele>467.0</ele><time>2026-04-19T09:34:43.951Z</time></trkpt><trkpt lat="42.8727667" lon="12.1616267"><ele>468.25</ele><time>2026-04-19T09:34:44.951Z</time></trkpt><trkpt lat="42.8727167" lon="12.1617717"><ele>469.5</ele><time>2026-04-19T09:34:45.95Z</time></trkpt><trkpt lat="42.8727083" lon="12.1619283"><ele>470.75</ele><time>2026-04-19T09:34:46.951Z</time></trkpt><trkpt lat="42.8727283" lon="12.1620767"><ele>472.0</ele><time>2026-04-19T09:34:47.95Z</time></trkpt><trkpt lat="42.872785" lon="12.162235"><ele>474.0</ele><time>2026-04-19T09:34:48.951Z</time></trkpt><trkpt lat="42.8728817" lon="12.1623883"><ele>476.0</ele><time>2026-04-19T09:34:49.951Z</time></trkpt><trkpt lat="42.8729617" lon="12.1625467"><ele>478.0</ele><time>2026-04-19T09:34:50.95Z</time></trkpt><trkpt lat="42.8730217" lon="12.162695"><ele>480.0</ele><time>2026-04-19T09:34:51.95Z</time></trkpt><trkpt lat="42.8730433" lon="12.1628417"><ele>480.0</ele><time>2026-04-19T09:34:52.951Z</time></trkpt><trkpt lat="42.8730383" lon="12.163"><ele>480.0</ele><time>2026-04-19T09:34:53.949Z</time></trkpt><trkpt lat="42.873005" lon="12.1631817"><ele>480.0</ele><time>2026-04-19T09:34:54.95Z</time></trkpt><trkpt lat="42.87294" lon="12.1633683"><ele>480.0</ele><time>2026-04-19T09:34:55.949Z</time></trkpt><trkpt lat="42.8728567" lon="12.1635633"><ele>479.75</ele><time>2026-04-19T09:34:56.949Z</time></trkpt><trkpt lat="42.8727817" lon="12.1637583"><ele>479.5</ele><time>2026-04-19T09:34:57.949Z</time></trkpt><trkpt lat="42.8727117" lon="12.163935"><ele>479.25</ele><time>2026-04-19T09:34:58.95Z</time></trkpt><trkpt lat="42.872635" lon="12.1640717"><ele>479.0</ele><time>2026-04-19T09:34:59.95Z</time></trkpt><trkpt lat="42.8725417" lon="12.1641683"><ele>479.0</ele><time>2026-04-19T09:35:00.949Z</time></trkpt><trkpt lat="42.872425" lon="12.1642367"><ele>479.0</ele><time>2026-04-19T09:35:01.949Z</time></trkpt><trkpt lat="42.8722717" lon="12.1642683"><ele>479.0</ele><time>2026-04-19T09:35:02.949Z</time></trkpt><trkpt lat="42.87209" lon="12.1643033"><ele>479.0</ele><time>2026-04-19T09:35:03.949Z</time></trkpt><trkpt lat="42.871915" lon="12.1643367"><ele>479.0</ele><time>2026-04-19T09:35:04.949Z</time></trkpt><trkpt lat="42.871775" lon="12.16438"><ele>479.0</ele><time>2026-04-19T09:35:05.95Z</time></trkpt><trkpt lat="42.8716533" lon="12.1644417"><ele>478.25</ele><time>2026-04-19T09:35:06.949Z</time></trkpt><trkpt lat="42.87156" lon="12.164535"><ele>477.5</ele><time>2026-04-19T09:35:07.949Z</time></trkpt><trkpt lat="42.8715017" lon="12.1646533"><ele>476.75</ele><time>2026-04-19T09:35:08.949Z</time></trkpt><trkpt lat="42.8714717" lon="12.1648083"><ele>476.0</ele><time>2026-04-19T09:35:09.949Z</time></trkpt><trkpt lat="42.8714567" lon="12.1649917"><ele>476.0</ele><time>2026-04-19T09:35:10.949Z</time></trkpt><trkpt lat="42.8714417" lon="12.1651733"><ele>476.0</ele><time>2026-04-19T09:35:11.949Z</time></trkpt><trkpt lat="42.8714183" lon="12.16534"><ele>476.0</ele><time>2026-04-19T09:35:12.95Z</time></trkpt><trkpt lat="42.87136" lon="12.16549"><ele>476.0</ele><time>2026-04-19T09:35:13.95Z</time></trkpt><trkpt lat="42.87127" lon="12.1655933"><ele>476.0</ele><time>2026-04-19T09:35:14.949Z</time></trkpt><trkpt lat="42.87114" lon="12.16568"><ele>476.0</ele><time>2026-04-19T09:35:15.95Z</time></trkpt><trkpt lat="42.87099" lon="12.1657417"><ele>476.0</ele><time>2026-04-19T09:35:16.95Z</time></trkpt><trkpt lat="42.8708167" lon="12.1657967"><ele>474.0</ele><time>2026-04-19T09:35:17.95Z</time></trkpt><trkpt lat="42.8706467" lon="12.16584"><ele>472.0</ele><time>2026-04-19T09:35:18.949Z</time></trkpt><trkpt lat="42.8704967" lon="12.1658933"><ele>470.0</ele><time>2026-04-19T09:35:19.95Z</time></trkpt><trkpt lat="42.8703533" lon="12.165935"><ele>470.0</ele><time>2026-04-19T09:35:20.949Z</time></trkpt><trkpt lat="42.8702217" lon="12.1659483"><ele>470.0</ele><time>2026-04-19T09:35:21.95Z</time></trkpt><trkpt lat="42.8700833" lon="12.165905"><ele>470.0</ele><time>2026-04-19T09:35:22.95Z</time></trkpt><trkpt lat="42.8699567" lon="12.1658233"><ele>470.0</ele><time>2026-04-19T09:35:23.949Z</time></trkpt><trkpt lat="42.8698217" lon="12.1657217"><ele>469.8</ele><time>2026-04-19T09:35:24.95Z</time></trkpt><trkpt lat="42.8697067" lon="12.1656467"><ele>469.6</ele><time>2026-04-19T09:35:25.95Z</time></trkpt><trkpt lat="42.8696" lon="12.1656"><ele>469.4</ele><time>2026-04-19T09:35:26.949Z</time></trkpt><trkpt lat="42.8695133" lon="12.1656"><ele>469.2</ele><time>2026-04-19T09:35:27.949Z</time></trkpt><trkpt lat="42.86943" lon="12.1656417"><ele>469.0</ele><time>2026-04-19T09:35:28.949Z</time></trkpt><trkpt lat="42.8693633" lon="12.1657133"><ele>468.5</ele><time>2026-04-19T09:35:29.95Z</time></trkpt><trkpt lat="42.869315" lon="12.16582"><ele>468.0</ele><time>2026-04-19T09:35:30.949Z</time></trkpt><trkpt lat="42.8693017" lon="12.16598"><ele>467.5</ele><time>2026-04-19T09:35:31.95Z</time></trkpt><trkpt lat="42.8692933" lon="12.1661683"><ele>467.0</ele><time>2026-04-19T09:35:32.95Z</time></trkpt><trkpt lat="42.869275" lon="12.1663783"><ele>471.25</ele><time>2026-04-19T09:35:33.949Z</time></trkpt><trkpt lat="42.8692583" lon="12.16659"><ele>475.5</ele><time>2026-04-19T09:35:34.95Z</time></trkpt><trkpt lat="42.8692367" lon="12.1667567"><ele>479.75</ele><time>2026-04-19T09:35:35.95Z</time></trkpt><trkpt lat="42.8691967" lon="12.1668883"><ele>484.0</ele><time>2026-04-19T09:35:36.95Z</time></trkpt><trkpt lat="42.8691217" lon="12.167"><ele>484.0</ele><time>2026-04-19T09:35:37.95Z</time></trkpt><trkpt lat="42.8690117" lon="12.1670933"><ele>484.0</ele><time>2026-04-19T09:35:38.949Z</time></trkpt><trkpt lat="42.8688833" lon="12.1671833"><ele>484.0</ele><time>2026-04-19T09:35:39.95Z</time></trkpt><trkpt lat="42.8687417" lon="12.16729"><ele>484.0</ele><time>2026-04-19T09:35:40.949Z</time></trkpt><trkpt lat="42.868585" lon="12.1673917"><ele>483.33333333333337</ele><time>2026-04-19T09:35:41.949Z</time></trkpt><trkpt lat="42.8684117" lon="12.1674783"><ele>482.66666666666663</ele><time>2026-04-19T09:35:42.949Z</time></trkpt><trkpt lat="42.8682267" lon="12.1675517"><ele>482.0</ele><time>2026-04-19T09:35:43.949Z</time></trkpt><trkpt lat="42.8680583" lon="12.1676033"><ele>482.0</ele><time>2026-04-19T09:35:44.95Z</time></trkpt><trkpt lat="42.8679083" lon="12.1676633"><ele>482.0</ele><time>2026-04-19T09:35:45.949Z</time></trkpt><trkpt lat="42.86777" lon="12.1677183"><ele>482.0</ele><time>2026-04-19T09:35:46.95Z</time></trkpt><trkpt lat="42.86764" lon="12.1677767"><ele>482.0</ele><time>2026-04-19T09:35:47.949Z</time></trkpt><trkpt lat="42.86752" lon="12.167825"><ele>481.8</ele><time>2026-04-19T09:35:48.949Z</time></trkpt><trkpt lat="42.8674117" lon="12.1678717"><ele>481.6</ele><time>2026-04-19T09:35:49.949Z</time></trkpt><trkpt lat="42.86732" lon="12.167905"><ele>481.40000000000003</ele><time>2026-04-19T09:35:50.949Z</time></trkpt><trkpt lat="42.8672467" lon="12.167945"><ele>481.20000000000005</ele><time>2026-04-19T09:35:51.949Z</time></trkpt><trkpt lat="42.86718" lon="12.16797"><ele>481.0</ele><time>2026-04-19T09:35:52.95Z</time></trkpt><trkpt lat="42.8670567" lon="12.1680167"><ele>481.00000000000006</ele><time>2026-04-19T09:35:54.95Z</time></trkpt><trkpt lat="42.86699" lon="12.1680483"><ele>481.0</ele><time>2026-04-19T09:35:55.95Z</time></trkpt><trkpt lat="42.8669233" lon="12.1680933"><ele>481.0</ele><time>2026-04-19T09:35:56.95Z</time></trkpt><trkpt lat="42.866865" lon="12.16815"><ele>481.0</ele><time>2026-04-19T09:35:57.95Z</time></trkpt><trkpt lat="42.866815" lon="12.1682133"><ele>481.00000000000006</ele><time>2026-04-19T09:35:58.95Z</time></trkpt><trkpt lat="42.8667667" lon="12.1682967"><ele>481.0</ele><time>2026-04-19T09:35:59.949Z</time></trkpt><trkpt lat="42.8667283" lon="12.1684133"><ele>481.0</ele><time>2026-04-19T09:36:00.95Z</time></trkpt><trkpt lat="42.8667033" lon="12.1685767"><ele>481.0</ele><time>2026-04-19T09:36:01.95Z</time></trkpt><trkpt lat="42.8667017" lon="12.1687367"><ele>481.0</ele><time>2026-04-19T09:36:02.95Z</time></trkpt><trkpt lat="42.8667433" lon="12.168885"><ele>481.0</ele><time>2026-04-19T09:36:03.949Z</time></trkpt><trkpt lat="42.8668233" lon="12.1690383"><ele>479.0</ele><time>2026-04-19T09:36:04.949Z</time></trkpt><trkpt lat="42.8669233" lon="12.16919"><ele>477.0</ele><time>2026-04-19T09:36:05.95Z</time></trkpt><trkpt lat="42.8670467" lon="12.16935"><ele>475.0</ele><time>2026-04-19T09:36:06.949Z</time></trkpt><trkpt lat="42.8671717" lon="12.1695083"><ele>475.0</ele><time>2026-04-19T09:36:07.949Z</time></trkpt><trkpt lat="42.8672917" lon="12.1696583"><ele>475.0</ele><time>2026-04-19T09:36:08.95Z</time></trkpt><trkpt lat="42.8674033" lon="12.1697967"><ele>475.0</ele><time>2026-04-19T09:36:09.95Z</time></trkpt><trkpt lat="42.8674817" lon="12.1699333"><ele>475.0</ele><time>2026-04-19T09:36:10.949Z</time></trkpt><trkpt lat="42.867545" lon="12.170085"><ele>476.25</ele><time>2026-04-19T09:36:11.95Z</time></trkpt><trkpt lat="42.8675717" lon="12.1702283"><ele>477.5</ele><time>2026-04-19T09:36:12.95Z</time></trkpt><trkpt lat="42.8675583" lon="12.1703867"><ele>478.75</ele><time>2026-04-19T09:36:13.95Z</time></trkpt><trkpt lat="42.8675067" lon="12.1705383"><ele>480.0</ele><time>2026-04-19T09:36:14.95Z</time></trkpt><trkpt lat="42.86742" lon="12.170675"><ele>482.0</ele><time>2026-04-19T09:36:15.949Z</time></trkpt><trkpt lat="42.8673" lon="12.1708033"><ele>484.0</ele><time>2026-04-19T09:36:16.95Z</time></trkpt><trkpt lat="42.8671533" lon="12.170925"><ele>486.0</ele><time>2026-04-19T09:36:17.95Z</time></trkpt><trkpt lat="42.866985" lon="12.1710517"><ele>486.0</ele><time>2026-04-19T09:36:18.95Z</time></trkpt><trkpt lat="42.86681" lon="12.171175"><ele>486.0</ele><time>2026-04-19T09:36:19.95Z</time></trkpt><trkpt lat="42.86663" lon="12.1712933"><ele>486.0</ele><time>2026-04-19T09:36:20.95Z</time></trkpt><trkpt lat="42.8664533" lon="12.1713983"><ele>484.66666666666663</ele><time>2026-04-19T09:36:21.95Z</time></trkpt><trkpt lat="42.8662867" lon="12.171515"><ele>483.3333333333333</ele><time>2026-04-19T09:36:22.949Z</time></trkpt><trkpt lat="42.8661383" lon="12.1716333"><ele>482.0</ele><time>2026-04-19T09:36:23.95Z</time></trkpt><trkpt lat="42.8659933" lon="12.1717883"><ele>483.3333333333333</ele><time>2026-04-19T09:36:24.95Z</time></trkpt><trkpt lat="42.865855" lon="12.17198"><ele>484.66666666666663</ele><time>2026-04-19T09:36:25.95Z</time></trkpt><trkpt lat="42.86574" lon="12.1721833"><ele>486.0</ele><time>2026-04-19T09:36:26.95Z</time></trkpt><trkpt lat="42.86564" lon="12.1723883"><ele>486.33333333333337</ele><time>2026-04-19T09:36:27.95Z</time></trkpt><trkpt lat="42.865545" lon="12.1725717"><ele>486.6666666666667</ele><time>2026-04-19T09:36:28.95Z</time></trkpt><trkpt lat="42.86544" lon="12.1727383"><ele>487.0</ele><time>2026-04-19T09:36:29.95Z</time></trkpt><trkpt lat="42.86532" lon="12.1728633"><ele>487.0</ele><time>2026-04-19T09:36:30.95Z</time></trkpt><trkpt lat="42.8651867" lon="12.1729717"><ele>487.0</ele><time>2026-04-19T09:36:31.949Z</time></trkpt><trkpt lat="42.8650367" lon="12.1730533"><ele>487.0</ele><time>2026-04-19T09:36:32.95Z</time></trkpt><trkpt lat="42.8648733" lon="12.1731167"><ele>486.0</ele><time>2026-04-19T09:36:33.949Z</time></trkpt><trkpt lat="42.864695" lon="12.17316"><ele>485.0</ele><time>2026-04-19T09:36:34.95Z</time></trkpt><trkpt lat="42.8645183" lon="12.1731883"><ele>484.0</ele><time>2026-04-19T09:36:35.95Z</time></trkpt><trkpt lat="42.8643483" lon="12.1731933"><ele>484.6666666666667</ele><time>2026-04-19T09:36:36.95Z</time></trkpt><trkpt lat="42.8641683" lon="12.173175"><ele>485.33333333333337</ele><time>2026-04-19T09:36:37.949Z</time></trkpt><trkpt lat="42.863985" lon="12.1731217"><ele>486.0</ele><time>2026-04-19T09:36:38.949Z</time></trkpt><trkpt lat="42.8638033" lon="12.17305"><ele>486.0</ele><time>2026-04-19T09:36:39.95Z</time></trkpt><trkpt lat="42.8636217" lon="12.172985"><ele>486.0</ele><time>2026-04-19T09:36:40.95Z</time></trkpt><trkpt lat="42.863445" lon="12.17294"><ele>486.0</ele><time>2026-04-19T09:36:41.949Z</time></trkpt><trkpt lat="42.8632783" lon="12.1729317"><ele>486.66666666666663</ele><time>2026-04-19T09:36:42.95Z</time></trkpt><trkpt lat="42.8631167" lon="12.1729633"><ele>487.3333333333333</ele><time>2026-04-19T09:36:43.949Z</time></trkpt><trkpt lat="42.8629633" lon="12.1730367"><ele>488.0</ele><time>2026-04-19T09:36:44.949Z</time></trkpt><trkpt lat="42.8628133" lon="12.17316"><ele>487.66666666666663</ele><time>2026-04-19T09:36:45.95Z</time></trkpt><trkpt lat="42.8626717" lon="12.173315"><ele>487.33333333333337</ele><time>2026-04-19T09:36:46.949Z</time></trkpt><trkpt lat="42.8625383" lon="12.1735"><ele>487.0</ele><time>2026-04-19T09:36:47.95Z</time></trkpt><trkpt lat="42.862405" lon="12.1736817"><ele>487.0</ele><time>2026-04-19T09:36:48.949Z</time></trkpt><trkpt lat="42.8622633" lon="12.173855"><ele>487.0</ele><time>2026-04-19T09:36:49.949Z</time></trkpt><trkpt lat="42.8621133" lon="12.1740267"><ele>487.0</ele><time>2026-04-19T09:36:50.949Z</time></trkpt><trkpt lat="42.8619667" lon="12.1741767"><ele>486.75</ele><time>2026-04-19T09:36:51.95Z</time></trkpt><trkpt lat="42.8618317" lon="12.1743167"><ele>486.5</ele><time>2026-04-19T09:36:52.95Z</time></trkpt><trkpt lat="42.8617067" lon="12.1744283"><ele>486.25</ele><time>2026-04-19T09:36:53.949Z</time></trkpt><trkpt lat="42.861605" lon="12.17453"><ele>486.0</ele><time>2026-04-19T09:36:54.949Z</time></trkpt><trkpt lat="42.8615267" lon="12.1746083"><ele>486.0</ele><time>2026-04-19T09:36:55.95Z</time></trkpt><trkpt lat="42.8614683" lon="12.1746733"><ele>486.0</ele><time>2026-04-19T09:36:56.95Z</time></trkpt><trkpt lat="42.8614083" lon="12.1747"><ele>486.0</ele><time>2026-04-19T09:36:57.949Z</time></trkpt><trkpt lat="42.8613017" lon="12.174665"><ele>486.0</ele><time>2026-04-19T09:36:59.95Z</time></trkpt><trkpt lat="42.8612233" lon="12.1746217"><ele>486.0</ele><time>2026-04-19T09:37:00.949Z</time></trkpt><trkpt lat="42.8611383" lon="12.1745567"><ele>486.0</ele><time>2026-04-19T09:37:01.95Z</time></trkpt><trkpt lat="42.8610683" lon="12.17448"><ele>486.0</ele><time>2026-04-19T09:37:02.949Z</time></trkpt><trkpt lat="42.8609883" lon="12.1743817"><ele>486.0</ele><time>2026-04-19T09:37:03.949Z</time></trkpt><trkpt lat="42.8609067" lon="12.174275"><ele>486.0</ele><time>2026-04-19T09:37:04.95Z</time></trkpt><trkpt lat="42.860825" lon="12.1741483"><ele>486.0</ele><time>2026-04-19T09:37:05.949Z</time></trkpt><trkpt lat="42.8607583" lon="12.1740233"><ele>484.5</ele><time>2026-04-19T09:37:06.95Z</time></trkpt><trkpt lat="42.8606883" lon="12.1739"><ele>483.0</ele><time>2026-04-19T09:37:07.949Z</time></trkpt><trkpt lat="42.8606233" lon="12.1737867"><ele>481.5</ele><time>2026-04-19T09:37:08.949Z</time></trkpt><trkpt lat="42.8605683" lon="12.17369"><ele>480.0</ele><time>2026-04-19T09:37:09.95Z</time></trkpt><trkpt lat="42.860525" lon="12.1736117"><ele>478.5</ele><time>2026-04-19T09:37:10.949Z</time></trkpt><trkpt lat="42.8604833" lon="12.1735417"><ele>477.0</ele><time>2026-04-19T09:37:11.95Z</time></trkpt><trkpt lat="42.86044" lon="12.1734683"><ele>477.0</ele><time>2026-04-19T09:37:12.95Z</time></trkpt><trkpt lat="42.8603933" lon="12.173385"><ele>477.0</ele><time>2026-04-19T09:37:13.95Z</time></trkpt><trkpt lat="42.8603383" lon="12.1732917"><ele>477.0</ele><time>2026-04-19T09:37:14.95Z</time></trkpt><trkpt lat="42.8602783" lon="12.1731883"><ele>477.0</ele><time>2026-04-19T09:37:15.95Z</time></trkpt><trkpt lat="42.8602183" lon="12.1730983"><ele>477.0</ele><time>2026-04-19T09:37:16.949Z</time></trkpt><trkpt lat="42.8601483" lon="12.17301"><ele>477.0</ele><time>2026-04-19T09:37:17.95Z</time></trkpt><trkpt lat="42.860065" lon="12.1729133"><ele>475.0</ele><time>2026-04-19T09:37:18.949Z</time></trkpt><trkpt lat="42.8599783" lon="12.1728167"><ele>473.00000000000006</ele><time>2026-04-19T09:37:19.95Z</time></trkpt><trkpt lat="42.8598967" lon="12.1727233"><ele>471.00000000000006</ele><time>2026-04-19T09:37:20.95Z</time></trkpt><trkpt lat="42.85981" lon="12.1726383"><ele>469.0</ele><time>2026-04-19T09:37:21.95Z</time></trkpt><trkpt lat="42.8597217" lon="12.17254"><ele>467.0</ele><time>2026-04-19T09:37:22.95Z</time></trkpt><trkpt lat="42.859625" lon="12.17245"><ele>464.75</ele><time>2026-04-19T09:37:23.949Z</time></trkpt><trkpt lat="42.8595317" lon="12.1723433"><ele>462.5</ele><time>2026-04-19T09:37:24.949Z</time></trkpt><trkpt lat="42.8594367" lon="12.1722433"><ele>460.25</ele><time>2026-04-19T09:37:25.949Z</time></trkpt><trkpt lat="42.85934" lon="12.1721483"><ele>458.0</ele><time>2026-04-19T09:37:26.95Z</time></trkpt><trkpt lat="42.8592583" lon="12.172055"><ele>458.0</ele><time>2026-04-19T09:37:27.95Z</time></trkpt><trkpt lat="42.8591683" lon="12.17196"><ele>457.99999999999994</ele><time>2026-04-19T09:37:28.95Z</time></trkpt><trkpt lat="42.8590817" lon="12.1718667"><ele>457.99999999999994</ele><time>2026-04-19T09:37:29.949Z</time></trkpt><trkpt lat="42.8590033" lon="12.17179"><ele>458.0</ele><time>2026-04-19T09:37:30.949Z</time></trkpt><trkpt lat="42.858925" lon="12.1717117"><ele>458.0</ele><time>2026-04-19T09:37:31.95Z</time></trkpt><trkpt lat="42.8588533" lon="12.1716333"><ele>457.99999999999994</ele><time>2026-04-19T09:37:32.949Z</time></trkpt><trkpt lat="42.8587817" lon="12.1715483"><ele>458.0</ele><time>2026-04-19T09:37:33.95Z</time></trkpt><trkpt lat="42.8587183" lon="12.171465"><ele>458.0</ele><time>2026-04-19T09:37:34.95Z</time></trkpt><trkpt lat="42.858665" lon="12.171385"><ele>458.0</ele><time>2026-04-19T09:37:35.949Z</time></trkpt><trkpt lat="42.8586167" lon="12.1713183"><ele>457.99999999999994</ele><time>2026-04-19T09:37:36.95Z</time></trkpt><trkpt lat="42.8585733" lon="12.1712467"><ele>458.0</ele><time>2026-04-19T09:37:37.95Z</time></trkpt><trkpt lat="42.8585033" lon="12.1711217"><ele>456.16666666666663</ele><time>2026-04-19T09:37:39.949Z</time></trkpt><trkpt lat="42.8584483" lon="12.1710267"><ele>454.3333333333333</ele><time>2026-04-19T09:37:41.95Z</time></trkpt><trkpt lat="42.8583783" lon="12.170915"><ele>452.5</ele><time>2026-04-19T09:37:43.95Z</time></trkpt><trkpt lat="42.858335" lon="12.17085"><ele>450.66666666666663</ele><time>2026-04-19T09:37:44.95Z</time></trkpt><trkpt lat="42.8582817" lon="12.17079"><ele>448.8333333333333</ele><time>2026-04-19T09:37:45.949Z</time></trkpt><trkpt lat="42.858225" lon="12.17074"><ele>447.0</ele><time>2026-04-19T09:37:46.95Z</time></trkpt><trkpt lat="42.8581217" lon="12.170665"><ele>445.3333333333333</ele><time>2026-04-19T09:37:48.95Z</time></trkpt><trkpt lat="42.85802" lon="12.1706233"><ele>443.66666666666663</ele><time>2026-04-19T09:37:50.949Z</time></trkpt><trkpt lat="42.8578967" lon="12.17062"><ele>442.0</ele><time>2026-04-19T09:37:52.949Z</time></trkpt><trkpt lat="42.857825" lon="12.17062"><ele>440.3333333333333</ele><time>2026-04-19T09:37:53.949Z</time></trkpt><trkpt lat="42.857755" lon="12.1706167"><ele>438.66666666666663</ele><time>2026-04-19T09:37:54.949Z</time></trkpt><trkpt lat="42.8576917" lon="12.170625"><ele>437.0</ele><time>2026-04-19T09:37:55.95Z</time></trkpt><trkpt lat="42.8575583" lon="12.1706517"><ele>436.16666666666663</ele><time>2026-04-19T09:37:57.95Z</time></trkpt><trkpt lat="42.857475" lon="12.170655"><ele>435.3333333333333</ele><time>2026-04-19T09:37:58.949Z</time></trkpt><trkpt lat="42.8573967" lon="12.1706567"><ele>434.5</ele><time>2026-04-19T09:37:59.95Z</time></trkpt><trkpt lat="42.857325" lon="12.1706567"><ele>433.66666666666663</ele><time>2026-04-19T09:38:00.95Z</time></trkpt><trkpt lat="42.8572617" lon="12.1706467"><ele>432.8333333333333</ele><time>2026-04-19T09:38:01.95Z</time></trkpt><trkpt lat="42.85714" lon="12.1705833"><ele>432.0</ele><time>2026-04-19T09:38:03.949Z</time></trkpt><trkpt lat="42.857085" lon="12.1705333"><ele>432.0</ele><time>2026-04-19T09:38:04.949Z</time></trkpt><trkpt lat="42.8570083" lon="12.1704367"><ele>432.00000000000006</ele><time>2026-04-19T09:38:06.949Z</time></trkpt><trkpt lat="42.8569317" lon="12.1703167"><ele>432.00000000000006</ele><time>2026-04-19T09:38:08.95Z</time></trkpt><trkpt lat="42.8568867" lon="12.1701967"><ele>432.0</ele><time>2026-04-19T09:38:10.95Z</time></trkpt><trkpt lat="42.856825" lon="12.1701033"><ele>432.0</ele><time>2026-04-19T09:38:12.95Z</time></trkpt><trkpt lat="42.856745" lon="12.17012"><ele>430.0</ele><time>2026-04-19T09:38:14.949Z</time></trkpt><trkpt lat="42.8566567" lon="12.1702683"><ele>428.0</ele><time>2026-04-19T09:38:16.949Z</time></trkpt><trkpt lat="42.856615" lon="12.1703583"><ele>426.0</ele><time>2026-04-19T09:38:17.949Z</time></trkpt><trkpt lat="42.8565817" lon="12.1704317"><ele>424.0</ele><time>2026-04-19T09:38:18.95Z</time></trkpt><trkpt lat="42.8565417" lon="12.1704983"><ele>422.0</ele><time>2026-04-19T09:38:19.95Z</time></trkpt><trkpt lat="42.856485" lon="12.17055"><ele>420.0</ele><time>2026-04-19T09:38:20.949Z</time></trkpt><trkpt lat="42.856425" lon="12.1705983"><ele>420.0</ele><time>2026-04-19T09:38:21.949Z</time></trkpt><trkpt lat="42.85635" lon="12.17063"><ele>420.0</ele><time>2026-04-19T09:38:22.949Z</time></trkpt><trkpt lat="42.85627" lon="12.1706517"><ele>420.0</ele><time>2026-04-19T09:38:23.949Z</time></trkpt><trkpt lat="42.856185" lon="12.17065"><ele>420.0</ele><time>2026-04-19T09:38:24.95Z</time></trkpt><trkpt lat="42.85609" lon="12.1706267"><ele>420.0</ele><time>2026-04-19T09:38:25.949Z</time></trkpt><trkpt lat="42.8559817" lon="12.1705933"><ele>418.25</ele><time>2026-04-19T09:38:26.949Z</time></trkpt><trkpt lat="42.8558567" lon="12.170555"><ele>416.5</ele><time>2026-04-19T09:38:27.95Z</time></trkpt><trkpt lat="42.8557183" lon="12.1705183"><ele>414.75</ele><time>2026-04-19T09:38:28.949Z</time></trkpt><trkpt lat="42.8555733" lon="12.170485"><ele>413.0</ele><time>2026-04-19T09:38:29.95Z</time></trkpt><trkpt lat="42.8554383" lon="12.1704533"><ele>413.0</ele><time>2026-04-19T09:38:30.949Z</time></trkpt><trkpt lat="42.8553183" lon="12.1704217"><ele>413.0</ele><time>2026-04-19T09:38:31.949Z</time></trkpt><trkpt lat="42.85521" lon="12.1703867"><ele>413.0</ele><time>2026-04-19T09:38:32.95Z</time></trkpt><trkpt lat="42.85511" lon="12.1703467"><ele>413.0</ele><time>2026-04-19T09:38:33.949Z</time></trkpt><trkpt lat="42.8550233" lon="12.1703083"><ele>413.0</ele><time>2026-04-19T09:38:34.949Z</time></trkpt><trkpt lat="42.854945" lon="12.17028"><ele>413.2</ele><time>2026-04-19T09:38:35.949Z</time></trkpt><trkpt lat="42.854875" lon="12.1702633"><ele>413.4</ele><time>2026-04-19T09:38:36.949Z</time></trkpt><trkpt lat="42.8547617" lon="12.17025"><ele>413.59999999999997</ele><time>2026-04-19T09:38:38.95Z</time></trkpt><trkpt lat="42.8546433" lon="12.17024"><ele>413.79999999999995</ele><time>2026-04-19T09:38:40.95Z</time></trkpt><trkpt lat="42.8545233" lon="12.170245"><ele>414.0</ele><time>2026-04-19T09:38:42.95Z</time></trkpt><trkpt lat="42.8544083" lon="12.17025"><ele>414.0</ele><time>2026-04-19T09:38:44.949Z</time></trkpt><trkpt lat="42.85431" lon="12.1702733"><ele>414.0</ele><time>2026-04-19T09:38:46.949Z</time></trkpt><trkpt lat="42.85419" lon="12.170365"><ele>414.0</ele><time>2026-04-19T09:38:48.949Z</time></trkpt><trkpt lat="42.8541083" lon="12.1704383"><ele>414.0</ele><time>2026-04-19T09:38:49.95Z</time></trkpt><trkpt lat="42.8540083" lon="12.1705333"><ele>415.25</ele><time>2026-04-19T09:38:50.949Z</time></trkpt><trkpt lat="42.8539017" lon="12.17064"><ele>416.5</ele><time>2026-04-19T09:38:51.949Z</time></trkpt><trkpt lat="42.8537967" lon="12.1707517"><ele>417.75</ele><time>2026-04-19T09:38:52.949Z</time></trkpt><trkpt lat="42.8536933" lon="12.17085"><ele>419.0</ele><time>2026-04-19T09:38:53.949Z</time></trkpt><trkpt lat="42.853595" lon="12.17094"><ele>419.0</ele><time>2026-04-19T09:38:54.95Z</time></trkpt><trkpt lat="42.8534967" lon="12.17103"><ele>419.0</ele><time>2026-04-19T09:38:55.949Z</time></trkpt><trkpt lat="42.8533933" lon="12.1711217"><ele>419.0</ele><time>2026-04-19T09:38:56.949Z</time></trkpt><trkpt lat="42.8532883" lon="12.1712183"><ele>419.0</ele><time>2026-04-19T09:38:57.949Z</time></trkpt><trkpt lat="42.8531683" lon="12.1713183"><ele>420.75</ele><time>2026-04-19T09:38:58.949Z</time></trkpt><trkpt lat="42.8530417" lon="12.171415"><ele>422.5</ele><time>2026-04-19T09:38:59.949Z</time></trkpt><trkpt lat="42.8529217" lon="12.1715167"><ele>424.25</ele><time>2026-04-19T09:39:00.949Z</time></trkpt><trkpt lat="42.8528033" lon="12.17161"><ele>426.0</ele><time>2026-04-19T09:39:01.95Z</time></trkpt><trkpt lat="42.85268" lon="12.171715"><ele>430.33333333333337</ele><time>2026-04-19T09:39:02.95Z</time></trkpt><trkpt lat="42.8525433" lon="12.17183"><ele>434.6666666666667</ele><time>2026-04-19T09:39:03.95Z</time></trkpt><trkpt lat="42.8524" lon="12.1719533"><ele>439.0</ele><time>2026-04-19T09:39:04.95Z</time></trkpt><trkpt lat="42.85225" lon="12.1720883"><ele>439.0</ele><time>2026-04-19T09:39:05.949Z</time></trkpt><trkpt lat="42.8521067" lon="12.17222"><ele>439.0</ele><time>2026-04-19T09:39:06.95Z</time></trkpt><trkpt lat="42.851985" lon="12.172325"><ele>439.0</ele><time>2026-04-19T09:39:07.949Z</time></trkpt><trkpt lat="42.8518833" lon="12.1724133"><ele>439.0</ele><time>2026-04-19T09:39:08.95Z</time></trkpt><trkpt lat="42.8517933" lon="12.1724783"><ele>441.1666666666667</ele><time>2026-04-19T09:39:09.95Z</time></trkpt><trkpt lat="42.8517017" lon="12.1725233"><ele>443.33333333333337</ele><time>2026-04-19T09:39:10.949Z</time></trkpt><trkpt lat="42.8516217" lon="12.17255"><ele>445.5</ele><time>2026-04-19T09:39:11.949Z</time></trkpt><trkpt lat="42.85154" lon="12.1725417"><ele>447.66666666666663</ele><time>2026-04-19T09:39:12.95Z</time></trkpt><trkpt lat="42.8514667" lon="12.172505"><ele>449.8333333333333</ele><time>2026-04-19T09:39:13.95Z</time></trkpt><trkpt lat="42.8513967" lon="12.1724467"><ele>452.0</ele><time>2026-04-19T09:39:14.95Z</time></trkpt><trkpt lat="42.8513317" lon="12.1723783"><ele>452.3333333333333</ele><time>2026-04-19T09:39:15.949Z</time></trkpt><trkpt lat="42.8512683" lon="12.1722783"><ele>452.66666666666663</ele><time>2026-04-19T09:39:16.95Z</time></trkpt><trkpt lat="42.85121" lon="12.1721867"><ele>453.0</ele><time>2026-04-19T09:39:17.949Z</time></trkpt><trkpt lat="42.8511533" lon="12.1721317"><ele>453.33333333333337</ele><time>2026-04-19T09:39:18.95Z</time></trkpt><trkpt lat="42.8510867" lon="12.1720967"><ele>453.6666666666667</ele><time>2026-04-19T09:39:19.95Z</time></trkpt><trkpt lat="42.8510083" lon="12.1721033"><ele>454.0</ele><time>2026-04-19T09:39:20.95Z</time></trkpt><trkpt lat="42.850915" lon="12.1721217"><ele>454.0</ele><time>2026-04-19T09:39:21.949Z</time></trkpt><trkpt lat="42.8508167" lon="12.1721717"><ele>454.0</ele><time>2026-04-19T09:39:22.95Z</time></trkpt><trkpt lat="42.850715" lon="12.1722417"><ele>454.0</ele><time>2026-04-19T09:39:23.95Z</time></trkpt><trkpt lat="42.85062" lon="12.1723267"><ele>454.0</ele><time>2026-04-19T09:39:24.95Z</time></trkpt><trkpt lat="42.8505283" lon="12.172435"><ele>456.0</ele><time>2026-04-19T09:39:25.95Z</time></trkpt><trkpt lat="42.8504417" lon="12.172575"><ele>458.0</ele><time>2026-04-19T09:39:26.949Z</time></trkpt><trkpt lat="42.8503667" lon="12.1727167"><ele>460.0</ele><time>2026-04-19T09:39:27.949Z</time></trkpt><trkpt lat="42.850305" lon="12.1728317"><ele>462.0</ele><time>2026-04-19T09:39:28.949Z</time></trkpt><trkpt lat="42.85025" lon="12.1729167"><ele>462.0</ele><time>2026-04-19T09:39:29.949Z</time></trkpt><trkpt lat="42.8501867" lon="12.1729783"><ele>462.0</ele><time>2026-04-19T09:39:30.949Z</time></trkpt><trkpt lat="42.85012" lon="12.1730167"><ele>462.0</ele><time>2026-04-19T09:39:31.95Z</time></trkpt><trkpt lat="42.8500433" lon="12.1730417"><ele>462.0</ele><time>2026-04-19T09:39:32.95Z</time></trkpt><trkpt lat="42.8499683" lon="12.1730383"><ele>462.0</ele><time>2026-04-19T09:39:33.95Z</time></trkpt><trkpt lat="42.8498883" lon="12.1730167"><ele>462.0</ele><time>2026-04-19T09:39:34.949Z</time></trkpt><trkpt lat="42.84981" lon="12.17299"><ele>464.6666666666667</ele><time>2026-04-19T09:39:35.95Z</time></trkpt><trkpt lat="42.84972" lon="12.1729417"><ele>467.33333333333337</ele><time>2026-04-19T09:39:36.949Z</time></trkpt><trkpt lat="42.8496283" lon="12.1729017"><ele>470.0</ele><time>2026-04-19T09:39:37.95Z</time></trkpt><trkpt lat="42.84955" lon="12.1728883"><ele>472.6666666666667</ele><time>2026-04-19T09:39:38.95Z</time></trkpt><trkpt lat="42.8494683" lon="12.172895"><ele>475.33333333333337</ele><time>2026-04-19T09:39:39.95Z</time></trkpt><trkpt lat="42.8493933" lon="12.1729267"><ele>478.0</ele><time>2026-04-19T09:39:40.949Z</time></trkpt><trkpt lat="42.849325" lon="12.1729733"><ele>481.57142857142867</ele><time>2026-04-19T09:39:41.949Z</time></trkpt><trkpt lat="42.849265" lon="12.17304"><ele>485.14285714285717</ele><time>2026-04-19T09:39:42.949Z</time></trkpt><trkpt lat="42.8492183" lon="12.173125"><ele>488.7142857142858</ele><time>2026-04-19T09:39:43.95Z</time></trkpt><trkpt lat="42.84919" lon="12.173215"><ele>492.28571428571433</ele><time>2026-04-19T09:39:44.949Z</time></trkpt><trkpt lat="42.8491667" lon="12.1733"><ele>495.8571428571429</ele><time>2026-04-19T09:39:45.949Z</time></trkpt><trkpt lat="42.8491533" lon="12.1733867"><ele>499.42857142857144</ele><time>2026-04-19T09:39:46.949Z</time></trkpt><trkpt lat="42.84913" lon="12.1734683"><ele>503.0</ele><time>2026-04-19T09:39:47.949Z</time></trkpt><trkpt lat="42.849105" lon="12.173555"><ele>503.4</ele><time>2026-04-19T09:39:48.95Z</time></trkpt><trkpt lat="42.84906" lon="12.17365"><ele>503.79999999999995</ele><time>2026-04-19T09:39:49.95Z</time></trkpt><trkpt lat="42.8489983" lon="12.17376"><ele>504.2</ele><time>2026-04-19T09:39:50.949Z</time></trkpt><trkpt lat="42.84893" lon="12.1738817"><ele>504.6</ele><time>2026-04-19T09:39:51.949Z</time></trkpt><trkpt lat="42.84887" lon="12.1740167"><ele>505.0</ele><time>2026-04-19T09:39:52.949Z</time></trkpt><trkpt lat="42.84882" lon="12.174145"><ele>506.1428571428571</ele><time>2026-04-19T09:39:53.949Z</time></trkpt><trkpt lat="42.8487783" lon="12.1742383"><ele>507.2857142857142</ele><time>2026-04-19T09:39:54.95Z</time></trkpt><trkpt lat="42.848735" lon="12.1743233"><ele>508.42857142857144</ele><time>2026-04-19T09:39:55.95Z</time></trkpt><trkpt lat="42.848685" lon="12.174385"><ele>509.57142857142856</ele><time>2026-04-19T09:39:56.95Z</time></trkpt><trkpt lat="42.8486217" lon="12.1744267"><ele>510.7142857142857</ele><time>2026-04-19T09:39:57.949Z</time></trkpt><trkpt lat="42.8485567" lon="12.1744433"><ele>511.8571428571429</ele><time>2026-04-19T09:39:58.949Z</time></trkpt><trkpt lat="42.8484933" lon="12.1744283"><ele>513.0</ele><time>2026-04-19T09:39:59.949Z</time></trkpt><trkpt lat="42.8484267" lon="12.1743983"><ele>514.6</ele><time>2026-04-19T09:40:00.949Z</time></trkpt><trkpt lat="42.8483517" lon="12.174325"><ele>516.1999999999999</ele><time>2026-04-19T09:40:01.95Z</time></trkpt><trkpt lat="42.8482617" lon="12.1742267"><ele>517.8</ele><time>2026-04-19T09:40:02.949Z</time></trkpt><trkpt lat="42.8481667" lon="12.1741183"><ele>519.4</ele><time>2026-04-19T09:40:03.949Z</time></trkpt><trkpt lat="42.8480917" lon="12.174015"><ele>521.0</ele><time>2026-04-19T09:40:04.95Z</time></trkpt><trkpt lat="42.8480033" lon="12.1739383"><ele>522.0</ele><time>2026-04-19T09:40:05.949Z</time></trkpt><trkpt lat="42.84791" lon="12.1738833"><ele>523.0</ele><time>2026-04-19T09:40:06.95Z</time></trkpt><trkpt lat="42.8478033" lon="12.1738433"><ele>524.0</ele><time>2026-04-19T09:40:07.949Z</time></trkpt><trkpt lat="42.8476883" lon="12.1738233"><ele>525.0</ele><time>2026-04-19T09:40:08.949Z</time></trkpt><trkpt lat="42.8475667" lon="12.17382"><ele>526.5</ele><time>2026-04-19T09:40:09.95Z</time></trkpt><trkpt lat="42.84743" lon="12.1738267"><ele>528.0</ele><time>2026-04-19T09:40:10.95Z</time></trkpt><trkpt lat="42.8472933" lon="12.1738483"><ele>529.5</ele><time>2026-04-19T09:40:11.949Z</time></trkpt><trkpt lat="42.847175" lon="12.1738883"><ele>531.0</ele><time>2026-04-19T09:40:12.949Z</time></trkpt><trkpt lat="42.847055" lon="12.1739133"><ele>531.0</ele><time>2026-04-19T09:40:13.95Z</time></trkpt><trkpt lat="42.846925" lon="12.173935"><ele>531.0</ele><time>2026-04-19T09:40:14.949Z</time></trkpt><trkpt lat="42.8468067" lon="12.173935"><ele>531.0</ele><time>2026-04-19T09:40:15.949Z</time></trkpt><trkpt lat="42.8467083" lon="12.173915"><ele>531.0</ele><time>2026-04-19T09:40:16.949Z</time></trkpt><trkpt lat="42.846625" lon="12.1738983"><ele>531.0</ele><time>2026-04-19T09:40:17.949Z</time></trkpt><trkpt lat="42.8465433" lon="12.1738667"><ele>531.2</ele><time>2026-04-19T09:40:18.949Z</time></trkpt><trkpt lat="42.8464583" lon="12.1738067"><ele>531.4000000000001</ele><time>2026-04-19T09:40:19.95Z</time></trkpt><trkpt lat="42.8463633" lon="12.1737317"><ele>531.6</ele><time>2026-04-19T09:40:20.95Z</time></trkpt><trkpt lat="42.84627" lon="12.1736583"><ele>531.8000000000001</ele><time>2026-04-19T09:40:21.949Z</time></trkpt><trkpt lat="42.8461733" lon="12.1736083"><ele>532.0</ele><time>2026-04-19T09:40:22.95Z</time></trkpt><trkpt lat="42.8460633" lon="12.17357"><ele>533.6</ele><time>2026-04-19T09:40:23.949Z</time></trkpt><trkpt lat="42.84595" lon="12.17355"><ele>535.2</ele><time>2026-04-19T09:40:24.95Z</time></trkpt><trkpt lat="42.8458333" lon="12.1735433"><ele>536.8</ele><time>2026-04-19T09:40:25.95Z</time></trkpt><trkpt lat="42.8457317" lon="12.1735483"><ele>538.4</ele><time>2026-04-19T09:40:26.95Z</time></trkpt><trkpt lat="42.8456433" lon="12.1735583"><ele>540.0</ele><time>2026-04-19T09:40:27.949Z</time></trkpt><trkpt lat="42.84556" lon="12.1735733"><ele>540.0</ele><time>2026-04-19T09:40:28.95Z</time></trkpt><trkpt lat="42.8454817" lon="12.173595"><ele>540.0</ele><time>2026-04-19T09:40:29.949Z</time></trkpt><trkpt lat="42.8454117" lon="12.1736233"><ele>540.0</ele><time>2026-04-19T09:40:30.95Z</time></trkpt><trkpt lat="42.8453333" lon="12.173655"><ele>540.0</ele><time>2026-04-19T09:40:31.949Z</time></trkpt><trkpt lat="42.8452333" lon="12.17368"><ele>540.0</ele><time>2026-04-19T09:40:32.95Z</time></trkpt><trkpt lat="42.845095" lon="12.1737083"><ele>542.0</ele><time>2026-04-19T09:40:33.949Z</time></trkpt><trkpt lat="42.844945" lon="12.1737433"><ele>544.0</ele><time>2026-04-19T09:40:34.949Z</time></trkpt><trkpt lat="42.8448033" lon="12.1737883"><ele>546.0</ele><time>2026-04-19T09:40:35.949Z</time></trkpt><trkpt lat="42.84467" lon="12.17384"><ele>548.0</ele><time>2026-04-19T09:40:36.949Z</time></trkpt><trkpt lat="42.8445283" lon="12.1739017"><ele>548.0</ele><time>2026-04-19T09:40:37.949Z</time></trkpt><trkpt lat="42.8444033" lon="12.17394"><ele>548.0</ele><time>2026-04-19T09:40:38.949Z</time></trkpt><trkpt lat="42.8442867" lon="12.1739767"><ele>548.0</ele><time>2026-04-19T09:40:39.949Z</time></trkpt><trkpt lat="42.8441717" lon="12.1740017"><ele>548.0</ele><time>2026-04-19T09:40:40.95Z</time></trkpt><trkpt lat="42.844055" lon="12.1740217"><ele>550.25</ele><time>2026-04-19T09:40:41.949Z</time></trkpt><trkpt lat="42.8439217" lon="12.1740167"><ele>552.5</ele><time>2026-04-19T09:40:42.949Z</time></trkpt><trkpt lat="42.84378" lon="12.1740083"><ele>554.75</ele><time>2026-04-19T09:40:43.949Z</time></trkpt><trkpt lat="42.8436433" lon="12.1739983"><ele>557.0</ele><time>2026-04-19T09:40:44.95Z</time></trkpt><trkpt lat="42.8435267" lon="12.1739917"><ele>557.2</ele><time>2026-04-19T09:40:45.95Z</time></trkpt><trkpt lat="42.8434183" lon="12.173985"><ele>557.4000000000001</ele><time>2026-04-19T09:40:46.949Z</time></trkpt><trkpt lat="42.843325" lon="12.173995"><ele>557.5999999999999</ele><time>2026-04-19T09:40:47.949Z</time></trkpt><trkpt lat="42.84322" lon="12.1740167"><ele>557.8</ele><time>2026-04-19T09:40:48.95Z</time></trkpt><trkpt lat="42.8431117" lon="12.1740617"><ele>558.0</ele><time>2026-04-19T09:40:49.949Z</time></trkpt><trkpt lat="42.843" lon="12.174135"><ele>558.0</ele><time>2026-04-19T09:40:50.949Z</time></trkpt><trkpt lat="42.84289" lon="12.17422"><ele>558.0</ele><time>2026-04-19T09:40:51.95Z</time></trkpt><trkpt lat="42.84278" lon="12.1743317"><ele>558.0</ele><time>2026-04-19T09:40:52.95Z</time></trkpt><trkpt lat="42.8426683" lon="12.1744433"><ele>558.0</ele><time>2026-04-19T09:40:53.949Z</time></trkpt><trkpt lat="42.842555" lon="12.17456"><ele>558.5</ele><time>2026-04-19T09:40:54.95Z</time></trkpt><trkpt lat="42.842445" lon="12.1746717"><ele>559.0</ele><time>2026-04-19T09:40:55.95Z</time></trkpt><trkpt lat="42.8423333" lon="12.17479"><ele>559.5</ele><time>2026-04-19T09:40:56.949Z</time></trkpt><trkpt lat="42.8422167" lon="12.1749167"><ele>560.0</ele><time>2026-04-19T09:40:57.949Z</time></trkpt><trkpt lat="42.8420917" lon="12.1750383"><ele>560.0</ele><time>2026-04-19T09:40:58.949Z</time></trkpt><trkpt lat="42.84196" lon="12.1751717"><ele>560.0</ele><time>2026-04-19T09:40:59.949Z</time></trkpt><trkpt lat="42.8418367" lon="12.175315"><ele>560.0</ele><time>2026-04-19T09:41:00.949Z</time></trkpt><trkpt lat="42.8417217" lon="12.175445"><ele>560.5</ele><time>2026-04-19T09:41:01.949Z</time></trkpt><trkpt lat="42.8416183" lon="12.1755633"><ele>561.0</ele><time>2026-04-19T09:41:02.95Z</time></trkpt><trkpt lat="42.8415217" lon="12.1756883"><ele>561.5</ele><time>2026-04-19T09:41:03.95Z</time></trkpt><trkpt lat="42.8414367" lon="12.17582"><ele>562.0</ele><time>2026-04-19T09:41:04.95Z</time></trkpt><trkpt lat="42.8413733" lon="12.1759433"><ele>565.5</ele><time>2026-04-19T09:41:05.949Z</time></trkpt><trkpt lat="42.8413183" lon="12.1760833"><ele>569.0</ele><time>2026-04-19T09:41:06.949Z</time></trkpt><trkpt lat="42.8412783" lon="12.1762383"><ele>572.5</ele><time>2026-04-19T09:41:07.949Z</time></trkpt><trkpt lat="42.84126" lon="12.176415"><ele>576.0</ele><time>2026-04-19T09:41:08.95Z</time></trkpt><trkpt lat="42.8412483" lon="12.176585"><ele>579.2</ele><time>2026-04-19T09:41:09.949Z</time></trkpt><trkpt lat="42.8412567" lon="12.176745"><ele>582.4000000000001</ele><time>2026-04-19T09:41:10.949Z</time></trkpt><trkpt lat="42.84128" lon="12.1768817"><ele>585.6</ele><time>2026-04-19T09:41:11.95Z</time></trkpt><trkpt lat="42.8413017" lon="12.1769933"><ele>588.8000000000001</ele><time>2026-04-19T09:41:12.95Z</time></trkpt><trkpt lat="42.8413083" lon="12.1770883"><ele>592.0</ele><time>2026-04-19T09:41:13.95Z</time></trkpt><trkpt lat="42.841265" lon="12.1772067"><ele>592.0</ele><time>2026-04-19T09:41:15.949Z</time></trkpt><trkpt lat="42.8411633" lon="12.177245"><ele>592.0</ele><time>2026-04-19T09:41:17.949Z</time></trkpt><trkpt lat="42.8410933" lon="12.1772383"><ele>592.0</ele><time>2026-04-19T09:41:18.95Z</time></trkpt><trkpt lat="42.8410133" lon="12.1772067"><ele>592.0</ele><time>2026-04-19T09:41:19.95Z</time></trkpt><trkpt lat="42.84093" lon="12.17716"><ele>592.0</ele><time>2026-04-19T09:41:20.949Z</time></trkpt><trkpt lat="42.840845" lon="12.177095"><ele>592.0</ele><time>2026-04-19T09:41:21.95Z</time></trkpt><trkpt lat="42.84077" lon="12.1770067"><ele>591.6</ele><time>2026-04-19T09:41:22.949Z</time></trkpt><trkpt lat="42.8407117" lon="12.1769"><ele>591.2</ele><time>2026-04-19T09:41:23.949Z</time></trkpt><trkpt lat="42.8406633" lon="12.1768067"><ele>590.8</ele><time>2026-04-19T09:41:24.95Z</time></trkpt><trkpt lat="42.8405467" lon="12.176725"><ele>590.4</ele><time>2026-04-19T09:41:26.95Z</time></trkpt><trkpt lat="42.8404667" lon="12.1767233"><ele>590.0</ele><time>2026-04-19T09:41:27.95Z</time></trkpt><trkpt lat="42.84039" lon="12.1767567"><ele>590.0</ele><time>2026-04-19T09:41:28.95Z</time></trkpt><trkpt lat="42.8403133" lon="12.1768133"><ele>590.0</ele><time>2026-04-19T09:41:29.949Z</time></trkpt><trkpt lat="42.8402383" lon="12.1768967"><ele>590.0</ele><time>2026-04-19T09:41:30.95Z</time></trkpt><trkpt lat="42.84016" lon="12.1770083"><ele>590.0</ele><time>2026-04-19T09:41:31.95Z</time></trkpt><trkpt lat="42.840085" lon="12.1771533"><ele>590.0</ele><time>2026-04-19T09:41:32.949Z</time></trkpt><trkpt lat="42.84001" lon="12.1772783"><ele>591.6</ele><time>2026-04-19T09:41:33.949Z</time></trkpt><trkpt lat="42.8399383" lon="12.17736"><ele>593.2</ele><time>2026-04-19T09:41:34.949Z</time></trkpt><trkpt lat="42.83987" lon="12.1774183"><ele>594.8</ele><time>2026-04-19T09:41:35.949Z</time></trkpt><trkpt lat="42.8398017" lon="12.17745"><ele>596.4</ele><time>2026-04-19T09:41:36.949Z</time></trkpt><trkpt lat="42.83971" lon="12.1774633"><ele>598.0</ele><time>2026-04-19T09:41:37.949Z</time></trkpt><trkpt lat="42.8395983" lon="12.1774783"><ele>598.0</ele><time>2026-04-19T09:41:38.95Z</time></trkpt><trkpt lat="42.839465" lon="12.1774817"><ele>598.0</ele><time>2026-04-19T09:41:39.95Z</time></trkpt><trkpt lat="42.8393217" lon="12.177485"><ele>598.0</ele><time>2026-04-19T09:41:40.95Z</time></trkpt><trkpt lat="42.8391883" lon="12.1774817"><ele>598.0</ele><time>2026-04-19T09:41:41.949Z</time></trkpt><trkpt lat="42.839035" lon="12.177505"><ele>599.75</ele><time>2026-04-19T09:41:42.949Z</time></trkpt><trkpt lat="42.838885" lon="12.1775217"><ele>601.5</ele><time>2026-04-19T09:41:43.949Z</time></trkpt><trkpt lat="42.8387383" lon="12.1775333"><ele>603.25</ele><time>2026-04-19T09:41:44.949Z</time></trkpt><trkpt lat="42.838615" lon="12.1775133"><ele>605.0</ele><time>2026-04-19T09:41:45.948Z</time></trkpt><trkpt lat="42.8384883" lon="12.177475"><ele>606.4</ele><time>2026-04-19T09:41:46.948Z</time></trkpt><trkpt lat="42.8383667" lon="12.1774383"><ele>607.8</ele><time>2026-04-19T09:41:47.949Z</time></trkpt><trkpt lat="42.8382633" lon="12.1774067"><ele>609.2</ele><time>2026-04-19T09:41:48.948Z</time></trkpt><trkpt lat="42.8381683" lon="12.17739"><ele>610.6</ele><time>2026-04-19T09:41:49.949Z</time></trkpt><trkpt lat="42.8380783" lon="12.1774033"><ele>612.0</ele><time>2026-04-19T09:41:50.949Z</time></trkpt><trkpt lat="42.8380067" lon="12.177445"><ele>612.0</ele><time>2026-04-19T09:41:51.948Z</time></trkpt><trkpt lat="42.8379433" lon="12.1775"><ele>612.0</ele><time>2026-04-19T09:41:52.948Z</time></trkpt><trkpt lat="42.8378967" lon="12.1775667"><ele>612.0</ele><time>2026-04-19T09:41:53.948Z</time></trkpt><trkpt lat="42.837865" lon="12.1776533"><ele>612.0</ele><time>2026-04-19T09:41:54.948Z</time></trkpt><trkpt lat="42.837845" lon="12.17775"><ele>612.0</ele><time>2026-04-19T09:41:55.948Z</time></trkpt><trkpt lat="42.8378283" lon="12.17786"><ele>612.0</ele><time>2026-04-19T09:41:56.949Z</time></trkpt><trkpt lat="42.8378033" lon="12.177985"><ele>612.0</ele><time>2026-04-19T09:41:57.948Z</time></trkpt><trkpt lat="42.8377767" lon="12.1781217"><ele>612.0</ele><time>2026-04-19T09:41:58.949Z</time></trkpt><trkpt lat="42.8377383" lon="12.1782633"><ele>612.0</ele><time>2026-04-19T09:41:59.948Z</time></trkpt><trkpt lat="42.837685" lon="12.17842"><ele>612.0</ele><time>2026-04-19T09:42:00.948Z</time></trkpt><trkpt lat="42.8376167" lon="12.178555"><ele>613.1666666666666</ele><time>2026-04-19T09:42:01.949Z</time></trkpt><trkpt lat="42.8375717" lon="12.1786567"><ele>614.3333333333334</ele><time>2026-04-19T09:42:02.948Z</time></trkpt><trkpt lat="42.8375117" lon="12.17874"><ele>615.5</ele><time>2026-04-19T09:42:03.949Z</time></trkpt><trkpt lat="42.83745" lon="12.1788133"><ele>616.6666666666667</ele><time>2026-04-19T09:42:04.949Z</time></trkpt><trkpt lat="42.83739" lon="12.1788683"><ele>617.8333333333334</ele><time>2026-04-19T09:42:05.948Z</time></trkpt><trkpt lat="42.83732" lon="12.1788867"><ele>619.0</ele><time>2026-04-19T09:42:06.948Z</time></trkpt><trkpt lat="42.8372467" lon="12.178885"><ele>619.0</ele><time>2026-04-19T09:42:07.948Z</time></trkpt><trkpt lat="42.8371667" lon="12.1788567"><ele>619.0</ele><time>2026-04-19T09:42:08.948Z</time></trkpt><trkpt lat="42.83707" lon="12.1788217"><ele>619.0</ele><time>2026-04-19T09:42:09.949Z</time></trkpt><trkpt lat="42.8369383" lon="12.1787667"><ele>619.0</ele><time>2026-04-19T09:42:10.948Z</time></trkpt><trkpt lat="42.8367867" lon="12.1786983"><ele>616.0</ele><time>2026-04-19T09:42:11.949Z</time></trkpt><trkpt lat="42.8366233" lon="12.1786267"><ele>613.0</ele><time>2026-04-19T09:42:12.948Z</time></trkpt><trkpt lat="42.8364717" lon="12.1785617"><ele>610.0</ele><time>2026-04-19T09:42:13.948Z</time></trkpt><trkpt lat="42.8363333" lon="12.17851"><ele>610.0</ele><time>2026-04-19T09:42:14.949Z</time></trkpt><trkpt lat="42.836195" lon="12.17846"><ele>610.0</ele><time>2026-04-19T09:42:15.948Z</time></trkpt><trkpt lat="42.836065" lon="12.1784367"><ele>610.0</ele><time>2026-04-19T09:42:16.949Z</time></trkpt><trkpt lat="42.8359483" lon="12.17842"><ele>610.0</ele><time>2026-04-19T09:42:17.948Z</time></trkpt><trkpt lat="42.8358483" lon="12.17841"><ele>609.75</ele><time>2026-04-19T09:42:18.948Z</time></trkpt><trkpt lat="42.8357317" lon="12.1784217"><ele>609.5</ele><time>2026-04-19T09:42:19.949Z</time></trkpt><trkpt lat="42.8356033" lon="12.178445"><ele>609.25</ele><time>2026-04-19T09:42:20.948Z</time></trkpt><trkpt lat="42.83548" lon="12.17849"><ele>609.0</ele><time>2026-04-19T09:42:21.949Z</time></trkpt><trkpt lat="42.8353833" lon="12.1785267"><ele>609.0</ele><time>2026-04-19T09:42:22.949Z</time></trkpt><trkpt lat="42.8352983" lon="12.1785533"><ele>609.0</ele><time>2026-04-19T09:42:23.949Z</time></trkpt><trkpt lat="42.83522" lon="12.1785683"><ele>609.0</ele><time>2026-04-19T09:42:24.948Z</time></trkpt><trkpt lat="42.835145" lon="12.1785517"><ele>609.0</ele><time>2026-04-19T09:42:25.948Z</time></trkpt><trkpt lat="42.83508" lon="12.1785267"><ele>609.0</ele><time>2026-04-19T09:42:26.948Z</time></trkpt><trkpt lat="42.835015" lon="12.1784817"><ele>609.0</ele><time>2026-04-19T09:42:27.949Z</time></trkpt><trkpt lat="42.834955" lon="12.1784"><ele>608.1666666666666</ele><time>2026-04-19T09:42:28.949Z</time></trkpt><trkpt lat="42.8349083" lon="12.178305"><ele>607.3333333333334</ele><time>2026-04-19T09:42:29.949Z</time></trkpt><trkpt lat="42.8348633" lon="12.1782033"><ele>606.5</ele><time>2026-04-19T09:42:30.948Z</time></trkpt><trkpt lat="42.8348167" lon="12.1781233"><ele>605.6666666666667</ele><time>2026-04-19T09:42:31.948Z</time></trkpt><trkpt lat="42.8347633" lon="12.1780617"><ele>604.8333333333334</ele><time>2026-04-19T09:42:32.949Z</time></trkpt><trkpt lat="42.8347033" lon="12.1780017"><ele>604.0</ele><time>2026-04-19T09:42:33.949Z</time></trkpt><trkpt lat="42.8346283" lon="12.17796"><ele>603.0</ele><time>2026-04-19T09:42:34.949Z</time></trkpt><trkpt lat="42.8345367" lon="12.1779333"><ele>602.0</ele><time>2026-04-19T09:42:35.949Z</time></trkpt><trkpt lat="42.834435" lon="12.1779233"><ele>601.0</ele><time>2026-04-19T09:42:36.948Z</time></trkpt><trkpt lat="42.83433" lon="12.1779083"><ele>600.0</ele><time>2026-04-19T09:42:37.949Z</time></trkpt><trkpt lat="42.8342233" lon="12.177915"><ele>599.0</ele><time>2026-04-19T09:42:38.948Z</time></trkpt><trkpt lat="42.8341233" lon="12.17793"><ele>597.8333333333333</ele><time>2026-04-19T09:42:39.949Z</time></trkpt><trkpt lat="42.8340383" lon="12.1779533"><ele>596.6666666666666</ele><time>2026-04-19T09:42:40.948Z</time></trkpt><trkpt lat="42.8339683" lon="12.1779867"><ele>595.5</ele><time>2026-04-19T09:42:41.949Z</time></trkpt><trkpt lat="42.8338617" lon="12.1780083"><ele>594.3333333333334</ele><time>2026-04-19T09:42:43.949Z</time></trkpt><trkpt lat="42.8337933" lon="12.17801"><ele>593.1666666666667</ele><time>2026-04-19T09:42:46.948Z</time></trkpt><trkpt lat="42.8337217" lon="12.1779883"><ele>592.0</ele><time>2026-04-19T09:46:52.949Z</time></trkpt><trkpt lat="42.8336233" lon="12.17798"><ele>592.0</ele><time>2026-04-19T09:46:55.949Z</time></trkpt><trkpt lat="42.8335583" lon="12.17797"><ele>592.0</ele><time>2026-04-19T09:46:56.948Z</time></trkpt><trkpt lat="42.83348" lon="12.1779517"><ele>592.0</ele><time>2026-04-19T09:46:57.948Z</time></trkpt><trkpt lat="42.8334017" lon="12.1779283"><ele>592.0</ele><time>2026-04-19T09:46:58.949Z</time></trkpt><trkpt lat="42.833335" lon="12.177905"><ele>592.0</ele><time>2026-04-19T09:46:59.949Z</time></trkpt><trkpt lat="42.8332083" lon="12.177845"><ele>592.0</ele><time>2026-04-19T09:47:01.948Z</time></trkpt><trkpt lat="42.8331333" lon="12.1778167"><ele>590.2</ele><time>2026-04-19T09:47:02.948Z</time></trkpt><trkpt lat="42.83307" lon="12.1777933"><ele>588.4000000000001</ele><time>2026-04-19T09:47:03.949Z</time></trkpt><trkpt lat="42.8330033" lon="12.1777583"><ele>586.5999999999999</ele><time>2026-04-19T09:47:04.949Z</time></trkpt><trkpt lat="42.8329333" lon="12.1777217"><ele>584.8</ele><time>2026-04-19T09:47:05.948Z</time></trkpt><trkpt lat="42.8328333" lon="12.1776717"><ele>583.0</ele><time>2026-04-19T09:47:06.949Z</time></trkpt><trkpt lat="42.8327117" lon="12.1775983"><ele>582.5</ele><time>2026-04-19T09:47:07.948Z</time></trkpt><trkpt lat="42.83258" lon="12.177515"><ele>582.0</ele><time>2026-04-19T09:47:08.948Z</time></trkpt><trkpt lat="42.83245" lon="12.1774417"><ele>581.5</ele><time>2026-04-19T09:47:09.948Z</time></trkpt><trkpt lat="42.8323267" lon="12.177375"><ele>581.0</ele><time>2026-04-19T09:47:10.948Z</time></trkpt><trkpt lat="42.83221" lon="12.1773283"><ele>580.5</ele><time>2026-04-19T09:47:11.949Z</time></trkpt><trkpt lat="42.8320933" lon="12.1772767"><ele>580.0</ele><time>2026-04-19T09:47:12.948Z</time></trkpt><trkpt lat="42.8319767" lon="12.17721"><ele>579.5</ele><time>2026-04-19T09:47:13.949Z</time></trkpt><trkpt lat="42.8318583" lon="12.1771567"><ele>579.0</ele><time>2026-04-19T09:47:14.948Z</time></trkpt><trkpt lat="42.8317467" lon="12.1771067"><ele>579.0</ele><time>2026-04-19T09:47:15.948Z</time></trkpt><trkpt lat="42.8316317" lon="12.1770617"><ele>579.0</ele><time>2026-04-19T09:47:16.949Z</time></trkpt><trkpt lat="42.8315133" lon="12.1770183"><ele>579.0</ele><time>2026-04-19T09:47:17.949Z</time></trkpt><trkpt lat="42.8313867" lon="12.1769783"><ele>579.0</ele><time>2026-04-19T09:47:18.949Z</time></trkpt><trkpt lat="42.83126" lon="12.17693"><ele>579.0</ele><time>2026-04-19T09:47:19.949Z</time></trkpt><trkpt lat="42.831135" lon="12.1768717"><ele>579.0</ele><time>2026-04-19T09:47:20.948Z</time></trkpt><trkpt lat="42.8309933" lon="12.1768267"><ele>579.0</ele><time>2026-04-19T09:47:21.949Z</time></trkpt><trkpt lat="42.8308483" lon="12.1767867"><ele>579.0</ele><time>2026-04-19T09:47:22.949Z</time></trkpt><trkpt lat="42.8307" lon="12.1767517"><ele>578.5</ele><time>2026-04-19T09:47:23.949Z</time></trkpt><trkpt lat="42.8305583" lon="12.176725"><ele>578.0</ele><time>2026-04-19T09:47:24.949Z</time></trkpt><trkpt lat="42.8304167" lon="12.1767083"><ele>577.5</ele><time>2026-04-19T09:47:25.949Z</time></trkpt><trkpt lat="42.8302767" lon="12.1766783"><ele>577.0</ele><time>2026-04-19T09:47:26.948Z</time></trkpt><trkpt lat="42.8301433" lon="12.1766383"><ele>575.0</ele><time>2026-04-19T09:47:27.948Z</time></trkpt><trkpt lat="42.8300167" lon="12.17658"><ele>573.0</ele><time>2026-04-19T09:47:28.948Z</time></trkpt><trkpt lat="42.8298983" lon="12.1765017"><ele>571.0</ele><time>2026-04-19T09:47:29.949Z</time></trkpt><trkpt lat="42.8297817" lon="12.1763867"><ele>569.0</ele><time>2026-04-19T09:47:30.949Z</time></trkpt><trkpt lat="42.8296767" lon="12.17626"><ele>568.75</ele><time>2026-04-19T09:47:31.948Z</time></trkpt><trkpt lat="42.8295717" lon="12.1761167"><ele>568.5</ele><time>2026-04-19T09:47:32.948Z</time></trkpt><trkpt lat="42.8294633" lon="12.17599"><ele>568.25</ele><time>2026-04-19T09:47:33.949Z</time></trkpt><trkpt lat="42.829345" lon="12.17588"><ele>568.0</ele><time>2026-04-19T09:47:34.949Z</time></trkpt><trkpt lat="42.82922" lon="12.1757783"><ele>567.5</ele><time>2026-04-19T09:47:35.948Z</time></trkpt><trkpt lat="42.8291033" lon="12.1756717"><ele>567.0</ele><time>2026-04-19T09:47:36.949Z</time></trkpt><trkpt lat="42.8289917" lon="12.1755833"><ele>566.5</ele><time>2026-04-19T09:47:37.948Z</time></trkpt><trkpt lat="42.8288917" lon="12.1754967"><ele>566.0</ele><time>2026-04-19T09:47:38.948Z</time></trkpt><trkpt lat="42.8287883" lon="12.175425"><ele>566.0</ele><time>2026-04-19T09:47:39.949Z</time></trkpt><trkpt lat="42.8286783" lon="12.1753583"><ele>566.0</ele><time>2026-04-19T09:47:40.948Z</time></trkpt><trkpt lat="42.8285567" lon="12.17531"><ele>566.0</ele><time>2026-04-19T09:47:41.949Z</time></trkpt><trkpt lat="42.8284217" lon="12.1752617"><ele>566.0</ele><time>2026-04-19T09:47:42.949Z</time></trkpt><trkpt lat="42.8282833" lon="12.175215"><ele>565.75</ele><time>2026-04-19T09:47:43.948Z</time></trkpt><trkpt lat="42.8281433" lon="12.1751717"><ele>565.5</ele><time>2026-04-19T09:47:44.948Z</time></trkpt><trkpt lat="42.82801" lon="12.1751217"><ele>565.25</ele><time>2026-04-19T09:47:45.949Z</time></trkpt><trkpt lat="42.8278983" lon="12.17508"><ele>565.0</ele><time>2026-04-19T09:47:46.949Z</time></trkpt><trkpt lat="42.8278033" lon="12.175035"><ele>565.0</ele><time>2026-04-19T09:47:47.949Z</time></trkpt><trkpt lat="42.8277283" lon="12.1749733"><ele>565.0</ele><time>2026-04-19T09:47:48.949Z</time></trkpt><trkpt lat="42.82766" lon="12.17489"><ele>565.0</ele><time>2026-04-19T09:47:49.949Z</time></trkpt><trkpt lat="42.8275867" lon="12.1747817"><ele>565.0</ele><time>2026-04-19T09:47:50.948Z</time></trkpt><trkpt lat="42.8275217" lon="12.17464"><ele>565.0</ele><time>2026-04-19T09:47:51.949Z</time></trkpt><trkpt lat="42.8274817" lon="12.174495"><ele>563.0</ele><time>2026-04-19T09:47:52.948Z</time></trkpt><trkpt lat="42.82745" lon="12.174345"><ele>561.0</ele><time>2026-04-19T09:47:53.949Z</time></trkpt><trkpt lat="42.8274317" lon="12.1741767"><ele>559.0</ele><time>2026-04-19T09:47:54.948Z</time></trkpt><trkpt lat="42.8274167" lon="12.1739933"><ele>557.0</ele><time>2026-04-19T09:47:55.948Z</time></trkpt><trkpt lat="42.8274117" lon="12.17379"><ele>554.6666666666666</ele><time>2026-04-19T09:47:56.948Z</time></trkpt><trkpt lat="42.8274083" lon="12.1735783"><ele>552.3333333333334</ele><time>2026-04-19T09:47:57.948Z</time></trkpt><trkpt lat="42.8273983" lon="12.1733567"><ele>550.0</ele><time>2026-04-19T09:47:58.948Z</time></trkpt><trkpt lat="42.82739" lon="12.1731517"><ele>549.25</ele><time>2026-04-19T09:47:59.948Z</time></trkpt><trkpt lat="42.8273833" lon="12.172965"><ele>548.5</ele><time>2026-04-19T09:48:00.948Z</time></trkpt><trkpt lat="42.8273667" lon="12.1727983"><ele>547.75</ele><time>2026-04-19T09:48:01.948Z</time></trkpt><trkpt lat="42.827325" lon="12.1726367"><ele>547.0</ele><time>2026-04-19T09:48:02.949Z</time></trkpt><trkpt lat="42.8272733" lon="12.172475"><ele>547.75</ele><time>2026-04-19T09:48:03.949Z</time></trkpt><trkpt lat="42.82721" lon="12.172305"><ele>548.5</ele><time>2026-04-19T09:48:04.948Z</time></trkpt><trkpt lat="42.8271533" lon="12.1721267"><ele>549.25</ele><time>2026-04-19T09:48:05.948Z</time></trkpt><trkpt lat="42.8270933" lon="12.17197"><ele>550.0</ele><time>2026-04-19T09:48:06.949Z</time></trkpt><trkpt lat="42.8270467" lon="12.171835"><ele>550.0</ele><time>2026-04-19T09:48:07.948Z</time></trkpt><trkpt lat="42.827" lon="12.1717133"><ele>550.0</ele><time>2026-04-19T09:48:08.948Z</time></trkpt><trkpt lat="42.826945" lon="12.1716217"><ele>550.0</ele><time>2026-04-19T09:48:09.948Z</time></trkpt><trkpt lat="42.82689" lon="12.1715383"><ele>550.0</ele><time>2026-04-19T09:48:10.948Z</time></trkpt><trkpt lat="42.8268283" lon="12.1714617"><ele>550.0</ele><time>2026-04-19T09:48:11.948Z</time></trkpt><trkpt lat="42.8267517" lon="12.17139"><ele>550.0</ele><time>2026-04-19T09:48:12.949Z</time></trkpt><trkpt lat="42.8266567" lon="12.171305"><ele>549.5</ele><time>2026-04-19T09:48:13.948Z</time></trkpt><trkpt lat="42.8265567" lon="12.1712017"><ele>549.0</ele><time>2026-04-19T09:48:14.949Z</time></trkpt><trkpt lat="42.8264633" lon="12.1710933"><ele>548.5</ele><time>2026-04-19T09:48:15.949Z</time></trkpt><trkpt lat="42.82638" lon="12.1709883"><ele>548.0</ele><time>2026-04-19T09:48:16.948Z</time></trkpt><trkpt lat="42.82631" lon="12.1708867"><ele>548.0</ele><time>2026-04-19T09:48:17.948Z</time></trkpt><trkpt lat="42.8262467" lon="12.170785"><ele>548.0</ele><time>2026-04-19T09:48:18.949Z</time></trkpt><trkpt lat="42.8261867" lon="12.1706633"><ele>548.0</ele><time>2026-04-19T09:48:19.949Z</time></trkpt><trkpt lat="42.82615" lon="12.1705133"><ele>548.0</ele><time>2026-04-19T09:48:20.948Z</time></trkpt><trkpt lat="42.8261233" lon="12.1703483"><ele>548.0</ele><time>2026-04-19T09:48:21.949Z</time></trkpt><trkpt lat="42.8261" lon="12.17019"><ele>547.0</ele><time>2026-04-19T09:48:22.948Z</time></trkpt><trkpt lat="42.8260667" lon="12.170035"><ele>546.0</ele><time>2026-04-19T09:48:23.948Z</time></trkpt><trkpt lat="42.8260133" lon="12.1698817"><ele>545.0</ele><time>2026-04-19T09:48:24.949Z</time></trkpt><trkpt lat="42.825935" lon="12.1697317"><ele>544.0</ele><time>2026-04-19T09:48:25.949Z</time></trkpt><trkpt lat="42.8258467" lon="12.1695833"><ele>540.4</ele><time>2026-04-19T09:48:26.948Z</time></trkpt><trkpt lat="42.8257633" lon="12.169465"><ele>536.8</ele><time>2026-04-19T09:48:27.948Z</time></trkpt><trkpt lat="42.8256783" lon="12.1693733"><ele>533.2</ele><time>2026-04-19T09:48:28.948Z</time></trkpt><trkpt lat="42.8255983" lon="12.1692817"><ele>529.6</ele><time>2026-04-19T09:48:29.949Z</time></trkpt><trkpt lat="42.8255133" lon="12.1692183"><ele>526.0</ele><time>2026-04-19T09:48:30.949Z</time></trkpt><trkpt lat="42.8253967" lon="12.16918"><ele>526.0</ele><time>2026-04-19T09:48:31.948Z</time></trkpt><trkpt lat="42.8252633" lon="12.1691633"><ele>526.0</ele><time>2026-04-19T09:48:32.949Z</time></trkpt><trkpt lat="42.82512" lon="12.1691517"><ele>526.0</ele><time>2026-04-19T09:48:33.949Z</time></trkpt><trkpt lat="42.8249767" lon="12.16914"><ele>526.0</ele><time>2026-04-19T09:48:34.949Z</time></trkpt><trkpt lat="42.8248483" lon="12.16911"><ele>525.0</ele><time>2026-04-19T09:48:35.949Z</time></trkpt><trkpt lat="42.8247283" lon="12.1690583"><ele>524.0</ele><time>2026-04-19T09:48:36.948Z</time></trkpt><trkpt lat="42.8246067" lon="12.168995"><ele>523.0</ele><time>2026-04-19T09:48:37.949Z</time></trkpt><trkpt lat="42.8244883" lon="12.1689233"><ele>522.0</ele><time>2026-04-19T09:48:38.949Z</time></trkpt><trkpt lat="42.824375" lon="12.1688517"><ele>523.25</ele><time>2026-04-19T09:48:39.949Z</time></trkpt><trkpt lat="42.8242683" lon="12.1687883"><ele>524.5</ele><time>2026-04-19T09:48:40.949Z</time></trkpt><trkpt lat="42.82415" lon="12.1687483"><ele>525.75</ele><time>2026-04-19T09:48:41.949Z</time></trkpt><trkpt lat="42.824045" lon="12.1687067"><ele>527.0</ele><time>2026-04-19T09:48:42.948Z</time></trkpt><trkpt lat="42.8239383" lon="12.1686767"><ele>527.0</ele><time>2026-04-19T09:48:43.949Z</time></trkpt><trkpt lat="42.8238433" lon="12.168645"><ele>527.0</ele><time>2026-04-19T09:48:44.949Z</time></trkpt><trkpt lat="42.8237733" lon="12.16861"><ele>527.0</ele><time>2026-04-19T09:48:45.948Z</time></trkpt><trkpt lat="42.8237167" lon="12.1685583"><ele>527.0</ele><time>2026-04-19T09:48:46.949Z</time></trkpt><trkpt lat="42.82366" lon="12.168475"><ele>527.0</ele><time>2026-04-19T09:48:47.948Z</time></trkpt><trkpt lat="42.8236017" lon="12.1684"><ele>527.0</ele><time>2026-04-19T09:48:48.949Z</time></trkpt><trkpt lat="42.8235433" lon="12.1683367"><ele>527.0</ele><time>2026-04-19T09:48:49.949Z</time></trkpt><trkpt lat="42.8234833" lon="12.1682767"><ele>527.0</ele><time>2026-04-19T09:48:50.948Z</time></trkpt><trkpt lat="42.82343" lon="12.1682283"><ele>527.0</ele><time>2026-04-19T09:48:51.949Z</time></trkpt><trkpt lat="42.8233817" lon="12.16815"><ele>527.0</ele><time>2026-04-19T09:48:52.949Z</time></trkpt><trkpt lat="42.8233383" lon="12.1680617"><ele>527.0</ele><time>2026-04-19T09:48:53.949Z</time></trkpt><trkpt lat="42.8232617" lon="12.1679317"><ele>527.0</ele><time>2026-04-19T09:48:54.948Z</time></trkpt><trkpt lat="42.823205" lon="12.167795"><ele>525.3333333333333</ele><time>2026-04-19T09:48:55.949Z</time></trkpt><trkpt lat="42.8231483" lon="12.1676733"><ele>523.6666666666666</ele><time>2026-04-19T09:48:56.949Z</time></trkpt><trkpt lat="42.8231017" lon="12.1675717"><ele>522.0</ele><time>2026-04-19T09:48:57.949Z</time></trkpt><trkpt lat="42.82307" lon="12.1674733"><ele>520.3333333333334</ele><time>2026-04-19T09:48:58.949Z</time></trkpt><trkpt lat="42.8230317" lon="12.1673767"><ele>518.6666666666667</ele><time>2026-04-19T09:48:59.948Z</time></trkpt><trkpt lat="42.82298" lon="12.1672883"><ele>517.0</ele><time>2026-04-19T09:49:00.947Z</time></trkpt><trkpt lat="42.822915" lon="12.1672017"><ele>514.6</ele><time>2026-04-19T09:49:01.947Z</time></trkpt><trkpt lat="42.8228367" lon="12.16712"><ele>512.2</ele><time>2026-04-19T09:49:02.948Z</time></trkpt><trkpt lat="42.82275" lon="12.1670467"><ele>509.8</ele><time>2026-04-19T09:49:03.947Z</time></trkpt><trkpt lat="42.8226533" lon="12.1669733"><ele>507.4</ele><time>2026-04-19T09:49:04.948Z</time></trkpt><trkpt lat="42.822555" lon="12.166905"><ele>505.0</ele><time>2026-04-19T09:49:05.947Z</time></trkpt><trkpt lat="42.8224583" lon="12.1668267"><ele>505.0</ele><time>2026-04-19T09:49:06.947Z</time></trkpt><trkpt lat="42.8223633" lon="12.16673"><ele>505.0</ele><time>2026-04-19T09:49:07.948Z</time></trkpt><trkpt lat="42.8222817" lon="12.166625"><ele>505.0</ele><time>2026-04-19T09:49:08.948Z</time></trkpt><trkpt lat="42.8222117" lon="12.1665067"><ele>505.0</ele><time>2026-04-19T09:49:09.947Z</time></trkpt><trkpt lat="42.8221467" lon="12.1663867"><ele>503.8</ele><time>2026-04-19T09:49:10.947Z</time></trkpt><trkpt lat="42.822075" lon="12.166275"><ele>502.6</ele><time>2026-04-19T09:49:11.947Z</time></trkpt><trkpt lat="42.822" lon="12.166175"><ele>501.4</ele><time>2026-04-19T09:49:12.948Z</time></trkpt><trkpt lat="42.8219183" lon="12.1660683"><ele>500.2</ele><time>2026-04-19T09:49:13.947Z</time></trkpt><trkpt lat="42.82184" lon="12.1659483"><ele>499.0</ele><time>2026-04-19T09:49:14.948Z</time></trkpt><trkpt lat="42.821755" lon="12.1658233"><ele>498.0</ele><time>2026-04-19T09:49:15.948Z</time></trkpt><trkpt lat="42.8216667" lon="12.1656933"><ele>497.0</ele><time>2026-04-19T09:49:16.948Z</time></trkpt><trkpt lat="42.8215683" lon="12.1655783"><ele>496.0</ele><time>2026-04-19T09:49:17.948Z</time></trkpt><trkpt lat="42.8214633" lon="12.1654917"><ele>495.0</ele><time>2026-04-19T09:49:18.947Z</time></trkpt><trkpt lat="42.82136" lon="12.1654283"><ele>495.0</ele><time>2026-04-19T09:49:19.947Z</time></trkpt><trkpt lat="42.82125" lon="12.1653883"><ele>495.0</ele><time>2026-04-19T09:49:20.947Z</time></trkpt><trkpt lat="42.8211283" lon="12.1653683"><ele>495.0</ele><time>2026-04-19T09:49:21.948Z</time></trkpt><trkpt lat="42.8210033" lon="12.16536"><ele>495.0</ele><time>2026-04-19T09:49:22.948Z</time></trkpt><trkpt lat="42.8208783" lon="12.1653717"><ele>493.2</ele><time>2026-04-19T09:49:23.947Z</time></trkpt><trkpt lat="42.8207633" lon="12.1653917"><ele>491.4</ele><time>2026-04-19T09:49:24.948Z</time></trkpt><trkpt lat="42.8206633" lon="12.1654317"><ele>489.6</ele><time>2026-04-19T09:49:25.948Z</time></trkpt><trkpt lat="42.820555" lon="12.1654933"><ele>487.8</ele><time>2026-04-19T09:49:26.948Z</time></trkpt><trkpt lat="42.8204567" lon="12.16556"><ele>486.0</ele><time>2026-04-19T09:49:27.947Z</time></trkpt><trkpt lat="42.82035" lon="12.1656267"><ele>486.0</ele><time>2026-04-19T09:49:28.948Z</time></trkpt><trkpt lat="42.8202433" lon="12.165695"><ele>486.0</ele><time>2026-04-19T09:49:29.947Z</time></trkpt><trkpt lat="42.8201383" lon="12.16576"><ele>486.0</ele><time>2026-04-19T09:49:30.948Z</time></trkpt><trkpt lat="42.820025" lon="12.1658317"><ele>486.0</ele><time>2026-04-19T09:49:31.947Z</time></trkpt><trkpt lat="42.8199133" lon="12.1658967"><ele>484.25</ele><time>2026-04-19T09:49:32.948Z</time></trkpt><trkpt lat="42.8197967" lon="12.1659517"><ele>482.5</ele><time>2026-04-19T09:49:33.947Z</time></trkpt><trkpt lat="42.8196633" lon="12.1660033"><ele>480.75</ele><time>2026-04-19T09:49:34.948Z</time></trkpt><trkpt lat="42.8195267" lon="12.1660583"><ele>479.0</ele><time>2026-04-19T09:49:35.947Z</time></trkpt><trkpt lat="42.8193917" lon="12.1661117"><ele>479.5</ele><time>2026-04-19T09:49:36.948Z</time></trkpt><trkpt lat="42.8192533" lon="12.16616"><ele>480.0</ele><time>2026-04-19T09:49:37.948Z</time></trkpt><trkpt lat="42.819115" lon="12.1662"><ele>480.5</ele><time>2026-04-19T09:49:38.947Z</time></trkpt><trkpt lat="42.818975" lon="12.1662417"><ele>481.0</ele><time>2026-04-19T09:49:39.947Z</time></trkpt><trkpt lat="42.81884" lon="12.1662617"><ele>481.0</ele><time>2026-04-19T09:49:40.948Z</time></trkpt><trkpt lat="42.8187167" lon="12.166275"><ele>481.0</ele><time>2026-04-19T09:49:41.947Z</time></trkpt><trkpt lat="42.8185983" lon="12.1662683"><ele>481.0</ele><time>2026-04-19T09:49:42.947Z</time></trkpt><trkpt lat="42.81848" lon="12.1662583"><ele>481.0</ele><time>2026-04-19T09:49:43.947Z</time></trkpt><trkpt lat="42.818355" lon="12.16623"><ele>477.75</ele><time>2026-04-19T09:49:44.947Z</time></trkpt><trkpt lat="42.81823" lon="12.1661683"><ele>474.5</ele><time>2026-04-19T09:49:45.947Z</time></trkpt><trkpt lat="42.8180917" lon="12.1660983"><ele>471.25</ele><time>2026-04-19T09:49:46.947Z</time></trkpt><trkpt lat="42.8179533" lon="12.16599"><ele>468.0</ele><time>2026-04-19T09:49:47.948Z</time></trkpt><trkpt lat="42.81783" lon="12.1658667"><ele>468.0</ele><time>2026-04-19T09:49:48.948Z</time></trkpt><trkpt lat="42.817705" lon="12.1657417"><ele>468.0</ele><time>2026-04-19T09:49:49.948Z</time></trkpt><trkpt lat="42.8175917" lon="12.1656267"><ele>468.0</ele><time>2026-04-19T09:49:50.948Z</time></trkpt><trkpt lat="42.8174533" lon="12.165535"><ele>465.33333333333337</ele><time>2026-04-19T09:49:51.948Z</time></trkpt><trkpt lat="42.8172983" lon="12.1654633"><ele>462.6666666666667</ele><time>2026-04-19T09:49:52.948Z</time></trkpt><trkpt lat="42.8171333" lon="12.1653933"><ele>460.0</ele><time>2026-04-19T09:49:53.947Z</time></trkpt><trkpt lat="42.8169667" lon="12.1653"><ele>454.0</ele><time>2026-04-19T09:49:54.947Z</time></trkpt><trkpt lat="42.8167983" lon="12.1652083"><ele>448.0</ele><time>2026-04-19T09:49:55.947Z</time></trkpt><trkpt lat="42.8166367" lon="12.1651233"><ele>442.0</ele><time>2026-04-19T09:49:56.947Z</time></trkpt><trkpt lat="42.8164767" lon="12.165035"><ele>442.0</ele><time>2026-04-19T09:49:57.947Z</time></trkpt><trkpt lat="42.81632" lon="12.1649467"><ele>442.0</ele><time>2026-04-19T09:49:58.947Z</time></trkpt><trkpt lat="42.816165" lon="12.1648633"><ele>442.0</ele><time>2026-04-19T09:49:59.947Z</time></trkpt><trkpt lat="42.8160167" lon="12.16478"><ele>442.33333333333337</ele><time>2026-04-19T09:50:00.948Z</time></trkpt><trkpt lat="42.815875" lon="12.1647"><ele>442.66666666666663</ele><time>2026-04-19T09:50:01.948Z</time></trkpt><trkpt lat="42.815735" lon="12.1646183"><ele>443.0</ele><time>2026-04-19T09:50:02.947Z</time></trkpt><trkpt lat="42.8155967" lon="12.1645467"><ele>443.0</ele><time>2026-04-19T09:50:03.948Z</time></trkpt><trkpt lat="42.8154667" lon="12.1644633"><ele>443.0</ele><time>2026-04-19T09:50:04.947Z</time></trkpt><trkpt lat="42.8153433" lon="12.1643767"><ele>443.0</ele><time>2026-04-19T09:50:05.948Z</time></trkpt><trkpt lat="42.8152367" lon="12.1642883"><ele>443.0</ele><time>2026-04-19T09:50:06.948Z</time></trkpt><trkpt lat="42.8151367" lon="12.1641883"><ele>439.0</ele><time>2026-04-19T09:50:07.948Z</time></trkpt><trkpt lat="42.81505" lon="12.16409"><ele>434.99999999999994</ele><time>2026-04-19T09:50:08.947Z</time></trkpt><trkpt lat="42.81498" lon="12.1639833"><ele>431.0</ele><time>2026-04-19T09:50:09.948Z</time></trkpt><trkpt lat="42.8149317" lon="12.1638683"><ele>427.0</ele><time>2026-04-19T09:50:10.948Z</time></trkpt><trkpt lat="42.814905" lon="12.1637033"><ele>423.0</ele><time>2026-04-19T09:50:11.947Z</time></trkpt><trkpt lat="42.8149" lon="12.1635117"><ele>423.0</ele><time>2026-04-19T09:50:12.947Z</time></trkpt><trkpt lat="42.814885" lon="12.1633333"><ele>423.0</ele><time>2026-04-19T09:50:13.947Z</time></trkpt><trkpt lat="42.8148433" lon="12.163175"><ele>423.0</ele><time>2026-04-19T09:50:14.948Z</time></trkpt><trkpt lat="42.814805" lon="12.1630217"><ele>423.0</ele><time>2026-04-19T09:50:15.948Z</time></trkpt><trkpt lat="42.8147533" lon="12.1628917"><ele>422.0</ele><time>2026-04-19T09:50:16.947Z</time></trkpt><trkpt lat="42.8146983" lon="12.1627783"><ele>421.0</ele><time>2026-04-19T09:50:17.947Z</time></trkpt><trkpt lat="42.8146467" lon="12.1626833"><ele>420.0</ele><time>2026-04-19T09:50:18.948Z</time></trkpt><trkpt lat="42.81458" lon="12.1625967"><ele>419.0</ele><time>2026-04-19T09:50:19.947Z</time></trkpt><trkpt lat="42.814505" lon="12.1625183"><ele>418.0</ele><time>2026-04-19T09:50:20.947Z</time></trkpt><trkpt lat="42.81444" lon="12.1624417"><ele>417.59999999999997</ele><time>2026-04-19T09:50:21.948Z</time></trkpt><trkpt lat="42.814375" lon="12.1623617"><ele>417.2</ele><time>2026-04-19T09:50:22.948Z</time></trkpt><trkpt lat="42.8143267" lon="12.1622667"><ele>416.8</ele><time>2026-04-19T09:50:23.947Z</time></trkpt><trkpt lat="42.8142917" lon="12.162135"><ele>416.4</ele><time>2026-04-19T09:50:24.948Z</time></trkpt><trkpt lat="42.8142667" lon="12.1619783"><ele>416.0</ele><time>2026-04-19T09:50:25.948Z</time></trkpt><trkpt lat="42.814235" lon="12.16181"><ele>418.25</ele><time>2026-04-19T09:50:26.947Z</time></trkpt><trkpt lat="42.8142067" lon="12.1616233"><ele>420.5</ele><time>2026-04-19T09:50:27.947Z</time></trkpt><trkpt lat="42.81416" lon="12.16143"><ele>422.75</ele><time>2026-04-19T09:50:28.948Z</time></trkpt><trkpt lat="42.8140967" lon="12.1612367"><ele>425.0</ele><time>2026-04-19T09:50:29.948Z</time></trkpt><trkpt lat="42.8140233" lon="12.1610417"><ele>425.0</ele><time>2026-04-19T09:50:30.947Z</time></trkpt><trkpt lat="42.813945" lon="12.16083"><ele>425.0</ele><time>2026-04-19T09:50:31.947Z</time></trkpt><trkpt lat="42.8138583" lon="12.1606233"><ele>425.0</ele><time>2026-04-19T09:50:32.948Z</time></trkpt><trkpt lat="42.8137717" lon="12.1604467"><ele>426.0</ele><time>2026-04-19T09:50:33.948Z</time></trkpt><trkpt lat="42.813695" lon="12.160295"><ele>427.0</ele><time>2026-04-19T09:50:34.948Z</time></trkpt><trkpt lat="42.8136233" lon="12.160185"><ele>428.0</ele><time>2026-04-19T09:50:35.947Z</time></trkpt><trkpt lat="42.813565" lon="12.1600883"><ele>429.0</ele><time>2026-04-19T09:50:36.948Z</time></trkpt><trkpt lat="42.81349" lon="12.16002"><ele>430.0</ele><time>2026-04-19T09:50:37.948Z</time></trkpt><trkpt lat="42.8134033" lon="12.15997"><ele>429.4</ele><time>2026-04-19T09:50:38.947Z</time></trkpt><trkpt lat="42.8132917" lon="12.159935"><ele>428.8</ele><time>2026-04-19T09:50:39.948Z</time></trkpt><trkpt lat="42.8131983" lon="12.1598983"><ele>428.20000000000005</ele><time>2026-04-19T09:50:40.948Z</time></trkpt><trkpt lat="42.8131167" lon="12.15984"><ele>427.6</ele><time>2026-04-19T09:50:41.947Z</time></trkpt><trkpt lat="42.8130483" lon="12.159745"><ele>427.0</ele><time>2026-04-19T09:50:42.948Z</time></trkpt><trkpt lat="42.8129733" lon="12.1596383"><ele>427.0</ele><time>2026-04-19T09:50:43.947Z</time></trkpt><trkpt lat="42.8128783" lon="12.15953"><ele>427.0</ele><time>2026-04-19T09:50:44.948Z</time></trkpt><trkpt lat="42.8127667" lon="12.1594117"><ele>427.0</ele><time>2026-04-19T09:50:45.947Z</time></trkpt><trkpt lat="42.8126417" lon="12.1592833"><ele>427.0</ele><time>2026-04-19T09:50:46.947Z</time></trkpt><trkpt lat="42.8125117" lon="12.1591567"><ele>425.5</ele><time>2026-04-19T09:50:47.948Z</time></trkpt><trkpt lat="42.8123967" lon="12.1590317"><ele>424.0</ele><time>2026-04-19T09:50:48.947Z</time></trkpt><trkpt lat="42.8123" lon="12.15889"><ele>422.5</ele><time>2026-04-19T09:50:49.948Z</time></trkpt><trkpt lat="42.81222" lon="12.1587533"><ele>421.0</ele><time>2026-04-19T09:50:50.947Z</time></trkpt><trkpt lat="42.8121617" lon="12.1586483"><ele>421.0</ele><time>2026-04-19T09:50:51.948Z</time></trkpt><trkpt lat="42.8120817" lon="12.15853"><ele>421.0</ele><time>2026-04-19T09:50:52.948Z</time></trkpt><trkpt lat="42.8119967" lon="12.1584083"><ele>421.0</ele><time>2026-04-19T09:50:53.947Z</time></trkpt><trkpt lat="42.8119" lon="12.1583183"><ele>421.0</ele><time>2026-04-19T09:50:54.947Z</time></trkpt><trkpt lat="42.8117883" lon="12.1582433"><ele>419.75</ele><time>2026-04-19T09:50:55.948Z</time></trkpt><trkpt lat="42.8116583" lon="12.1581833"><ele>418.5</ele><time>2026-04-19T09:50:56.947Z</time></trkpt><trkpt lat="42.811525" lon="12.1581183"><ele>417.25</ele><time>2026-04-19T09:50:57.948Z</time></trkpt><trkpt lat="42.811395" lon="12.1580533"><ele>416.0</ele><time>2026-04-19T09:50:58.947Z</time></trkpt><trkpt lat="42.8112667" lon="12.1580067"><ele>416.0</ele><time>2026-04-19T09:50:59.948Z</time></trkpt><trkpt lat="42.811145" lon="12.1579617"><ele>416.0</ele><time>2026-04-19T09:51:00.948Z</time></trkpt><trkpt lat="42.81101" lon="12.157935"><ele>416.0</ele><time>2026-04-19T09:51:01.947Z</time></trkpt><trkpt lat="42.8108633" lon="12.15792"><ele>416.0</ele><time>2026-04-19T09:51:02.947Z</time></trkpt><trkpt lat="42.8107333" lon="12.1579017"><ele>416.8</ele><time>2026-04-19T09:51:03.947Z</time></trkpt><trkpt lat="42.810605" lon="12.1578883"><ele>417.6</ele><time>2026-04-19T09:51:04.947Z</time></trkpt><trkpt lat="42.8105033" lon="12.157865"><ele>418.4</ele><time>2026-04-19T09:51:05.947Z</time></trkpt><trkpt lat="42.8104217" lon="12.1578583"><ele>419.2</ele><time>2026-04-19T09:51:06.947Z</time></trkpt><trkpt lat="42.8103383" lon="12.1578667"><ele>420.0</ele><time>2026-04-19T09:51:07.948Z</time></trkpt><trkpt lat="42.8102567" lon="12.1579117"><ele>420.0</ele><time>2026-04-19T09:51:08.947Z</time></trkpt><trkpt lat="42.810205" lon="12.15799"><ele>420.0</ele><time>2026-04-19T09:51:09.947Z</time></trkpt><trkpt lat="42.8101767" lon="12.158095"><ele>420.0</ele><time>2026-04-19T09:51:10.948Z</time></trkpt><trkpt lat="42.81017" lon="12.15824"><ele>420.0</ele><time>2026-04-19T09:51:11.948Z</time></trkpt><trkpt lat="42.81018" lon="12.1583967"><ele>420.0</ele><time>2026-04-19T09:51:12.948Z</time></trkpt><trkpt lat="42.8102117" lon="12.158555"><ele>421.4</ele><time>2026-04-19T09:51:13.947Z</time></trkpt><trkpt lat="42.8102417" lon="12.1586867"><ele>422.8</ele><time>2026-04-19T09:51:14.948Z</time></trkpt><trkpt lat="42.81024" lon="12.1588167"><ele>424.20000000000005</ele><time>2026-04-19T09:51:15.947Z</time></trkpt><trkpt lat="42.8102117" lon="12.1589333"><ele>425.6</ele><time>2026-04-19T09:51:16.948Z</time></trkpt><trkpt lat="42.8101517" lon="12.1590367"><ele>427.0</ele><time>2026-04-19T09:51:17.947Z</time></trkpt><trkpt lat="42.8100783" lon="12.1591383"><ele>427.0</ele><time>2026-04-19T09:51:18.948Z</time></trkpt><trkpt lat="42.8099833" lon="12.1592383"><ele>427.0</ele><time>2026-04-19T09:51:19.948Z</time></trkpt><trkpt lat="42.8098633" lon="12.1593217"><ele>427.0</ele><time>2026-04-19T09:51:20.948Z</time></trkpt><trkpt lat="42.80976" lon="12.159385"><ele>427.0</ele><time>2026-04-19T09:51:21.948Z</time></trkpt><trkpt lat="42.8096717" lon="12.1594433"><ele>427.0</ele><time>2026-04-19T09:51:22.947Z</time></trkpt><trkpt lat="42.8096133" lon="12.1595117"><ele>427.00000000000006</ele><time>2026-04-19T09:51:23.947Z</time></trkpt><trkpt lat="42.8095767" lon="12.15961"><ele>427.00000000000006</ele><time>2026-04-19T09:51:24.947Z</time></trkpt><trkpt lat="42.809545" lon="12.1597417"><ele>427.0</ele><time>2026-04-19T09:51:25.947Z</time></trkpt><trkpt lat="42.8095217" lon="12.1598867"><ele>427.0</ele><time>2026-04-19T09:51:26.948Z</time></trkpt><trkpt lat="42.80949" lon="12.1600383"><ele>427.6</ele><time>2026-04-19T09:51:27.948Z</time></trkpt><trkpt lat="42.8094333" lon="12.1601767"><ele>428.20000000000005</ele><time>2026-04-19T09:51:28.947Z</time></trkpt><trkpt lat="42.809375" lon="12.1602917"><ele>428.8</ele><time>2026-04-19T09:51:29.947Z</time></trkpt><trkpt lat="42.809335" lon="12.1603933"><ele>429.4</ele><time>2026-04-19T09:51:30.948Z</time></trkpt><trkpt lat="42.8093133" lon="12.160505"><ele>430.0</ele><time>2026-04-19T09:51:31.947Z</time></trkpt><trkpt lat="42.8093183" lon="12.1606367"><ele>430.75</ele><time>2026-04-19T09:51:32.948Z</time></trkpt><trkpt lat="42.8093283" lon="12.1607817"><ele>431.5</ele><time>2026-04-19T09:51:33.947Z</time></trkpt><trkpt lat="42.8093383" lon="12.1609517"><ele>432.25</ele><time>2026-04-19T09:51:34.948Z</time></trkpt><trkpt lat="42.8093317" lon="12.1611233"><ele>433.0</ele><time>2026-04-19T09:51:35.948Z</time></trkpt><trkpt lat="42.8093233" lon="12.16127"><ele>429.59999999999997</ele><time>2026-04-19T09:51:36.947Z</time></trkpt><trkpt lat="42.8093083" lon="12.1613933"><ele>426.19999999999993</ele><time>2026-04-19T09:51:37.948Z</time></trkpt><trkpt lat="42.8092917" lon="12.1614967"><ele>422.8</ele><time>2026-04-19T09:51:38.948Z</time></trkpt><trkpt lat="42.8092417" lon="12.1615983"><ele>419.4</ele><time>2026-04-19T09:51:40.948Z</time></trkpt><trkpt lat="42.8091383" lon="12.161535"><ele>416.0</ele><time>2026-04-19T09:51:42.948Z</time></trkpt><trkpt lat="42.8090833" lon="12.1614433"><ele>415.0</ele><time>2026-04-19T09:51:43.947Z</time></trkpt><trkpt lat="42.8090333" lon="12.16132"><ele>414.0</ele><time>2026-04-19T09:51:44.948Z</time></trkpt><trkpt lat="42.8089783" lon="12.1611783"><ele>413.0</ele><time>2026-04-19T09:51:45.947Z</time></trkpt><trkpt lat="42.8089033" lon="12.16103"><ele>412.0</ele><time>2026-04-19T09:51:46.948Z</time></trkpt><trkpt lat="42.8088217" lon="12.160875"><ele>412.0</ele><time>2026-04-19T09:51:47.947Z</time></trkpt><trkpt lat="42.8087333" lon="12.1607283"><ele>412.0</ele><time>2026-04-19T09:51:48.948Z</time></trkpt><trkpt lat="42.8086467" lon="12.160605"><ele>412.0</ele><time>2026-04-19T09:51:49.947Z</time></trkpt><trkpt lat="42.8085683" lon="12.1605"><ele>412.0</ele><time>2026-04-19T09:51:50.947Z</time></trkpt><trkpt lat="42.8084933" lon="12.1604167"><ele>412.0</ele><time>2026-04-19T09:51:51.947Z</time></trkpt><trkpt lat="42.8084017" lon="12.1603667"><ele>412.0</ele><time>2026-04-19T09:51:52.948Z</time></trkpt><trkpt lat="42.8083017" lon="12.1603467"><ele>412.0</ele><time>2026-04-19T09:51:53.947Z</time></trkpt><trkpt lat="42.8082" lon="12.1603533"><ele>412.0</ele><time>2026-04-19T09:51:54.948Z</time></trkpt><trkpt lat="42.80808" lon="12.16039"><ele>412.0</ele><time>2026-04-19T09:51:55.947Z</time></trkpt><trkpt lat="42.8079433" lon="12.160415"><ele>412.0</ele><time>2026-04-19T09:51:56.948Z</time></trkpt><trkpt lat="42.8077967" lon="12.1604267"><ele>412.0</ele><time>2026-04-19T09:51:57.947Z</time></trkpt><trkpt lat="42.8076517" lon="12.1604333"><ele>412.0</ele><time>2026-04-19T09:51:58.947Z</time></trkpt><trkpt lat="42.8075217" lon="12.1604367"><ele>412.0</ele><time>2026-04-19T09:51:59.948Z</time></trkpt><trkpt lat="42.8073983" lon="12.1604267"><ele>414.0</ele><time>2026-04-19T09:52:00.948Z</time></trkpt><trkpt lat="42.8072967" lon="12.1604083"><ele>416.0</ele><time>2026-04-19T09:52:01.947Z</time></trkpt><trkpt lat="42.8072067" lon="12.1604133"><ele>418.0</ele><time>2026-04-19T09:52:02.948Z</time></trkpt><trkpt lat="42.8071267" lon="12.1604567"><ele>420.0</ele><time>2026-04-19T09:52:03.948Z</time></trkpt><trkpt lat="42.8070417" lon="12.1605167"><ele>422.0</ele><time>2026-04-19T09:52:04.947Z</time></trkpt><trkpt lat="42.8069617" lon="12.1605783"><ele>422.0</ele><time>2026-04-19T09:52:05.948Z</time></trkpt><trkpt lat="42.8068783" lon="12.1606133"><ele>422.0</ele><time>2026-04-19T09:52:06.947Z</time></trkpt><trkpt lat="42.8068083" lon="12.1606167"><ele>422.0</ele><time>2026-04-19T09:52:07.948Z</time></trkpt><trkpt lat="42.806725" lon="12.1605867"><ele>422.0</ele><time>2026-04-19T09:52:08.947Z</time></trkpt><trkpt lat="42.806625" lon="12.1605233"><ele>422.0</ele><time>2026-04-19T09:52:09.947Z</time></trkpt><trkpt lat="42.8065133" lon="12.160485"><ele>423.3333333333333</ele><time>2026-04-19T09:52:10.948Z</time></trkpt><trkpt lat="42.80638" lon="12.1604867"><ele>424.66666666666663</ele><time>2026-04-19T09:52:11.947Z</time></trkpt><trkpt lat="42.806225" lon="12.1605117"><ele>426.0</ele><time>2026-04-19T09:52:12.948Z</time></trkpt><trkpt lat="42.8060533" lon="12.1605533"><ele>428.5</ele><time>2026-04-19T09:52:13.948Z</time></trkpt><trkpt lat="42.8058983" lon="12.160585"><ele>431.0</ele><time>2026-04-19T09:52:14.947Z</time></trkpt><trkpt lat="42.8057783" lon="12.1606283"><ele>433.5</ele><time>2026-04-19T09:52:15.947Z</time></trkpt><trkpt lat="42.8056783" lon="12.1606817"><ele>436.0</ele><time>2026-04-19T09:52:16.948Z</time></trkpt><trkpt lat="42.8055883" lon="12.16074"><ele>436.6666666666667</ele><time>2026-04-19T09:52:17.947Z</time></trkpt><trkpt lat="42.8055033" lon="12.1608"><ele>437.33333333333337</ele><time>2026-04-19T09:52:18.948Z</time></trkpt><trkpt lat="42.8054233" lon="12.1608483"><ele>438.0</ele><time>2026-04-19T09:52:19.947Z</time></trkpt><trkpt lat="42.805345" lon="12.1608783"><ele>438.66666666666663</ele><time>2026-04-19T09:52:20.947Z</time></trkpt><trkpt lat="42.8052667" lon="12.16089"><ele>439.3333333333333</ele><time>2026-04-19T09:52:21.947Z</time></trkpt><trkpt lat="42.8051733" lon="12.160865"><ele>440.0</ele><time>2026-04-19T09:52:22.947Z</time></trkpt><trkpt lat="42.8050533" lon="12.1608117"><ele>441.3333333333333</ele><time>2026-04-19T09:52:23.948Z</time></trkpt><trkpt lat="42.8049083" lon="12.1607417"><ele>442.66666666666663</ele><time>2026-04-19T09:52:24.948Z</time></trkpt><trkpt lat="42.8047683" lon="12.1606683"><ele>444.0</ele><time>2026-04-19T09:52:25.948Z</time></trkpt><trkpt lat="42.8046333" lon="12.1605917"><ele>446.0</ele><time>2026-04-19T09:52:26.947Z</time></trkpt><trkpt lat="42.8044917" lon="12.1605083"><ele>448.0</ele><time>2026-04-19T09:52:27.948Z</time></trkpt><trkpt lat="42.804355" lon="12.1604183"><ele>450.0</ele><time>2026-04-19T09:52:28.948Z</time></trkpt><trkpt lat="42.8042117" lon="12.1603517"><ele>450.66666666666663</ele><time>2026-04-19T09:52:29.947Z</time></trkpt><trkpt lat="42.8040567" lon="12.1602817"><ele>451.3333333333333</ele><time>2026-04-19T09:52:30.948Z</time></trkpt><trkpt lat="42.8039" lon="12.1602133"><ele>452.0</ele><time>2026-04-19T09:52:31.948Z</time></trkpt><trkpt lat="42.803735" lon="12.1601333"><ele>452.0</ele><time>2026-04-19T09:52:32.948Z</time></trkpt><trkpt lat="42.803575" lon="12.1600217"><ele>452.0</ele><time>2026-04-19T09:52:33.948Z</time></trkpt><trkpt lat="42.8034233" lon="12.159915"><ele>452.0</ele><time>2026-04-19T09:52:34.947Z</time></trkpt><trkpt lat="42.803295" lon="12.1598383"><ele>454.25</ele><time>2026-04-19T09:52:35.948Z</time></trkpt><trkpt lat="42.8031717" lon="12.1597817"><ele>456.5</ele><time>2026-04-19T09:52:36.947Z</time></trkpt><trkpt lat="42.803025" lon="12.1597317"><ele>458.75</ele><time>2026-04-19T09:52:37.948Z</time></trkpt><trkpt lat="42.8028633" lon="12.1596867"><ele>461.0</ele><time>2026-04-19T09:52:38.947Z</time></trkpt><trkpt lat="42.8026767" lon="12.1596417"><ele>462.0</ele><time>2026-04-19T09:52:39.947Z</time></trkpt><trkpt lat="42.8024917" lon="12.1595683"><ele>463.0</ele><time>2026-04-19T09:52:40.948Z</time></trkpt><trkpt lat="42.8023067" lon="12.1594767"><ele>464.0</ele><time>2026-04-19T09:52:41.948Z</time></trkpt><trkpt lat="42.8021183" lon="12.159375"><ele>464.0</ele><time>2026-04-19T09:52:42.948Z</time></trkpt><trkpt lat="42.8019367" lon="12.1592983"><ele>464.0</ele><time>2026-04-19T09:52:43.947Z</time></trkpt><trkpt lat="42.80177" lon="12.159225"><ele>464.0</ele><time>2026-04-19T09:52:44.948Z</time></trkpt><trkpt lat="42.801625" lon="12.159155"><ele>467.25</ele><time>2026-04-19T09:52:45.948Z</time></trkpt><trkpt lat="42.8014933" lon="12.1590867"><ele>470.5</ele><time>2026-04-19T09:52:46.948Z</time></trkpt><trkpt lat="42.8013767" lon="12.159035"><ele>473.75</ele><time>2026-04-19T09:52:47.947Z</time></trkpt><trkpt lat="42.80128" lon="12.1589767"><ele>477.0</ele><time>2026-04-19T09:52:48.948Z</time></trkpt><trkpt lat="42.8011933" lon="12.158935"><ele>477.0</ele><time>2026-04-19T09:52:49.948Z</time></trkpt><trkpt lat="42.8010983" lon="12.1589017"><ele>477.00000000000006</ele><time>2026-04-19T09:52:51.947Z</time></trkpt><trkpt lat="42.8010533" lon="12.158975"><ele>477.00000000000006</ele><time>2026-04-19T09:52:57.947Z</time></trkpt><trkpt lat="42.8010917" lon="12.1591267"><ele>477.0</ele><time>2026-04-19T09:52:59.947Z</time></trkpt><trkpt lat="42.8011417" lon="12.15925"><ele>477.0</ele><time>2026-04-19T09:53:00.947Z</time></trkpt><trkpt lat="42.80122" lon="12.1593933"><ele>477.0</ele><time>2026-04-19T09:53:01.947Z</time></trkpt><trkpt lat="42.80133" lon="12.15958"><ele>477.0</ele><time>2026-04-19T09:53:02.948Z</time></trkpt><trkpt lat="42.8014217" lon="12.1598367"><ele>477.0</ele><time>2026-04-19T09:53:03.948Z</time></trkpt><trkpt lat="42.801505" lon="12.1600917"><ele>478.33333333333337</ele><time>2026-04-19T09:53:04.947Z</time></trkpt><trkpt lat="42.8015833" lon="12.1603333"><ele>479.6666666666667</ele><time>2026-04-19T09:53:05.947Z</time></trkpt><trkpt lat="42.801665" lon="12.1605717"><ele>481.0</ele><time>2026-04-19T09:53:06.948Z</time></trkpt><trkpt lat="42.801755" lon="12.1607983"><ele>480.6666666666667</ele><time>2026-04-19T09:53:07.947Z</time></trkpt><trkpt lat="42.8018383" lon="12.1610083"><ele>480.33333333333337</ele><time>2026-04-19T09:53:08.948Z</time></trkpt><trkpt lat="42.8019233" lon="12.1612233"><ele>480.0</ele><time>2026-04-19T09:53:09.947Z</time></trkpt><trkpt lat="42.8020017" lon="12.1614367"><ele>481.0</ele><time>2026-04-19T09:53:10.947Z</time></trkpt><trkpt lat="42.8020817" lon="12.1616433"><ele>482.0</ele><time>2026-04-19T09:53:11.948Z</time></trkpt><trkpt lat="42.8021633" lon="12.1618517"><ele>483.0</ele><time>2026-04-19T09:53:12.947Z</time></trkpt><trkpt lat="42.802245" lon="12.162055"><ele>483.0</ele><time>2026-04-19T09:53:13.947Z</time></trkpt><trkpt lat="42.8023317" lon="12.162255"><ele>483.0</ele><time>2026-04-19T09:53:14.948Z</time></trkpt><trkpt lat="42.802405" lon="12.162445"><ele>483.0</ele><time>2026-04-19T09:53:15.948Z</time></trkpt><trkpt lat="42.8024833" lon="12.16263"><ele>483.25</ele><time>2026-04-19T09:53:16.947Z</time></trkpt><trkpt lat="42.8025533" lon="12.1628067"><ele>483.5</ele><time>2026-04-19T09:53:17.947Z</time></trkpt><trkpt lat="42.8026167" lon="12.1629817"><ele>483.75</ele><time>2026-04-19T09:53:18.948Z</time></trkpt><trkpt lat="42.80268" lon="12.1631467"><ele>484.0</ele><time>2026-04-19T09:53:19.947Z</time></trkpt><trkpt lat="42.80274" lon="12.163315"><ele>483.5</ele><time>2026-04-19T09:53:20.947Z</time></trkpt><trkpt lat="42.8027767" lon="12.1634783"><ele>483.0</ele><time>2026-04-19T09:53:21.948Z</time></trkpt><trkpt lat="42.8028033" lon="12.163645"><ele>482.5</ele><time>2026-04-19T09:53:22.948Z</time></trkpt><trkpt lat="42.8028017" lon="12.1638267"><ele>482.0</ele><time>2026-04-19T09:53:23.948Z</time></trkpt><trkpt lat="42.8027783" lon="12.1640217"><ele>482.3333333333333</ele><time>2026-04-19T09:53:24.948Z</time></trkpt><trkpt lat="42.8027367" lon="12.1642367"><ele>482.66666666666663</ele><time>2026-04-19T09:53:25.948Z</time></trkpt><trkpt lat="42.8026917" lon="12.1644617"><ele>483.0</ele><time>2026-04-19T09:53:26.948Z</time></trkpt><trkpt lat="42.8026467" lon="12.1646833"><ele>485.66666666666663</ele><time>2026-04-19T09:53:27.947Z</time></trkpt><trkpt lat="42.8026083" lon="12.1648933"><ele>488.3333333333333</ele><time>2026-04-19T09:53:28.947Z</time></trkpt><trkpt lat="42.802575" lon="12.1650883"><ele>491.0</ele><time>2026-04-19T09:53:29.948Z</time></trkpt><trkpt lat="42.8025433" lon="12.16528"><ele>491.0</ele><time>2026-04-19T09:53:30.948Z</time></trkpt><trkpt lat="42.80252" lon="12.16546"><ele>491.0</ele><time>2026-04-19T09:53:31.948Z</time></trkpt><trkpt lat="42.8025133" lon="12.1656417"><ele>491.0</ele><time>2026-04-19T09:53:32.947Z</time></trkpt><trkpt lat="42.802525" lon="12.1658383"><ele>491.0</ele><time>2026-04-19T09:53:33.948Z</time></trkpt><trkpt lat="42.8025283" lon="12.1660433"><ele>492.0</ele><time>2026-04-19T09:53:34.947Z</time></trkpt><trkpt lat="42.8025533" lon="12.1662483"><ele>493.0</ele><time>2026-04-19T09:53:35.947Z</time></trkpt><trkpt lat="42.802585" lon="12.1664367"><ele>494.0</ele><time>2026-04-19T09:53:36.948Z</time></trkpt><trkpt lat="42.8026183" lon="12.166605"><ele>495.0</ele><time>2026-04-19T09:53:37.947Z</time></trkpt><trkpt lat="42.8026717" lon="12.1667717"><ele>497.33333333333337</ele><time>2026-04-19T09:53:38.948Z</time></trkpt><trkpt lat="42.8027583" lon="12.16694"><ele>499.6666666666667</ele><time>2026-04-19T09:53:39.948Z</time></trkpt><trkpt lat="42.8028717" lon="12.16711"><ele>502.0</ele><time>2026-04-19T09:53:40.947Z</time></trkpt><trkpt lat="42.80299" lon="12.167295"><ele>503.33333333333337</ele><time>2026-04-19T09:53:41.947Z</time></trkpt><trkpt lat="42.803125" lon="12.1674833"><ele>504.66666666666663</ele><time>2026-04-19T09:53:42.948Z</time></trkpt><trkpt lat="42.8032433" lon="12.1676633"><ele>506.0</ele><time>2026-04-19T09:53:43.948Z</time></trkpt><trkpt lat="42.8033467" lon="12.1678283"><ele>506.0</ele><time>2026-04-19T09:53:44.947Z</time></trkpt><trkpt lat="42.8034333" lon="12.1679983"><ele>506.0</ele><time>2026-04-19T09:53:45.947Z</time></trkpt><trkpt lat="42.80351" lon="12.168175"><ele>506.0</ele><time>2026-04-19T09:53:46.947Z</time></trkpt><trkpt lat="42.8035883" lon="12.1683817"><ele>511.0</ele><time>2026-04-19T09:53:47.948Z</time></trkpt><trkpt lat="42.803665" lon="12.1686217"><ele>516.0</ele><time>2026-04-19T09:53:48.947Z</time></trkpt><trkpt lat="42.80375" lon="12.1688883"><ele>521.0</ele><time>2026-04-19T09:53:49.948Z</time></trkpt><trkpt lat="42.8038383" lon="12.16918"><ele>522.5</ele><time>2026-04-19T09:53:50.947Z</time></trkpt><trkpt lat="42.80393" lon="12.169485"><ele>524.0</ele><time>2026-04-19T09:53:51.948Z</time></trkpt><trkpt lat="42.8040267" lon="12.169795"><ele>525.0</ele><time>2026-04-19T09:53:52.947Z</time></trkpt><trkpt lat="42.804125" lon="12.1701083"><ele>526.0</ele><time>2026-04-19T09:53:53.948Z</time></trkpt><trkpt lat="42.8042217" lon="12.170405"><ele>526.0</ele><time>2026-04-19T09:53:54.947Z</time></trkpt><trkpt lat="42.8043067" lon="12.17068"><ele>526.0</ele><time>2026-04-19T09:53:55.947Z</time></trkpt><trkpt lat="42.8043883" lon="12.170945"><ele>526.0</ele><time>2026-04-19T09:53:56.947Z</time></trkpt><trkpt lat="42.804455" lon="12.171205"><ele>531.6666666666667</ele><time>2026-04-19T09:53:57.948Z</time></trkpt><trkpt lat="42.8045217" lon="12.1714683"><ele>537.3333333333334</ele><time>2026-04-19T09:53:58.948Z</time></trkpt><trkpt lat="42.8045817" lon="12.1717333"><ele>543.0</ele><time>2026-04-19T09:53:59.948Z</time></trkpt><trkpt lat="42.8046417" lon="12.17198"><ele>543.0</ele><time>2026-04-19T09:54:00.948Z</time></trkpt><trkpt lat="42.80471" lon="12.1722117"><ele>543.0</ele><time>2026-04-19T09:54:01.947Z</time></trkpt><trkpt lat="42.80479" lon="12.17242"><ele>543.0</ele><time>2026-04-19T09:54:02.947Z</time></trkpt><trkpt lat="42.8048617" lon="12.1726183"><ele>542.25</ele><time>2026-04-19T09:54:03.947Z</time></trkpt><trkpt lat="42.8049183" lon="12.1728033"><ele>541.5</ele><time>2026-04-19T09:54:04.947Z</time></trkpt><trkpt lat="42.804965" lon="12.172985"><ele>540.75</ele><time>2026-04-19T09:54:05.948Z</time></trkpt><trkpt lat="42.8049967" lon="12.1731767"><ele>540.0</ele><time>2026-04-19T09:54:06.948Z</time></trkpt><trkpt lat="42.8050133" lon="12.1733833"><ele>541.5</ele><time>2026-04-19T09:54:07.947Z</time></trkpt><trkpt lat="42.805025" lon="12.1736"><ele>543.0</ele><time>2026-04-19T09:54:08.948Z</time></trkpt><trkpt lat="42.8050283" lon="12.1738033"><ele>544.5</ele><time>2026-04-19T09:54:09.947Z</time></trkpt><trkpt lat="42.8050317" lon="12.173985"><ele>546.0</ele><time>2026-04-19T09:54:10.948Z</time></trkpt><trkpt lat="42.8050617" lon="12.174155"><ele>547.75</ele><time>2026-04-19T09:54:11.947Z</time></trkpt><trkpt lat="42.8051083" lon="12.174305"><ele>549.5</ele><time>2026-04-19T09:54:12.948Z</time></trkpt><trkpt lat="42.80518" lon="12.17442"><ele>551.25</ele><time>2026-04-19T09:54:13.948Z</time></trkpt><trkpt lat="42.8052883" lon="12.1745283"><ele>553.0</ele><time>2026-04-19T09:54:14.947Z</time></trkpt><trkpt lat="42.8054317" lon="12.1746367"><ele>553.6666666666667</ele><time>2026-04-19T09:54:15.947Z</time></trkpt><trkpt lat="42.805595" lon="12.1747617"><ele>554.3333333333334</ele><time>2026-04-19T09:54:16.948Z</time></trkpt><trkpt lat="42.8057483" lon="12.1748917"><ele>555.0</ele><time>2026-04-19T09:54:17.948Z</time></trkpt><trkpt lat="42.8058933" lon="12.17502"><ele>549.0</ele><time>2026-04-19T09:54:18.948Z</time></trkpt><trkpt lat="42.80602" lon="12.1751383"><ele>543.0</ele><time>2026-04-19T09:54:19.948Z</time></trkpt><trkpt lat="42.8061383" lon="12.17526"><ele>537.0</ele><time>2026-04-19T09:54:20.948Z</time></trkpt><trkpt lat="42.8062483" lon="12.175375"><ele>531.0</ele><time>2026-04-19T09:54:21.947Z</time></trkpt><trkpt lat="42.80633" lon="12.1755017"><ele>531.0</ele><time>2026-04-19T09:54:22.947Z</time></trkpt><trkpt lat="42.8063917" lon="12.1756433"><ele>531.0</ele><time>2026-04-19T09:54:23.947Z</time></trkpt><trkpt lat="42.8064383" lon="12.1757833"><ele>531.0</ele><time>2026-04-19T09:54:24.948Z</time></trkpt><trkpt lat="42.8064667" lon="12.17595"><ele>531.0</ele><time>2026-04-19T09:54:25.947Z</time></trkpt><trkpt lat="42.80647" lon="12.1761133"><ele>532.8333333333334</ele><time>2026-04-19T09:54:26.948Z</time></trkpt><trkpt lat="42.8064567" lon="12.1762717"><ele>534.6666666666666</ele><time>2026-04-19T09:54:27.947Z</time></trkpt><trkpt lat="42.8064383" lon="12.1763983"><ele>536.5</ele><time>2026-04-19T09:54:28.947Z</time></trkpt><trkpt lat="42.8063933" lon="12.1764917"><ele>538.3333333333333</ele><time>2026-04-19T09:54:29.947Z</time></trkpt><trkpt lat="42.806335" lon="12.1765633"><ele>540.1666666666666</ele><time>2026-04-19T09:54:30.947Z</time></trkpt><trkpt lat="42.8062683" lon="12.1766067"><ele>542.0</ele><time>2026-04-19T09:54:31.948Z</time></trkpt><trkpt lat="42.80619" lon="12.1765983"><ele>542.0</ele><time>2026-04-19T09:54:32.948Z</time></trkpt><trkpt lat="42.80609" lon="12.176555"><ele>542.0</ele><time>2026-04-19T09:54:33.948Z</time></trkpt><trkpt lat="42.8059867" lon="12.1764833"><ele>542.0</ele><time>2026-04-19T09:54:34.948Z</time></trkpt><trkpt lat="42.8058983" lon="12.1764417"><ele>542.0</ele><time>2026-04-19T09:54:35.947Z</time></trkpt><trkpt lat="42.8058217" lon="12.176435"><ele>542.0</ele><time>2026-04-19T09:54:36.948Z</time></trkpt><trkpt lat="42.8057517" lon="12.1764517"><ele>545.6</ele><time>2026-04-19T09:54:37.948Z</time></trkpt><trkpt lat="42.8056933" lon="12.1764933"><ele>549.2</ele><time>2026-04-19T09:54:38.948Z</time></trkpt><trkpt lat="42.8056433" lon="12.176575"><ele>552.8</ele><time>2026-04-19T09:54:39.948Z</time></trkpt><trkpt lat="42.805615" lon="12.1766817"><ele>556.4</ele><time>2026-04-19T09:54:40.948Z</time></trkpt><trkpt lat="42.8055967" lon="12.1768233"><ele>560.0</ele><time>2026-04-19T09:54:41.947Z</time></trkpt><trkpt lat="42.805595" lon="12.1769933"><ele>560.0</ele><time>2026-04-19T09:54:42.948Z</time></trkpt><trkpt lat="42.8056017" lon="12.1772017"><ele>560.0</ele><time>2026-04-19T09:54:43.947Z</time></trkpt><trkpt lat="42.8056167" lon="12.1774083"><ele>560.0</ele><time>2026-04-19T09:54:44.948Z</time></trkpt><trkpt lat="42.80565" lon="12.1775883"><ele>560.0</ele><time>2026-04-19T09:54:45.947Z</time></trkpt><trkpt lat="42.8056717" lon="12.17775"><ele>558.6</ele><time>2026-04-19T09:54:46.948Z</time></trkpt><trkpt lat="42.805675" lon="12.1778783"><ele>557.2</ele><time>2026-04-19T09:54:47.947Z</time></trkpt><trkpt lat="42.8056583" lon="12.1779817"><ele>555.8</ele><time>2026-04-19T09:54:48.948Z</time></trkpt><trkpt lat="42.8056133" lon="12.1780733"><ele>554.4</ele><time>2026-04-19T09:54:49.948Z</time></trkpt><trkpt lat="42.8055433" lon="12.1781533"><ele>553.0</ele><time>2026-04-19T09:54:50.948Z</time></trkpt><trkpt lat="42.8054417" lon="12.1782183"><ele>555.0</ele><time>2026-04-19T09:54:51.948Z</time></trkpt><trkpt lat="42.8053033" lon="12.1782783"><ele>557.0</ele><time>2026-04-19T09:54:52.948Z</time></trkpt><trkpt lat="42.8051233" lon="12.1783417"><ele>559.0</ele><time>2026-04-19T09:54:53.947Z</time></trkpt><trkpt lat="42.804935" lon="12.1784183"><ele>559.0</ele><time>2026-04-19T09:54:54.947Z</time></trkpt><trkpt lat="42.8047767" lon="12.178485"><ele>559.0</ele><time>2026-04-19T09:54:55.947Z</time></trkpt><trkpt lat="42.8046383" lon="12.1785533"><ele>559.0</ele><time>2026-04-19T09:54:56.947Z</time></trkpt><trkpt lat="42.8045433" lon="12.1786117"><ele>559.0</ele><time>2026-04-19T09:54:57.947Z</time></trkpt><trkpt lat="42.80447" lon="12.1786767"><ele>559.0</ele><time>2026-04-19T09:54:58.948Z</time></trkpt><trkpt lat="42.8044067" lon="12.178755"><ele>559.0</ele><time>2026-04-19T09:54:59.948Z</time></trkpt><trkpt lat="42.8043733" lon="12.17884"><ele>559.0</ele><time>2026-04-19T09:55:00.948Z</time></trkpt><trkpt lat="42.804365" lon="12.178935"><ele>559.0</ele><time>2026-04-19T09:55:01.948Z</time></trkpt><trkpt lat="42.8043917" lon="12.1790283"><ele>559.0</ele><time>2026-04-19T09:55:02.947Z</time></trkpt><trkpt lat="42.8044517" lon="12.17913"><ele>559.0</ele><time>2026-04-19T09:55:03.948Z</time></trkpt><trkpt lat="42.8045383" lon="12.1792383"><ele>557.75</ele><time>2026-04-19T09:55:04.948Z</time></trkpt><trkpt lat="42.8046483" lon="12.1793483"><ele>556.5</ele><time>2026-04-19T09:55:05.948Z</time></trkpt><trkpt lat="42.8047667" lon="12.1794633"><ele>555.25</ele><time>2026-04-19T09:55:06.948Z</time></trkpt><trkpt lat="42.8048667" lon="12.1795767"><ele>554.0</ele><time>2026-04-19T09:55:07.948Z</time></trkpt><trkpt lat="42.8049517" lon="12.1796717"><ele>554.0</ele><time>2026-04-19T09:55:08.948Z</time></trkpt><trkpt lat="42.8050083" lon="12.1797767"><ele>554.0</ele><time>2026-04-19T09:55:09.947Z</time></trkpt><trkpt lat="42.80504" lon="12.1799017"><ele>554.0</ele><time>2026-04-19T09:55:10.948Z</time></trkpt><trkpt lat="42.8050467" lon="12.1800617"><ele>554.0</ele><time>2026-04-19T09:55:11.947Z</time></trkpt><trkpt lat="42.80505" lon="12.1802483"><ele>554.0</ele><time>2026-04-19T09:55:12.947Z</time></trkpt><trkpt lat="42.805065" lon="12.1804617"><ele>554.75</ele><time>2026-04-19T09:55:13.948Z</time></trkpt><trkpt lat="42.8050983" lon="12.1806783"><ele>555.5</ele><time>2026-04-19T09:55:14.948Z</time></trkpt><trkpt lat="42.8051333" lon="12.1808683"><ele>556.25</ele><time>2026-04-19T09:55:15.948Z</time></trkpt><trkpt lat="42.80515" lon="12.1810483"><ele>557.0</ele><time>2026-04-19T09:55:16.947Z</time></trkpt><trkpt lat="42.805145" lon="12.18122"><ele>557.0</ele><time>2026-04-19T09:55:17.947Z</time></trkpt><trkpt lat="42.80511" lon="12.181385"><ele>557.0</ele><time>2026-04-19T09:55:18.948Z</time></trkpt><trkpt lat="42.805045" lon="12.1815667"><ele>557.0</ele><time>2026-04-19T09:55:19.947Z</time></trkpt><trkpt lat="42.8049917" lon="12.181755"><ele>557.0</ele><time>2026-04-19T09:55:20.948Z</time></trkpt><trkpt lat="42.8049633" lon="12.1819483"><ele>557.25</ele><time>2026-04-19T09:55:21.948Z</time></trkpt><trkpt lat="42.8049617" lon="12.1821283"><ele>557.5</ele><time>2026-04-19T09:55:22.948Z</time></trkpt><trkpt lat="42.80496" lon="12.182305"><ele>557.75</ele><time>2026-04-19T09:55:23.948Z</time></trkpt><trkpt lat="42.8049433" lon="12.1824717"><ele>558.0</ele><time>2026-04-19T09:55:24.948Z</time></trkpt><trkpt lat="42.8048883" lon="12.1826283"><ele>558.0</ele><time>2026-04-19T09:55:25.947Z</time></trkpt><trkpt lat="42.8047917" lon="12.1827817"><ele>558.0</ele><time>2026-04-19T09:55:26.948Z</time></trkpt><trkpt lat="42.804695" lon="12.18291"><ele>558.0</ele><time>2026-04-19T09:55:27.947Z</time></trkpt><trkpt lat="42.8046183" lon="12.1830583"><ele>558.0</ele><time>2026-04-19T09:55:28.948Z</time></trkpt><trkpt lat="42.8045767" lon="12.1832133"><ele>557.75</ele><time>2026-04-19T09:55:29.947Z</time></trkpt><trkpt lat="42.8045683" lon="12.1833883"><ele>557.5</ele><time>2026-04-19T09:55:30.948Z</time></trkpt><trkpt lat="42.80459" lon="12.183585"><ele>557.25</ele><time>2026-04-19T09:55:31.947Z</time></trkpt><trkpt lat="42.804625" lon="12.18381"><ele>557.0</ele><time>2026-04-19T09:55:32.948Z</time></trkpt><trkpt lat="42.8046767" lon="12.18406"><ele>561.0</ele><time>2026-04-19T09:55:33.948Z</time></trkpt><trkpt lat="42.8047317" lon="12.1843517"><ele>565.0</ele><time>2026-04-19T09:55:34.947Z</time></trkpt><trkpt lat="42.8047867" lon="12.1846783"><ele>567.5</ele><time>2026-04-19T09:55:35.948Z</time></trkpt><trkpt lat="42.8048533" lon="12.1850367"><ele>570.0</ele><time>2026-04-19T09:55:36.948Z</time></trkpt><trkpt lat="42.8049233" lon="12.1853933"><ele>574.0</ele><time>2026-04-19T09:55:37.947Z</time></trkpt><trkpt lat="42.8049817" lon="12.1857233"><ele>578.0</ele><time>2026-04-19T09:55:38.948Z</time></trkpt><trkpt lat="42.8050317" lon="12.18602"><ele>578.0</ele><time>2026-04-19T09:55:39.948Z</time></trkpt><trkpt lat="42.8050767" lon="12.18629"><ele>578.0</ele><time>2026-04-19T09:55:40.947Z</time></trkpt><trkpt lat="42.805115" lon="12.1865183"><ele>578.0</ele><time>2026-04-19T09:55:41.947Z</time></trkpt><trkpt lat="42.8051417" lon="12.1867183"><ele>580.3333333333333</ele><time>2026-04-19T09:55:42.948Z</time></trkpt><trkpt lat="42.8051467" lon="12.1869167"><ele>582.6666666666666</ele><time>2026-04-19T09:55:43.947Z</time></trkpt><trkpt lat="42.80514" lon="12.18712"><ele>585.0</ele><time>2026-04-19T09:55:44.947Z</time></trkpt><trkpt lat="42.8051267" lon="12.1873333"><ele>584.6666666666666</ele><time>2026-04-19T09:55:45.948Z</time></trkpt><trkpt lat="42.8051033" lon="12.1875717"><ele>584.3333333333333</ele><time>2026-04-19T09:55:46.948Z</time></trkpt><trkpt lat="42.805075" lon="12.18781"><ele>584.0</ele><time>2026-04-19T09:55:47.947Z</time></trkpt><trkpt lat="42.805045" lon="12.1880283"><ele>584.0</ele><time>2026-04-19T09:55:48.948Z</time></trkpt><trkpt lat="42.805025" lon="12.1882317"><ele>584.0</ele><time>2026-04-19T09:55:49.948Z</time></trkpt><trkpt lat="42.8050267" lon="12.188425"><ele>584.0</ele><time>2026-04-19T09:55:50.947Z</time></trkpt><trkpt lat="42.80505" lon="12.18861"><ele>584.0</ele><time>2026-04-19T09:55:51.947Z</time></trkpt><trkpt lat="42.8051067" lon="12.1888067"><ele>583.6666666666666</ele><time>2026-04-19T09:55:52.947Z</time></trkpt><trkpt lat="42.8051767" lon="12.1890183"><ele>583.3333333333334</ele><time>2026-04-19T09:55:53.947Z</time></trkpt><trkpt lat="42.8052533" lon="12.18925"><ele>583.0</ele><time>2026-04-19T09:55:54.948Z</time></trkpt><trkpt lat="42.8053367" lon="12.1894933"><ele>583.0</ele><time>2026-04-19T09:55:55.948Z</time></trkpt><trkpt lat="42.8054117" lon="12.1897317"><ele>583.0</ele><time>2026-04-19T09:55:56.948Z</time></trkpt><trkpt lat="42.80548" lon="12.1899633"><ele>583.0</ele><time>2026-04-19T09:55:57.947Z</time></trkpt><trkpt lat="42.80554" lon="12.19019"><ele>585.0</ele><time>2026-04-19T09:55:58.948Z</time></trkpt><trkpt lat="42.805605" lon="12.190425"><ele>587.0</ele><time>2026-04-19T09:55:59.947Z</time></trkpt><trkpt lat="42.805665" lon="12.190675"><ele>589.0</ele><time>2026-04-19T09:56:00.947Z</time></trkpt><trkpt lat="42.80572" lon="12.19092"><ele>590.75</ele><time>2026-04-19T09:56:01.948Z</time></trkpt><trkpt lat="42.80575" lon="12.191145"><ele>592.5</ele><time>2026-04-19T09:56:02.947Z</time></trkpt><trkpt lat="42.8057767" lon="12.191345"><ele>594.25</ele><time>2026-04-19T09:56:03.948Z</time></trkpt><trkpt lat="42.8057683" lon="12.191515"><ele>596.0</ele><time>2026-04-19T09:56:04.948Z</time></trkpt><trkpt lat="42.8057483" lon="12.1916517"><ele>596.6</ele><time>2026-04-19T09:56:05.948Z</time></trkpt><trkpt lat="42.8057233" lon="12.1917983"><ele>597.2</ele><time>2026-04-19T09:56:06.948Z</time></trkpt><trkpt lat="42.8057017" lon="12.1919333"><ele>597.8</ele><time>2026-04-19T09:56:07.947Z</time></trkpt><trkpt lat="42.8056983" lon="12.1920783"><ele>598.4</ele><time>2026-04-19T09:56:08.948Z</time></trkpt><trkpt lat="42.8057367" lon="12.1922033"><ele>599.0</ele><time>2026-04-19T09:56:09.948Z</time></trkpt><trkpt lat="42.80581" lon="12.1923267"><ele>598.5</ele><time>2026-04-19T09:56:10.946Z</time></trkpt><trkpt lat="42.8059" lon="12.1924417"><ele>598.0</ele><time>2026-04-19T09:56:11.947Z</time></trkpt><trkpt lat="42.8060167" lon="12.1925517"><ele>597.5</ele><time>2026-04-19T09:56:12.946Z</time></trkpt><trkpt lat="42.8061583" lon="12.19268"><ele>597.0</ele><time>2026-04-19T09:56:13.946Z</time></trkpt><trkpt lat="42.8062883" lon="12.1928183"><ele>598.0</ele><time>2026-04-19T09:56:14.946Z</time></trkpt><trkpt lat="42.8064133" lon="12.19294"><ele>599.0</ele><time>2026-04-19T09:56:15.947Z</time></trkpt><trkpt lat="42.8065467" lon="12.193045"><ele>600.0</ele><time>2026-04-19T09:56:16.947Z</time></trkpt><trkpt lat="42.8066617" lon="12.193125"><ele>601.0</ele><time>2026-04-19T09:56:17.946Z</time></trkpt><trkpt lat="42.80676" lon="12.193205"><ele>602.0</ele><time>2026-04-19T09:56:18.946Z</time></trkpt><trkpt lat="42.8068367" lon="12.1932917"><ele>603.0</ele><time>2026-04-19T09:56:19.947Z</time></trkpt><trkpt lat="42.8068933" lon="12.1934183"><ele>604.0</ele><time>2026-04-19T09:56:20.946Z</time></trkpt><trkpt lat="42.80692" lon="12.1935767"><ele>605.0</ele><time>2026-04-19T09:56:21.946Z</time></trkpt><trkpt lat="42.80694" lon="12.193765"><ele>605.0</ele><time>2026-04-19T09:56:22.946Z</time></trkpt><trkpt lat="42.8069617" lon="12.1939833"><ele>605.0</ele><time>2026-04-19T09:56:23.947Z</time></trkpt><trkpt lat="42.807005" lon="12.1942017"><ele>605.0</ele><time>2026-04-19T09:56:24.947Z</time></trkpt><trkpt lat="42.8070333" lon="12.1944"><ele>604.0</ele><time>2026-04-19T09:56:25.947Z</time></trkpt><trkpt lat="42.80706" lon="12.194585"><ele>603.0</ele><time>2026-04-19T09:56:26.947Z</time></trkpt><trkpt lat="42.8071067" lon="12.1947583"><ele>602.0</ele><time>2026-04-19T09:56:27.946Z</time></trkpt><trkpt lat="42.8071717" lon="12.1949117"><ele>601.0</ele><time>2026-04-19T09:56:28.946Z</time></trkpt><trkpt lat="42.8072683" lon="12.1950517"><ele>601.0</ele><time>2026-04-19T09:56:29.946Z</time></trkpt><trkpt lat="42.8073783" lon="12.1951933"><ele>601.0</ele><time>2026-04-19T09:56:30.947Z</time></trkpt><trkpt lat="42.8074983" lon="12.1953367"><ele>601.0</ele><time>2026-04-19T09:56:31.946Z</time></trkpt><trkpt lat="42.80763" lon="12.19551"><ele>603.3333333333334</ele><time>2026-04-19T09:56:32.947Z</time></trkpt><trkpt lat="42.8077683" lon="12.195685"><ele>605.6666666666666</ele><time>2026-04-19T09:56:33.946Z</time></trkpt><trkpt lat="42.8078933" lon="12.1958433"><ele>608.0</ele><time>2026-04-19T09:56:34.947Z</time></trkpt><trkpt lat="42.8080017" lon="12.19598"><ele>608.0</ele><time>2026-04-19T09:56:35.946Z</time></trkpt><trkpt lat="42.8080833" lon="12.1960967"><ele>608.0</ele><time>2026-04-19T09:56:36.947Z</time></trkpt><trkpt lat="42.808145" lon="12.19621"><ele>608.0</ele><time>2026-04-19T09:56:37.947Z</time></trkpt><trkpt lat="42.808175" lon="12.1963283"><ele>608.0</ele><time>2026-04-19T09:56:38.947Z</time></trkpt><trkpt lat="42.808165" lon="12.19645"><ele>608.0</ele><time>2026-04-19T09:56:39.946Z</time></trkpt><trkpt lat="42.8081267" lon="12.1965683"><ele>609.4</ele><time>2026-04-19T09:56:40.946Z</time></trkpt><trkpt lat="42.80806" lon="12.1966667"><ele>610.8</ele><time>2026-04-19T09:56:41.946Z</time></trkpt><trkpt lat="42.8079683" lon="12.196735"><ele>612.2</ele><time>2026-04-19T09:56:42.946Z</time></trkpt><trkpt lat="42.8078533" lon="12.1967583"><ele>613.6</ele><time>2026-04-19T09:56:43.946Z</time></trkpt><trkpt lat="42.8077283" lon="12.1967667"><ele>615.0</ele><time>2026-04-19T09:56:44.947Z</time></trkpt><trkpt lat="42.8075883" lon="12.196765"><ele>615.0</ele><time>2026-04-19T09:56:45.947Z</time></trkpt><trkpt lat="42.8074583" lon="12.1967733"><ele>615.0</ele><time>2026-04-19T09:56:46.947Z</time></trkpt><trkpt lat="42.8073317" lon="12.1967917"><ele>615.0</ele><time>2026-04-19T09:56:47.947Z</time></trkpt><trkpt lat="42.8072233" lon="12.19682"><ele>615.0</ele><time>2026-04-19T09:56:48.947Z</time></trkpt><trkpt lat="42.8071333" lon="12.1968717"><ele>615.0</ele><time>2026-04-19T09:56:49.947Z</time></trkpt><trkpt lat="42.8070683" lon="12.1969467"><ele>615.0</ele><time>2026-04-19T09:56:50.946Z</time></trkpt><trkpt lat="42.80703" lon="12.1970483"><ele>615.0</ele><time>2026-04-19T09:56:51.947Z</time></trkpt><trkpt lat="42.8070133" lon="12.1971817"><ele>615.0</ele><time>2026-04-19T09:56:52.946Z</time></trkpt><trkpt lat="42.80704" lon="12.1973333"><ele>615.0</ele><time>2026-04-19T09:56:53.947Z</time></trkpt><trkpt lat="42.8070967" lon="12.1975083"><ele>617.3333333333334</ele><time>2026-04-19T09:56:54.946Z</time></trkpt><trkpt lat="42.8071683" lon="12.1977083"><ele>619.6666666666667</ele><time>2026-04-19T09:56:55.946Z</time></trkpt><trkpt lat="42.8072283" lon="12.1979283"><ele>622.0</ele><time>2026-04-19T09:56:56.946Z</time></trkpt><trkpt lat="42.8072767" lon="12.1981467"><ele>622.3333333333334</ele><time>2026-04-19T09:56:57.947Z</time></trkpt><trkpt lat="42.807325" lon="12.1983467"><ele>622.6666666666666</ele><time>2026-04-19T09:56:58.947Z</time></trkpt><trkpt lat="42.8073583" lon="12.1985367"><ele>623.0</ele><time>2026-04-19T09:56:59.946Z</time></trkpt><trkpt lat="42.80738" lon="12.1987417"><ele>623.0</ele><time>2026-04-19T09:57:00.946Z</time></trkpt><trkpt lat="42.8073983" lon="12.1989467"><ele>623.0</ele><time>2026-04-19T09:57:01.947Z</time></trkpt><trkpt lat="42.8074083" lon="12.1991367"><ele>623.0</ele><time>2026-04-19T09:57:02.947Z</time></trkpt><trkpt lat="42.8074133" lon="12.1993117"><ele>623.0</ele><time>2026-04-19T09:57:03.946Z</time></trkpt><trkpt lat="42.8074167" lon="12.199485"><ele>623.5</ele><time>2026-04-19T09:57:04.946Z</time></trkpt><trkpt lat="42.8074167" lon="12.1996617"><ele>624.0</ele><time>2026-04-19T09:57:05.947Z</time></trkpt><trkpt lat="42.8073933" lon="12.1998433"><ele>624.5</ele><time>2026-04-19T09:57:06.946Z</time></trkpt><trkpt lat="42.8073683" lon="12.2000367"><ele>625.0</ele><time>2026-04-19T09:57:07.947Z</time></trkpt><trkpt lat="42.8073317" lon="12.2002233"><ele>625.5</ele><time>2026-04-19T09:57:08.947Z</time></trkpt><trkpt lat="42.8073133" lon="12.2004017"><ele>626.0</ele><time>2026-04-19T09:57:09.946Z</time></trkpt><trkpt lat="42.8073" lon="12.2005717"><ele>626.5</ele><time>2026-04-19T09:57:10.946Z</time></trkpt><trkpt lat="42.8073017" lon="12.20075"><ele>627.0</ele><time>2026-04-19T09:57:11.946Z</time></trkpt><trkpt lat="42.8073183" lon="12.200895"><ele>627.8000000000001</ele><time>2026-04-19T09:57:12.947Z</time></trkpt><trkpt lat="42.8073617" lon="12.2010083"><ele>628.6</ele><time>2026-04-19T09:57:13.947Z</time></trkpt><trkpt lat="42.8074267" lon="12.2010967"><ele>629.4000000000001</ele><time>2026-04-19T09:57:14.946Z</time></trkpt><trkpt lat="42.80752" lon="12.2011667"><ele>630.2</ele><time>2026-04-19T09:57:15.946Z</time></trkpt><trkpt lat="42.8076383" lon="12.2012267"><ele>631.0</ele><time>2026-04-19T09:57:16.946Z</time></trkpt><trkpt lat="42.8077767" lon="12.2013"><ele>629.0</ele><time>2026-04-19T09:57:17.946Z</time></trkpt><trkpt lat="42.807895" lon="12.2013983"><ele>627.0</ele><time>2026-04-19T09:57:18.946Z</time></trkpt><trkpt lat="42.8080083" lon="12.20153"><ele>625.0</ele><time>2026-04-19T09:57:19.947Z</time></trkpt><trkpt lat="42.8081133" lon="12.2016933"><ele>623.0</ele><time>2026-04-19T09:57:20.947Z</time></trkpt><trkpt lat="42.8082067" lon="12.20185"><ele>622.1999999999999</ele><time>2026-04-19T09:57:21.947Z</time></trkpt><trkpt lat="42.8083067" lon="12.20197"><ele>621.4</ele><time>2026-04-19T09:57:22.946Z</time></trkpt><trkpt lat="42.8084033" lon="12.2020617"><ele>620.5999999999999</ele><time>2026-04-19T09:57:23.946Z</time></trkpt><trkpt lat="42.8084917" lon="12.2021383"><ele>619.8</ele><time>2026-04-19T09:57:24.947Z</time></trkpt><trkpt lat="42.8085567" lon="12.2022233"><ele>619.0</ele><time>2026-04-19T09:57:25.946Z</time></trkpt><trkpt lat="42.8085933" lon="12.2023417"><ele>621.0</ele><time>2026-04-19T09:57:26.946Z</time></trkpt><trkpt lat="42.8086117" lon="12.2024817"><ele>623.0</ele><time>2026-04-19T09:57:27.946Z</time></trkpt><trkpt lat="42.80861" lon="12.2026433"><ele>625.0</ele><time>2026-04-19T09:57:28.947Z</time></trkpt><trkpt lat="42.8085917" lon="12.20281"><ele>627.0</ele><time>2026-04-19T09:57:29.947Z</time></trkpt><trkpt lat="42.80855" lon="12.202975"><ele>636.3333333333334</ele><time>2026-04-19T09:57:30.946Z</time></trkpt><trkpt lat="42.8084867" lon="12.20314"><ele>645.6666666666667</ele><time>2026-04-19T09:57:31.947Z</time></trkpt><trkpt lat="42.808405" lon="12.2033167"><ele>655.0</ele><time>2026-04-19T09:57:32.947Z</time></trkpt><trkpt lat="42.80831" lon="12.203495"><ele>655.75</ele><time>2026-04-19T09:57:33.946Z</time></trkpt><trkpt lat="42.8082167" lon="12.20365"><ele>656.5</ele><time>2026-04-19T09:57:34.947Z</time></trkpt><trkpt lat="42.8081033" lon="12.203785"><ele>657.25</ele><time>2026-04-19T09:57:35.947Z</time></trkpt><trkpt lat="42.8079767" lon="12.2038867"><ele>658.0</ele><time>2026-04-19T09:57:36.946Z</time></trkpt><trkpt lat="42.8078383" lon="12.203985"><ele>656.6666666666667</ele><time>2026-04-19T09:57:37.946Z</time></trkpt><trkpt lat="42.8076733" lon="12.204065"><ele>655.3333333333334</ele><time>2026-04-19T09:57:38.947Z</time></trkpt><trkpt lat="42.80751" lon="12.20414"><ele>654.0</ele><time>2026-04-19T09:57:39.946Z</time></trkpt><trkpt lat="42.8073633" lon="12.2042017"><ele>657.4000000000001</ele><time>2026-04-19T09:57:40.947Z</time></trkpt><trkpt lat="42.80725" lon="12.2042533"><ele>660.8</ele><time>2026-04-19T09:57:41.947Z</time></trkpt><trkpt lat="42.80716" lon="12.2042933"><ele>664.2</ele><time>2026-04-19T09:57:42.947Z</time></trkpt><trkpt lat="42.80709" lon="12.2043533"><ele>667.5999999999999</ele><time>2026-04-19T09:57:43.947Z</time></trkpt><trkpt lat="42.8070433" lon="12.20445"><ele>671.0</ele><time>2026-04-19T09:57:44.946Z</time></trkpt><trkpt lat="42.8070233" lon="12.2045567"><ele>671.0</ele><time>2026-04-19T09:57:45.946Z</time></trkpt><trkpt lat="42.8070433" lon="12.2046717"><ele>671.0</ele><time>2026-04-19T09:57:46.946Z</time></trkpt><trkpt lat="42.80709" lon="12.2047683"><ele>671.0</ele><time>2026-04-19T09:57:47.947Z</time></trkpt><trkpt lat="42.8071767" lon="12.204835"><ele>671.0</ele><time>2026-04-19T09:57:48.947Z</time></trkpt><trkpt lat="42.8072983" lon="12.2048967"><ele>671.0</ele><time>2026-04-19T09:57:49.947Z</time></trkpt><trkpt lat="42.80743" lon="12.20496"><ele>673.0</ele><time>2026-04-19T09:57:50.947Z</time></trkpt><trkpt lat="42.8075467" lon="12.20502"><ele>675.0</ele><time>2026-04-19T09:57:51.947Z</time></trkpt><trkpt lat="42.8076383" lon="12.2050867"><ele>677.0</ele><time>2026-04-19T09:57:52.947Z</time></trkpt><trkpt lat="42.807705" lon="12.2051517"><ele>679.0</ele><time>2026-04-19T09:57:53.947Z</time></trkpt><trkpt lat="42.807755" lon="12.2052083"><ele>681.0</ele><time>2026-04-19T09:57:54.946Z</time></trkpt><trkpt lat="42.8077667" lon="12.2053467"><ele>681.0</ele><time>2026-04-19T09:57:56.946Z</time></trkpt><trkpt lat="42.80763" lon="12.2054233"><ele>681.0</ele><time>2026-04-19T09:57:58.946Z</time></trkpt><trkpt lat="42.8075067" lon="12.2054267"><ele>681.0</ele><time>2026-04-19T09:57:59.946Z</time></trkpt><trkpt lat="42.8073733" lon="12.2054533"><ele>681.0</ele><time>2026-04-19T09:58:00.947Z</time></trkpt><trkpt lat="42.8072367" lon="12.2055183"><ele>681.0</ele><time>2026-04-19T09:58:01.947Z</time></trkpt><trkpt lat="42.8071117" lon="12.205605"><ele>681.0</ele><time>2026-04-19T09:58:02.946Z</time></trkpt><trkpt lat="42.8070067" lon="12.2056867"><ele>681.0</ele><time>2026-04-19T09:58:03.947Z</time></trkpt><trkpt lat="42.8069383" lon="12.2057633"><ele>681.0</ele><time>2026-04-19T09:58:04.947Z</time></trkpt><trkpt lat="42.8068967" lon="12.2058567"><ele>681.0</ele><time>2026-04-19T09:58:05.946Z</time></trkpt><trkpt lat="42.80689" lon="12.205955"><ele>683.0</ele><time>2026-04-19T09:58:06.946Z</time></trkpt><trkpt lat="42.8069117" lon="12.2060383"><ele>685.0</ele><time>2026-04-19T09:58:07.947Z</time></trkpt><trkpt lat="42.80697" lon="12.2061033"><ele>687.0</ele><time>2026-04-19T09:58:08.947Z</time></trkpt><trkpt lat="42.8070417" lon="12.2061283"><ele>689.0</ele><time>2026-04-19T09:58:09.946Z</time></trkpt><trkpt lat="42.8071233" lon="12.2061067"><ele>691.0</ele><time>2026-04-19T09:58:10.947Z</time></trkpt><trkpt lat="42.8072083" lon="12.2060433"><ele>693.0</ele><time>2026-04-19T09:58:11.947Z</time></trkpt><trkpt lat="42.8073033" lon="12.2059683"><ele>693.0</ele><time>2026-04-19T09:58:12.946Z</time></trkpt><trkpt lat="42.8073983" lon="12.2059167"><ele>693.0</ele><time>2026-04-19T09:58:13.946Z</time></trkpt><trkpt lat="42.80748" lon="12.2059"><ele>693.0</ele><time>2026-04-19T09:58:14.946Z</time></trkpt><trkpt lat="42.8075483" lon="12.2059233"><ele>693.0</ele><time>2026-04-19T09:58:15.947Z</time></trkpt><trkpt lat="42.807595" lon="12.2059933"><ele>693.0</ele><time>2026-04-19T09:58:16.946Z</time></trkpt><trkpt lat="42.8076117" lon="12.2060933"><ele>693.0</ele><time>2026-04-19T09:58:17.947Z</time></trkpt><trkpt lat="42.80759" lon="12.2062033"><ele>693.0</ele><time>2026-04-19T09:58:18.947Z</time></trkpt><trkpt lat="42.80753" lon="12.2062983"><ele>693.0</ele><time>2026-04-19T09:58:19.946Z</time></trkpt><trkpt lat="42.8074333" lon="12.2063817"><ele>693.0</ele><time>2026-04-19T09:58:20.947Z</time></trkpt><trkpt lat="42.8073033" lon="12.2064617"><ele>693.0</ele><time>2026-04-19T09:58:21.947Z</time></trkpt><trkpt lat="42.807185" lon="12.2065333"><ele>694.4</ele><time>2026-04-19T09:58:22.947Z</time></trkpt><trkpt lat="42.8070883" lon="12.2066067"><ele>695.8</ele><time>2026-04-19T09:58:23.947Z</time></trkpt><trkpt lat="42.807005" lon="12.20669"><ele>697.2</ele><time>2026-04-19T09:58:24.947Z</time></trkpt><trkpt lat="42.806945" lon="12.2067983"><ele>698.6</ele><time>2026-04-19T09:58:25.946Z</time></trkpt><trkpt lat="42.8069233" lon="12.2069317"><ele>700.0</ele><time>2026-04-19T09:58:26.947Z</time></trkpt><trkpt lat="42.806925" lon="12.2070833"><ele>700.0</ele><time>2026-04-19T09:58:27.947Z</time></trkpt><trkpt lat="42.806925" lon="12.2072383"><ele>700.0</ele><time>2026-04-19T09:58:28.946Z</time></trkpt><trkpt lat="42.80694" lon="12.2073833"><ele>700.0</ele><time>2026-04-19T09:58:29.947Z</time></trkpt><trkpt lat="42.8069783" lon="12.2075067"><ele>700.0</ele><time>2026-04-19T09:58:30.947Z</time></trkpt><trkpt lat="42.8070467" lon="12.2076033"><ele>700.0</ele><time>2026-04-19T09:58:31.947Z</time></trkpt><trkpt lat="42.807145" lon="12.20769"><ele>702.2</ele><time>2026-04-19T09:58:32.946Z</time></trkpt><trkpt lat="42.807255" lon="12.2077617"><ele>704.4</ele><time>2026-04-19T09:58:33.947Z</time></trkpt><trkpt lat="42.8073583" lon="12.2078333"><ele>706.5999999999999</ele><time>2026-04-19T09:58:34.947Z</time></trkpt><trkpt lat="42.807425" lon="12.20791"><ele>708.8</ele><time>2026-04-19T09:58:35.947Z</time></trkpt><trkpt lat="42.8074767" lon="12.2080117"><ele>711.0</ele><time>2026-04-19T09:58:36.947Z</time></trkpt><trkpt lat="42.8075183" lon="12.208155"><ele>714.0</ele><time>2026-04-19T09:58:37.946Z</time></trkpt><trkpt lat="42.8075533" lon="12.2083167"><ele>717.0</ele><time>2026-04-19T09:58:38.946Z</time></trkpt><trkpt lat="42.8075767" lon="12.2084733"><ele>720.0</ele><time>2026-04-19T09:58:39.947Z</time></trkpt><trkpt lat="42.8075767" lon="12.208625"><ele>723.0</ele><time>2026-04-19T09:58:40.946Z</time></trkpt><trkpt lat="42.8075633" lon="12.20878"><ele>723.0</ele><time>2026-04-19T09:58:41.947Z</time></trkpt><trkpt lat="42.80754" lon="12.2089483"><ele>723.0</ele><time>2026-04-19T09:58:42.946Z</time></trkpt><trkpt lat="42.8075167" lon="12.20912"><ele>723.0</ele><time>2026-04-19T09:58:43.947Z</time></trkpt><trkpt lat="42.8075117" lon="12.2093183"><ele>723.0</ele><time>2026-04-19T09:58:44.947Z</time></trkpt><trkpt lat="42.8075217" lon="12.2095183"><ele>725.0</ele><time>2026-04-19T09:58:45.947Z</time></trkpt><trkpt lat="42.8075417" lon="12.209695"><ele>727.0</ele><time>2026-04-19T09:58:46.947Z</time></trkpt><trkpt lat="42.80758" lon="12.2098567"><ele>729.0</ele><time>2026-04-19T09:58:47.946Z</time></trkpt><trkpt lat="42.8076217" lon="12.2100033"><ele>731.0</ele><time>2026-04-19T09:58:48.947Z</time></trkpt><trkpt lat="42.8076717" lon="12.2101367"><ele>731.0</ele><time>2026-04-19T09:58:49.947Z</time></trkpt><trkpt lat="42.8077167" lon="12.210265"><ele>731.0</ele><time>2026-04-19T09:58:50.947Z</time></trkpt><trkpt lat="42.807745" lon="12.2103717"><ele>731.0</ele><time>2026-04-19T09:58:51.946Z</time></trkpt><trkpt lat="42.8077633" lon="12.210495"><ele>731.0</ele><time>2026-04-19T09:58:53.946Z</time></trkpt><trkpt lat="42.8078083" lon="12.2106517"><ele>731.0</ele><time>2026-04-19T09:59:05.946Z</time></trkpt><trkpt lat="42.807855" lon="12.2107383"><ele>734.0</ele><time>2026-04-19T09:59:06.947Z</time></trkpt><trkpt lat="42.8079233" lon="12.2108233"><ele>737.0</ele><time>2026-04-19T09:59:07.947Z</time></trkpt><trkpt lat="42.8080217" lon="12.2109183"><ele>740.0</ele><time>2026-04-19T09:59:08.946Z</time></trkpt><trkpt lat="42.8081383" lon="12.211025"><ele>743.0</ele><time>2026-04-19T09:59:09.946Z</time></trkpt><trkpt lat="42.8082817" lon="12.21114"><ele>743.0</ele><time>2026-04-19T09:59:10.947Z</time></trkpt><trkpt lat="42.808445" lon="12.2112567"><ele>743.0</ele><time>2026-04-19T09:59:11.947Z</time></trkpt><trkpt lat="42.808635" lon="12.2113733"><ele>743.0</ele><time>2026-04-19T09:59:12.946Z</time></trkpt><trkpt lat="42.8088267" lon="12.2114783"><ele>747.3333333333333</ele><time>2026-04-19T09:59:13.947Z</time></trkpt><trkpt lat="42.8090183" lon="12.2115583"><ele>751.6666666666666</ele><time>2026-04-19T09:59:14.947Z</time></trkpt><trkpt lat="42.8092" lon="12.2116333"><ele>756.0</ele><time>2026-04-19T09:59:15.947Z</time></trkpt><trkpt lat="42.809355" lon="12.2117117"><ele>757.0</ele><time>2026-04-19T09:59:16.946Z</time></trkpt><trkpt lat="42.8095067" lon="12.21179"><ele>758.0</ele><time>2026-04-19T09:59:17.947Z</time></trkpt><trkpt lat="42.8096533" lon="12.2118567"><ele>759.0</ele><time>2026-04-19T09:59:18.946Z</time></trkpt><trkpt lat="42.8097967" lon="12.2119167"><ele>759.0</ele><time>2026-04-19T09:59:19.946Z</time></trkpt><trkpt lat="42.8100783" lon="12.212015"><ele>759.0</ele><time>2026-04-19T09:59:21.946Z</time></trkpt><trkpt lat="42.8102367" lon="12.2120283"><ele>759.0</ele><time>2026-04-19T09:59:22.947Z</time></trkpt><trkpt lat="42.810395" lon="12.2120267"><ele>760.3333333333334</ele><time>2026-04-19T09:59:23.946Z</time></trkpt><trkpt lat="42.8105583" lon="12.2120033"><ele>761.6666666666667</ele><time>2026-04-19T09:59:24.947Z</time></trkpt><trkpt lat="42.8107333" lon="12.2119533"><ele>763.0</ele><time>2026-04-19T09:59:25.947Z</time></trkpt><trkpt lat="42.8108933" lon="12.211915"><ele>761.6666666666667</ele><time>2026-04-19T09:59:26.947Z</time></trkpt><trkpt lat="42.8110617" lon="12.211915"><ele>760.3333333333334</ele><time>2026-04-19T09:59:27.946Z</time></trkpt><trkpt lat="42.81122" lon="12.2119417"><ele>759.0</ele><time>2026-04-19T09:59:28.946Z</time></trkpt><trkpt lat="42.8113483" lon="12.21204"><ele>759.0</ele><time>2026-04-19T09:59:29.946Z</time></trkpt><trkpt lat="42.8114733" lon="12.21217"><ele>759.0</ele><time>2026-04-19T09:59:30.946Z</time></trkpt><trkpt lat="42.8115933" lon="12.2123117"><ele>759.0</ele><time>2026-04-19T09:59:31.946Z</time></trkpt><trkpt lat="42.81169" lon="12.2124533"><ele>760.0</ele><time>2026-04-19T09:59:32.946Z</time></trkpt><trkpt lat="42.8117417" lon="12.2125967"><ele>761.0</ele><time>2026-04-19T09:59:33.946Z</time></trkpt><trkpt lat="42.8117817" lon="12.2127567"><ele>762.0</ele><time>2026-04-19T09:59:34.947Z</time></trkpt><trkpt lat="42.8117833" lon="12.2129133"><ele>763.0</ele><time>2026-04-19T09:59:35.946Z</time></trkpt><trkpt lat="42.8117617" lon="12.2130667"><ele>764.25</ele><time>2026-04-19T09:59:36.947Z</time></trkpt><trkpt lat="42.8117" lon="12.2132383"><ele>765.5</ele><time>2026-04-19T09:59:37.947Z</time></trkpt><trkpt lat="42.8116217" lon="12.2134117"><ele>766.75</ele><time>2026-04-19T09:59:38.947Z</time></trkpt><trkpt lat="42.8115533" lon="12.2135967"><ele>768.0</ele><time>2026-04-19T09:59:39.947Z</time></trkpt><trkpt lat="42.8115083" lon="12.2137667"><ele>768.0</ele><time>2026-04-19T09:59:40.947Z</time></trkpt><trkpt lat="42.8114917" lon="12.21393"><ele>768.0</ele><time>2026-04-19T09:59:41.947Z</time></trkpt><trkpt lat="42.8115117" lon="12.2141"><ele>768.0</ele><time>2026-04-19T09:59:42.946Z</time></trkpt><trkpt lat="42.8115583" lon="12.214285"><ele>768.0</ele><time>2026-04-19T09:59:43.947Z</time></trkpt><trkpt lat="42.811615" lon="12.2144933"><ele>769.0</ele><time>2026-04-19T09:59:44.946Z</time></trkpt><trkpt lat="42.8116783" lon="12.2147167"><ele>770.0</ele><time>2026-04-19T09:59:45.946Z</time></trkpt><trkpt lat="42.81173" lon="12.21495"><ele>771.0</ele><time>2026-04-19T09:59:46.946Z</time></trkpt><trkpt lat="42.811765" lon="12.2151717"><ele>771.0</ele><time>2026-04-19T09:59:47.946Z</time></trkpt><trkpt lat="42.8118083" lon="12.2153683"><ele>771.0</ele><time>2026-04-19T09:59:48.946Z</time></trkpt><trkpt lat="42.8118767" lon="12.21554"><ele>771.0</ele><time>2026-04-19T09:59:49.947Z</time></trkpt><trkpt lat="42.8119667" lon="12.2157017"><ele>771.0</ele><time>2026-04-19T09:59:50.946Z</time></trkpt><trkpt lat="42.8120867" lon="12.2158233"><ele>773.0</ele><time>2026-04-19T09:59:51.947Z</time></trkpt><trkpt lat="42.8122217" lon="12.2159267"><ele>775.0</ele><time>2026-04-19T09:59:52.946Z</time></trkpt><trkpt lat="42.8123783" lon="12.216"><ele>777.0</ele><time>2026-04-19T09:59:53.946Z</time></trkpt><trkpt lat="42.8125517" lon="12.2160383"><ele>776.6666666666667</ele><time>2026-04-19T09:59:54.946Z</time></trkpt><trkpt lat="42.8127317" lon="12.2160533"><ele>776.3333333333334</ele><time>2026-04-19T09:59:55.946Z</time></trkpt><trkpt lat="42.8128967" lon="12.2160467"><ele>776.0</ele><time>2026-04-19T09:59:56.947Z</time></trkpt><trkpt lat="42.8130517" lon="12.2160167"><ele>776.0</ele><time>2026-04-19T09:59:57.947Z</time></trkpt><trkpt lat="42.81319" lon="12.215965"><ele>776.0</ele><time>2026-04-19T09:59:58.947Z</time></trkpt><trkpt lat="42.813305" lon="12.21586"><ele>776.0</ele><time>2026-04-19T09:59:59.947Z</time></trkpt><trkpt lat="42.81341" lon="12.2157233"><ele>776.0</ele><time>2026-04-19T10:00:00.947Z</time></trkpt><trkpt lat="42.8135133" lon="12.2155567"><ele>775.0</ele><time>2026-04-19T10:00:01.946Z</time></trkpt><trkpt lat="42.8136083" lon="12.2153667"><ele>774.0</ele><time>2026-04-19T10:00:02.947Z</time></trkpt><trkpt lat="42.81368" lon="12.2151617"><ele>773.0</ele><time>2026-04-19T10:00:03.947Z</time></trkpt><trkpt lat="42.8137333" lon="12.2149533"><ele>776.3333333333334</ele><time>2026-04-19T10:00:04.947Z</time></trkpt><trkpt lat="42.8137717" lon="12.2147367"><ele>779.6666666666667</ele><time>2026-04-19T10:00:05.947Z</time></trkpt><trkpt lat="42.81379" lon="12.2145133"><ele>783.0</ele><time>2026-04-19T10:00:06.946Z</time></trkpt><trkpt lat="42.8138067" lon="12.2142733"><ele>783.0</ele><time>2026-04-19T10:00:07.947Z</time></trkpt><trkpt lat="42.81383" lon="12.214045"><ele>783.0</ele><time>2026-04-19T10:00:08.946Z</time></trkpt><trkpt lat="42.81386" lon="12.213845"><ele>783.0</ele><time>2026-04-19T10:00:09.947Z</time></trkpt><trkpt lat="42.8139117" lon="12.2136983"><ele>783.0</ele><time>2026-04-19T10:00:10.947Z</time></trkpt><trkpt lat="42.813985" lon="12.2135933"><ele>782.75</ele><time>2026-04-19T10:00:11.947Z</time></trkpt><trkpt lat="42.81408" lon="12.21353"><ele>782.5</ele><time>2026-04-19T10:00:12.946Z</time></trkpt><trkpt lat="42.8141967" lon="12.2135167"><ele>782.25</ele><time>2026-04-19T10:00:13.947Z</time></trkpt><trkpt lat="42.814325" lon="12.2135383"><ele>782.0</ele><time>2026-04-19T10:00:14.947Z</time></trkpt><trkpt lat="42.8144533" lon="12.2135567"><ele>782.0</ele><time>2026-04-19T10:00:15.946Z</time></trkpt><trkpt lat="42.81457" lon="12.21353"><ele>782.0</ele><time>2026-04-19T10:00:16.947Z</time></trkpt><trkpt lat="42.8146783" lon="12.2134667"><ele>782.0</ele><time>2026-04-19T10:00:17.947Z</time></trkpt><trkpt lat="42.8147733" lon="12.2133667"><ele>782.0</ele><time>2026-04-19T10:00:18.947Z</time></trkpt><trkpt lat="42.81486" lon="12.213235"><ele>784.3333333333334</ele><time>2026-04-19T10:00:19.946Z</time></trkpt><trkpt lat="42.8149533" lon="12.2130767"><ele>786.6666666666667</ele><time>2026-04-19T10:00:20.946Z</time></trkpt><trkpt lat="42.8150333" lon="12.2128983"><ele>789.0</ele><time>2026-04-19T10:00:21.947Z</time></trkpt><trkpt lat="42.815115" lon="12.212705"><ele>788.6666666666667</ele><time>2026-04-19T10:00:22.947Z</time></trkpt><trkpt lat="42.8151833" lon="12.2125067"><ele>788.3333333333334</ele><time>2026-04-19T10:00:23.947Z</time></trkpt><trkpt lat="42.8152483" lon="12.2123"><ele>788.0</ele><time>2026-04-19T10:00:24.946Z</time></trkpt><trkpt lat="42.815305" lon="12.2121067"><ele>788.0</ele><time>2026-04-19T10:00:25.947Z</time></trkpt><trkpt lat="42.8153733" lon="12.2119183"><ele>788.0</ele><time>2026-04-19T10:00:26.946Z</time></trkpt><trkpt lat="42.81544" lon="12.211735"><ele>788.0</ele><time>2026-04-19T10:00:27.947Z</time></trkpt><trkpt lat="42.8155333" lon="12.2115667"><ele>790.25</ele><time>2026-04-19T10:00:28.946Z</time></trkpt><trkpt lat="42.8156367" lon="12.2114167"><ele>792.5</ele><time>2026-04-19T10:00:29.947Z</time></trkpt><trkpt lat="42.8157333" lon="12.2112833"><ele>794.75</ele><time>2026-04-19T10:00:30.946Z</time></trkpt><trkpt lat="42.8158367" lon="12.2111783"><ele>797.0</ele><time>2026-04-19T10:00:31.946Z</time></trkpt><trkpt lat="42.8159283" lon="12.211105"><ele>798.0</ele><time>2026-04-19T10:00:32.947Z</time></trkpt><trkpt lat="42.816025" lon="12.2110833"><ele>799.0</ele><time>2026-04-19T10:00:33.947Z</time></trkpt><trkpt lat="42.816125" lon="12.2111067"><ele>800.0</ele><time>2026-04-19T10:00:34.946Z</time></trkpt><trkpt lat="42.8162433" lon="12.21117"><ele>801.0</ele><time>2026-04-19T10:00:35.947Z</time></trkpt><trkpt lat="42.816375" lon="12.2112517"><ele>801.0</ele><time>2026-04-19T10:00:36.946Z</time></trkpt><trkpt lat="42.816525" lon="12.2113417"><ele>801.0</ele><time>2026-04-19T10:00:37.946Z</time></trkpt><trkpt lat="42.8166867" lon="12.2114317"><ele>801.0</ele><time>2026-04-19T10:00:38.947Z</time></trkpt><trkpt lat="42.8168617" lon="12.2115183"><ele>801.0</ele><time>2026-04-19T10:00:39.947Z</time></trkpt><trkpt lat="42.8170367" lon="12.2116183"><ele>801.0</ele><time>2026-04-19T10:00:40.947Z</time></trkpt><trkpt lat="42.8171917" lon="12.2117083"><ele>801.0</ele><time>2026-04-19T10:00:41.947Z</time></trkpt><trkpt lat="42.817345" lon="12.2117883"><ele>801.0</ele><time>2026-04-19T10:00:42.946Z</time></trkpt><trkpt lat="42.81749" lon="12.21186"><ele>801.0</ele><time>2026-04-19T10:00:43.947Z</time></trkpt><trkpt lat="42.8176283" lon="12.2119283"><ele>801.0</ele><time>2026-04-19T10:00:44.947Z</time></trkpt><trkpt lat="42.8177483" lon="12.2119817"><ele>801.0</ele><time>2026-04-19T10:00:45.947Z</time></trkpt><trkpt lat="42.8178683" lon="12.212025"><ele>802.5</ele><time>2026-04-19T10:00:46.946Z</time></trkpt><trkpt lat="42.8179983" lon="12.2120617"><ele>804.0</ele><time>2026-04-19T10:00:47.947Z</time></trkpt><trkpt lat="42.8181317" lon="12.2120717"><ele>805.5</ele><time>2026-04-19T10:00:48.947Z</time></trkpt><trkpt lat="42.8182667" lon="12.2120533"><ele>807.0</ele><time>2026-04-19T10:00:49.946Z</time></trkpt><trkpt lat="42.818395" lon="12.2120067"><ele>804.5</ele><time>2026-04-19T10:00:50.947Z</time></trkpt><trkpt lat="42.8185117" lon="12.211935"><ele>802.0</ele><time>2026-04-19T10:00:51.947Z</time></trkpt><trkpt lat="42.8186183" lon="12.2118583"><ele>799.5</ele><time>2026-04-19T10:00:52.946Z</time></trkpt><trkpt lat="42.81872" lon="12.2117683"><ele>797.0</ele><time>2026-04-19T10:00:53.947Z</time></trkpt><trkpt lat="42.8188133" lon="12.2116833"><ele>797.0</ele><time>2026-04-19T10:00:54.946Z</time></trkpt><trkpt lat="42.8189183" lon="12.2116033"><ele>797.0</ele><time>2026-04-19T10:00:55.947Z</time></trkpt><trkpt lat="42.8190283" lon="12.2115283"><ele>797.0</ele><time>2026-04-19T10:00:56.946Z</time></trkpt><trkpt lat="42.81914" lon="12.211465"><ele>797.0</ele><time>2026-04-19T10:00:57.946Z</time></trkpt><trkpt lat="42.8192483" lon="12.21141"><ele>799.6</ele><time>2026-04-19T10:00:58.947Z</time></trkpt><trkpt lat="42.8193617" lon="12.2113667"><ele>802.2</ele><time>2026-04-19T10:00:59.947Z</time></trkpt><trkpt lat="42.8194783" lon="12.211335"><ele>804.8</ele><time>2026-04-19T10:01:00.946Z</time></trkpt><trkpt lat="42.8195883" lon="12.2113267"><ele>807.4</ele><time>2026-04-19T10:01:01.947Z</time></trkpt><trkpt lat="42.8196883" lon="12.2113467"><ele>810.0</ele><time>2026-04-19T10:01:02.947Z</time></trkpt><trkpt lat="42.8197833" lon="12.2113983"><ele>810.0</ele><time>2026-04-19T10:01:03.946Z</time></trkpt><trkpt lat="42.8198733" lon="12.2114633"><ele>810.0</ele><time>2026-04-19T10:01:04.947Z</time></trkpt><trkpt lat="42.8199483" lon="12.211535"><ele>810.0</ele><time>2026-04-19T10:01:05.947Z</time></trkpt><trkpt lat="42.820025" lon="12.2116117"><ele>810.0</ele><time>2026-04-19T10:01:06.946Z</time></trkpt><trkpt lat="42.8200917" lon="12.2116817"><ele>810.0</ele><time>2026-04-19T10:01:07.947Z</time></trkpt><trkpt lat="42.82015" lon="12.2117417"><ele>810.0</ele><time>2026-04-19T10:01:08.947Z</time></trkpt><trkpt lat="42.8202317" lon="12.2118367"><ele>810.0</ele><time>2026-04-19T10:01:10.947Z</time></trkpt><trkpt lat="42.8203033" lon="12.2118383"><ele>810.0</ele><time>2026-04-19T10:01:20.947Z</time></trkpt><trkpt lat="42.8202367" lon="12.2117617"><ele>810.0</ele><time>2026-04-19T10:01:22.947Z</time></trkpt><trkpt lat="42.820165" lon="12.211695"><ele>810.0</ele><time>2026-04-19T10:01:23.947Z</time></trkpt><trkpt lat="42.8200683" lon="12.2116067"><ele>810.0</ele><time>2026-04-19T10:01:24.946Z</time></trkpt><trkpt lat="42.819965" lon="12.2115183"><ele>810.0</ele><time>2026-04-19T10:01:25.946Z</time></trkpt><trkpt lat="42.819855" lon="12.2114383"><ele>810.0</ele><time>2026-04-19T10:01:26.946Z</time></trkpt><trkpt lat="42.8197433" lon="12.211375"><ele>810.0</ele><time>2026-04-19T10:01:27.947Z</time></trkpt><trkpt lat="42.81963" lon="12.2113283"><ele>810.0</ele><time>2026-04-19T10:01:28.947Z</time></trkpt><trkpt lat="42.8195067" lon="12.2113233"><ele>810.0</ele><time>2026-04-19T10:01:29.947Z</time></trkpt><trkpt lat="42.8193633" lon="12.2113533"><ele>810.0</ele><time>2026-04-19T10:01:30.947Z</time></trkpt><trkpt lat="42.81921" lon="12.2114117"><ele>810.0</ele><time>2026-04-19T10:01:31.947Z</time></trkpt><trkpt lat="42.8190467" lon="12.211505"><ele>805.6666666666667</ele><time>2026-04-19T10:01:32.947Z</time></trkpt><trkpt lat="42.8188867" lon="12.2116067"><ele>801.3333333333334</ele><time>2026-04-19T10:01:33.946Z</time></trkpt><trkpt lat="42.8187417" lon="12.2117183"><ele>797.0</ele><time>2026-04-19T10:01:34.947Z</time></trkpt><trkpt lat="42.81861" lon="12.211825"><ele>797.0</ele><time>2026-04-19T10:01:35.947Z</time></trkpt><trkpt lat="42.818485" lon="12.2119117"><ele>797.0</ele><time>2026-04-19T10:01:36.947Z</time></trkpt><trkpt lat="42.8183633" lon="12.211975"><ele>797.0</ele><time>2026-04-19T10:01:37.946Z</time></trkpt><trkpt lat="42.8182367" lon="12.2120133"><ele>797.0</ele><time>2026-04-19T10:01:38.946Z</time></trkpt><trkpt lat="42.8181133" lon="12.2120417"><ele>798.0</ele><time>2026-04-19T10:01:39.947Z</time></trkpt><trkpt lat="42.81798" lon="12.2120367"><ele>799.0</ele><time>2026-04-19T10:01:40.947Z</time></trkpt><trkpt lat="42.817855" lon="12.2120117"><ele>800.0</ele><time>2026-04-19T10:01:41.947Z</time></trkpt><trkpt lat="42.81774" lon="12.211965"><ele>801.0</ele><time>2026-04-19T10:01:42.947Z</time></trkpt><trkpt lat="42.8176367" lon="12.2119017"><ele>801.0</ele><time>2026-04-19T10:01:43.947Z</time></trkpt><trkpt lat="42.817535" lon="12.2118483"><ele>801.0</ele><time>2026-04-19T10:01:44.946Z</time></trkpt><trkpt lat="42.8174383" lon="12.2118067"><ele>801.0</ele><time>2026-04-19T10:01:45.946Z</time></trkpt><trkpt lat="42.817345" lon="12.2117617"><ele>801.0</ele><time>2026-04-19T10:01:46.946Z</time></trkpt><trkpt lat="42.817265" lon="12.2117233"><ele>801.0</ele><time>2026-04-19T10:01:47.947Z</time></trkpt><trkpt lat="42.8172" lon="12.2116767"><ele>801.0</ele><time>2026-04-19T10:01:48.947Z</time></trkpt><trkpt lat="42.8171283" lon="12.2115583"><ele>801.0</ele><time>2026-04-19T10:01:50.946Z</time></trkpt><trkpt lat="42.8171083" lon="12.211465"><ele>801.0</ele><time>2026-04-19T10:01:51.946Z</time></trkpt><trkpt lat="42.8170983" lon="12.2113467"><ele>801.0</ele><time>2026-04-19T10:01:52.946Z</time></trkpt><trkpt lat="42.8170867" lon="12.21122"><ele>801.0</ele><time>2026-04-19T10:01:53.947Z</time></trkpt><trkpt lat="42.8170717" lon="12.2110933"><ele>803.5</ele><time>2026-04-19T10:01:54.946Z</time></trkpt><trkpt lat="42.8170533" lon="12.21098"><ele>806.0</ele><time>2026-04-19T10:01:55.947Z</time></trkpt><trkpt lat="42.8170333" lon="12.2108867"><ele>808.5</ele><time>2026-04-19T10:01:56.947Z</time></trkpt><trkpt lat="42.8170117" lon="12.2108033"><ele>811.0</ele><time>2026-04-19T10:01:57.947Z</time></trkpt><trkpt lat="42.8169833" lon="12.2107117"><ele>813.5</ele><time>2026-04-19T10:01:58.946Z</time></trkpt><trkpt lat="42.8169583" lon="12.2106083"><ele>816.0</ele><time>2026-04-19T10:01:59.946Z</time></trkpt><trkpt lat="42.8169267" lon="12.2104983"><ele>818.5</ele><time>2026-04-19T10:02:00.947Z</time></trkpt><trkpt lat="42.8169067" lon="12.2104"><ele>821.0</ele><time>2026-04-19T10:02:01.947Z</time></trkpt><trkpt lat="42.8168933" lon="12.21031"><ele>823.5</ele><time>2026-04-19T10:02:02.947Z</time></trkpt><trkpt lat="42.81688" lon="12.210225"><ele>826.0</ele><time>2026-04-19T10:02:03.947Z</time></trkpt><trkpt lat="42.8168817" lon="12.21004"><ele>828.5</ele><time>2026-04-19T10:02:05.947Z</time></trkpt><trkpt lat="42.8169033" lon="12.20991"><ele>831.0</ele><time>2026-04-19T10:02:06.946Z</time></trkpt><trkpt lat="42.816935" lon="12.2097683"><ele>831.5</ele><time>2026-04-19T10:02:07.946Z</time></trkpt><trkpt lat="42.816975" lon="12.209635"><ele>832.0</ele><time>2026-04-19T10:02:08.947Z</time></trkpt><trkpt lat="42.8170117" lon="12.20953"><ele>832.5</ele><time>2026-04-19T10:02:09.947Z</time></trkpt><trkpt lat="42.817055" lon="12.2094467"><ele>833.0</ele><time>2026-04-19T10:02:10.946Z</time></trkpt><trkpt lat="42.8171083" lon="12.2093567"><ele>833.5</ele><time>2026-04-19T10:02:11.946Z</time></trkpt><trkpt lat="42.81717" lon="12.2092683"><ele>834.0</ele><time>2026-04-19T10:02:12.946Z</time></trkpt><trkpt lat="42.81725" lon="12.2091867"><ele>834.0</ele><time>2026-04-19T10:02:13.947Z</time></trkpt><trkpt lat="42.81734" lon="12.2090933"><ele>834.0</ele><time>2026-04-19T10:02:14.946Z</time></trkpt><trkpt lat="42.8174333" lon="12.2090033"><ele>834.0</ele><time>2026-04-19T10:02:15.946Z</time></trkpt><trkpt lat="42.8175233" lon="12.208915"><ele>834.0</ele><time>2026-04-19T10:02:16.947Z</time></trkpt><trkpt lat="42.81761" lon="12.208825"><ele>834.0</ele><time>2026-04-19T10:02:17.946Z</time></trkpt><trkpt lat="42.8177017" lon="12.2087367"><ele>831.8000000000001</ele><time>2026-04-19T10:02:18.947Z</time></trkpt><trkpt lat="42.81779" lon="12.2086517"><ele>829.6</ele><time>2026-04-19T10:02:19.946Z</time></trkpt><trkpt lat="42.81787" lon="12.2085633"><ele>827.4</ele><time>2026-04-19T10:02:20.947Z</time></trkpt><trkpt lat="42.8179483" lon="12.208485"><ele>825.2</ele><time>2026-04-19T10:02:21.947Z</time></trkpt><trkpt lat="42.81802" lon="12.2084117"><ele>823.0</ele><time>2026-04-19T10:02:22.947Z</time></trkpt><trkpt lat="42.8180883" lon="12.2083483"><ele>823.0</ele><time>2026-04-19T10:02:23.946Z</time></trkpt><trkpt lat="42.8181517" lon="12.2083083"><ele>823.0</ele><time>2026-04-19T10:02:24.945Z</time></trkpt><trkpt lat="42.8182183" lon="12.2082867"><ele>823.0</ele><time>2026-04-19T10:02:25.945Z</time></trkpt><trkpt lat="42.81829" lon="12.2082917"><ele>823.0</ele><time>2026-04-19T10:02:26.946Z</time></trkpt><trkpt lat="42.8183517" lon="12.2083133"><ele>823.0</ele><time>2026-04-19T10:02:27.946Z</time></trkpt><trkpt lat="42.81842" lon="12.2083633"><ele>823.0</ele><time>2026-04-19T10:02:28.946Z</time></trkpt><trkpt lat="42.81849" lon="12.2084317"><ele>823.0</ele><time>2026-04-19T10:02:29.946Z</time></trkpt><trkpt lat="42.8185383" lon="12.20852"><ele>819.5999999999999</ele><time>2026-04-19T10:02:30.946Z</time></trkpt><trkpt lat="42.818585" lon="12.208615"><ele>816.1999999999999</ele><time>2026-04-19T10:02:31.945Z</time></trkpt><trkpt lat="42.8186217" lon="12.2087217"><ele>812.8</ele><time>2026-04-19T10:02:32.945Z</time></trkpt><trkpt lat="42.81864" lon="12.2088483"><ele>809.4</ele><time>2026-04-19T10:02:33.945Z</time></trkpt><trkpt lat="42.818655" lon="12.2089983"><ele>806.0</ele><time>2026-04-19T10:02:34.946Z</time></trkpt><trkpt lat="42.8186567" lon="12.2091433"><ele>806.0</ele><time>2026-04-19T10:02:35.946Z</time></trkpt><trkpt lat="42.8186517" lon="12.20927"><ele>806.0</ele><time>2026-04-19T10:02:36.946Z</time></trkpt><trkpt lat="42.8186567" lon="12.2093767"><ele>806.0</ele><time>2026-04-19T10:02:37.945Z</time></trkpt><trkpt lat="42.8186517" lon="12.209465"><ele>806.0</ele><time>2026-04-19T10:02:38.945Z</time></trkpt><trkpt lat="42.8186583" lon="12.2095733"><ele>806.0</ele><time>2026-04-19T10:02:40.945Z</time></trkpt></trkseg></trk></gpx>